<?xml version="1.0" encoding="UTF-8" standalone="no" ?>
<gpx xmlns="http://www.topografix.com/GPX/1/1" xmlns:xsi="http://www.w3.org/2001/XMLSchema-instance" xsi:schemaLocation="http://www.topografix.com/GPX/1/1 http://www.topografix.com/GPX/1/1/gpx.xsd" version="1.1" creator="VisuGPX - https://www.visugpx.com">
  <metadata>
    <name>La Roche-Bernard 25072021</name>
    <desc><![CDATA[Sortie VTT dimanche 25 juillet 2021]]></desc>
  </metadata>
  <trk>
    <name><![CDATA[La Roche-Bernard Cyclisme]]></name>
    <trkseg>
      <trkpt lat="47.51736" lon="-2.30289">
        <ele>4.1</ele>
        <time>2021-07-25T06:18:42.000Z</time>
      </trkpt>
      <trkpt lat="47.5174" lon="-2.3031">
        <ele>3.5</ele>
        <time>2021-07-25T06:18:46.000Z</time>
      </trkpt>
      <trkpt lat="47.51741" lon="-2.30316">
        <ele>0.20000000298023</ele>
        <time>2021-07-25T06:18:47.000Z</time>
      </trkpt>
      <trkpt lat="47.51749" lon="-2.30343">
        <ele>0.20000000298023</ele>
        <time>2021-07-25T06:18:53.000Z</time>
      </trkpt>
      <trkpt lat="47.51751" lon="-2.30344">
        <ele>0.20000000298023</ele>
        <time>2021-07-25T06:18:54.000Z</time>
      </trkpt>
      <trkpt lat="47.51756" lon="-2.30344">
        <ele>0.20000000298023</ele>
        <time>2021-07-25T06:18:56.000Z</time>
      </trkpt>
      <trkpt lat="47.51759" lon="-2.30343">
        <ele>0.20000000298023</ele>
        <time>2021-07-25T06:18:57.000Z</time>
      </trkpt>
      <trkpt lat="47.51766" lon="-2.30346">
        <ele>0.20000000298023</ele>
        <time>2021-07-25T06:18:59.000Z</time>
      </trkpt>
      <trkpt lat="47.51768" lon="-2.30354">
        <ele>0.20000000298023</ele>
        <time>2021-07-25T06:19:01.000Z</time>
      </trkpt>
      <trkpt lat="47.51774" lon="-2.30387">
        <ele>0.20000000298023</ele>
        <time>2021-07-25T06:19:07.000Z</time>
      </trkpt>
      <trkpt lat="47.51782" lon="-2.30429">
        <ele>0.20000000298023</ele>
        <time>2021-07-25T06:19:14.000Z</time>
      </trkpt>
      <trkpt lat="47.51783" lon="-2.30435">
        <ele>0.20000000298023</ele>
        <time>2021-07-25T06:19:15.000Z</time>
      </trkpt>
      <trkpt lat="47.51791" lon="-2.30482">
        <ele>0.20000000298023</ele>
        <time>2021-07-25T06:19:22.000Z</time>
      </trkpt>
      <trkpt lat="47.51797" lon="-2.30512">
        <ele>0.20000000298023</ele>
        <time>2021-07-25T06:19:27.000Z</time>
      </trkpt>
      <trkpt lat="47.51801" lon="-2.30522">
        <ele>0.20000000298023</ele>
        <time>2021-07-25T06:19:29.000Z</time>
      </trkpt>
      <trkpt lat="47.51803" lon="-2.30527">
        <ele>0.20000000298023</ele>
        <time>2021-07-25T06:19:30.000Z</time>
      </trkpt>
      <trkpt lat="47.5181" lon="-2.30556">
        <ele>0.20000000298023</ele>
        <time>2021-07-25T06:19:35.000Z</time>
      </trkpt>
      <trkpt lat="47.51814" lon="-2.30581">
        <ele>0.20000000298023</ele>
        <time>2021-07-25T06:19:39.000Z</time>
      </trkpt>
      <trkpt lat="47.51813" lon="-2.30593">
        <ele>0.20000000298023</ele>
        <time>2021-07-25T06:19:41.000Z</time>
      </trkpt>
      <trkpt lat="47.51814" lon="-2.30599">
        <ele>0.20000000298023</ele>
        <time>2021-07-25T06:19:42.000Z</time>
      </trkpt>
      <trkpt lat="47.51817" lon="-2.30622">
        <ele>0.20000000298023</ele>
        <time>2021-07-25T06:19:46.000Z</time>
      </trkpt>
      <trkpt lat="47.51819" lon="-2.30632">
        <ele>0.20000000298023</ele>
        <time>2021-07-25T06:19:48.000Z</time>
      </trkpt>
      <trkpt lat="47.51823" lon="-2.30638">
        <ele>0.20000000298023</ele>
        <time>2021-07-25T06:19:50.000Z</time>
      </trkpt>
      <trkpt lat="47.51825" lon="-2.30637">
        <ele>0.20000000298023</ele>
        <time>2021-07-25T06:19:51.000Z</time>
      </trkpt>
      <trkpt lat="47.51826" lon="-2.30625">
        <ele>0.20000000298023</ele>
        <time>2021-07-25T06:19:54.000Z</time>
      </trkpt>
      <trkpt lat="47.51826" lon="-2.30622">
        <ele>0.20000000298023</ele>
        <time>2021-07-25T06:19:55.000Z</time>
      </trkpt>
      <trkpt lat="47.51824" lon="-2.30604">
        <ele>0.60000002384186</ele>
        <time>2021-07-25T06:20:00.000Z</time>
      </trkpt>
      <trkpt lat="47.51824" lon="-2.306">
        <ele>1</ele>
        <time>2021-07-25T06:20:01.000Z</time>
      </trkpt>
      <trkpt lat="47.51824" lon="-2.30597">
        <ele>1.6000000238419</ele>
        <time>2021-07-25T06:20:02.000Z</time>
      </trkpt>
      <trkpt lat="47.51825" lon="-2.30594">
        <ele>2</ele>
        <time>2021-07-25T06:20:03.000Z</time>
      </trkpt>
      <trkpt lat="47.51824" lon="-2.30591">
        <ele>2.4000000953674</ele>
        <time>2021-07-25T06:20:04.000Z</time>
      </trkpt>
      <trkpt lat="47.51824" lon="-2.30582">
        <ele>2.7999999523163</ele>
        <time>2021-07-25T06:20:07.000Z</time>
      </trkpt>
      <trkpt lat="47.51824" lon="-2.30579">
        <ele>3.4000000953674</ele>
        <time>2021-07-25T06:20:08.000Z</time>
      </trkpt>
      <trkpt lat="47.51823" lon="-2.30577">
        <ele>3.7999999523163</ele>
        <time>2021-07-25T06:20:09.000Z</time>
      </trkpt>
      <trkpt lat="47.51824" lon="-2.30574">
        <ele>4.1999998092651</ele>
        <time>2021-07-25T06:20:10.000Z</time>
      </trkpt>
      <trkpt lat="47.51823" lon="-2.30572">
        <ele>4.5999999046326</ele>
        <time>2021-07-25T06:20:11.000Z</time>
      </trkpt>
      <trkpt lat="47.51824" lon="-2.30566">
        <ele>4.5999999046326</ele>
        <time>2021-07-25T06:20:14.000Z</time>
      </trkpt>
      <trkpt lat="47.51824" lon="-2.30563">
        <ele>5</ele>
        <time>2021-07-25T06:20:15.000Z</time>
      </trkpt>
      <trkpt lat="47.51824" lon="-2.30561">
        <ele>5.5999999046326</ele>
        <time>2021-07-25T06:20:16.000Z</time>
      </trkpt>
      <trkpt lat="47.51824" lon="-2.3056">
        <ele>6</ele>
        <time>2021-07-25T06:20:17.000Z</time>
      </trkpt>
      <trkpt lat="47.51824" lon="-2.30558">
        <ele>6.4000000953674</ele>
        <time>2021-07-25T06:20:18.000Z</time>
      </trkpt>
      <trkpt lat="47.51823" lon="-2.30556">
        <ele>6.8000001907349</ele>
        <time>2021-07-25T06:20:19.000Z</time>
      </trkpt>
      <trkpt lat="47.51824" lon="-2.30551">
        <ele>6.8000001907349</ele>
        <time>2021-07-25T06:20:21.000Z</time>
      </trkpt>
      <trkpt lat="47.51827" lon="-2.3055">
        <ele>6.8000001907349</ele>
        <time>2021-07-25T06:20:24.000Z</time>
      </trkpt>
      <trkpt lat="47.51828" lon="-2.30559">
        <ele>7.1999998092651</ele>
        <time>2021-07-25T06:20:27.000Z</time>
      </trkpt>
      <trkpt lat="47.51829" lon="-2.30562">
        <ele>8.1999998092651</ele>
        <time>2021-07-25T06:20:28.000Z</time>
      </trkpt>
      <trkpt lat="47.51829" lon="-2.30564">
        <ele>8.6000003814697</ele>
        <time>2021-07-25T06:20:29.000Z</time>
      </trkpt>
      <trkpt lat="47.51829" lon="-2.30567">
        <ele>9</ele>
        <time>2021-07-25T06:20:30.000Z</time>
      </trkpt>
      <trkpt lat="47.51829" lon="-2.30576">
        <ele>9.3999996185303</ele>
        <time>2021-07-25T06:20:35.000Z</time>
      </trkpt>
      <trkpt lat="47.51829" lon="-2.30578">
        <ele>9.8000001907349</ele>
        <time>2021-07-25T06:20:36.000Z</time>
      </trkpt>
      <trkpt lat="47.5183" lon="-2.30579">
        <ele>10.199999809265</ele>
        <time>2021-07-25T06:20:37.000Z</time>
      </trkpt>
      <trkpt lat="47.5183" lon="-2.30579">
        <ele>10.800000190735</ele>
        <time>2021-07-25T06:20:38.000Z</time>
      </trkpt>
      <trkpt lat="47.5183" lon="-2.3058">
        <ele>11.199999809265</ele>
        <time>2021-07-25T06:20:39.000Z</time>
      </trkpt>
      <trkpt lat="47.5183" lon="-2.30579">
        <ele>11.199999809265</ele>
        <time>2021-07-25T06:20:40.000Z</time>
      </trkpt>
      <trkpt lat="47.5183" lon="-2.30576">
        <ele>11.199999809265</ele>
        <time>2021-07-25T06:20:41.000Z</time>
      </trkpt>
      <trkpt lat="47.51831" lon="-2.30563">
        <ele>11.199999809265</ele>
        <time>2021-07-25T06:20:45.000Z</time>
      </trkpt>
      <trkpt lat="47.51831" lon="-2.30561">
        <ele>11.199999809265</ele>
        <time>2021-07-25T06:20:46.000Z</time>
      </trkpt>
      <trkpt lat="47.51831" lon="-2.30556">
        <ele>11.60000038147</ele>
        <time>2021-07-25T06:20:48.000Z</time>
      </trkpt>
      <trkpt lat="47.5183" lon="-2.30554">
        <ele>12</ele>
        <time>2021-07-25T06:20:49.000Z</time>
      </trkpt>
      <trkpt lat="47.5183" lon="-2.30551">
        <ele>12.39999961853</ele>
        <time>2021-07-25T06:20:50.000Z</time>
      </trkpt>
      <trkpt lat="47.5183" lon="-2.30549">
        <ele>12.800000190735</ele>
        <time>2021-07-25T06:20:51.000Z</time>
      </trkpt>
      <trkpt lat="47.51831" lon="-2.30547">
        <ele>13.199999809265</ele>
        <time>2021-07-25T06:20:52.000Z</time>
      </trkpt>
      <trkpt lat="47.51834" lon="-2.30532">
        <ele>13.199999809265</ele>
        <time>2021-07-25T06:20:57.000Z</time>
      </trkpt>
      <trkpt lat="47.51841" lon="-2.30509">
        <ele>13.199999809265</ele>
        <time>2021-07-25T06:21:03.000Z</time>
      </trkpt>
      <trkpt lat="47.51842" lon="-2.30497">
        <ele>13.60000038147</ele>
        <time>2021-07-25T06:21:06.000Z</time>
      </trkpt>
      <trkpt lat="47.51843" lon="-2.30493">
        <ele>14</ele>
        <time>2021-07-25T06:21:07.000Z</time>
      </trkpt>
      <trkpt lat="47.51843" lon="-2.30489">
        <ele>14.39999961853</ele>
        <time>2021-07-25T06:21:08.000Z</time>
      </trkpt>
      <trkpt lat="47.51843" lon="-2.30486">
        <ele>14.800000190735</ele>
        <time>2021-07-25T06:21:09.000Z</time>
      </trkpt>
      <trkpt lat="47.51843" lon="-2.30482">
        <ele>15.199999809265</ele>
        <time>2021-07-25T06:21:10.000Z</time>
      </trkpt>
      <trkpt lat="47.51846" lon="-2.30454">
        <ele>15.199999809265</ele>
        <time>2021-07-25T06:21:17.000Z</time>
      </trkpt>
      <trkpt lat="47.51846" lon="-2.3045">
        <ele>15.60000038147</ele>
        <time>2021-07-25T06:21:18.000Z</time>
      </trkpt>
      <trkpt lat="47.51846" lon="-2.30445">
        <ele>16</ele>
        <time>2021-07-25T06:21:19.000Z</time>
      </trkpt>
      <trkpt lat="47.51847" lon="-2.30441">
        <ele>16.39999961853</ele>
        <time>2021-07-25T06:21:20.000Z</time>
      </trkpt>
      <trkpt lat="47.51847" lon="-2.30437">
        <ele>16.799999237061</ele>
        <time>2021-07-25T06:21:21.000Z</time>
      </trkpt>
      <trkpt lat="47.51847" lon="-2.30433">
        <ele>17.200000762939</ele>
        <time>2021-07-25T06:21:22.000Z</time>
      </trkpt>
      <trkpt lat="47.51848" lon="-2.30421">
        <ele>17.200000762939</ele>
        <time>2021-07-25T06:21:25.000Z</time>
      </trkpt>
      <trkpt lat="47.51847" lon="-2.30406">
        <ele>17.60000038147</ele>
        <time>2021-07-25T06:21:29.000Z</time>
      </trkpt>
      <trkpt lat="47.51849" lon="-2.30403">
        <ele>18</ele>
        <time>2021-07-25T06:21:30.000Z</time>
      </trkpt>
      <trkpt lat="47.51851" lon="-2.30399">
        <ele>18.39999961853</ele>
        <time>2021-07-25T06:21:31.000Z</time>
      </trkpt>
      <trkpt lat="47.51852" lon="-2.30396">
        <ele>19</ele>
        <time>2021-07-25T06:21:32.000Z</time>
      </trkpt>
      <trkpt lat="47.51853" lon="-2.30392">
        <ele>19.39999961853</ele>
        <time>2021-07-25T06:21:33.000Z</time>
      </trkpt>
      <trkpt lat="47.51857" lon="-2.30379">
        <ele>19.39999961853</ele>
        <time>2021-07-25T06:21:37.000Z</time>
      </trkpt>
      <trkpt lat="47.5186" lon="-2.30374">
        <ele>19.39999961853</ele>
        <time>2021-07-25T06:21:39.000Z</time>
      </trkpt>
      <trkpt lat="47.51863" lon="-2.30372">
        <ele>19.39999961853</ele>
        <time>2021-07-25T06:21:41.000Z</time>
      </trkpt>
      <trkpt lat="47.51867" lon="-2.30372">
        <ele>19.39999961853</ele>
        <time>2021-07-25T06:21:43.000Z</time>
      </trkpt>
      <trkpt lat="47.51882" lon="-2.3037">
        <ele>19.39999961853</ele>
        <time>2021-07-25T06:21:48.000Z</time>
      </trkpt>
      <trkpt lat="47.51899" lon="-2.30367">
        <ele>19.39999961853</ele>
        <time>2021-07-25T06:21:54.000Z</time>
      </trkpt>
      <trkpt lat="47.519" lon="-2.30369">
        <ele>19.39999961853</ele>
        <time>2021-07-25T06:21:55.000Z</time>
      </trkpt>
      <trkpt lat="47.51902" lon="-2.3038">
        <ele>19.39999961853</ele>
        <time>2021-07-25T06:21:58.000Z</time>
      </trkpt>
      <trkpt lat="47.51905" lon="-2.3039">
        <ele>19.39999961853</ele>
        <time>2021-07-25T06:22:01.000Z</time>
      </trkpt>
      <trkpt lat="47.51909" lon="-2.30396">
        <ele>19.39999961853</ele>
        <time>2021-07-25T06:22:04.000Z</time>
      </trkpt>
      <trkpt lat="47.51914" lon="-2.30414">
        <ele>19.39999961853</ele>
        <time>2021-07-25T06:22:09.000Z</time>
      </trkpt>
      <trkpt lat="47.51915" lon="-2.30417">
        <ele>18.799999237061</ele>
        <time>2021-07-25T06:22:10.000Z</time>
      </trkpt>
      <trkpt lat="47.51915" lon="-2.3042">
        <ele>18.39999961853</ele>
        <time>2021-07-25T06:22:11.000Z</time>
      </trkpt>
      <trkpt lat="47.51916" lon="-2.30422">
        <ele>18</ele>
        <time>2021-07-25T06:22:12.000Z</time>
      </trkpt>
      <trkpt lat="47.51919" lon="-2.30422">
        <ele>17.60000038147</ele>
        <time>2021-07-25T06:22:13.000Z</time>
      </trkpt>
      <trkpt lat="47.51922" lon="-2.30422">
        <ele>17</ele>
        <time>2021-07-25T06:22:14.000Z</time>
      </trkpt>
      <trkpt lat="47.51926" lon="-2.30421">
        <ele>16.60000038147</ele>
        <time>2021-07-25T06:22:15.000Z</time>
      </trkpt>
      <trkpt lat="47.51929" lon="-2.30422">
        <ele>16.200000762939</ele>
        <time>2021-07-25T06:22:16.000Z</time>
      </trkpt>
      <trkpt lat="47.51933" lon="-2.30421">
        <ele>15.60000038147</ele>
        <time>2021-07-25T06:22:17.000Z</time>
      </trkpt>
      <trkpt lat="47.51935" lon="-2.3042">
        <ele>15</ele>
        <time>2021-07-25T06:22:18.000Z</time>
      </trkpt>
      <trkpt lat="47.51938" lon="-2.3042">
        <ele>14.199999809265</ele>
        <time>2021-07-25T06:22:19.000Z</time>
      </trkpt>
      <trkpt lat="47.5194" lon="-2.30419">
        <ele>13.60000038147</ele>
        <time>2021-07-25T06:22:20.000Z</time>
      </trkpt>
      <trkpt lat="47.51941" lon="-2.30419">
        <ele>13</ele>
        <time>2021-07-25T06:22:21.000Z</time>
      </trkpt>
      <trkpt lat="47.51943" lon="-2.30421">
        <ele>12.39999961853</ele>
        <time>2021-07-25T06:22:22.000Z</time>
      </trkpt>
      <trkpt lat="47.51945" lon="-2.30423">
        <ele>11.800000190735</ele>
        <time>2021-07-25T06:22:23.000Z</time>
      </trkpt>
      <trkpt lat="47.51947" lon="-2.30427">
        <ele>11</ele>
        <time>2021-07-25T06:22:24.000Z</time>
      </trkpt>
      <trkpt lat="47.51948" lon="-2.30431">
        <ele>10.39999961853</ele>
        <time>2021-07-25T06:22:25.000Z</time>
      </trkpt>
      <trkpt lat="47.51949" lon="-2.30436">
        <ele>9.8000001907349</ele>
        <time>2021-07-25T06:22:26.000Z</time>
      </trkpt>
      <trkpt lat="47.51949" lon="-2.30441">
        <ele>9.1999998092651</ele>
        <time>2021-07-25T06:22:27.000Z</time>
      </trkpt>
      <trkpt lat="47.5195" lon="-2.30446">
        <ele>8.8000001907349</ele>
        <time>2021-07-25T06:22:28.000Z</time>
      </trkpt>
      <trkpt lat="47.51951" lon="-2.30452">
        <ele>8.1999998092651</ele>
        <time>2021-07-25T06:22:29.000Z</time>
      </trkpt>
      <trkpt lat="47.51952" lon="-2.30458">
        <ele>7.5999999046326</ele>
        <time>2021-07-25T06:22:30.000Z</time>
      </trkpt>
      <trkpt lat="47.51953" lon="-2.30463">
        <ele>7</ele>
        <time>2021-07-25T06:22:31.000Z</time>
      </trkpt>
      <trkpt lat="47.51955" lon="-2.30466">
        <ele>6</ele>
        <time>2021-07-25T06:22:32.000Z</time>
      </trkpt>
      <trkpt lat="47.51956" lon="-2.30468">
        <ele>5.5999999046326</ele>
        <time>2021-07-25T06:22:33.000Z</time>
      </trkpt>
      <trkpt lat="47.51958" lon="-2.30469">
        <ele>5</ele>
        <time>2021-07-25T06:22:34.000Z</time>
      </trkpt>
      <trkpt lat="47.5196" lon="-2.30469">
        <ele>4.5999999046326</ele>
        <time>2021-07-25T06:22:35.000Z</time>
      </trkpt>
      <trkpt lat="47.51963" lon="-2.30467">
        <ele>4</ele>
        <time>2021-07-25T06:22:36.000Z</time>
      </trkpt>
      <trkpt lat="47.51966" lon="-2.30463">
        <ele>3.4000000953674</ele>
        <time>2021-07-25T06:22:37.000Z</time>
      </trkpt>
      <trkpt lat="47.51969" lon="-2.30459">
        <ele>3</ele>
        <time>2021-07-25T06:22:38.000Z</time>
      </trkpt>
      <trkpt lat="47.51977" lon="-2.30445">
        <ele>3</ele>
        <time>2021-07-25T06:22:41.000Z</time>
      </trkpt>
      <trkpt lat="47.5198" lon="-2.3044">
        <ele>3</ele>
        <time>2021-07-25T06:22:42.000Z</time>
      </trkpt>
      <trkpt lat="47.51983" lon="-2.30435">
        <ele>3</ele>
        <time>2021-07-25T06:22:43.000Z</time>
      </trkpt>
      <trkpt lat="47.51989" lon="-2.30417">
        <ele>3</ele>
        <time>2021-07-25T06:22:46.000Z</time>
      </trkpt>
      <trkpt lat="47.5199" lon="-2.3041">
        <ele>3</ele>
        <time>2021-07-25T06:22:47.000Z</time>
      </trkpt>
      <trkpt lat="47.51986" lon="-2.30394">
        <ele>3</ele>
        <time>2021-07-25T06:22:50.000Z</time>
      </trkpt>
      <trkpt lat="47.51984" lon="-2.30389">
        <ele>3</ele>
        <time>2021-07-25T06:22:51.000Z</time>
      </trkpt>
      <trkpt lat="47.51977" lon="-2.30367">
        <ele>3</ele>
        <time>2021-07-25T06:22:56.000Z</time>
      </trkpt>
      <trkpt lat="47.51972" lon="-2.30335">
        <ele>3</ele>
        <time>2021-07-25T06:23:02.000Z</time>
      </trkpt>
      <trkpt lat="47.51971" lon="-2.30322">
        <ele>3</ele>
        <time>2021-07-25T06:23:04.000Z</time>
      </trkpt>
      <trkpt lat="47.51972" lon="-2.30305">
        <ele>3</ele>
        <time>2021-07-25T06:23:07.000Z</time>
      </trkpt>
      <trkpt lat="47.51978" lon="-2.30282">
        <ele>3</ele>
        <time>2021-07-25T06:23:12.000Z</time>
      </trkpt>
      <trkpt lat="47.51979" lon="-2.30271">
        <ele>3</ele>
        <time>2021-07-25T06:23:15.000Z</time>
      </trkpt>
      <trkpt lat="47.51976" lon="-2.30264">
        <ele>3</ele>
        <time>2021-07-25T06:23:17.000Z</time>
      </trkpt>
      <trkpt lat="47.5198" lon="-2.30254">
        <ele>3</ele>
        <time>2021-07-25T06:23:21.000Z</time>
      </trkpt>
      <trkpt lat="47.51981" lon="-2.30252">
        <ele>3.4000000953674</ele>
        <time>2021-07-25T06:23:22.000Z</time>
      </trkpt>
      <trkpt lat="47.51983" lon="-2.3025">
        <ele>3.7999999523163</ele>
        <time>2021-07-25T06:23:23.000Z</time>
      </trkpt>
      <trkpt lat="47.51983" lon="-2.30248">
        <ele>4.1999998092651</ele>
        <time>2021-07-25T06:23:24.000Z</time>
      </trkpt>
      <trkpt lat="47.51984" lon="-2.30247">
        <ele>4.5999999046326</ele>
        <time>2021-07-25T06:23:25.000Z</time>
      </trkpt>
      <trkpt lat="47.51985" lon="-2.30245">
        <ele>5</ele>
        <time>2021-07-25T06:23:26.000Z</time>
      </trkpt>
      <trkpt lat="47.51987" lon="-2.3024">
        <ele>5.5999999046326</ele>
        <time>2021-07-25T06:23:31.000Z</time>
      </trkpt>
      <trkpt lat="47.51987" lon="-2.30239">
        <ele>7.1999998092651</ele>
        <time>2021-07-25T06:23:53.000Z</time>
      </trkpt>
      <trkpt lat="47.51982" lon="-2.30237">
        <ele>7.1999998092651</ele>
        <time>2021-07-25T06:23:56.000Z</time>
      </trkpt>
      <trkpt lat="47.5198" lon="-2.30236">
        <ele>7.1999998092651</ele>
        <time>2021-07-25T06:23:57.000Z</time>
      </trkpt>
      <trkpt lat="47.51968" lon="-2.30228">
        <ele>7.1999998092651</ele>
        <time>2021-07-25T06:24:03.000Z</time>
      </trkpt>
      <trkpt lat="47.51955" lon="-2.30217">
        <ele>7.5999999046326</ele>
        <time>2021-07-25T06:24:09.000Z</time>
      </trkpt>
      <trkpt lat="47.51954" lon="-2.30216">
        <ele>8</ele>
        <time>2021-07-25T06:24:10.000Z</time>
      </trkpt>
      <trkpt lat="47.51952" lon="-2.30214">
        <ele>9</ele>
        <time>2021-07-25T06:24:11.000Z</time>
      </trkpt>
      <trkpt lat="47.5195" lon="-2.30213">
        <ele>9.3999996185303</ele>
        <time>2021-07-25T06:24:12.000Z</time>
      </trkpt>
      <trkpt lat="47.51949" lon="-2.30212">
        <ele>9.8000001907349</ele>
        <time>2021-07-25T06:24:13.000Z</time>
      </trkpt>
      <trkpt lat="47.51947" lon="-2.3021">
        <ele>10.199999809265</ele>
        <time>2021-07-25T06:24:14.000Z</time>
      </trkpt>
      <trkpt lat="47.51945" lon="-2.30209">
        <ele>10.800000190735</ele>
        <time>2021-07-25T06:24:15.000Z</time>
      </trkpt>
      <trkpt lat="47.51943" lon="-2.30208">
        <ele>11.199999809265</ele>
        <time>2021-07-25T06:24:16.000Z</time>
      </trkpt>
      <trkpt lat="47.51941" lon="-2.30207">
        <ele>11.60000038147</ele>
        <time>2021-07-25T06:24:17.000Z</time>
      </trkpt>
      <trkpt lat="47.51938" lon="-2.30204">
        <ele>12</ele>
        <time>2021-07-25T06:24:19.000Z</time>
      </trkpt>
      <trkpt lat="47.51936" lon="-2.30203">
        <ele>12.39999961853</ele>
        <time>2021-07-25T06:24:20.000Z</time>
      </trkpt>
      <trkpt lat="47.51934" lon="-2.30201">
        <ele>13</ele>
        <time>2021-07-25T06:24:21.000Z</time>
      </trkpt>
      <trkpt lat="47.51933" lon="-2.302">
        <ele>13.39999961853</ele>
        <time>2021-07-25T06:24:22.000Z</time>
      </trkpt>
      <trkpt lat="47.51931" lon="-2.30199">
        <ele>13.800000190735</ele>
        <time>2021-07-25T06:24:23.000Z</time>
      </trkpt>
      <trkpt lat="47.51928" lon="-2.30196">
        <ele>14.199999809265</ele>
        <time>2021-07-25T06:24:25.000Z</time>
      </trkpt>
      <trkpt lat="47.51926" lon="-2.30194">
        <ele>14.60000038147</ele>
        <time>2021-07-25T06:24:26.000Z</time>
      </trkpt>
      <trkpt lat="47.51925" lon="-2.30192">
        <ele>15</ele>
        <time>2021-07-25T06:24:27.000Z</time>
      </trkpt>
      <trkpt lat="47.51923" lon="-2.3019">
        <ele>15.60000038147</ele>
        <time>2021-07-25T06:24:28.000Z</time>
      </trkpt>
      <trkpt lat="47.51921" lon="-2.30187">
        <ele>16</ele>
        <time>2021-07-25T06:24:29.000Z</time>
      </trkpt>
      <trkpt lat="47.51917" lon="-2.30184">
        <ele>16.39999961853</ele>
        <time>2021-07-25T06:24:31.000Z</time>
      </trkpt>
      <trkpt lat="47.51916" lon="-2.30182">
        <ele>16.799999237061</ele>
        <time>2021-07-25T06:24:32.000Z</time>
      </trkpt>
      <trkpt lat="47.51914" lon="-2.30181">
        <ele>17.200000762939</ele>
        <time>2021-07-25T06:24:33.000Z</time>
      </trkpt>
      <trkpt lat="47.51913" lon="-2.30179">
        <ele>17.799999237061</ele>
        <time>2021-07-25T06:24:34.000Z</time>
      </trkpt>
      <trkpt lat="47.51912" lon="-2.30177">
        <ele>18.200000762939</ele>
        <time>2021-07-25T06:24:35.000Z</time>
      </trkpt>
      <trkpt lat="47.51904" lon="-2.3017">
        <ele>18.200000762939</ele>
        <time>2021-07-25T06:24:40.000Z</time>
      </trkpt>
      <trkpt lat="47.51901" lon="-2.30168">
        <ele>18.200000762939</ele>
        <time>2021-07-25T06:24:43.000Z</time>
      </trkpt>
      <trkpt lat="47.51901" lon="-2.3016">
        <ele>20.200000762939</ele>
        <time>2021-07-25T06:24:54.000Z</time>
      </trkpt>
      <trkpt lat="47.51903" lon="-2.30156">
        <ele>20.200000762939</ele>
        <time>2021-07-25T06:24:55.000Z</time>
      </trkpt>
      <trkpt lat="47.51908" lon="-2.30142">
        <ele>20.200000762939</ele>
        <time>2021-07-25T06:25:01.000Z</time>
      </trkpt>
      <trkpt lat="47.51912" lon="-2.30128">
        <ele>20.60000038147</ele>
        <time>2021-07-25T06:25:06.000Z</time>
      </trkpt>
      <trkpt lat="47.51913" lon="-2.30126">
        <ele>21</ele>
        <time>2021-07-25T06:25:07.000Z</time>
      </trkpt>
      <trkpt lat="47.51914" lon="-2.30124">
        <ele>21.39999961853</ele>
        <time>2021-07-25T06:25:08.000Z</time>
      </trkpt>
      <trkpt lat="47.51915" lon="-2.30122">
        <ele>21.799999237061</ele>
        <time>2021-07-25T06:25:09.000Z</time>
      </trkpt>
      <trkpt lat="47.51915" lon="-2.3012">
        <ele>22.200000762939</ele>
        <time>2021-07-25T06:25:10.000Z</time>
      </trkpt>
      <trkpt lat="47.51919" lon="-2.30109">
        <ele>22.200000762939</ele>
        <time>2021-07-25T06:25:15.000Z</time>
      </trkpt>
      <trkpt lat="47.51924" lon="-2.30092">
        <ele>22.60000038147</ele>
        <time>2021-07-25T06:25:22.000Z</time>
      </trkpt>
      <trkpt lat="47.51924" lon="-2.30089">
        <ele>23.200000762939</ele>
        <time>2021-07-25T06:25:23.000Z</time>
      </trkpt>
      <trkpt lat="47.51925" lon="-2.30087">
        <ele>23.60000038147</ele>
        <time>2021-07-25T06:25:24.000Z</time>
      </trkpt>
      <trkpt lat="47.51926" lon="-2.30084">
        <ele>24.39999961853</ele>
        <time>2021-07-25T06:25:25.000Z</time>
      </trkpt>
      <trkpt lat="47.51929" lon="-2.30077">
        <ele>24.39999961853</ele>
        <time>2021-07-25T06:25:28.000Z</time>
      </trkpt>
      <trkpt lat="47.51934" lon="-2.30076">
        <ele>24.39999961853</ele>
        <time>2021-07-25T06:25:30.000Z</time>
      </trkpt>
      <trkpt lat="47.51938" lon="-2.30079">
        <ele>24.39999961853</ele>
        <time>2021-07-25T06:25:32.000Z</time>
      </trkpt>
      <trkpt lat="47.51946" lon="-2.30084">
        <ele>24.39999961853</ele>
        <time>2021-07-25T06:25:34.000Z</time>
      </trkpt>
      <trkpt lat="47.51948" lon="-2.30085">
        <ele>24.39999961853</ele>
        <time>2021-07-25T06:25:35.000Z</time>
      </trkpt>
      <trkpt lat="47.51955" lon="-2.30094">
        <ele>24.39999961853</ele>
        <time>2021-07-25T06:25:40.000Z</time>
      </trkpt>
      <trkpt lat="47.51963" lon="-2.30104">
        <ele>24.39999961853</ele>
        <time>2021-07-25T06:25:46.000Z</time>
      </trkpt>
      <trkpt lat="47.51973" lon="-2.30115">
        <ele>24.39999961853</ele>
        <time>2021-07-25T06:25:50.000Z</time>
      </trkpt>
      <trkpt lat="47.51978" lon="-2.30117">
        <ele>23.799999237061</ele>
        <time>2021-07-25T06:25:51.000Z</time>
      </trkpt>
      <trkpt lat="47.51983" lon="-2.30121">
        <ele>23.39999961853</ele>
        <time>2021-07-25T06:25:52.000Z</time>
      </trkpt>
      <trkpt lat="47.51989" lon="-2.30124">
        <ele>23</ele>
        <time>2021-07-25T06:25:53.000Z</time>
      </trkpt>
      <trkpt lat="47.51994" lon="-2.30127">
        <ele>22.60000038147</ele>
        <time>2021-07-25T06:25:54.000Z</time>
      </trkpt>
      <trkpt lat="47.51999" lon="-2.30132">
        <ele>22</ele>
        <time>2021-07-25T06:25:55.000Z</time>
      </trkpt>
      <trkpt lat="47.52003" lon="-2.30138">
        <ele>21.39999961853</ele>
        <time>2021-07-25T06:25:56.000Z</time>
      </trkpt>
      <trkpt lat="47.52007" lon="-2.30142">
        <ele>21</ele>
        <time>2021-07-25T06:25:57.000Z</time>
      </trkpt>
      <trkpt lat="47.5201" lon="-2.30147">
        <ele>20.39999961853</ele>
        <time>2021-07-25T06:25:58.000Z</time>
      </trkpt>
      <trkpt lat="47.52012" lon="-2.30151">
        <ele>19.799999237061</ele>
        <time>2021-07-25T06:25:59.000Z</time>
      </trkpt>
      <trkpt lat="47.52013" lon="-2.30154">
        <ele>19.200000762939</ele>
        <time>2021-07-25T06:26:00.000Z</time>
      </trkpt>
      <trkpt lat="47.52014" lon="-2.30157">
        <ele>18.60000038147</ele>
        <time>2021-07-25T06:26:01.000Z</time>
      </trkpt>
      <trkpt lat="47.52015" lon="-2.3016">
        <ele>18</ele>
        <time>2021-07-25T06:26:02.000Z</time>
      </trkpt>
      <trkpt lat="47.52015" lon="-2.30163">
        <ele>17.39999961853</ele>
        <time>2021-07-25T06:26:03.000Z</time>
      </trkpt>
      <trkpt lat="47.52015" lon="-2.3017">
        <ele>16.799999237061</ele>
        <time>2021-07-25T06:26:05.000Z</time>
      </trkpt>
      <trkpt lat="47.52014" lon="-2.30174">
        <ele>16.200000762939</ele>
        <time>2021-07-25T06:26:06.000Z</time>
      </trkpt>
      <trkpt lat="47.52011" lon="-2.30179">
        <ele>15.800000190735</ele>
        <time>2021-07-25T06:26:07.000Z</time>
      </trkpt>
      <trkpt lat="47.52008" lon="-2.30183">
        <ele>15.199999809265</ele>
        <time>2021-07-25T06:26:08.000Z</time>
      </trkpt>
      <trkpt lat="47.52005" lon="-2.30188">
        <ele>14.60000038147</ele>
        <time>2021-07-25T06:26:09.000Z</time>
      </trkpt>
      <trkpt lat="47.52003" lon="-2.30194">
        <ele>13.800000190735</ele>
        <time>2021-07-25T06:26:10.000Z</time>
      </trkpt>
      <trkpt lat="47.52" lon="-2.30198">
        <ele>13.199999809265</ele>
        <time>2021-07-25T06:26:11.000Z</time>
      </trkpt>
      <trkpt lat="47.51999" lon="-2.30203">
        <ele>12.39999961853</ele>
        <time>2021-07-25T06:26:12.000Z</time>
      </trkpt>
      <trkpt lat="47.51998" lon="-2.30206">
        <ele>11.800000190735</ele>
        <time>2021-07-25T06:26:13.000Z</time>
      </trkpt>
      <trkpt lat="47.51999" lon="-2.30208">
        <ele>10.39999961853</ele>
        <time>2021-07-25T06:26:14.000Z</time>
      </trkpt>
      <trkpt lat="47.52007" lon="-2.3022">
        <ele>10.39999961853</ele>
        <time>2021-07-25T06:26:18.000Z</time>
      </trkpt>
      <trkpt lat="47.52014" lon="-2.30231">
        <ele>10.39999961853</ele>
        <time>2021-07-25T06:26:23.000Z</time>
      </trkpt>
      <trkpt lat="47.52017" lon="-2.30241">
        <ele>10.39999961853</ele>
        <time>2021-07-25T06:26:27.000Z</time>
      </trkpt>
      <trkpt lat="47.52023" lon="-2.30254">
        <ele>10.39999961853</ele>
        <time>2021-07-25T06:26:33.000Z</time>
      </trkpt>
      <trkpt lat="47.52032" lon="-2.30273">
        <ele>10.39999961853</ele>
        <time>2021-07-25T06:26:40.000Z</time>
      </trkpt>
      <trkpt lat="47.5204" lon="-2.30298">
        <ele>10.39999961853</ele>
        <time>2021-07-25T06:26:46.000Z</time>
      </trkpt>
      <trkpt lat="47.52049" lon="-2.30322">
        <ele>10.39999961853</ele>
        <time>2021-07-25T06:26:52.000Z</time>
      </trkpt>
      <trkpt lat="47.52058" lon="-2.30349">
        <ele>10.39999961853</ele>
        <time>2021-07-25T06:26:59.000Z</time>
      </trkpt>
      <trkpt lat="47.5207" lon="-2.30379">
        <ele>10.39999961853</ele>
        <time>2021-07-25T06:27:05.000Z</time>
      </trkpt>
      <trkpt lat="47.5208" lon="-2.30407">
        <ele>10.39999961853</ele>
        <time>2021-07-25T06:27:11.000Z</time>
      </trkpt>
      <trkpt lat="47.52088" lon="-2.30424">
        <ele>10</ele>
        <time>2021-07-25T06:27:15.000Z</time>
      </trkpt>
      <trkpt lat="47.52089" lon="-2.30431">
        <ele>9.6000003814697</ele>
        <time>2021-07-25T06:27:16.000Z</time>
      </trkpt>
      <trkpt lat="47.52092" lon="-2.30438">
        <ele>9</ele>
        <time>2021-07-25T06:27:17.000Z</time>
      </trkpt>
      <trkpt lat="47.52094" lon="-2.30446">
        <ele>8.6000003814697</ele>
        <time>2021-07-25T06:27:18.000Z</time>
      </trkpt>
      <trkpt lat="47.52097" lon="-2.30453">
        <ele>8.1999998092651</ele>
        <time>2021-07-25T06:27:19.000Z</time>
      </trkpt>
      <trkpt lat="47.52101" lon="-2.30458">
        <ele>7.5999999046326</ele>
        <time>2021-07-25T06:27:20.000Z</time>
      </trkpt>
      <trkpt lat="47.52106" lon="-2.30463">
        <ele>7.1999998092651</ele>
        <time>2021-07-25T06:27:21.000Z</time>
      </trkpt>
      <trkpt lat="47.52111" lon="-2.30467">
        <ele>6.5999999046326</ele>
        <time>2021-07-25T06:27:22.000Z</time>
      </trkpt>
      <trkpt lat="47.52116" lon="-2.3047">
        <ele>6.1999998092651</ele>
        <time>2021-07-25T06:27:23.000Z</time>
      </trkpt>
      <trkpt lat="47.5212" lon="-2.30473">
        <ele>6.1999998092651</ele>
        <time>2021-07-25T06:27:24.000Z</time>
      </trkpt>
      <trkpt lat="47.52129" lon="-2.3048">
        <ele>6.1999998092651</ele>
        <time>2021-07-25T06:27:26.000Z</time>
      </trkpt>
      <trkpt lat="47.52133" lon="-2.30484">
        <ele>6.1999998092651</ele>
        <time>2021-07-25T06:27:27.000Z</time>
      </trkpt>
      <trkpt lat="47.52137" lon="-2.30487">
        <ele>6.1999998092651</ele>
        <time>2021-07-25T06:27:28.000Z</time>
      </trkpt>
      <trkpt lat="47.52147" lon="-2.30491">
        <ele>6.1999998092651</ele>
        <time>2021-07-25T06:27:31.000Z</time>
      </trkpt>
      <trkpt lat="47.52152" lon="-2.30487">
        <ele>6.1999998092651</ele>
        <time>2021-07-25T06:27:33.000Z</time>
      </trkpt>
      <trkpt lat="47.52154" lon="-2.30481">
        <ele>6.1999998092651</ele>
        <time>2021-07-25T06:27:35.000Z</time>
      </trkpt>
      <trkpt lat="47.52148" lon="-2.3047">
        <ele>6.1999998092651</ele>
        <time>2021-07-25T06:27:39.000Z</time>
      </trkpt>
      <trkpt lat="47.52138" lon="-2.30467">
        <ele>6.1999998092651</ele>
        <time>2021-07-25T06:27:42.000Z</time>
      </trkpt>
      <trkpt lat="47.52132" lon="-2.30465">
        <ele>6.1999998092651</ele>
        <time>2021-07-25T06:27:44.000Z</time>
      </trkpt>
      <trkpt lat="47.52114" lon="-2.30457">
        <ele>6.1999998092651</ele>
        <time>2021-07-25T06:27:50.000Z</time>
      </trkpt>
      <trkpt lat="47.52104" lon="-2.30449">
        <ele>6.1999998092651</ele>
        <time>2021-07-25T06:27:56.000Z</time>
      </trkpt>
      <trkpt lat="47.52103" lon="-2.30448">
        <ele>6.5999999046326</ele>
        <time>2021-07-25T06:27:57.000Z</time>
      </trkpt>
      <trkpt lat="47.52102" lon="-2.30447">
        <ele>7</ele>
        <time>2021-07-25T06:27:58.000Z</time>
      </trkpt>
      <trkpt lat="47.52101" lon="-2.30446">
        <ele>7.4000000953674</ele>
        <time>2021-07-25T06:27:59.000Z</time>
      </trkpt>
      <trkpt lat="47.521" lon="-2.30445">
        <ele>7.8000001907349</ele>
        <time>2021-07-25T06:28:00.000Z</time>
      </trkpt>
      <trkpt lat="47.52099" lon="-2.30444">
        <ele>8.1999998092651</ele>
        <time>2021-07-25T06:28:01.000Z</time>
      </trkpt>
      <trkpt lat="47.52097" lon="-2.30443">
        <ele>8.1999998092651</ele>
        <time>2021-07-25T06:28:02.000Z</time>
      </trkpt>
      <trkpt lat="47.52093" lon="-2.30434">
        <ele>8.1999998092651</ele>
        <time>2021-07-25T06:28:07.000Z</time>
      </trkpt>
      <trkpt lat="47.52093" lon="-2.3043">
        <ele>8.1999998092651</ele>
        <time>2021-07-25T06:28:08.000Z</time>
      </trkpt>
      <trkpt lat="47.52093" lon="-2.3041">
        <ele>8.1999998092651</ele>
        <time>2021-07-25T06:28:14.000Z</time>
      </trkpt>
      <trkpt lat="47.52093" lon="-2.30407">
        <ele>8.6000003814697</ele>
        <time>2021-07-25T06:28:15.000Z</time>
      </trkpt>
      <trkpt lat="47.52092" lon="-2.30405">
        <ele>9</ele>
        <time>2021-07-25T06:28:16.000Z</time>
      </trkpt>
      <trkpt lat="47.52091" lon="-2.30403">
        <ele>10</ele>
        <time>2021-07-25T06:28:17.000Z</time>
      </trkpt>
      <trkpt lat="47.5209" lon="-2.30401">
        <ele>10.39999961853</ele>
        <time>2021-07-25T06:28:18.000Z</time>
      </trkpt>
      <trkpt lat="47.5209" lon="-2.304">
        <ele>10.800000190735</ele>
        <time>2021-07-25T06:28:19.000Z</time>
      </trkpt>
      <trkpt lat="47.52089" lon="-2.30398">
        <ele>11.199999809265</ele>
        <time>2021-07-25T06:28:20.000Z</time>
      </trkpt>
      <trkpt lat="47.52089" lon="-2.30397">
        <ele>11.60000038147</ele>
        <time>2021-07-25T06:28:21.000Z</time>
      </trkpt>
      <trkpt lat="47.52088" lon="-2.30395">
        <ele>12</ele>
        <time>2021-07-25T06:28:22.000Z</time>
      </trkpt>
      <trkpt lat="47.52087" lon="-2.30393">
        <ele>12.39999961853</ele>
        <time>2021-07-25T06:28:23.000Z</time>
      </trkpt>
      <trkpt lat="47.52087" lon="-2.30392">
        <ele>12.800000190735</ele>
        <time>2021-07-25T06:28:25.000Z</time>
      </trkpt>
      <trkpt lat="47.52088" lon="-2.30398">
        <ele>14.39999961853</ele>
        <time>2021-07-25T06:28:34.000Z</time>
      </trkpt>
      <trkpt lat="47.52088" lon="-2.304">
        <ele>14.39999961853</ele>
        <time>2021-07-25T06:28:37.000Z</time>
      </trkpt>
      <trkpt lat="47.52091" lon="-2.30403">
        <ele>14.39999961853</ele>
        <time>2021-07-25T06:28:43.000Z</time>
      </trkpt>
      <trkpt lat="47.52093" lon="-2.30404">
        <ele>14.39999961853</ele>
        <time>2021-07-25T06:28:44.000Z</time>
      </trkpt>
      <trkpt lat="47.52104" lon="-2.30415">
        <ele>14.800000190735</ele>
        <time>2021-07-25T06:28:49.000Z</time>
      </trkpt>
      <trkpt lat="47.52106" lon="-2.30416">
        <ele>15.39999961853</ele>
        <time>2021-07-25T06:28:50.000Z</time>
      </trkpt>
      <trkpt lat="47.52108" lon="-2.30419">
        <ele>15.800000190735</ele>
        <time>2021-07-25T06:28:51.000Z</time>
      </trkpt>
      <trkpt lat="47.5211" lon="-2.30421">
        <ele>16.200000762939</ele>
        <time>2021-07-25T06:28:52.000Z</time>
      </trkpt>
      <trkpt lat="47.52112" lon="-2.30423">
        <ele>16.60000038147</ele>
        <time>2021-07-25T06:28:53.000Z</time>
      </trkpt>
      <trkpt lat="47.5212" lon="-2.30431">
        <ele>16.60000038147</ele>
        <time>2021-07-25T06:28:57.000Z</time>
      </trkpt>
      <trkpt lat="47.52138" lon="-2.30438">
        <ele>16.60000038147</ele>
        <time>2021-07-25T06:29:03.000Z</time>
      </trkpt>
      <trkpt lat="47.52149" lon="-2.30438">
        <ele>17.39999961853</ele>
        <time>2021-07-25T06:29:07.000Z</time>
      </trkpt>
      <trkpt lat="47.52153" lon="-2.30438">
        <ele>17.799999237061</ele>
        <time>2021-07-25T06:29:08.000Z</time>
      </trkpt>
      <trkpt lat="47.52155" lon="-2.30438">
        <ele>18.200000762939</ele>
        <time>2021-07-25T06:29:09.000Z</time>
      </trkpt>
      <trkpt lat="47.52158" lon="-2.30438">
        <ele>18.60000038147</ele>
        <time>2021-07-25T06:29:10.000Z</time>
      </trkpt>
      <trkpt lat="47.52177" lon="-2.3044">
        <ele>18.60000038147</ele>
        <time>2021-07-25T06:29:17.000Z</time>
      </trkpt>
      <trkpt lat="47.52187" lon="-2.30441">
        <ele>19</ele>
        <time>2021-07-25T06:29:21.000Z</time>
      </trkpt>
      <trkpt lat="47.5219" lon="-2.30441">
        <ele>19.39999961853</ele>
        <time>2021-07-25T06:29:22.000Z</time>
      </trkpt>
      <trkpt lat="47.52192" lon="-2.30442">
        <ele>20</ele>
        <time>2021-07-25T06:29:23.000Z</time>
      </trkpt>
      <trkpt lat="47.52195" lon="-2.30441">
        <ele>20.39999961853</ele>
        <time>2021-07-25T06:29:24.000Z</time>
      </trkpt>
      <trkpt lat="47.52198" lon="-2.30442">
        <ele>20.799999237061</ele>
        <time>2021-07-25T06:29:25.000Z</time>
      </trkpt>
      <trkpt lat="47.52208" lon="-2.30443">
        <ele>20.799999237061</ele>
        <time>2021-07-25T06:29:29.000Z</time>
      </trkpt>
      <trkpt lat="47.52213" lon="-2.30443">
        <ele>21.60000038147</ele>
        <time>2021-07-25T06:29:31.000Z</time>
      </trkpt>
      <trkpt lat="47.52215" lon="-2.30442">
        <ele>22</ele>
        <time>2021-07-25T06:29:32.000Z</time>
      </trkpt>
      <trkpt lat="47.52217" lon="-2.30442">
        <ele>22.39999961853</ele>
        <time>2021-07-25T06:29:33.000Z</time>
      </trkpt>
      <trkpt lat="47.5222" lon="-2.30442">
        <ele>22.799999237061</ele>
        <time>2021-07-25T06:29:34.000Z</time>
      </trkpt>
      <trkpt lat="47.52223" lon="-2.30442">
        <ele>22.799999237061</ele>
        <time>2021-07-25T06:29:36.000Z</time>
      </trkpt>
      <trkpt lat="47.52234" lon="-2.30437">
        <ele>22.799999237061</ele>
        <time>2021-07-25T06:29:42.000Z</time>
      </trkpt>
      <trkpt lat="47.52236" lon="-2.30436">
        <ele>23.200000762939</ele>
        <time>2021-07-25T06:29:43.000Z</time>
      </trkpt>
      <trkpt lat="47.52238" lon="-2.30434">
        <ele>23.799999237061</ele>
        <time>2021-07-25T06:29:44.000Z</time>
      </trkpt>
      <trkpt lat="47.5224" lon="-2.30432">
        <ele>24.200000762939</ele>
        <time>2021-07-25T06:29:45.000Z</time>
      </trkpt>
      <trkpt lat="47.52241" lon="-2.3043">
        <ele>24.60000038147</ele>
        <time>2021-07-25T06:29:46.000Z</time>
      </trkpt>
      <trkpt lat="47.52242" lon="-2.30428">
        <ele>25</ele>
        <time>2021-07-25T06:29:47.000Z</time>
      </trkpt>
      <trkpt lat="47.52244" lon="-2.30427">
        <ele>25.39999961853</ele>
        <time>2021-07-25T06:29:48.000Z</time>
      </trkpt>
      <trkpt lat="47.52245" lon="-2.30425">
        <ele>25.799999237061</ele>
        <time>2021-07-25T06:29:49.000Z</time>
      </trkpt>
      <trkpt lat="47.52247" lon="-2.30424">
        <ele>26.200000762939</ele>
        <time>2021-07-25T06:29:50.000Z</time>
      </trkpt>
      <trkpt lat="47.52248" lon="-2.30423">
        <ele>26.60000038147</ele>
        <time>2021-07-25T06:29:51.000Z</time>
      </trkpt>
      <trkpt lat="47.52249" lon="-2.30423">
        <ele>27</ele>
        <time>2021-07-25T06:29:52.000Z</time>
      </trkpt>
      <trkpt lat="47.52251" lon="-2.30421">
        <ele>27.60000038147</ele>
        <time>2021-07-25T06:29:53.000Z</time>
      </trkpt>
      <trkpt lat="47.52252" lon="-2.30419">
        <ele>28</ele>
        <time>2021-07-25T06:29:54.000Z</time>
      </trkpt>
      <trkpt lat="47.52254" lon="-2.30418">
        <ele>28.39999961853</ele>
        <time>2021-07-25T06:29:55.000Z</time>
      </trkpt>
      <trkpt lat="47.52256" lon="-2.30417">
        <ele>29.200000762939</ele>
        <time>2021-07-25T06:29:56.000Z</time>
      </trkpt>
      <trkpt lat="47.52258" lon="-2.30415">
        <ele>29.60000038147</ele>
        <time>2021-07-25T06:29:58.000Z</time>
      </trkpt>
      <trkpt lat="47.5226" lon="-2.30414">
        <ele>30</ele>
        <time>2021-07-25T06:29:59.000Z</time>
      </trkpt>
      <trkpt lat="47.52262" lon="-2.30413">
        <ele>30.39999961853</ele>
        <time>2021-07-25T06:30:00.000Z</time>
      </trkpt>
      <trkpt lat="47.52264" lon="-2.3041">
        <ele>30.799999237061</ele>
        <time>2021-07-25T06:30:01.000Z</time>
      </trkpt>
      <trkpt lat="47.52265" lon="-2.30408">
        <ele>31.39999961853</ele>
        <time>2021-07-25T06:30:02.000Z</time>
      </trkpt>
      <trkpt lat="47.52267" lon="-2.30407">
        <ele>31.39999961853</ele>
        <time>2021-07-25T06:30:03.000Z</time>
      </trkpt>
      <trkpt lat="47.52271" lon="-2.30405">
        <ele>31.799999237061</ele>
        <time>2021-07-25T06:30:05.000Z</time>
      </trkpt>
      <trkpt lat="47.52272" lon="-2.30405">
        <ele>32.200000762939</ele>
        <time>2021-07-25T06:30:06.000Z</time>
      </trkpt>
      <trkpt lat="47.52274" lon="-2.30405">
        <ele>32.599998474121</ele>
        <time>2021-07-25T06:30:07.000Z</time>
      </trkpt>
      <trkpt lat="47.52275" lon="-2.30404">
        <ele>33</ele>
        <time>2021-07-25T06:30:08.000Z</time>
      </trkpt>
      <trkpt lat="47.52276" lon="-2.30404">
        <ele>33.599998474121</ele>
        <time>2021-07-25T06:30:09.000Z</time>
      </trkpt>
      <trkpt lat="47.52278" lon="-2.30403">
        <ele>33.599998474121</ele>
        <time>2021-07-25T06:30:12.000Z</time>
      </trkpt>
      <trkpt lat="47.52283" lon="-2.304">
        <ele>33.599998474121</ele>
        <time>2021-07-25T06:31:10.000Z</time>
      </trkpt>
      <trkpt lat="47.52285" lon="-2.30399">
        <ele>33.599998474121</ele>
        <time>2021-07-25T06:31:11.000Z</time>
      </trkpt>
      <trkpt lat="47.52289" lon="-2.30397">
        <ele>33.599998474121</ele>
        <time>2021-07-25T06:31:14.000Z</time>
      </trkpt>
      <trkpt lat="47.52296" lon="-2.30393">
        <ele>33.599998474121</ele>
        <time>2021-07-25T06:31:17.000Z</time>
      </trkpt>
      <trkpt lat="47.52298" lon="-2.30391">
        <ele>34</ele>
        <time>2021-07-25T06:31:18.000Z</time>
      </trkpt>
      <trkpt lat="47.523" lon="-2.30389">
        <ele>34.400001525879</ele>
        <time>2021-07-25T06:31:19.000Z</time>
      </trkpt>
      <trkpt lat="47.52303" lon="-2.30387">
        <ele>34.799999237061</ele>
        <time>2021-07-25T06:31:20.000Z</time>
      </trkpt>
      <trkpt lat="47.52305" lon="-2.30385">
        <ele>35.200000762939</ele>
        <time>2021-07-25T06:31:21.000Z</time>
      </trkpt>
      <trkpt lat="47.52307" lon="-2.30383">
        <ele>35.599998474121</ele>
        <time>2021-07-25T06:31:22.000Z</time>
      </trkpt>
      <trkpt lat="47.52311" lon="-2.30378">
        <ele>35.599998474121</ele>
        <time>2021-07-25T06:31:24.000Z</time>
      </trkpt>
      <trkpt lat="47.52324" lon="-2.30366">
        <ele>35.599998474121</ele>
        <time>2021-07-25T06:31:31.000Z</time>
      </trkpt>
      <trkpt lat="47.52329" lon="-2.30362">
        <ele>36</ele>
        <time>2021-07-25T06:31:33.000Z</time>
      </trkpt>
      <trkpt lat="47.52331" lon="-2.3036">
        <ele>36.400001525879</ele>
        <time>2021-07-25T06:31:34.000Z</time>
      </trkpt>
      <trkpt lat="47.52334" lon="-2.30357">
        <ele>37.400001525879</ele>
        <time>2021-07-25T06:31:35.000Z</time>
      </trkpt>
      <trkpt lat="47.52336" lon="-2.30355">
        <ele>37.799999237061</ele>
        <time>2021-07-25T06:31:36.000Z</time>
      </trkpt>
      <trkpt lat="47.52341" lon="-2.30352">
        <ele>37.799999237061</ele>
        <time>2021-07-25T06:31:38.000Z</time>
      </trkpt>
      <trkpt lat="47.52353" lon="-2.30337">
        <ele>38.200000762939</ele>
        <time>2021-07-25T06:31:44.000Z</time>
      </trkpt>
      <trkpt lat="47.52356" lon="-2.30335">
        <ele>38.599998474121</ele>
        <time>2021-07-25T06:31:45.000Z</time>
      </trkpt>
      <trkpt lat="47.52358" lon="-2.30334">
        <ele>39</ele>
        <time>2021-07-25T06:31:46.000Z</time>
      </trkpt>
      <trkpt lat="47.52361" lon="-2.30332">
        <ele>39.400001525879</ele>
        <time>2021-07-25T06:31:47.000Z</time>
      </trkpt>
      <trkpt lat="47.52363" lon="-2.3033">
        <ele>39.799999237061</ele>
        <time>2021-07-25T06:31:48.000Z</time>
      </trkpt>
      <trkpt lat="47.52371" lon="-2.30322">
        <ele>39.799999237061</ele>
        <time>2021-07-25T06:31:51.000Z</time>
      </trkpt>
      <trkpt lat="47.52385" lon="-2.30309">
        <ele>40.200000762939</ele>
        <time>2021-07-25T06:31:57.000Z</time>
      </trkpt>
      <trkpt lat="47.52387" lon="-2.30307">
        <ele>40.799999237061</ele>
        <time>2021-07-25T06:31:58.000Z</time>
      </trkpt>
      <trkpt lat="47.5239" lon="-2.30305">
        <ele>41.200000762939</ele>
        <time>2021-07-25T06:31:59.000Z</time>
      </trkpt>
      <trkpt lat="47.52392" lon="-2.30303">
        <ele>42</ele>
        <time>2021-07-25T06:32:00.000Z</time>
      </trkpt>
      <trkpt lat="47.52408" lon="-2.30288">
        <ele>42.400001525879</ele>
        <time>2021-07-25T06:32:08.000Z</time>
      </trkpt>
      <trkpt lat="47.52409" lon="-2.30286">
        <ele>42.799999237061</ele>
        <time>2021-07-25T06:32:09.000Z</time>
      </trkpt>
      <trkpt lat="47.52411" lon="-2.30285">
        <ele>43.200000762939</ele>
        <time>2021-07-25T06:32:10.000Z</time>
      </trkpt>
      <trkpt lat="47.52413" lon="-2.30283">
        <ele>43.599998474121</ele>
        <time>2021-07-25T06:32:11.000Z</time>
      </trkpt>
      <trkpt lat="47.52415" lon="-2.30281">
        <ele>44</ele>
        <time>2021-07-25T06:32:12.000Z</time>
      </trkpt>
      <trkpt lat="47.5242" lon="-2.30273">
        <ele>44</ele>
        <time>2021-07-25T06:32:15.000Z</time>
      </trkpt>
      <trkpt lat="47.52428" lon="-2.30257">
        <ele>44.400001525879</ele>
        <time>2021-07-25T06:32:20.000Z</time>
      </trkpt>
      <trkpt lat="47.52429" lon="-2.30254">
        <ele>45</ele>
        <time>2021-07-25T06:32:21.000Z</time>
      </trkpt>
      <trkpt lat="47.5243" lon="-2.30251">
        <ele>45.400001525879</ele>
        <time>2021-07-25T06:32:22.000Z</time>
      </trkpt>
      <trkpt lat="47.52432" lon="-2.30247">
        <ele>45.799999237061</ele>
        <time>2021-07-25T06:32:23.000Z</time>
      </trkpt>
      <trkpt lat="47.52434" lon="-2.30243">
        <ele>46.200000762939</ele>
        <time>2021-07-25T06:32:24.000Z</time>
      </trkpt>
      <trkpt lat="47.52441" lon="-2.30228">
        <ele>46.200000762939</ele>
        <time>2021-07-25T06:32:28.000Z</time>
      </trkpt>
      <trkpt lat="47.52446" lon="-2.30217">
        <ele>46.599998474121</ele>
        <time>2021-07-25T06:32:31.000Z</time>
      </trkpt>
      <trkpt lat="47.52447" lon="-2.30213">
        <ele>47</ele>
        <time>2021-07-25T06:32:32.000Z</time>
      </trkpt>
      <trkpt lat="47.52449" lon="-2.3021">
        <ele>47.400001525879</ele>
        <time>2021-07-25T06:32:33.000Z</time>
      </trkpt>
      <trkpt lat="47.52451" lon="-2.30206">
        <ele>47.799999237061</ele>
        <time>2021-07-25T06:32:34.000Z</time>
      </trkpt>
      <trkpt lat="47.52453" lon="-2.30203">
        <ele>48.200000762939</ele>
        <time>2021-07-25T06:32:35.000Z</time>
      </trkpt>
      <trkpt lat="47.52465" lon="-2.30187">
        <ele>48.200000762939</ele>
        <time>2021-07-25T06:32:41.000Z</time>
      </trkpt>
      <trkpt lat="47.52468" lon="-2.30183">
        <ele>47.799999237061</ele>
        <time>2021-07-25T06:32:42.000Z</time>
      </trkpt>
      <trkpt lat="47.52473" lon="-2.30181">
        <ele>47.400001525879</ele>
        <time>2021-07-25T06:32:43.000Z</time>
      </trkpt>
      <trkpt lat="47.52477" lon="-2.30178">
        <ele>47</ele>
        <time>2021-07-25T06:32:44.000Z</time>
      </trkpt>
      <trkpt lat="47.52482" lon="-2.30174">
        <ele>46.599998474121</ele>
        <time>2021-07-25T06:32:45.000Z</time>
      </trkpt>
      <trkpt lat="47.52487" lon="-2.3017">
        <ele>46</ele>
        <time>2021-07-25T06:32:46.000Z</time>
      </trkpt>
      <trkpt lat="47.52492" lon="-2.30166">
        <ele>45.400001525879</ele>
        <time>2021-07-25T06:32:47.000Z</time>
      </trkpt>
      <trkpt lat="47.525" lon="-2.30162">
        <ele>45</ele>
        <time>2021-07-25T06:32:48.000Z</time>
      </trkpt>
      <trkpt lat="47.52506" lon="-2.30158">
        <ele>43.799999237061</ele>
        <time>2021-07-25T06:32:49.000Z</time>
      </trkpt>
      <trkpt lat="47.52511" lon="-2.30154">
        <ele>43.799999237061</ele>
        <time>2021-07-25T06:32:50.000Z</time>
      </trkpt>
      <trkpt lat="47.52516" lon="-2.3015">
        <ele>43.400001525879</ele>
        <time>2021-07-25T06:32:51.000Z</time>
      </trkpt>
      <trkpt lat="47.5252" lon="-2.30145">
        <ele>43</ele>
        <time>2021-07-25T06:32:52.000Z</time>
      </trkpt>
      <trkpt lat="47.52524" lon="-2.3014">
        <ele>42.599998474121</ele>
        <time>2021-07-25T06:32:53.000Z</time>
      </trkpt>
      <trkpt lat="47.52527" lon="-2.30134">
        <ele>42</ele>
        <time>2021-07-25T06:32:54.000Z</time>
      </trkpt>
      <trkpt lat="47.52528" lon="-2.30126">
        <ele>41.599998474121</ele>
        <time>2021-07-25T06:32:55.000Z</time>
      </trkpt>
      <trkpt lat="47.52527" lon="-2.30099">
        <ele>41.599998474121</ele>
        <time>2021-07-25T06:32:59.000Z</time>
      </trkpt>
      <trkpt lat="47.52527" lon="-2.30093">
        <ele>41.599998474121</ele>
        <time>2021-07-25T06:33:00.000Z</time>
      </trkpt>
      <trkpt lat="47.52525" lon="-2.30072">
        <ele>41.599998474121</ele>
        <time>2021-07-25T06:33:05.000Z</time>
      </trkpt>
      <trkpt lat="47.52524" lon="-2.30069">
        <ele>42</ele>
        <time>2021-07-25T06:33:06.000Z</time>
      </trkpt>
      <trkpt lat="47.52525" lon="-2.30064">
        <ele>42.400001525879</ele>
        <time>2021-07-25T06:33:07.000Z</time>
      </trkpt>
      <trkpt lat="47.52525" lon="-2.30061">
        <ele>42.799999237061</ele>
        <time>2021-07-25T06:33:08.000Z</time>
      </trkpt>
      <trkpt lat="47.52527" lon="-2.30058">
        <ele>43.400001525879</ele>
        <time>2021-07-25T06:33:09.000Z</time>
      </trkpt>
      <trkpt lat="47.5253" lon="-2.30055">
        <ele>43.799999237061</ele>
        <time>2021-07-25T06:33:10.000Z</time>
      </trkpt>
      <trkpt lat="47.52533" lon="-2.30052">
        <ele>44.200000762939</ele>
        <time>2021-07-25T06:33:11.000Z</time>
      </trkpt>
      <trkpt lat="47.52536" lon="-2.30051">
        <ele>44.599998474121</ele>
        <time>2021-07-25T06:33:12.000Z</time>
      </trkpt>
      <trkpt lat="47.5254" lon="-2.30049">
        <ele>45.400001525879</ele>
        <time>2021-07-25T06:33:13.000Z</time>
      </trkpt>
      <trkpt lat="47.52544" lon="-2.30046">
        <ele>45.799999237061</ele>
        <time>2021-07-25T06:33:14.000Z</time>
      </trkpt>
      <trkpt lat="47.52563" lon="-2.30034">
        <ele>45.799999237061</ele>
        <time>2021-07-25T06:33:20.000Z</time>
      </trkpt>
      <trkpt lat="47.52589" lon="-2.30016">
        <ele>45.799999237061</ele>
        <time>2021-07-25T06:33:27.000Z</time>
      </trkpt>
      <trkpt lat="47.52609" lon="-2.30003">
        <ele>46.200000762939</ele>
        <time>2021-07-25T06:33:32.000Z</time>
      </trkpt>
      <trkpt lat="47.52613" lon="-2.3">
        <ele>46.599998474121</ele>
        <time>2021-07-25T06:33:33.000Z</time>
      </trkpt>
      <trkpt lat="47.52617" lon="-2.29997">
        <ele>47</ele>
        <time>2021-07-25T06:33:34.000Z</time>
      </trkpt>
      <trkpt lat="47.52621" lon="-2.29994">
        <ele>47.400001525879</ele>
        <time>2021-07-25T06:33:35.000Z</time>
      </trkpt>
      <trkpt lat="47.52625" lon="-2.29992">
        <ele>47.799999237061</ele>
        <time>2021-07-25T06:33:36.000Z</time>
      </trkpt>
      <trkpt lat="47.52647" lon="-2.29979">
        <ele>47.799999237061</ele>
        <time>2021-07-25T06:33:40.000Z</time>
      </trkpt>
      <trkpt lat="47.52676" lon="-2.29955">
        <ele>47.799999237061</ele>
        <time>2021-07-25T06:33:46.000Z</time>
      </trkpt>
      <trkpt lat="47.52681" lon="-2.29953">
        <ele>47.799999237061</ele>
        <time>2021-07-25T06:33:47.000Z</time>
      </trkpt>
      <trkpt lat="47.52694" lon="-2.2995">
        <ele>47.799999237061</ele>
        <time>2021-07-25T06:33:50.000Z</time>
      </trkpt>
      <trkpt lat="47.527" lon="-2.29948">
        <ele>47.799999237061</ele>
        <time>2021-07-25T06:33:52.000Z</time>
      </trkpt>
      <trkpt lat="47.5272" lon="-2.29946">
        <ele>47.799999237061</ele>
        <time>2021-07-25T06:33:57.000Z</time>
      </trkpt>
      <trkpt lat="47.52736" lon="-2.2994">
        <ele>47.799999237061</ele>
        <time>2021-07-25T06:34:01.000Z</time>
      </trkpt>
      <trkpt lat="47.5275" lon="-2.29935">
        <ele>47.799999237061</ele>
        <time>2021-07-25T06:34:04.000Z</time>
      </trkpt>
      <trkpt lat="47.52771" lon="-2.29929">
        <ele>47.400001525879</ele>
        <time>2021-07-25T06:34:08.000Z</time>
      </trkpt>
      <trkpt lat="47.52778" lon="-2.29928">
        <ele>47</ele>
        <time>2021-07-25T06:34:09.000Z</time>
      </trkpt>
      <trkpt lat="47.52784" lon="-2.29928">
        <ele>46.599998474121</ele>
        <time>2021-07-25T06:34:10.000Z</time>
      </trkpt>
      <trkpt lat="47.5279" lon="-2.29927">
        <ele>46.200000762939</ele>
        <time>2021-07-25T06:34:11.000Z</time>
      </trkpt>
      <trkpt lat="47.52795" lon="-2.29926">
        <ele>45.799999237061</ele>
        <time>2021-07-25T06:34:12.000Z</time>
      </trkpt>
      <trkpt lat="47.528" lon="-2.29923">
        <ele>45.799999237061</ele>
        <time>2021-07-25T06:34:13.000Z</time>
      </trkpt>
      <trkpt lat="47.52809" lon="-2.29918">
        <ele>45.799999237061</ele>
        <time>2021-07-25T06:34:15.000Z</time>
      </trkpt>
      <trkpt lat="47.52845" lon="-2.29896">
        <ele>45.799999237061</ele>
        <time>2021-07-25T06:34:23.000Z</time>
      </trkpt>
      <trkpt lat="47.52852" lon="-2.2988">
        <ele>45.799999237061</ele>
        <time>2021-07-25T06:34:26.000Z</time>
      </trkpt>
      <trkpt lat="47.5285" lon="-2.29864">
        <ele>45.799999237061</ele>
        <time>2021-07-25T06:34:29.000Z</time>
      </trkpt>
      <trkpt lat="47.52849" lon="-2.2986">
        <ele>46.200000762939</ele>
        <time>2021-07-25T06:34:30.000Z</time>
      </trkpt>
      <trkpt lat="47.52849" lon="-2.29853">
        <ele>46.599998474121</ele>
        <time>2021-07-25T06:34:31.000Z</time>
      </trkpt>
      <trkpt lat="47.52848" lon="-2.29848">
        <ele>47</ele>
        <time>2021-07-25T06:34:32.000Z</time>
      </trkpt>
      <trkpt lat="47.52847" lon="-2.29844">
        <ele>47.599998474121</ele>
        <time>2021-07-25T06:34:33.000Z</time>
      </trkpt>
      <trkpt lat="47.52846" lon="-2.29838">
        <ele>48</ele>
        <time>2021-07-25T06:34:34.000Z</time>
      </trkpt>
      <trkpt lat="47.52843" lon="-2.29818">
        <ele>48.400001525879</ele>
        <time>2021-07-25T06:34:38.000Z</time>
      </trkpt>
      <trkpt lat="47.52842" lon="-2.29813">
        <ele>48.799999237061</ele>
        <time>2021-07-25T06:34:39.000Z</time>
      </trkpt>
      <trkpt lat="47.52841" lon="-2.29809">
        <ele>49.400001525879</ele>
        <time>2021-07-25T06:34:40.000Z</time>
      </trkpt>
      <trkpt lat="47.5284" lon="-2.29804">
        <ele>49.799999237061</ele>
        <time>2021-07-25T06:34:41.000Z</time>
      </trkpt>
      <trkpt lat="47.52839" lon="-2.29799">
        <ele>50.200000762939</ele>
        <time>2021-07-25T06:34:42.000Z</time>
      </trkpt>
      <trkpt lat="47.52835" lon="-2.29784">
        <ele>50.200000762939</ele>
        <time>2021-07-25T06:34:46.000Z</time>
      </trkpt>
      <trkpt lat="47.52835" lon="-2.29782">
        <ele>50.200000762939</ele>
        <time>2021-07-25T06:34:48.000Z</time>
      </trkpt>
      <trkpt lat="47.52834" lon="-2.29779">
        <ele>50.200000762939</ele>
        <time>2021-07-25T06:35:18.000Z</time>
      </trkpt>
      <trkpt lat="47.52834" lon="-2.29777">
        <ele>50.200000762939</ele>
        <time>2021-07-25T06:35:19.000Z</time>
      </trkpt>
      <trkpt lat="47.52829" lon="-2.29762">
        <ele>50.599998474121</ele>
        <time>2021-07-25T06:35:23.000Z</time>
      </trkpt>
      <trkpt lat="47.52828" lon="-2.29757">
        <ele>51</ele>
        <time>2021-07-25T06:35:24.000Z</time>
      </trkpt>
      <trkpt lat="47.52828" lon="-2.29752">
        <ele>51.400001525879</ele>
        <time>2021-07-25T06:35:25.000Z</time>
      </trkpt>
      <trkpt lat="47.52827" lon="-2.29748">
        <ele>51.799999237061</ele>
        <time>2021-07-25T06:35:26.000Z</time>
      </trkpt>
      <trkpt lat="47.52827" lon="-2.29743">
        <ele>52.200000762939</ele>
        <time>2021-07-25T06:35:27.000Z</time>
      </trkpt>
      <trkpt lat="47.52825" lon="-2.29728">
        <ele>52.200000762939</ele>
        <time>2021-07-25T06:35:30.000Z</time>
      </trkpt>
      <trkpt lat="47.52818" lon="-2.29699">
        <ele>52.200000762939</ele>
        <time>2021-07-25T06:35:36.000Z</time>
      </trkpt>
      <trkpt lat="47.52815" lon="-2.29677">
        <ele>52.599998474121</ele>
        <time>2021-07-25T06:35:41.000Z</time>
      </trkpt>
      <trkpt lat="47.52815" lon="-2.29673">
        <ele>53</ele>
        <time>2021-07-25T06:35:42.000Z</time>
      </trkpt>
      <trkpt lat="47.52814" lon="-2.29669">
        <ele>53.400001525879</ele>
        <time>2021-07-25T06:35:43.000Z</time>
      </trkpt>
      <trkpt lat="47.52814" lon="-2.29665">
        <ele>53.799999237061</ele>
        <time>2021-07-25T06:35:44.000Z</time>
      </trkpt>
      <trkpt lat="47.52813" lon="-2.2966">
        <ele>54.200000762939</ele>
        <time>2021-07-25T06:35:45.000Z</time>
      </trkpt>
      <trkpt lat="47.52815" lon="-2.29653">
        <ele>54.200000762939</ele>
        <time>2021-07-25T06:35:47.000Z</time>
      </trkpt>
      <trkpt lat="47.52827" lon="-2.29645">
        <ele>54.200000762939</ele>
        <time>2021-07-25T06:35:51.000Z</time>
      </trkpt>
      <trkpt lat="47.52839" lon="-2.29639">
        <ele>53.799999237061</ele>
        <time>2021-07-25T06:35:54.000Z</time>
      </trkpt>
      <trkpt lat="47.52844" lon="-2.29637">
        <ele>53.400001525879</ele>
        <time>2021-07-25T06:35:55.000Z</time>
      </trkpt>
      <trkpt lat="47.52848" lon="-2.29635">
        <ele>53</ele>
        <time>2021-07-25T06:35:56.000Z</time>
      </trkpt>
      <trkpt lat="47.52853" lon="-2.29633">
        <ele>52.599998474121</ele>
        <time>2021-07-25T06:35:57.000Z</time>
      </trkpt>
      <trkpt lat="47.52857" lon="-2.2963">
        <ele>52.200000762939</ele>
        <time>2021-07-25T06:35:58.000Z</time>
      </trkpt>
      <trkpt lat="47.52862" lon="-2.29628">
        <ele>51.799999237061</ele>
        <time>2021-07-25T06:35:59.000Z</time>
      </trkpt>
      <trkpt lat="47.52867" lon="-2.29625">
        <ele>51.200000762939</ele>
        <time>2021-07-25T06:36:00.000Z</time>
      </trkpt>
      <trkpt lat="47.52871" lon="-2.29623">
        <ele>50.799999237061</ele>
        <time>2021-07-25T06:36:01.000Z</time>
      </trkpt>
      <trkpt lat="47.52876" lon="-2.29621">
        <ele>50.200000762939</ele>
        <time>2021-07-25T06:36:02.000Z</time>
      </trkpt>
      <trkpt lat="47.52881" lon="-2.29618">
        <ele>49.599998474121</ele>
        <time>2021-07-25T06:36:03.000Z</time>
      </trkpt>
      <trkpt lat="47.52885" lon="-2.29616">
        <ele>48.400001525879</ele>
        <time>2021-07-25T06:36:04.000Z</time>
      </trkpt>
      <trkpt lat="47.52889" lon="-2.29614">
        <ele>47.599998474121</ele>
        <time>2021-07-25T06:36:05.000Z</time>
      </trkpt>
      <trkpt lat="47.52894" lon="-2.29612">
        <ele>47</ele>
        <time>2021-07-25T06:36:06.000Z</time>
      </trkpt>
      <trkpt lat="47.52898" lon="-2.2961">
        <ele>46.200000762939</ele>
        <time>2021-07-25T06:36:07.000Z</time>
      </trkpt>
      <trkpt lat="47.52902" lon="-2.29609">
        <ele>45.400001525879</ele>
        <time>2021-07-25T06:36:08.000Z</time>
      </trkpt>
      <trkpt lat="47.52906" lon="-2.29607">
        <ele>44.799999237061</ele>
        <time>2021-07-25T06:36:09.000Z</time>
      </trkpt>
      <trkpt lat="47.52909" lon="-2.29605">
        <ele>44</ele>
        <time>2021-07-25T06:36:10.000Z</time>
      </trkpt>
      <trkpt lat="47.52913" lon="-2.29603">
        <ele>43.200000762939</ele>
        <time>2021-07-25T06:36:11.000Z</time>
      </trkpt>
      <trkpt lat="47.52916" lon="-2.29601">
        <ele>42.599998474121</ele>
        <time>2021-07-25T06:36:12.000Z</time>
      </trkpt>
      <trkpt lat="47.5292" lon="-2.29599">
        <ele>41.799999237061</ele>
        <time>2021-07-25T06:36:13.000Z</time>
      </trkpt>
      <trkpt lat="47.52924" lon="-2.29597">
        <ele>41.200000762939</ele>
        <time>2021-07-25T06:36:14.000Z</time>
      </trkpt>
      <trkpt lat="47.52927" lon="-2.29595">
        <ele>40.400001525879</ele>
        <time>2021-07-25T06:36:15.000Z</time>
      </trkpt>
      <trkpt lat="47.5293" lon="-2.29594">
        <ele>39.599998474121</ele>
        <time>2021-07-25T06:36:16.000Z</time>
      </trkpt>
      <trkpt lat="47.52932" lon="-2.29593">
        <ele>39</ele>
        <time>2021-07-25T06:36:17.000Z</time>
      </trkpt>
      <trkpt lat="47.52935" lon="-2.29593">
        <ele>38.200000762939</ele>
        <time>2021-07-25T06:36:18.000Z</time>
      </trkpt>
      <trkpt lat="47.52937" lon="-2.29592">
        <ele>37.400001525879</ele>
        <time>2021-07-25T06:36:19.000Z</time>
      </trkpt>
      <trkpt lat="47.5294" lon="-2.29592">
        <ele>36.599998474121</ele>
        <time>2021-07-25T06:36:20.000Z</time>
      </trkpt>
      <trkpt lat="47.52942" lon="-2.29591">
        <ele>35.799999237061</ele>
        <time>2021-07-25T06:36:21.000Z</time>
      </trkpt>
      <trkpt lat="47.52944" lon="-2.2959">
        <ele>35</ele>
        <time>2021-07-25T06:36:22.000Z</time>
      </trkpt>
      <trkpt lat="47.52946" lon="-2.29589">
        <ele>34.200000762939</ele>
        <time>2021-07-25T06:36:23.000Z</time>
      </trkpt>
      <trkpt lat="47.52947" lon="-2.29589">
        <ele>33.400001525879</ele>
        <time>2021-07-25T06:36:24.000Z</time>
      </trkpt>
      <trkpt lat="47.52948" lon="-2.29589">
        <ele>33</ele>
        <time>2021-07-25T06:36:25.000Z</time>
      </trkpt>
      <trkpt lat="47.52957" lon="-2.29588">
        <ele>31.200000762939</ele>
        <time>2021-07-25T06:38:19.000Z</time>
      </trkpt>
      <trkpt lat="47.52966" lon="-2.29587">
        <ele>31.60000038147</ele>
        <time>2021-07-25T06:38:23.000Z</time>
      </trkpt>
      <trkpt lat="47.52967" lon="-2.29587">
        <ele>32.200000762939</ele>
        <time>2021-07-25T06:38:24.000Z</time>
      </trkpt>
      <trkpt lat="47.52969" lon="-2.29587">
        <ele>32.599998474121</ele>
        <time>2021-07-25T06:38:25.000Z</time>
      </trkpt>
      <trkpt lat="47.52971" lon="-2.29588">
        <ele>33</ele>
        <time>2021-07-25T06:38:26.000Z</time>
      </trkpt>
      <trkpt lat="47.52972" lon="-2.29588">
        <ele>33.599998474121</ele>
        <time>2021-07-25T06:38:27.000Z</time>
      </trkpt>
      <trkpt lat="47.52973" lon="-2.29589">
        <ele>34</ele>
        <time>2021-07-25T06:38:28.000Z</time>
      </trkpt>
      <trkpt lat="47.52974" lon="-2.29589">
        <ele>34.599998474121</ele>
        <time>2021-07-25T06:38:29.000Z</time>
      </trkpt>
      <trkpt lat="47.52975" lon="-2.29588">
        <ele>35.200000762939</ele>
        <time>2021-07-25T06:38:30.000Z</time>
      </trkpt>
      <trkpt lat="47.52977" lon="-2.29588">
        <ele>35.599998474121</ele>
        <time>2021-07-25T06:38:31.000Z</time>
      </trkpt>
      <trkpt lat="47.52978" lon="-2.29587">
        <ele>36.599998474121</ele>
        <time>2021-07-25T06:38:32.000Z</time>
      </trkpt>
      <trkpt lat="47.52979" lon="-2.29586">
        <ele>37</ele>
        <time>2021-07-25T06:38:33.000Z</time>
      </trkpt>
      <trkpt lat="47.53012" lon="-2.29572">
        <ele>46.400001525879</ele>
        <time>2021-07-25T06:39:38.000Z</time>
      </trkpt>
      <trkpt lat="47.53017" lon="-2.29567">
        <ele>46.400001525879</ele>
        <time>2021-07-25T06:39:40.000Z</time>
      </trkpt>
      <trkpt lat="47.53026" lon="-2.29552">
        <ele>46.400001525879</ele>
        <time>2021-07-25T06:39:46.000Z</time>
      </trkpt>
      <trkpt lat="47.53028" lon="-2.2955">
        <ele>47.200000762939</ele>
        <time>2021-07-25T06:39:47.000Z</time>
      </trkpt>
      <trkpt lat="47.53031" lon="-2.29549">
        <ele>47.599998474121</ele>
        <time>2021-07-25T06:39:48.000Z</time>
      </trkpt>
      <trkpt lat="47.53034" lon="-2.29548">
        <ele>48</ele>
        <time>2021-07-25T06:39:49.000Z</time>
      </trkpt>
      <trkpt lat="47.53037" lon="-2.29547">
        <ele>48.599998474121</ele>
        <time>2021-07-25T06:39:50.000Z</time>
      </trkpt>
      <trkpt lat="47.53039" lon="-2.29546">
        <ele>48.599998474121</ele>
        <time>2021-07-25T06:39:51.000Z</time>
      </trkpt>
      <trkpt lat="47.53042" lon="-2.29544">
        <ele>48.599998474121</ele>
        <time>2021-07-25T06:39:53.000Z</time>
      </trkpt>
      <trkpt lat="47.53051" lon="-2.29537">
        <ele>48.599998474121</ele>
        <time>2021-07-25T06:39:57.000Z</time>
      </trkpt>
      <trkpt lat="47.53054" lon="-2.29534">
        <ele>48.599998474121</ele>
        <time>2021-07-25T06:39:58.000Z</time>
      </trkpt>
      <trkpt lat="47.53057" lon="-2.29532">
        <ele>48.599998474121</ele>
        <time>2021-07-25T06:40:01.000Z</time>
      </trkpt>
      <trkpt lat="47.53061" lon="-2.29534">
        <ele>48.599998474121</ele>
        <time>2021-07-25T06:41:14.000Z</time>
      </trkpt>
      <trkpt lat="47.53068" lon="-2.29541">
        <ele>48.599998474121</ele>
        <time>2021-07-25T06:41:18.000Z</time>
      </trkpt>
      <trkpt lat="47.53069" lon="-2.29543">
        <ele>48.599998474121</ele>
        <time>2021-07-25T06:41:19.000Z</time>
      </trkpt>
      <trkpt lat="47.5307" lon="-2.29545">
        <ele>48.599998474121</ele>
        <time>2021-07-25T06:41:20.000Z</time>
      </trkpt>
      <trkpt lat="47.53077" lon="-2.29553">
        <ele>49</ele>
        <time>2021-07-25T06:41:24.000Z</time>
      </trkpt>
      <trkpt lat="47.53079" lon="-2.29553">
        <ele>49.400001525879</ele>
        <time>2021-07-25T06:41:25.000Z</time>
      </trkpt>
      <trkpt lat="47.53081" lon="-2.29554">
        <ele>50.200000762939</ele>
        <time>2021-07-25T06:41:26.000Z</time>
      </trkpt>
      <trkpt lat="47.53084" lon="-2.29554">
        <ele>50.599998474121</ele>
        <time>2021-07-25T06:41:27.000Z</time>
      </trkpt>
      <trkpt lat="47.53088" lon="-2.29553">
        <ele>50.599998474121</ele>
        <time>2021-07-25T06:41:29.000Z</time>
      </trkpt>
      <trkpt lat="47.53095" lon="-2.29553">
        <ele>50.599998474121</ele>
        <time>2021-07-25T06:41:32.000Z</time>
      </trkpt>
      <trkpt lat="47.531" lon="-2.29556">
        <ele>50.599998474121</ele>
        <time>2021-07-25T06:41:34.000Z</time>
      </trkpt>
      <trkpt lat="47.53107" lon="-2.29574">
        <ele>50.599998474121</ele>
        <time>2021-07-25T06:41:38.000Z</time>
      </trkpt>
      <trkpt lat="47.53112" lon="-2.29594">
        <ele>50.599998474121</ele>
        <time>2021-07-25T06:41:42.000Z</time>
      </trkpt>
      <trkpt lat="47.53114" lon="-2.29599">
        <ele>50.599998474121</ele>
        <time>2021-07-25T06:41:43.000Z</time>
      </trkpt>
      <trkpt lat="47.53122" lon="-2.2964">
        <ele>50.599998474121</ele>
        <time>2021-07-25T06:41:49.000Z</time>
      </trkpt>
      <trkpt lat="47.53131" lon="-2.29682">
        <ele>50.599998474121</ele>
        <time>2021-07-25T06:41:55.000Z</time>
      </trkpt>
      <trkpt lat="47.53136" lon="-2.29708">
        <ele>50.200000762939</ele>
        <time>2021-07-25T06:41:59.000Z</time>
      </trkpt>
      <trkpt lat="47.53137" lon="-2.29715">
        <ele>49.599998474121</ele>
        <time>2021-07-25T06:42:00.000Z</time>
      </trkpt>
      <trkpt lat="47.53138" lon="-2.29722">
        <ele>49.200000762939</ele>
        <time>2021-07-25T06:42:01.000Z</time>
      </trkpt>
      <trkpt lat="47.5314" lon="-2.29729">
        <ele>48.799999237061</ele>
        <time>2021-07-25T06:42:02.000Z</time>
      </trkpt>
      <trkpt lat="47.53142" lon="-2.29737">
        <ele>48.400001525879</ele>
        <time>2021-07-25T06:42:03.000Z</time>
      </trkpt>
      <trkpt lat="47.53147" lon="-2.29766">
        <ele>48</ele>
        <time>2021-07-25T06:42:06.000Z</time>
      </trkpt>
      <trkpt lat="47.53148" lon="-2.29774">
        <ele>47.400001525879</ele>
        <time>2021-07-25T06:42:07.000Z</time>
      </trkpt>
      <trkpt lat="47.5315" lon="-2.29782">
        <ele>47</ele>
        <time>2021-07-25T06:42:08.000Z</time>
      </trkpt>
      <trkpt lat="47.53151" lon="-2.29789">
        <ele>46.599998474121</ele>
        <time>2021-07-25T06:42:09.000Z</time>
      </trkpt>
      <trkpt lat="47.53151" lon="-2.29795">
        <ele>46</ele>
        <time>2021-07-25T06:42:10.000Z</time>
      </trkpt>
      <trkpt lat="47.53153" lon="-2.29804">
        <ele>46</ele>
        <time>2021-07-25T06:42:12.000Z</time>
      </trkpt>
      <trkpt lat="47.53153" lon="-2.29811">
        <ele>45.599998474121</ele>
        <time>2021-07-25T06:42:14.000Z</time>
      </trkpt>
      <trkpt lat="47.53153" lon="-2.29813">
        <ele>44.799999237061</ele>
        <time>2021-07-25T06:42:15.000Z</time>
      </trkpt>
      <trkpt lat="47.53154" lon="-2.29815">
        <ele>44.400001525879</ele>
        <time>2021-07-25T06:42:16.000Z</time>
      </trkpt>
      <trkpt lat="47.53154" lon="-2.29816">
        <ele>44</ele>
        <time>2021-07-25T06:42:17.000Z</time>
      </trkpt>
      <trkpt lat="47.53157" lon="-2.29823">
        <ele>36.799999237061</ele>
        <time>2021-07-25T06:42:56.000Z</time>
      </trkpt>
      <trkpt lat="47.53161" lon="-2.29826">
        <ele>36.200000762939</ele>
        <time>2021-07-25T06:42:57.000Z</time>
      </trkpt>
      <trkpt lat="47.53165" lon="-2.29828">
        <ele>35.799999237061</ele>
        <time>2021-07-25T06:42:58.000Z</time>
      </trkpt>
      <trkpt lat="47.53168" lon="-2.2983">
        <ele>35.400001525879</ele>
        <time>2021-07-25T06:42:59.000Z</time>
      </trkpt>
      <trkpt lat="47.5318" lon="-2.29835">
        <ele>35</ele>
        <time>2021-07-25T06:43:02.000Z</time>
      </trkpt>
      <trkpt lat="47.53183" lon="-2.29836">
        <ele>34.599998474121</ele>
        <time>2021-07-25T06:43:03.000Z</time>
      </trkpt>
      <trkpt lat="47.53187" lon="-2.29836">
        <ele>33.599998474121</ele>
        <time>2021-07-25T06:43:04.000Z</time>
      </trkpt>
      <trkpt lat="47.53191" lon="-2.29835">
        <ele>33.200000762939</ele>
        <time>2021-07-25T06:43:05.000Z</time>
      </trkpt>
      <trkpt lat="47.53202" lon="-2.29833">
        <ele>33.200000762939</ele>
        <time>2021-07-25T06:43:08.000Z</time>
      </trkpt>
      <trkpt lat="47.53218" lon="-2.29825">
        <ele>33.200000762939</ele>
        <time>2021-07-25T06:43:13.000Z</time>
      </trkpt>
      <trkpt lat="47.53221" lon="-2.29821">
        <ele>33.200000762939</ele>
        <time>2021-07-25T06:43:15.000Z</time>
      </trkpt>
      <trkpt lat="47.53222" lon="-2.29819">
        <ele>33.799999237061</ele>
        <time>2021-07-25T06:43:16.000Z</time>
      </trkpt>
      <trkpt lat="47.53223" lon="-2.29817">
        <ele>34.200000762939</ele>
        <time>2021-07-25T06:43:17.000Z</time>
      </trkpt>
      <trkpt lat="47.53224" lon="-2.29815">
        <ele>34.599998474121</ele>
        <time>2021-07-25T06:43:18.000Z</time>
      </trkpt>
      <trkpt lat="47.53223" lon="-2.29813">
        <ele>35</ele>
        <time>2021-07-25T06:43:19.000Z</time>
      </trkpt>
      <trkpt lat="47.53223" lon="-2.29811">
        <ele>35.599998474121</ele>
        <time>2021-07-25T06:43:20.000Z</time>
      </trkpt>
      <trkpt lat="47.53221" lon="-2.29805">
        <ele>36</ele>
        <time>2021-07-25T06:43:22.000Z</time>
      </trkpt>
      <trkpt lat="47.53221" lon="-2.29801">
        <ele>36.400001525879</ele>
        <time>2021-07-25T06:43:23.000Z</time>
      </trkpt>
      <trkpt lat="47.53221" lon="-2.29797">
        <ele>37</ele>
        <time>2021-07-25T06:43:24.000Z</time>
      </trkpt>
      <trkpt lat="47.53221" lon="-2.29792">
        <ele>37.400001525879</ele>
        <time>2021-07-25T06:43:25.000Z</time>
      </trkpt>
      <trkpt lat="47.53221" lon="-2.29787">
        <ele>38</ele>
        <time>2021-07-25T06:43:26.000Z</time>
      </trkpt>
      <trkpt lat="47.5322" lon="-2.29778">
        <ele>38</ele>
        <time>2021-07-25T06:43:28.000Z</time>
      </trkpt>
      <trkpt lat="47.53217" lon="-2.29746">
        <ele>38</ele>
        <time>2021-07-25T06:43:34.000Z</time>
      </trkpt>
      <trkpt lat="47.5322" lon="-2.29724">
        <ele>38</ele>
        <time>2021-07-25T06:43:38.000Z</time>
      </trkpt>
      <trkpt lat="47.53225" lon="-2.29713">
        <ele>38</ele>
        <time>2021-07-25T06:43:42.000Z</time>
      </trkpt>
      <trkpt lat="47.53226" lon="-2.2971">
        <ele>38</ele>
        <time>2021-07-25T06:43:43.000Z</time>
      </trkpt>
      <trkpt lat="47.53225" lon="-2.29708">
        <ele>38.400001525879</ele>
        <time>2021-07-25T06:43:44.000Z</time>
      </trkpt>
      <trkpt lat="47.53225" lon="-2.29704">
        <ele>38.799999237061</ele>
        <time>2021-07-25T06:43:45.000Z</time>
      </trkpt>
      <trkpt lat="47.53225" lon="-2.29701">
        <ele>39.200000762939</ele>
        <time>2021-07-25T06:43:46.000Z</time>
      </trkpt>
      <trkpt lat="47.53225" lon="-2.29698">
        <ele>39.599998474121</ele>
        <time>2021-07-25T06:43:47.000Z</time>
      </trkpt>
      <trkpt lat="47.53225" lon="-2.29695">
        <ele>40</ele>
        <time>2021-07-25T06:43:48.000Z</time>
      </trkpt>
      <trkpt lat="47.53224" lon="-2.29689">
        <ele>40</ele>
        <time>2021-07-25T06:43:50.000Z</time>
      </trkpt>
      <trkpt lat="47.53224" lon="-2.29683">
        <ele>40</ele>
        <time>2021-07-25T06:43:52.000Z</time>
      </trkpt>
      <trkpt lat="47.53227" lon="-2.2968">
        <ele>40</ele>
        <time>2021-07-25T06:43:54.000Z</time>
      </trkpt>
      <trkpt lat="47.53232" lon="-2.29684">
        <ele>39.599998474121</ele>
        <time>2021-07-25T06:43:57.000Z</time>
      </trkpt>
      <trkpt lat="47.53233" lon="-2.29687">
        <ele>39.200000762939</ele>
        <time>2021-07-25T06:43:58.000Z</time>
      </trkpt>
      <trkpt lat="47.53234" lon="-2.29691">
        <ele>38.799999237061</ele>
        <time>2021-07-25T06:43:59.000Z</time>
      </trkpt>
      <trkpt lat="47.53236" lon="-2.29693">
        <ele>38.400001525879</ele>
        <time>2021-07-25T06:44:00.000Z</time>
      </trkpt>
      <trkpt lat="47.53237" lon="-2.29693">
        <ele>38</ele>
        <time>2021-07-25T06:44:01.000Z</time>
      </trkpt>
      <trkpt lat="47.5324" lon="-2.29693">
        <ele>38</ele>
        <time>2021-07-25T06:44:02.000Z</time>
      </trkpt>
      <trkpt lat="47.53253" lon="-2.29695">
        <ele>37.599998474121</ele>
        <time>2021-07-25T06:44:07.000Z</time>
      </trkpt>
      <trkpt lat="47.53255" lon="-2.29696">
        <ele>37</ele>
        <time>2021-07-25T06:44:08.000Z</time>
      </trkpt>
      <trkpt lat="47.53258" lon="-2.29696">
        <ele>36.599998474121</ele>
        <time>2021-07-25T06:44:09.000Z</time>
      </trkpt>
      <trkpt lat="47.53261" lon="-2.29696">
        <ele>36.200000762939</ele>
        <time>2021-07-25T06:44:10.000Z</time>
      </trkpt>
      <trkpt lat="47.53264" lon="-2.29697">
        <ele>35.799999237061</ele>
        <time>2021-07-25T06:44:11.000Z</time>
      </trkpt>
      <trkpt lat="47.53267" lon="-2.29697">
        <ele>35.200000762939</ele>
        <time>2021-07-25T06:44:12.000Z</time>
      </trkpt>
      <trkpt lat="47.53271" lon="-2.29698">
        <ele>34.799999237061</ele>
        <time>2021-07-25T06:44:13.000Z</time>
      </trkpt>
      <trkpt lat="47.53273" lon="-2.29698">
        <ele>34.400001525879</ele>
        <time>2021-07-25T06:44:14.000Z</time>
      </trkpt>
      <trkpt lat="47.53276" lon="-2.29697">
        <ele>33.799999237061</ele>
        <time>2021-07-25T06:44:15.000Z</time>
      </trkpt>
      <trkpt lat="47.53279" lon="-2.29696">
        <ele>33.400001525879</ele>
        <time>2021-07-25T06:44:16.000Z</time>
      </trkpt>
      <trkpt lat="47.53282" lon="-2.29696">
        <ele>33</ele>
        <time>2021-07-25T06:44:17.000Z</time>
      </trkpt>
      <trkpt lat="47.53284" lon="-2.29696">
        <ele>32.599998474121</ele>
        <time>2021-07-25T06:44:18.000Z</time>
      </trkpt>
      <trkpt lat="47.53285" lon="-2.29696">
        <ele>31.60000038147</ele>
        <time>2021-07-25T06:44:19.000Z</time>
      </trkpt>
      <trkpt lat="47.53287" lon="-2.29697">
        <ele>31</ele>
        <time>2021-07-25T06:44:20.000Z</time>
      </trkpt>
      <trkpt lat="47.53288" lon="-2.29697">
        <ele>30.60000038147</ele>
        <time>2021-07-25T06:44:21.000Z</time>
      </trkpt>
      <trkpt lat="47.5329" lon="-2.29697">
        <ele>30</ele>
        <time>2021-07-25T06:44:22.000Z</time>
      </trkpt>
      <trkpt lat="47.53292" lon="-2.29698">
        <ele>29.60000038147</ele>
        <time>2021-07-25T06:44:23.000Z</time>
      </trkpt>
      <trkpt lat="47.53293" lon="-2.29698">
        <ele>29</ele>
        <time>2021-07-25T06:44:24.000Z</time>
      </trkpt>
      <trkpt lat="47.53294" lon="-2.29698">
        <ele>28.60000038147</ele>
        <time>2021-07-25T06:44:25.000Z</time>
      </trkpt>
      <trkpt lat="47.53295" lon="-2.29698">
        <ele>28</ele>
        <time>2021-07-25T06:44:26.000Z</time>
      </trkpt>
      <trkpt lat="47.53296" lon="-2.29699">
        <ele>27.60000038147</ele>
        <time>2021-07-25T06:44:27.000Z</time>
      </trkpt>
      <trkpt lat="47.53297" lon="-2.29699">
        <ele>27</ele>
        <time>2021-07-25T06:44:28.000Z</time>
      </trkpt>
      <trkpt lat="47.533" lon="-2.29703">
        <ele>26.60000038147</ele>
        <time>2021-07-25T06:44:31.000Z</time>
      </trkpt>
      <trkpt lat="47.53302" lon="-2.29705">
        <ele>26.200000762939</ele>
        <time>2021-07-25T06:44:32.000Z</time>
      </trkpt>
      <trkpt lat="47.53303" lon="-2.29706">
        <ele>25.799999237061</ele>
        <time>2021-07-25T06:44:33.000Z</time>
      </trkpt>
      <trkpt lat="47.53305" lon="-2.29707">
        <ele>25.200000762939</ele>
        <time>2021-07-25T06:44:34.000Z</time>
      </trkpt>
      <trkpt lat="47.53307" lon="-2.29708">
        <ele>24.799999237061</ele>
        <time>2021-07-25T06:44:35.000Z</time>
      </trkpt>
      <trkpt lat="47.53309" lon="-2.29709">
        <ele>24.39999961853</ele>
        <time>2021-07-25T06:44:36.000Z</time>
      </trkpt>
      <trkpt lat="47.53312" lon="-2.29709">
        <ele>24</ele>
        <time>2021-07-25T06:44:37.000Z</time>
      </trkpt>
      <trkpt lat="47.53314" lon="-2.29711">
        <ele>23.60000038147</ele>
        <time>2021-07-25T06:44:38.000Z</time>
      </trkpt>
      <trkpt lat="47.53317" lon="-2.29713">
        <ele>23.200000762939</ele>
        <time>2021-07-25T06:44:39.000Z</time>
      </trkpt>
      <trkpt lat="47.5332" lon="-2.29715">
        <ele>22.60000038147</ele>
        <time>2021-07-25T06:44:40.000Z</time>
      </trkpt>
      <trkpt lat="47.53324" lon="-2.29716">
        <ele>22</ele>
        <time>2021-07-25T06:44:41.000Z</time>
      </trkpt>
      <trkpt lat="47.53326" lon="-2.29717">
        <ele>21.39999961853</ele>
        <time>2021-07-25T06:44:42.000Z</time>
      </trkpt>
      <trkpt lat="47.53329" lon="-2.29717">
        <ele>20.39999961853</ele>
        <time>2021-07-25T06:44:43.000Z</time>
      </trkpt>
      <trkpt lat="47.53331" lon="-2.29718">
        <ele>19.799999237061</ele>
        <time>2021-07-25T06:44:44.000Z</time>
      </trkpt>
      <trkpt lat="47.53332" lon="-2.29719">
        <ele>19.39999961853</ele>
        <time>2021-07-25T06:44:45.000Z</time>
      </trkpt>
      <trkpt lat="47.53334" lon="-2.2972">
        <ele>19</ele>
        <time>2021-07-25T06:44:46.000Z</time>
      </trkpt>
      <trkpt lat="47.53337" lon="-2.29722">
        <ele>18.39999961853</ele>
        <time>2021-07-25T06:44:47.000Z</time>
      </trkpt>
      <trkpt lat="47.5334" lon="-2.29723">
        <ele>18</ele>
        <time>2021-07-25T06:44:48.000Z</time>
      </trkpt>
      <trkpt lat="47.53341" lon="-2.29724">
        <ele>17.60000038147</ele>
        <time>2021-07-25T06:44:49.000Z</time>
      </trkpt>
      <trkpt lat="47.53343" lon="-2.29725">
        <ele>17.200000762939</ele>
        <time>2021-07-25T06:44:50.000Z</time>
      </trkpt>
      <trkpt lat="47.53344" lon="-2.29725">
        <ele>16.799999237061</ele>
        <time>2021-07-25T06:44:51.000Z</time>
      </trkpt>
      <trkpt lat="47.53346" lon="-2.29726">
        <ele>16.39999961853</ele>
        <time>2021-07-25T06:44:52.000Z</time>
      </trkpt>
      <trkpt lat="47.53348" lon="-2.29726">
        <ele>16</ele>
        <time>2021-07-25T06:44:53.000Z</time>
      </trkpt>
      <trkpt lat="47.53353" lon="-2.29728">
        <ele>15.39999961853</ele>
        <time>2021-07-25T06:44:56.000Z</time>
      </trkpt>
      <trkpt lat="47.53353" lon="-2.29728">
        <ele>15</ele>
        <time>2021-07-25T06:44:57.000Z</time>
      </trkpt>
      <trkpt lat="47.53358" lon="-2.29725">
        <ele>11.60000038147</ele>
        <time>2021-07-25T06:45:26.000Z</time>
      </trkpt>
      <trkpt lat="47.53355" lon="-2.2971">
        <ele>11.60000038147</ele>
        <time>2021-07-25T06:45:32.000Z</time>
      </trkpt>
      <trkpt lat="47.53348" lon="-2.29688">
        <ele>11.60000038147</ele>
        <time>2021-07-25T06:45:37.000Z</time>
      </trkpt>
      <trkpt lat="47.53343" lon="-2.29651">
        <ele>11.60000038147</ele>
        <time>2021-07-25T06:45:43.000Z</time>
      </trkpt>
      <trkpt lat="47.53331" lon="-2.29637">
        <ele>11.60000038147</ele>
        <time>2021-07-25T06:45:47.000Z</time>
      </trkpt>
      <trkpt lat="47.53325" lon="-2.29635">
        <ele>12.199999809265</ele>
        <time>2021-07-25T06:45:49.000Z</time>
      </trkpt>
      <trkpt lat="47.53321" lon="-2.29633">
        <ele>12.60000038147</ele>
        <time>2021-07-25T06:45:50.000Z</time>
      </trkpt>
      <trkpt lat="47.53317" lon="-2.29632">
        <ele>13</ele>
        <time>2021-07-25T06:45:51.000Z</time>
      </trkpt>
      <trkpt lat="47.53313" lon="-2.29631">
        <ele>13.39999961853</ele>
        <time>2021-07-25T06:45:52.000Z</time>
      </trkpt>
      <trkpt lat="47.53309" lon="-2.2963">
        <ele>13.800000190735</ele>
        <time>2021-07-25T06:45:53.000Z</time>
      </trkpt>
      <trkpt lat="47.53291" lon="-2.29625">
        <ele>13.800000190735</ele>
        <time>2021-07-25T06:45:58.000Z</time>
      </trkpt>
      <trkpt lat="47.53285" lon="-2.29622">
        <ele>14.199999809265</ele>
        <time>2021-07-25T06:46:00.000Z</time>
      </trkpt>
      <trkpt lat="47.53284" lon="-2.29621">
        <ele>14.60000038147</ele>
        <time>2021-07-25T06:46:01.000Z</time>
      </trkpt>
      <trkpt lat="47.53282" lon="-2.29618">
        <ele>15</ele>
        <time>2021-07-25T06:46:02.000Z</time>
      </trkpt>
      <trkpt lat="47.53281" lon="-2.29615">
        <ele>15.39999961853</ele>
        <time>2021-07-25T06:46:03.000Z</time>
      </trkpt>
      <trkpt lat="47.5328" lon="-2.29612">
        <ele>15.800000190735</ele>
        <time>2021-07-25T06:46:04.000Z</time>
      </trkpt>
      <trkpt lat="47.53278" lon="-2.29598">
        <ele>15.800000190735</ele>
        <time>2021-07-25T06:46:07.000Z</time>
      </trkpt>
      <trkpt lat="47.53278" lon="-2.29594">
        <ele>15.800000190735</ele>
        <time>2021-07-25T06:46:08.000Z</time>
      </trkpt>
      <trkpt lat="47.53277" lon="-2.29565">
        <ele>15.800000190735</ele>
        <time>2021-07-25T06:46:13.000Z</time>
      </trkpt>
      <trkpt lat="47.53281" lon="-2.29523">
        <ele>15.800000190735</ele>
        <time>2021-07-25T06:46:18.000Z</time>
      </trkpt>
      <trkpt lat="47.53282" lon="-2.29515">
        <ele>15.39999961853</ele>
        <time>2021-07-25T06:46:19.000Z</time>
      </trkpt>
      <trkpt lat="47.53283" lon="-2.29506">
        <ele>15</ele>
        <time>2021-07-25T06:46:20.000Z</time>
      </trkpt>
      <trkpt lat="47.53287" lon="-2.29499">
        <ele>14.60000038147</ele>
        <time>2021-07-25T06:46:21.000Z</time>
      </trkpt>
      <trkpt lat="47.53292" lon="-2.29493">
        <ele>13.800000190735</ele>
        <time>2021-07-25T06:46:22.000Z</time>
      </trkpt>
      <trkpt lat="47.53297" lon="-2.29488">
        <ele>13.800000190735</ele>
        <time>2021-07-25T06:46:23.000Z</time>
      </trkpt>
      <trkpt lat="47.53313" lon="-2.29475">
        <ele>13.800000190735</ele>
        <time>2021-07-25T06:46:26.000Z</time>
      </trkpt>
      <trkpt lat="47.53323" lon="-2.29468">
        <ele>13.800000190735</ele>
        <time>2021-07-25T06:46:28.000Z</time>
      </trkpt>
      <trkpt lat="47.53335" lon="-2.29456">
        <ele>13.800000190735</ele>
        <time>2021-07-25T06:46:31.000Z</time>
      </trkpt>
      <trkpt lat="47.53344" lon="-2.29444">
        <ele>13.800000190735</ele>
        <time>2021-07-25T06:46:35.000Z</time>
      </trkpt>
      <trkpt lat="47.53342" lon="-2.29433">
        <ele>13.800000190735</ele>
        <time>2021-07-25T06:46:40.000Z</time>
      </trkpt>
      <trkpt lat="47.53333" lon="-2.2942">
        <ele>13.800000190735</ele>
        <time>2021-07-25T06:46:46.000Z</time>
      </trkpt>
      <trkpt lat="47.53325" lon="-2.29402">
        <ele>13.800000190735</ele>
        <time>2021-07-25T06:46:52.000Z</time>
      </trkpt>
      <trkpt lat="47.53319" lon="-2.29381">
        <ele>14.199999809265</ele>
        <time>2021-07-25T06:46:58.000Z</time>
      </trkpt>
      <trkpt lat="47.53319" lon="-2.29378">
        <ele>14.60000038147</ele>
        <time>2021-07-25T06:46:59.000Z</time>
      </trkpt>
      <trkpt lat="47.53318" lon="-2.29375">
        <ele>15</ele>
        <time>2021-07-25T06:47:00.000Z</time>
      </trkpt>
      <trkpt lat="47.53317" lon="-2.29372">
        <ele>15.39999961853</ele>
        <time>2021-07-25T06:47:01.000Z</time>
      </trkpt>
      <trkpt lat="47.53316" lon="-2.2937">
        <ele>15.800000190735</ele>
        <time>2021-07-25T06:47:02.000Z</time>
      </trkpt>
      <trkpt lat="47.5331" lon="-2.29358">
        <ele>15.800000190735</ele>
        <time>2021-07-25T06:47:06.000Z</time>
      </trkpt>
      <trkpt lat="47.53295" lon="-2.29338">
        <ele>15.800000190735</ele>
        <time>2021-07-25T06:47:12.000Z</time>
      </trkpt>
      <trkpt lat="47.53285" lon="-2.29325">
        <ele>15.800000190735</ele>
        <time>2021-07-25T06:47:17.000Z</time>
      </trkpt>
      <trkpt lat="47.53274" lon="-2.29301">
        <ele>15.800000190735</ele>
        <time>2021-07-25T06:47:24.000Z</time>
      </trkpt>
      <trkpt lat="47.53272" lon="-2.29296">
        <ele>16.200000762939</ele>
        <time>2021-07-25T06:47:26.000Z</time>
      </trkpt>
      <trkpt lat="47.53271" lon="-2.29294">
        <ele>16.60000038147</ele>
        <time>2021-07-25T06:47:27.000Z</time>
      </trkpt>
      <trkpt lat="47.53271" lon="-2.29294">
        <ele>17</ele>
        <time>2021-07-25T06:47:28.000Z</time>
      </trkpt>
      <trkpt lat="47.53271" lon="-2.29294">
        <ele>17.39999961853</ele>
        <time>2021-07-25T06:47:29.000Z</time>
      </trkpt>
      <trkpt lat="47.53271" lon="-2.29294">
        <ele>17.799999237061</ele>
        <time>2021-07-25T06:47:30.000Z</time>
      </trkpt>
      <trkpt lat="47.53265" lon="-2.29287">
        <ele>18.799999237061</ele>
        <time>2021-07-25T06:47:43.000Z</time>
      </trkpt>
      <trkpt lat="47.53263" lon="-2.29285">
        <ele>18.60000038147</ele>
        <time>2021-07-25T06:47:44.000Z</time>
      </trkpt>
      <trkpt lat="47.53259" lon="-2.29279">
        <ele>18.60000038147</ele>
        <time>2021-07-25T06:47:46.000Z</time>
      </trkpt>
      <trkpt lat="47.53257" lon="-2.29277">
        <ele>18.200000762939</ele>
        <time>2021-07-25T06:47:47.000Z</time>
      </trkpt>
      <trkpt lat="47.53255" lon="-2.29274">
        <ele>17.60000038147</ele>
        <time>2021-07-25T06:47:48.000Z</time>
      </trkpt>
      <trkpt lat="47.53253" lon="-2.29271">
        <ele>17.200000762939</ele>
        <time>2021-07-25T06:47:49.000Z</time>
      </trkpt>
      <trkpt lat="47.53252" lon="-2.29268">
        <ele>16.799999237061</ele>
        <time>2021-07-25T06:47:50.000Z</time>
      </trkpt>
      <trkpt lat="47.5325" lon="-2.29264">
        <ele>16.200000762939</ele>
        <time>2021-07-25T06:47:51.000Z</time>
      </trkpt>
      <trkpt lat="47.53249" lon="-2.29259">
        <ele>16.200000762939</ele>
        <time>2021-07-25T06:47:52.000Z</time>
      </trkpt>
      <trkpt lat="47.53245" lon="-2.2923">
        <ele>16.200000762939</ele>
        <time>2021-07-25T06:47:59.000Z</time>
      </trkpt>
      <trkpt lat="47.53249" lon="-2.29215">
        <ele>16.200000762939</ele>
        <time>2021-07-25T06:48:05.000Z</time>
      </trkpt>
      <trkpt lat="47.53251" lon="-2.2921">
        <ele>16.200000762939</ele>
        <time>2021-07-25T06:48:07.000Z</time>
      </trkpt>
      <trkpt lat="47.53256" lon="-2.29204">
        <ele>16.200000762939</ele>
        <time>2021-07-25T06:48:10.000Z</time>
      </trkpt>
      <trkpt lat="47.53264" lon="-2.29188">
        <ele>16.200000762939</ele>
        <time>2021-07-25T06:48:16.000Z</time>
      </trkpt>
      <trkpt lat="47.53266" lon="-2.29175">
        <ele>16.200000762939</ele>
        <time>2021-07-25T06:48:22.000Z</time>
      </trkpt>
      <trkpt lat="47.53269" lon="-2.29165">
        <ele>16.200000762939</ele>
        <time>2021-07-25T06:48:26.000Z</time>
      </trkpt>
      <trkpt lat="47.5327" lon="-2.2916">
        <ele>16.200000762939</ele>
        <time>2021-07-25T06:48:28.000Z</time>
      </trkpt>
      <trkpt lat="47.53271" lon="-2.29149">
        <ele>16.200000762939</ele>
        <time>2021-07-25T06:48:35.000Z</time>
      </trkpt>
      <trkpt lat="47.53273" lon="-2.29133">
        <ele>15.800000190735</ele>
        <time>2021-07-25T06:48:41.000Z</time>
      </trkpt>
      <trkpt lat="47.53273" lon="-2.29131">
        <ele>15.39999961853</ele>
        <time>2021-07-25T06:48:42.000Z</time>
      </trkpt>
      <trkpt lat="47.53274" lon="-2.29127">
        <ele>15</ele>
        <time>2021-07-25T06:48:43.000Z</time>
      </trkpt>
      <trkpt lat="47.53274" lon="-2.29123">
        <ele>14.60000038147</ele>
        <time>2021-07-25T06:48:44.000Z</time>
      </trkpt>
      <trkpt lat="47.53274" lon="-2.29122">
        <ele>14.199999809265</ele>
        <time>2021-07-25T06:48:45.000Z</time>
      </trkpt>
      <trkpt lat="47.53274" lon="-2.2912">
        <ele>14.199999809265</ele>
        <time>2021-07-25T06:48:46.000Z</time>
      </trkpt>
      <trkpt lat="47.53279" lon="-2.29101">
        <ele>14.199999809265</ele>
        <time>2021-07-25T06:49:15.000Z</time>
      </trkpt>
      <trkpt lat="47.5328" lon="-2.2909">
        <ele>14.199999809265</ele>
        <time>2021-07-25T06:49:19.000Z</time>
      </trkpt>
      <trkpt lat="47.53281" lon="-2.29088">
        <ele>14.199999809265</ele>
        <time>2021-07-25T06:49:20.000Z</time>
      </trkpt>
      <trkpt lat="47.53286" lon="-2.29082">
        <ele>14.199999809265</ele>
        <time>2021-07-25T06:49:24.000Z</time>
      </trkpt>
      <trkpt lat="47.5329" lon="-2.29078">
        <ele>14.199999809265</ele>
        <time>2021-07-25T06:49:27.000Z</time>
      </trkpt>
      <trkpt lat="47.53292" lon="-2.29076">
        <ele>14.199999809265</ele>
        <time>2021-07-25T06:49:31.000Z</time>
      </trkpt>
      <trkpt lat="47.53301" lon="-2.29074">
        <ele>14.199999809265</ele>
        <time>2021-07-25T06:49:39.000Z</time>
      </trkpt>
      <trkpt lat="47.53303" lon="-2.29076">
        <ele>14.199999809265</ele>
        <time>2021-07-25T06:49:40.000Z</time>
      </trkpt>
      <trkpt lat="47.53311" lon="-2.29077">
        <ele>14.199999809265</ele>
        <time>2021-07-25T06:49:45.000Z</time>
      </trkpt>
      <trkpt lat="47.53313" lon="-2.29074">
        <ele>14.199999809265</ele>
        <time>2021-07-25T06:49:47.000Z</time>
      </trkpt>
      <trkpt lat="47.53313" lon="-2.29068">
        <ele>14.199999809265</ele>
        <time>2021-07-25T06:49:49.000Z</time>
      </trkpt>
      <trkpt lat="47.53317" lon="-2.29054">
        <ele>14.199999809265</ele>
        <time>2021-07-25T06:49:54.000Z</time>
      </trkpt>
      <trkpt lat="47.53324" lon="-2.29042">
        <ele>14.199999809265</ele>
        <time>2021-07-25T06:50:00.000Z</time>
      </trkpt>
      <trkpt lat="47.53323" lon="-2.29033">
        <ele>14.199999809265</ele>
        <time>2021-07-25T06:50:04.000Z</time>
      </trkpt>
      <trkpt lat="47.53324" lon="-2.29032">
        <ele>14.199999809265</ele>
        <time>2021-07-25T06:50:06.000Z</time>
      </trkpt>
      <trkpt lat="47.53323" lon="-2.2903">
        <ele>14.199999809265</ele>
        <time>2021-07-25T06:52:43.000Z</time>
      </trkpt>
      <trkpt lat="47.53322" lon="-2.29029">
        <ele>14.199999809265</ele>
        <time>2021-07-25T06:52:46.000Z</time>
      </trkpt>
      <trkpt lat="47.53318" lon="-2.2903">
        <ele>14.199999809265</ele>
        <time>2021-07-25T06:52:56.000Z</time>
      </trkpt>
      <trkpt lat="47.53314" lon="-2.29034">
        <ele>14.199999809265</ele>
        <time>2021-07-25T06:52:59.000Z</time>
      </trkpt>
      <trkpt lat="47.53299" lon="-2.29045">
        <ele>14.199999809265</ele>
        <time>2021-07-25T06:53:06.000Z</time>
      </trkpt>
      <trkpt lat="47.53283" lon="-2.29053">
        <ele>14.199999809265</ele>
        <time>2021-07-25T06:53:12.000Z</time>
      </trkpt>
      <trkpt lat="47.53261" lon="-2.29057">
        <ele>14.199999809265</ele>
        <time>2021-07-25T06:53:19.000Z</time>
      </trkpt>
      <trkpt lat="47.53255" lon="-2.2906">
        <ele>14.199999809265</ele>
        <time>2021-07-25T06:53:23.000Z</time>
      </trkpt>
      <trkpt lat="47.53248" lon="-2.29078">
        <ele>13.800000190735</ele>
        <time>2021-07-25T06:53:28.000Z</time>
      </trkpt>
      <trkpt lat="47.53246" lon="-2.29082">
        <ele>13.199999809265</ele>
        <time>2021-07-25T06:53:29.000Z</time>
      </trkpt>
      <trkpt lat="47.53245" lon="-2.29085">
        <ele>12.800000190735</ele>
        <time>2021-07-25T06:53:30.000Z</time>
      </trkpt>
      <trkpt lat="47.53245" lon="-2.29089">
        <ele>12.39999961853</ele>
        <time>2021-07-25T06:53:31.000Z</time>
      </trkpt>
      <trkpt lat="47.53245" lon="-2.29092">
        <ele>12</ele>
        <time>2021-07-25T06:53:32.000Z</time>
      </trkpt>
      <trkpt lat="47.5324" lon="-2.29112">
        <ele>12</ele>
        <time>2021-07-25T06:53:38.000Z</time>
      </trkpt>
      <trkpt lat="47.53238" lon="-2.29123">
        <ele>12</ele>
        <time>2021-07-25T06:53:44.000Z</time>
      </trkpt>
      <trkpt lat="47.53236" lon="-2.29133">
        <ele>12</ele>
        <time>2021-07-25T06:53:49.000Z</time>
      </trkpt>
      <trkpt lat="47.53231" lon="-2.29148">
        <ele>12</ele>
        <time>2021-07-25T06:53:57.000Z</time>
      </trkpt>
      <trkpt lat="47.53226" lon="-2.29159">
        <ele>12</ele>
        <time>2021-07-25T06:54:00.000Z</time>
      </trkpt>
      <trkpt lat="47.53214" lon="-2.29175">
        <ele>12</ele>
        <time>2021-07-25T06:54:05.000Z</time>
      </trkpt>
      <trkpt lat="47.53207" lon="-2.2918">
        <ele>12</ele>
        <time>2021-07-25T06:54:07.000Z</time>
      </trkpt>
      <trkpt lat="47.53203" lon="-2.2918">
        <ele>12</ele>
        <time>2021-07-25T06:54:08.000Z</time>
      </trkpt>
      <trkpt lat="47.53187" lon="-2.29168">
        <ele>12.39999961853</ele>
        <time>2021-07-25T06:54:13.000Z</time>
      </trkpt>
      <trkpt lat="47.53185" lon="-2.29165">
        <ele>12.800000190735</ele>
        <time>2021-07-25T06:54:14.000Z</time>
      </trkpt>
      <trkpt lat="47.53185" lon="-2.29159">
        <ele>13.199999809265</ele>
        <time>2021-07-25T06:54:15.000Z</time>
      </trkpt>
      <trkpt lat="47.53184" lon="-2.29153">
        <ele>13.60000038147</ele>
        <time>2021-07-25T06:54:16.000Z</time>
      </trkpt>
      <trkpt lat="47.53183" lon="-2.29148">
        <ele>14</ele>
        <time>2021-07-25T06:54:17.000Z</time>
      </trkpt>
      <trkpt lat="47.53182" lon="-2.29143">
        <ele>14.60000038147</ele>
        <time>2021-07-25T06:54:18.000Z</time>
      </trkpt>
      <trkpt lat="47.53181" lon="-2.29138">
        <ele>15</ele>
        <time>2021-07-25T06:54:19.000Z</time>
      </trkpt>
      <trkpt lat="47.5318" lon="-2.29134">
        <ele>15.60000038147</ele>
        <time>2021-07-25T06:54:20.000Z</time>
      </trkpt>
      <trkpt lat="47.53179" lon="-2.2913">
        <ele>16</ele>
        <time>2021-07-25T06:54:21.000Z</time>
      </trkpt>
      <trkpt lat="47.53178" lon="-2.29125">
        <ele>16.60000038147</ele>
        <time>2021-07-25T06:54:22.000Z</time>
      </trkpt>
      <trkpt lat="47.53176" lon="-2.29112">
        <ele>16.60000038147</ele>
        <time>2021-07-25T06:54:25.000Z</time>
      </trkpt>
      <trkpt lat="47.53165" lon="-2.29077">
        <ele>16.60000038147</ele>
        <time>2021-07-25T06:54:33.000Z</time>
      </trkpt>
      <trkpt lat="47.53153" lon="-2.29039">
        <ele>16.60000038147</ele>
        <time>2021-07-25T06:54:40.000Z</time>
      </trkpt>
      <trkpt lat="47.53144" lon="-2.29003">
        <ele>16.60000038147</ele>
        <time>2021-07-25T06:54:46.000Z</time>
      </trkpt>
      <trkpt lat="47.53141" lon="-2.28992">
        <ele>16.60000038147</ele>
        <time>2021-07-25T06:54:48.000Z</time>
      </trkpt>
      <trkpt lat="47.53135" lon="-2.28971">
        <ele>16.60000038147</ele>
        <time>2021-07-25T06:54:52.000Z</time>
      </trkpt>
      <trkpt lat="47.53133" lon="-2.28965">
        <ele>16.60000038147</ele>
        <time>2021-07-25T06:54:53.000Z</time>
      </trkpt>
      <trkpt lat="47.53123" lon="-2.28943">
        <ele>16.60000038147</ele>
        <time>2021-07-25T06:54:57.000Z</time>
      </trkpt>
      <trkpt lat="47.53107" lon="-2.28908">
        <ele>16.60000038147</ele>
        <time>2021-07-25T06:55:03.000Z</time>
      </trkpt>
      <trkpt lat="47.53112" lon="-2.28888">
        <ele>16.60000038147</ele>
        <time>2021-07-25T06:55:06.000Z</time>
      </trkpt>
      <trkpt lat="47.5311" lon="-2.28868">
        <ele>16.60000038147</ele>
        <time>2021-07-25T06:55:09.000Z</time>
      </trkpt>
      <trkpt lat="47.53099" lon="-2.28859">
        <ele>16.60000038147</ele>
        <time>2021-07-25T06:55:12.000Z</time>
      </trkpt>
      <trkpt lat="47.53076" lon="-2.28827">
        <ele>16.60000038147</ele>
        <time>2021-07-25T06:55:19.000Z</time>
      </trkpt>
      <trkpt lat="47.53058" lon="-2.28803">
        <ele>16.60000038147</ele>
        <time>2021-07-25T06:55:24.000Z</time>
      </trkpt>
      <trkpt lat="47.53055" lon="-2.28798">
        <ele>16.60000038147</ele>
        <time>2021-07-25T06:55:25.000Z</time>
      </trkpt>
      <trkpt lat="47.53038" lon="-2.28764">
        <ele>16.60000038147</ele>
        <time>2021-07-25T06:55:31.000Z</time>
      </trkpt>
      <trkpt lat="47.53021" lon="-2.28726">
        <ele>16.60000038147</ele>
        <time>2021-07-25T06:55:38.000Z</time>
      </trkpt>
      <trkpt lat="47.53018" lon="-2.28715">
        <ele>17</ele>
        <time>2021-07-25T06:55:40.000Z</time>
      </trkpt>
      <trkpt lat="47.53016" lon="-2.2871">
        <ele>17.39999961853</ele>
        <time>2021-07-25T06:55:41.000Z</time>
      </trkpt>
      <trkpt lat="47.53014" lon="-2.28705">
        <ele>17.799999237061</ele>
        <time>2021-07-25T06:55:42.000Z</time>
      </trkpt>
      <trkpt lat="47.53012" lon="-2.287">
        <ele>18.200000762939</ele>
        <time>2021-07-25T06:55:43.000Z</time>
      </trkpt>
      <trkpt lat="47.5301" lon="-2.28695">
        <ele>18.60000038147</ele>
        <time>2021-07-25T06:55:44.000Z</time>
      </trkpt>
      <trkpt lat="47.53008" lon="-2.28691">
        <ele>18.60000038147</ele>
        <time>2021-07-25T06:55:45.000Z</time>
      </trkpt>
      <trkpt lat="47.53006" lon="-2.28675">
        <ele>18.60000038147</ele>
        <time>2021-07-25T06:55:49.000Z</time>
      </trkpt>
      <trkpt lat="47.53014" lon="-2.28667">
        <ele>18.60000038147</ele>
        <time>2021-07-25T06:55:52.000Z</time>
      </trkpt>
      <trkpt lat="47.53031" lon="-2.28646">
        <ele>18.60000038147</ele>
        <time>2021-07-25T06:55:58.000Z</time>
      </trkpt>
      <trkpt lat="47.53052" lon="-2.2862">
        <ele>18.60000038147</ele>
        <time>2021-07-25T06:56:05.000Z</time>
      </trkpt>
      <trkpt lat="47.53056" lon="-2.28616">
        <ele>18.60000038147</ele>
        <time>2021-07-25T06:56:06.000Z</time>
      </trkpt>
      <trkpt lat="47.53073" lon="-2.28606">
        <ele>18.60000038147</ele>
        <time>2021-07-25T06:56:09.000Z</time>
      </trkpt>
      <trkpt lat="47.53085" lon="-2.286">
        <ele>18.200000762939</ele>
        <time>2021-07-25T06:56:11.000Z</time>
      </trkpt>
      <trkpt lat="47.5309" lon="-2.28597">
        <ele>17.799999237061</ele>
        <time>2021-07-25T06:56:12.000Z</time>
      </trkpt>
      <trkpt lat="47.53096" lon="-2.28593">
        <ele>17.39999961853</ele>
        <time>2021-07-25T06:56:13.000Z</time>
      </trkpt>
      <trkpt lat="47.53101" lon="-2.2859">
        <ele>17</ele>
        <time>2021-07-25T06:56:14.000Z</time>
      </trkpt>
      <trkpt lat="47.53106" lon="-2.28586">
        <ele>16.60000038147</ele>
        <time>2021-07-25T06:56:15.000Z</time>
      </trkpt>
      <trkpt lat="47.5311" lon="-2.28583">
        <ele>16.60000038147</ele>
        <time>2021-07-25T06:56:16.000Z</time>
      </trkpt>
      <trkpt lat="47.53131" lon="-2.28575">
        <ele>16.60000038147</ele>
        <time>2021-07-25T06:56:21.000Z</time>
      </trkpt>
      <trkpt lat="47.53151" lon="-2.28586">
        <ele>16.60000038147</ele>
        <time>2021-07-25T06:56:25.000Z</time>
      </trkpt>
      <trkpt lat="47.53183" lon="-2.28604">
        <ele>16.60000038147</ele>
        <time>2021-07-25T06:56:31.000Z</time>
      </trkpt>
      <trkpt lat="47.53197" lon="-2.28614">
        <ele>16.60000038147</ele>
        <time>2021-07-25T06:56:34.000Z</time>
      </trkpt>
      <trkpt lat="47.532" lon="-2.28618">
        <ele>16.200000762939</ele>
        <time>2021-07-25T06:56:35.000Z</time>
      </trkpt>
      <trkpt lat="47.53202" lon="-2.28623">
        <ele>15.60000038147</ele>
        <time>2021-07-25T06:56:36.000Z</time>
      </trkpt>
      <trkpt lat="47.53203" lon="-2.28629">
        <ele>15.199999809265</ele>
        <time>2021-07-25T06:56:37.000Z</time>
      </trkpt>
      <trkpt lat="47.53203" lon="-2.28636">
        <ele>14.800000190735</ele>
        <time>2021-07-25T06:56:38.000Z</time>
      </trkpt>
      <trkpt lat="47.53204" lon="-2.28642">
        <ele>14.39999961853</ele>
        <time>2021-07-25T06:56:39.000Z</time>
      </trkpt>
      <trkpt lat="47.53205" lon="-2.28649">
        <ele>14.39999961853</ele>
        <time>2021-07-25T06:56:40.000Z</time>
      </trkpt>
      <trkpt lat="47.53207" lon="-2.28655">
        <ele>14.39999961853</ele>
        <time>2021-07-25T06:56:41.000Z</time>
      </trkpt>
      <trkpt lat="47.53218" lon="-2.28674">
        <ele>14.39999961853</ele>
        <time>2021-07-25T06:56:45.000Z</time>
      </trkpt>
      <trkpt lat="47.53229" lon="-2.28682">
        <ele>14.39999961853</ele>
        <time>2021-07-25T06:56:48.000Z</time>
      </trkpt>
      <trkpt lat="47.53235" lon="-2.28687">
        <ele>14.39999961853</ele>
        <time>2021-07-25T06:56:50.000Z</time>
      </trkpt>
      <trkpt lat="47.53241" lon="-2.28697">
        <ele>14.39999961853</ele>
        <time>2021-07-25T06:56:54.000Z</time>
      </trkpt>
      <trkpt lat="47.53246" lon="-2.28701">
        <ele>14.39999961853</ele>
        <time>2021-07-25T06:56:59.000Z</time>
      </trkpt>
      <trkpt lat="47.53254" lon="-2.28707">
        <ele>14.800000190735</ele>
        <time>2021-07-25T06:57:06.000Z</time>
      </trkpt>
      <trkpt lat="47.53254" lon="-2.28707">
        <ele>15.39999961853</ele>
        <time>2021-07-25T06:57:07.000Z</time>
      </trkpt>
      <trkpt lat="47.53255" lon="-2.28707">
        <ele>15.800000190735</ele>
        <time>2021-07-25T06:57:08.000Z</time>
      </trkpt>
      <trkpt lat="47.53256" lon="-2.28707">
        <ele>16.200000762939</ele>
        <time>2021-07-25T06:57:09.000Z</time>
      </trkpt>
      <trkpt lat="47.53255" lon="-2.28707">
        <ele>16.799999237061</ele>
        <time>2021-07-25T06:57:10.000Z</time>
      </trkpt>
      <trkpt lat="47.53255" lon="-2.28707">
        <ele>16.799999237061</ele>
        <time>2021-07-25T06:57:13.000Z</time>
      </trkpt>
      <trkpt lat="47.53255" lon="-2.28707">
        <ele>16.799999237061</ele>
        <time>2021-07-25T06:57:14.000Z</time>
      </trkpt>
      <trkpt lat="47.53263" lon="-2.28707">
        <ele>17.200000762939</ele>
        <time>2021-07-25T06:57:42.000Z</time>
      </trkpt>
      <trkpt lat="47.53264" lon="-2.28708">
        <ele>17.60000038147</ele>
        <time>2021-07-25T06:57:43.000Z</time>
      </trkpt>
      <trkpt lat="47.53265" lon="-2.28708">
        <ele>18</ele>
        <time>2021-07-25T06:57:44.000Z</time>
      </trkpt>
      <trkpt lat="47.53267" lon="-2.28707">
        <ele>18.39999961853</ele>
        <time>2021-07-25T06:57:45.000Z</time>
      </trkpt>
      <trkpt lat="47.53269" lon="-2.28706">
        <ele>18.799999237061</ele>
        <time>2021-07-25T06:57:46.000Z</time>
      </trkpt>
      <trkpt lat="47.53271" lon="-2.287">
        <ele>18.799999237061</ele>
        <time>2021-07-25T06:57:50.000Z</time>
      </trkpt>
      <trkpt lat="47.53271" lon="-2.28699">
        <ele>18.799999237061</ele>
        <time>2021-07-25T06:57:51.000Z</time>
      </trkpt>
      <trkpt lat="47.53272" lon="-2.28688">
        <ele>18.799999237061</ele>
        <time>2021-07-25T06:57:58.000Z</time>
      </trkpt>
      <trkpt lat="47.53284" lon="-2.28679">
        <ele>18.799999237061</ele>
        <time>2021-07-25T06:58:05.000Z</time>
      </trkpt>
      <trkpt lat="47.53291" lon="-2.28678">
        <ele>18.799999237061</ele>
        <time>2021-07-25T06:58:11.000Z</time>
      </trkpt>
      <trkpt lat="47.53287" lon="-2.2868">
        <ele>18.799999237061</ele>
        <time>2021-07-25T06:58:15.000Z</time>
      </trkpt>
      <trkpt lat="47.53284" lon="-2.28679">
        <ele>18.799999237061</ele>
        <time>2021-07-25T06:58:17.000Z</time>
      </trkpt>
      <trkpt lat="47.5328" lon="-2.28677">
        <ele>18.799999237061</ele>
        <time>2021-07-25T06:58:21.000Z</time>
      </trkpt>
      <trkpt lat="47.53279" lon="-2.28674">
        <ele>18.799999237061</ele>
        <time>2021-07-25T06:58:23.000Z</time>
      </trkpt>
      <trkpt lat="47.53283" lon="-2.2867">
        <ele>18.799999237061</ele>
        <time>2021-07-25T06:58:29.000Z</time>
      </trkpt>
      <trkpt lat="47.5329" lon="-2.28665">
        <ele>18.799999237061</ele>
        <time>2021-07-25T06:58:35.000Z</time>
      </trkpt>
      <trkpt lat="47.53308" lon="-2.28673">
        <ele>21</ele>
        <time>2021-07-25T06:58:51.000Z</time>
      </trkpt>
      <trkpt lat="47.53314" lon="-2.2868">
        <ele>21</ele>
        <time>2021-07-25T06:58:54.000Z</time>
      </trkpt>
      <trkpt lat="47.53315" lon="-2.28682">
        <ele>21.39999961853</ele>
        <time>2021-07-25T06:58:55.000Z</time>
      </trkpt>
      <trkpt lat="47.53315" lon="-2.28684">
        <ele>22</ele>
        <time>2021-07-25T06:58:56.000Z</time>
      </trkpt>
      <trkpt lat="47.53316" lon="-2.28686">
        <ele>22.39999961853</ele>
        <time>2021-07-25T06:58:57.000Z</time>
      </trkpt>
      <trkpt lat="47.53317" lon="-2.28687">
        <ele>22.799999237061</ele>
        <time>2021-07-25T06:58:58.000Z</time>
      </trkpt>
      <trkpt lat="47.53319" lon="-2.28688">
        <ele>23.200000762939</ele>
        <time>2021-07-25T06:58:59.000Z</time>
      </trkpt>
      <trkpt lat="47.53321" lon="-2.28689">
        <ele>23.200000762939</ele>
        <time>2021-07-25T06:59:00.000Z</time>
      </trkpt>
      <trkpt lat="47.53323" lon="-2.28692">
        <ele>23.200000762939</ele>
        <time>2021-07-25T06:59:02.000Z</time>
      </trkpt>
      <trkpt lat="47.53325" lon="-2.28697">
        <ele>23.799999237061</ele>
        <time>2021-07-25T06:59:05.000Z</time>
      </trkpt>
      <trkpt lat="47.53325" lon="-2.287">
        <ele>24.200000762939</ele>
        <time>2021-07-25T06:59:06.000Z</time>
      </trkpt>
      <trkpt lat="47.53326" lon="-2.28703">
        <ele>24.60000038147</ele>
        <time>2021-07-25T06:59:07.000Z</time>
      </trkpt>
      <trkpt lat="47.53326" lon="-2.28706">
        <ele>25.39999961853</ele>
        <time>2021-07-25T06:59:08.000Z</time>
      </trkpt>
      <trkpt lat="47.53331" lon="-2.28712">
        <ele>25.39999961853</ele>
        <time>2021-07-25T06:59:12.000Z</time>
      </trkpt>
      <trkpt lat="47.53331" lon="-2.28713">
        <ele>25.799999237061</ele>
        <time>2021-07-25T06:59:13.000Z</time>
      </trkpt>
      <trkpt lat="47.53331" lon="-2.28715">
        <ele>26.200000762939</ele>
        <time>2021-07-25T06:59:14.000Z</time>
      </trkpt>
      <trkpt lat="47.53331" lon="-2.28717">
        <ele>26.799999237061</ele>
        <time>2021-07-25T06:59:15.000Z</time>
      </trkpt>
      <trkpt lat="47.53332" lon="-2.2872">
        <ele>27.200000762939</ele>
        <time>2021-07-25T06:59:16.000Z</time>
      </trkpt>
      <trkpt lat="47.53333" lon="-2.28722">
        <ele>27.60000038147</ele>
        <time>2021-07-25T06:59:17.000Z</time>
      </trkpt>
      <trkpt lat="47.53334" lon="-2.28723">
        <ele>27.60000038147</ele>
        <time>2021-07-25T06:59:18.000Z</time>
      </trkpt>
      <trkpt lat="47.5334" lon="-2.2874">
        <ele>27.60000038147</ele>
        <time>2021-07-25T06:59:24.000Z</time>
      </trkpt>
      <trkpt lat="47.5334" lon="-2.28743">
        <ele>28</ele>
        <time>2021-07-25T06:59:25.000Z</time>
      </trkpt>
      <trkpt lat="47.5334" lon="-2.28746">
        <ele>28.39999961853</ele>
        <time>2021-07-25T06:59:26.000Z</time>
      </trkpt>
      <trkpt lat="47.53339" lon="-2.28749">
        <ele>28.799999237061</ele>
        <time>2021-07-25T06:59:27.000Z</time>
      </trkpt>
      <trkpt lat="47.53338" lon="-2.28751">
        <ele>29.200000762939</ele>
        <time>2021-07-25T06:59:28.000Z</time>
      </trkpt>
      <trkpt lat="47.53337" lon="-2.28753">
        <ele>29.60000038147</ele>
        <time>2021-07-25T06:59:29.000Z</time>
      </trkpt>
      <trkpt lat="47.53337" lon="-2.28755">
        <ele>29.60000038147</ele>
        <time>2021-07-25T06:59:30.000Z</time>
      </trkpt>
      <trkpt lat="47.53334" lon="-2.28769">
        <ele>29.60000038147</ele>
        <time>2021-07-25T06:59:38.000Z</time>
      </trkpt>
      <trkpt lat="47.53335" lon="-2.28771">
        <ele>29.60000038147</ele>
        <time>2021-07-25T06:59:39.000Z</time>
      </trkpt>
      <trkpt lat="47.53334" lon="-2.2878">
        <ele>29.60000038147</ele>
        <time>2021-07-25T06:59:44.000Z</time>
      </trkpt>
      <trkpt lat="47.53333" lon="-2.2879">
        <ele>29.60000038147</ele>
        <time>2021-07-25T06:59:50.000Z</time>
      </trkpt>
      <trkpt lat="47.53335" lon="-2.28792">
        <ele>29.60000038147</ele>
        <time>2021-07-25T06:59:53.000Z</time>
      </trkpt>
      <trkpt lat="47.53359" lon="-2.28793">
        <ele>30.39999961853</ele>
        <time>2021-07-25T07:00:20.000Z</time>
      </trkpt>
      <trkpt lat="47.53359" lon="-2.28792">
        <ele>30.799999237061</ele>
        <time>2021-07-25T07:00:21.000Z</time>
      </trkpt>
      <trkpt lat="47.53359" lon="-2.28792">
        <ele>31.200000762939</ele>
        <time>2021-07-25T07:00:22.000Z</time>
      </trkpt>
      <trkpt lat="47.53359" lon="-2.28791">
        <ele>31.60000038147</ele>
        <time>2021-07-25T07:00:23.000Z</time>
      </trkpt>
      <trkpt lat="47.53358" lon="-2.28789">
        <ele>31.60000038147</ele>
        <time>2021-07-25T07:00:25.000Z</time>
      </trkpt>
      <trkpt lat="47.53363" lon="-2.28779">
        <ele>31.60000038147</ele>
        <time>2021-07-25T07:00:39.000Z</time>
      </trkpt>
      <trkpt lat="47.53365" lon="-2.28777">
        <ele>31.60000038147</ele>
        <time>2021-07-25T07:00:40.000Z</time>
      </trkpt>
      <trkpt lat="47.53381" lon="-2.28766">
        <ele>31.60000038147</ele>
        <time>2021-07-25T07:00:46.000Z</time>
      </trkpt>
      <trkpt lat="47.53383" lon="-2.28767">
        <ele>31.60000038147</ele>
        <time>2021-07-25T07:00:47.000Z</time>
      </trkpt>
      <trkpt lat="47.5339" lon="-2.28763">
        <ele>31.60000038147</ele>
        <time>2021-07-25T07:00:50.000Z</time>
      </trkpt>
      <trkpt lat="47.53404" lon="-2.2875">
        <ele>31.60000038147</ele>
        <time>2021-07-25T07:00:54.000Z</time>
      </trkpt>
      <trkpt lat="47.5341" lon="-2.28747">
        <ele>31.60000038147</ele>
        <time>2021-07-25T07:00:55.000Z</time>
      </trkpt>
      <trkpt lat="47.53414" lon="-2.28745">
        <ele>31.200000762939</ele>
        <time>2021-07-25T07:00:56.000Z</time>
      </trkpt>
      <trkpt lat="47.53419" lon="-2.28744">
        <ele>30.799999237061</ele>
        <time>2021-07-25T07:00:57.000Z</time>
      </trkpt>
      <trkpt lat="47.53423" lon="-2.28742">
        <ele>30.39999961853</ele>
        <time>2021-07-25T07:00:58.000Z</time>
      </trkpt>
      <trkpt lat="47.53427" lon="-2.28739">
        <ele>30</ele>
        <time>2021-07-25T07:00:59.000Z</time>
      </trkpt>
      <trkpt lat="47.53432" lon="-2.28736">
        <ele>29.60000038147</ele>
        <time>2021-07-25T07:01:00.000Z</time>
      </trkpt>
      <trkpt lat="47.5344" lon="-2.2873">
        <ele>29.60000038147</ele>
        <time>2021-07-25T07:01:02.000Z</time>
      </trkpt>
      <trkpt lat="47.53449" lon="-2.28724">
        <ele>29.60000038147</ele>
        <time>2021-07-25T07:01:04.000Z</time>
      </trkpt>
      <trkpt lat="47.53471" lon="-2.2871">
        <ele>29.60000038147</ele>
        <time>2021-07-25T07:01:09.000Z</time>
      </trkpt>
      <trkpt lat="47.53478" lon="-2.28711">
        <ele>29.60000038147</ele>
        <time>2021-07-25T07:01:11.000Z</time>
      </trkpt>
      <trkpt lat="47.53485" lon="-2.28726">
        <ele>29.60000038147</ele>
        <time>2021-07-25T07:01:14.000Z</time>
      </trkpt>
      <trkpt lat="47.53487" lon="-2.2874">
        <ele>29.60000038147</ele>
        <time>2021-07-25T07:01:16.000Z</time>
      </trkpt>
      <trkpt lat="47.53493" lon="-2.28766">
        <ele>29.60000038147</ele>
        <time>2021-07-25T07:01:20.000Z</time>
      </trkpt>
      <trkpt lat="47.53506" lon="-2.28814">
        <ele>29.60000038147</ele>
        <time>2021-07-25T07:01:28.000Z</time>
      </trkpt>
      <trkpt lat="47.53521" lon="-2.28858">
        <ele>29.60000038147</ele>
        <time>2021-07-25T07:01:35.000Z</time>
      </trkpt>
      <trkpt lat="47.53528" lon="-2.28864">
        <ele>29.60000038147</ele>
        <time>2021-07-25T07:01:38.000Z</time>
      </trkpt>
      <trkpt lat="47.53537" lon="-2.28857">
        <ele>30</ele>
        <time>2021-07-25T07:01:40.000Z</time>
      </trkpt>
      <trkpt lat="47.53541" lon="-2.28853">
        <ele>30.39999961853</ele>
        <time>2021-07-25T07:01:41.000Z</time>
      </trkpt>
      <trkpt lat="47.53544" lon="-2.2885">
        <ele>31</ele>
        <time>2021-07-25T07:01:42.000Z</time>
      </trkpt>
      <trkpt lat="47.53548" lon="-2.28847">
        <ele>31.39999961853</ele>
        <time>2021-07-25T07:01:43.000Z</time>
      </trkpt>
      <trkpt lat="47.53552" lon="-2.28844">
        <ele>31.799999237061</ele>
        <time>2021-07-25T07:01:44.000Z</time>
      </trkpt>
      <trkpt lat="47.53565" lon="-2.28833">
        <ele>31.799999237061</ele>
        <time>2021-07-25T07:01:47.000Z</time>
      </trkpt>
      <trkpt lat="47.53575" lon="-2.28811">
        <ele>31.799999237061</ele>
        <time>2021-07-25T07:01:51.000Z</time>
      </trkpt>
      <trkpt lat="47.53584" lon="-2.28795">
        <ele>31.799999237061</ele>
        <time>2021-07-25T07:01:54.000Z</time>
      </trkpt>
      <trkpt lat="47.53591" lon="-2.28788">
        <ele>31.799999237061</ele>
        <time>2021-07-25T07:01:56.000Z</time>
      </trkpt>
      <trkpt lat="47.536" lon="-2.28786">
        <ele>32.200000762939</ele>
        <time>2021-07-25T07:01:58.000Z</time>
      </trkpt>
      <trkpt lat="47.53605" lon="-2.28786">
        <ele>32.799999237061</ele>
        <time>2021-07-25T07:01:59.000Z</time>
      </trkpt>
      <trkpt lat="47.5361" lon="-2.28787">
        <ele>33.200000762939</ele>
        <time>2021-07-25T07:02:00.000Z</time>
      </trkpt>
      <trkpt lat="47.53614" lon="-2.28787">
        <ele>33.599998474121</ele>
        <time>2021-07-25T07:02:01.000Z</time>
      </trkpt>
      <trkpt lat="47.53618" lon="-2.28788">
        <ele>34</ele>
        <time>2021-07-25T07:02:02.000Z</time>
      </trkpt>
      <trkpt lat="47.53637" lon="-2.28789">
        <ele>34</ele>
        <time>2021-07-25T07:02:07.000Z</time>
      </trkpt>
      <trkpt lat="47.53641" lon="-2.28786">
        <ele>34</ele>
        <time>2021-07-25T07:02:08.000Z</time>
      </trkpt>
      <trkpt lat="47.53651" lon="-2.28775">
        <ele>34</ele>
        <time>2021-07-25T07:02:11.000Z</time>
      </trkpt>
      <trkpt lat="47.53656" lon="-2.28766">
        <ele>34</ele>
        <time>2021-07-25T07:02:13.000Z</time>
      </trkpt>
      <trkpt lat="47.53665" lon="-2.28749">
        <ele>34</ele>
        <time>2021-07-25T07:02:17.000Z</time>
      </trkpt>
      <trkpt lat="47.5367" lon="-2.28724">
        <ele>34</ele>
        <time>2021-07-25T07:02:22.000Z</time>
      </trkpt>
      <trkpt lat="47.53671" lon="-2.28719">
        <ele>34.400001525879</ele>
        <time>2021-07-25T07:02:23.000Z</time>
      </trkpt>
      <trkpt lat="47.53671" lon="-2.28714">
        <ele>34.799999237061</ele>
        <time>2021-07-25T07:02:24.000Z</time>
      </trkpt>
      <trkpt lat="47.5367" lon="-2.28708">
        <ele>35.200000762939</ele>
        <time>2021-07-25T07:02:25.000Z</time>
      </trkpt>
      <trkpt lat="47.53671" lon="-2.28703">
        <ele>36</ele>
        <time>2021-07-25T07:02:26.000Z</time>
      </trkpt>
      <trkpt lat="47.53671" lon="-2.28698">
        <ele>36</ele>
        <time>2021-07-25T07:02:27.000Z</time>
      </trkpt>
      <trkpt lat="47.53681" lon="-2.28672">
        <ele>36</ele>
        <time>2021-07-25T07:02:33.000Z</time>
      </trkpt>
      <trkpt lat="47.53697" lon="-2.28664">
        <ele>36</ele>
        <time>2021-07-25T07:02:39.000Z</time>
      </trkpt>
      <trkpt lat="47.53723" lon="-2.28661">
        <ele>36</ele>
        <time>2021-07-25T07:02:45.000Z</time>
      </trkpt>
      <trkpt lat="47.53761" lon="-2.28653">
        <ele>36</ele>
        <time>2021-07-25T07:02:53.000Z</time>
      </trkpt>
      <trkpt lat="47.53797" lon="-2.28642">
        <ele>36</ele>
        <time>2021-07-25T07:03:01.000Z</time>
      </trkpt>
      <trkpt lat="47.53829" lon="-2.2863">
        <ele>36</ele>
        <time>2021-07-25T07:03:09.000Z</time>
      </trkpt>
      <trkpt lat="47.53833" lon="-2.2863">
        <ele>36</ele>
        <time>2021-07-25T07:03:10.000Z</time>
      </trkpt>
      <trkpt lat="47.53842" lon="-2.28628">
        <ele>36</ele>
        <time>2021-07-25T07:03:12.000Z</time>
      </trkpt>
      <trkpt lat="47.53847" lon="-2.28626">
        <ele>36</ele>
        <time>2021-07-25T07:03:13.000Z</time>
      </trkpt>
      <trkpt lat="47.5386" lon="-2.28621">
        <ele>36</ele>
        <time>2021-07-25T07:03:16.000Z</time>
      </trkpt>
      <trkpt lat="47.53867" lon="-2.28618">
        <ele>36</ele>
        <time>2021-07-25T07:03:18.000Z</time>
      </trkpt>
      <trkpt lat="47.53873" lon="-2.28619">
        <ele>36.400001525879</ele>
        <time>2021-07-25T07:03:19.000Z</time>
      </trkpt>
      <trkpt lat="47.53879" lon="-2.2862">
        <ele>37</ele>
        <time>2021-07-25T07:03:20.000Z</time>
      </trkpt>
      <trkpt lat="47.53884" lon="-2.28625">
        <ele>37.400001525879</ele>
        <time>2021-07-25T07:03:21.000Z</time>
      </trkpt>
      <trkpt lat="47.53888" lon="-2.28629">
        <ele>37.799999237061</ele>
        <time>2021-07-25T07:03:22.000Z</time>
      </trkpt>
      <trkpt lat="47.53891" lon="-2.28635">
        <ele>38.200000762939</ele>
        <time>2021-07-25T07:03:23.000Z</time>
      </trkpt>
      <trkpt lat="47.53894" lon="-2.2864">
        <ele>38.200000762939</ele>
        <time>2021-07-25T07:03:24.000Z</time>
      </trkpt>
      <trkpt lat="47.53898" lon="-2.28652">
        <ele>38.200000762939</ele>
        <time>2021-07-25T07:03:26.000Z</time>
      </trkpt>
      <trkpt lat="47.53902" lon="-2.28662">
        <ele>38.200000762939</ele>
        <time>2021-07-25T07:03:28.000Z</time>
      </trkpt>
      <trkpt lat="47.53906" lon="-2.28672">
        <ele>38.200000762939</ele>
        <time>2021-07-25T07:03:30.000Z</time>
      </trkpt>
      <trkpt lat="47.53909" lon="-2.28682">
        <ele>38.200000762939</ele>
        <time>2021-07-25T07:03:33.000Z</time>
      </trkpt>
      <trkpt lat="47.53911" lon="-2.28681">
        <ele>38.200000762939</ele>
        <time>2021-07-25T07:03:34.000Z</time>
      </trkpt>
      <trkpt lat="47.53921" lon="-2.28679">
        <ele>38.200000762939</ele>
        <time>2021-07-25T07:03:39.000Z</time>
      </trkpt>
      <trkpt lat="47.53943" lon="-2.28672">
        <ele>38.200000762939</ele>
        <time>2021-07-25T07:03:46.000Z</time>
      </trkpt>
      <trkpt lat="47.53966" lon="-2.28663">
        <ele>38.200000762939</ele>
        <time>2021-07-25T07:03:53.000Z</time>
      </trkpt>
      <trkpt lat="47.53976" lon="-2.2865">
        <ele>38.200000762939</ele>
        <time>2021-07-25T07:03:57.000Z</time>
      </trkpt>
      <trkpt lat="47.53975" lon="-2.28644">
        <ele>38.200000762939</ele>
        <time>2021-07-25T07:03:58.000Z</time>
      </trkpt>
      <trkpt lat="47.53973" lon="-2.28625">
        <ele>38.200000762939</ele>
        <time>2021-07-25T07:04:01.000Z</time>
      </trkpt>
      <trkpt lat="47.5397" lon="-2.28612">
        <ele>38.200000762939</ele>
        <time>2021-07-25T07:04:03.000Z</time>
      </trkpt>
      <trkpt lat="47.53968" lon="-2.28606">
        <ele>38.200000762939</ele>
        <time>2021-07-25T07:04:04.000Z</time>
      </trkpt>
      <trkpt lat="47.53967" lon="-2.28599">
        <ele>39</ele>
        <time>2021-07-25T07:04:05.000Z</time>
      </trkpt>
      <trkpt lat="47.53966" lon="-2.28593">
        <ele>39.400001525879</ele>
        <time>2021-07-25T07:04:06.000Z</time>
      </trkpt>
      <trkpt lat="47.53964" lon="-2.28587">
        <ele>40</ele>
        <time>2021-07-25T07:04:07.000Z</time>
      </trkpt>
      <trkpt lat="47.53963" lon="-2.2858">
        <ele>40.400001525879</ele>
        <time>2021-07-25T07:04:08.000Z</time>
      </trkpt>
      <trkpt lat="47.53956" lon="-2.28554">
        <ele>40.400001525879</ele>
        <time>2021-07-25T07:04:13.000Z</time>
      </trkpt>
      <trkpt lat="47.53955" lon="-2.28552">
        <ele>40.799999237061</ele>
        <time>2021-07-25T07:04:14.000Z</time>
      </trkpt>
      <trkpt lat="47.53955" lon="-2.2855">
        <ele>41.200000762939</ele>
        <time>2021-07-25T07:04:15.000Z</time>
      </trkpt>
      <trkpt lat="47.53955" lon="-2.28548">
        <ele>41.599998474121</ele>
        <time>2021-07-25T07:04:16.000Z</time>
      </trkpt>
      <trkpt lat="47.53955" lon="-2.28546">
        <ele>42</ele>
        <time>2021-07-25T07:04:17.000Z</time>
      </trkpt>
      <trkpt lat="47.53956" lon="-2.28543">
        <ele>42.400001525879</ele>
        <time>2021-07-25T07:04:18.000Z</time>
      </trkpt>
      <trkpt lat="47.53955" lon="-2.28528">
        <ele>42.400001525879</ele>
        <time>2021-07-25T07:04:24.000Z</time>
      </trkpt>
      <trkpt lat="47.53956" lon="-2.28527">
        <ele>42.400001525879</ele>
        <time>2021-07-25T07:04:25.000Z</time>
      </trkpt>
      <trkpt lat="47.53962" lon="-2.28528">
        <ele>42.400001525879</ele>
        <time>2021-07-25T07:04:27.000Z</time>
      </trkpt>
      <trkpt lat="47.53981" lon="-2.28534">
        <ele>42.400001525879</ele>
        <time>2021-07-25T07:04:32.000Z</time>
      </trkpt>
      <trkpt lat="47.54" lon="-2.28545">
        <ele>42.400001525879</ele>
        <time>2021-07-25T07:04:37.000Z</time>
      </trkpt>
      <trkpt lat="47.54004" lon="-2.28547">
        <ele>42.400001525879</ele>
        <time>2021-07-25T07:04:38.000Z</time>
      </trkpt>
      <trkpt lat="47.54016" lon="-2.28554">
        <ele>42.400001525879</ele>
        <time>2021-07-25T07:04:41.000Z</time>
      </trkpt>
      <trkpt lat="47.54032" lon="-2.28566">
        <ele>42.400001525879</ele>
        <time>2021-07-25T07:04:45.000Z</time>
      </trkpt>
      <trkpt lat="47.54055" lon="-2.28577">
        <ele>42.400001525879</ele>
        <time>2021-07-25T07:04:51.000Z</time>
      </trkpt>
      <trkpt lat="47.54069" lon="-2.28572">
        <ele>42.400001525879</ele>
        <time>2021-07-25T07:04:55.000Z</time>
      </trkpt>
      <trkpt lat="47.54074" lon="-2.28573">
        <ele>42.400001525879</ele>
        <time>2021-07-25T07:04:56.000Z</time>
      </trkpt>
      <trkpt lat="47.54089" lon="-2.28574">
        <ele>42.400001525879</ele>
        <time>2021-07-25T07:04:59.000Z</time>
      </trkpt>
      <trkpt lat="47.54115" lon="-2.28572">
        <ele>42.400001525879</ele>
        <time>2021-07-25T07:05:04.000Z</time>
      </trkpt>
      <trkpt lat="47.54119" lon="-2.28568">
        <ele>42.400001525879</ele>
        <time>2021-07-25T07:05:05.000Z</time>
      </trkpt>
      <trkpt lat="47.54145" lon="-2.28552">
        <ele>42.400001525879</ele>
        <time>2021-07-25T07:05:11.000Z</time>
      </trkpt>
      <trkpt lat="47.54168" lon="-2.28536">
        <ele>42.400001525879</ele>
        <time>2021-07-25T07:05:16.000Z</time>
      </trkpt>
      <trkpt lat="47.54206" lon="-2.28513">
        <ele>42.400001525879</ele>
        <time>2021-07-25T07:05:23.000Z</time>
      </trkpt>
      <trkpt lat="47.54256" lon="-2.28481">
        <ele>42.400001525879</ele>
        <time>2021-07-25T07:05:32.000Z</time>
      </trkpt>
      <trkpt lat="47.54262" lon="-2.28477">
        <ele>42.400001525879</ele>
        <time>2021-07-25T07:05:33.000Z</time>
      </trkpt>
      <trkpt lat="47.54314" lon="-2.28444">
        <ele>42.400001525879</ele>
        <time>2021-07-25T07:05:42.000Z</time>
      </trkpt>
      <trkpt lat="47.5432" lon="-2.2844">
        <ele>42.400001525879</ele>
        <time>2021-07-25T07:05:43.000Z</time>
      </trkpt>
      <trkpt lat="47.54357" lon="-2.28417">
        <ele>42.799999237061</ele>
        <time>2021-07-25T07:05:50.000Z</time>
      </trkpt>
      <trkpt lat="47.54361" lon="-2.28414">
        <ele>43.200000762939</ele>
        <time>2021-07-25T07:05:51.000Z</time>
      </trkpt>
      <trkpt lat="47.54365" lon="-2.28412">
        <ele>43.599998474121</ele>
        <time>2021-07-25T07:05:52.000Z</time>
      </trkpt>
      <trkpt lat="47.54368" lon="-2.2841">
        <ele>44</ele>
        <time>2021-07-25T07:05:53.000Z</time>
      </trkpt>
      <trkpt lat="47.54371" lon="-2.28408">
        <ele>44.599998474121</ele>
        <time>2021-07-25T07:05:54.000Z</time>
      </trkpt>
      <trkpt lat="47.54373" lon="-2.28407">
        <ele>44.599998474121</ele>
        <time>2021-07-25T07:05:55.000Z</time>
      </trkpt>
      <trkpt lat="47.5438" lon="-2.28403">
        <ele>45</ele>
        <time>2021-07-25T07:05:58.000Z</time>
      </trkpt>
      <trkpt lat="47.54381" lon="-2.28401">
        <ele>45.400001525879</ele>
        <time>2021-07-25T07:05:59.000Z</time>
      </trkpt>
      <trkpt lat="47.54383" lon="-2.284">
        <ele>45.799999237061</ele>
        <time>2021-07-25T07:06:00.000Z</time>
      </trkpt>
      <trkpt lat="47.54384" lon="-2.28398">
        <ele>46.200000762939</ele>
        <time>2021-07-25T07:06:01.000Z</time>
      </trkpt>
      <trkpt lat="47.54386" lon="-2.28397">
        <ele>46.599998474121</ele>
        <time>2021-07-25T07:06:02.000Z</time>
      </trkpt>
      <trkpt lat="47.54393" lon="-2.28392">
        <ele>46.599998474121</ele>
        <time>2021-07-25T07:06:06.000Z</time>
      </trkpt>
      <trkpt lat="47.54395" lon="-2.28392">
        <ele>47</ele>
        <time>2021-07-25T07:06:07.000Z</time>
      </trkpt>
      <trkpt lat="47.54397" lon="-2.28391">
        <ele>47.400001525879</ele>
        <time>2021-07-25T07:06:08.000Z</time>
      </trkpt>
      <trkpt lat="47.54398" lon="-2.28389">
        <ele>48.200000762939</ele>
        <time>2021-07-25T07:06:09.000Z</time>
      </trkpt>
      <trkpt lat="47.544" lon="-2.28388">
        <ele>48.599998474121</ele>
        <time>2021-07-25T07:06:10.000Z</time>
      </trkpt>
      <trkpt lat="47.54404" lon="-2.28386">
        <ele>48.599998474121</ele>
        <time>2021-07-25T07:06:12.000Z</time>
      </trkpt>
      <trkpt lat="47.5441" lon="-2.28383">
        <ele>49</ele>
        <time>2021-07-25T07:06:15.000Z</time>
      </trkpt>
      <trkpt lat="47.54412" lon="-2.28383">
        <ele>49.400001525879</ele>
        <time>2021-07-25T07:06:16.000Z</time>
      </trkpt>
      <trkpt lat="47.54413" lon="-2.28382">
        <ele>49.799999237061</ele>
        <time>2021-07-25T07:06:17.000Z</time>
      </trkpt>
      <trkpt lat="47.54415" lon="-2.28381">
        <ele>50.200000762939</ele>
        <time>2021-07-25T07:06:18.000Z</time>
      </trkpt>
      <trkpt lat="47.54417" lon="-2.28379">
        <ele>50.599998474121</ele>
        <time>2021-07-25T07:06:19.000Z</time>
      </trkpt>
      <trkpt lat="47.54426" lon="-2.28372">
        <ele>50.599998474121</ele>
        <time>2021-07-25T07:06:23.000Z</time>
      </trkpt>
      <trkpt lat="47.54428" lon="-2.2837">
        <ele>51.200000762939</ele>
        <time>2021-07-25T07:06:24.000Z</time>
      </trkpt>
      <trkpt lat="47.54431" lon="-2.28369">
        <ele>51.599998474121</ele>
        <time>2021-07-25T07:06:25.000Z</time>
      </trkpt>
      <trkpt lat="47.54434" lon="-2.28367">
        <ele>52</ele>
        <time>2021-07-25T07:06:26.000Z</time>
      </trkpt>
      <trkpt lat="47.54436" lon="-2.28365">
        <ele>52.400001525879</ele>
        <time>2021-07-25T07:06:27.000Z</time>
      </trkpt>
      <trkpt lat="47.54438" lon="-2.28363">
        <ele>53</ele>
        <time>2021-07-25T07:06:28.000Z</time>
      </trkpt>
      <trkpt lat="47.54443" lon="-2.2836">
        <ele>53</ele>
        <time>2021-07-25T07:06:30.000Z</time>
      </trkpt>
      <trkpt lat="47.54459" lon="-2.28345">
        <ele>53</ele>
        <time>2021-07-25T07:06:38.000Z</time>
      </trkpt>
      <trkpt lat="47.54464" lon="-2.28343">
        <ele>53</ele>
        <time>2021-07-25T07:06:43.000Z</time>
      </trkpt>
      <trkpt lat="47.54475" lon="-2.28342">
        <ele>53</ele>
        <time>2021-07-25T07:06:48.000Z</time>
      </trkpt>
      <trkpt lat="47.54478" lon="-2.28344">
        <ele>53</ele>
        <time>2021-07-25T07:06:49.000Z</time>
      </trkpt>
      <trkpt lat="47.54485" lon="-2.2835">
        <ele>53</ele>
        <time>2021-07-25T07:06:52.000Z</time>
      </trkpt>
      <trkpt lat="47.54487" lon="-2.28353">
        <ele>53</ele>
        <time>2021-07-25T07:06:53.000Z</time>
      </trkpt>
      <trkpt lat="47.54508" lon="-2.28372">
        <ele>53</ele>
        <time>2021-07-25T07:07:00.000Z</time>
      </trkpt>
      <trkpt lat="47.54521" lon="-2.28389">
        <ele>52.400001525879</ele>
        <time>2021-07-25T07:07:04.000Z</time>
      </trkpt>
      <trkpt lat="47.54523" lon="-2.28394">
        <ele>52</ele>
        <time>2021-07-25T07:07:05.000Z</time>
      </trkpt>
      <trkpt lat="47.54524" lon="-2.284">
        <ele>51.599998474121</ele>
        <time>2021-07-25T07:07:06.000Z</time>
      </trkpt>
      <trkpt lat="47.54525" lon="-2.28406">
        <ele>51.200000762939</ele>
        <time>2021-07-25T07:07:07.000Z</time>
      </trkpt>
      <trkpt lat="47.54527" lon="-2.28411">
        <ele>50.799999237061</ele>
        <time>2021-07-25T07:07:08.000Z</time>
      </trkpt>
      <trkpt lat="47.54528" lon="-2.28423">
        <ele>50.799999237061</ele>
        <time>2021-07-25T07:07:10.000Z</time>
      </trkpt>
      <trkpt lat="47.54529" lon="-2.28445">
        <ele>50.799999237061</ele>
        <time>2021-07-25T07:07:15.000Z</time>
      </trkpt>
      <trkpt lat="47.54533" lon="-2.28462">
        <ele>50.799999237061</ele>
        <time>2021-07-25T07:07:20.000Z</time>
      </trkpt>
      <trkpt lat="47.54533" lon="-2.28462">
        <ele>50.799999237061</ele>
        <time>2021-07-25T07:07:22.000Z</time>
      </trkpt>
      <trkpt lat="47.54534" lon="-2.28466">
        <ele>50.799999237061</ele>
        <time>2021-07-25T07:07:26.000Z</time>
      </trkpt>
      <trkpt lat="47.54534" lon="-2.28468">
        <ele>50.799999237061</ele>
        <time>2021-07-25T07:07:27.000Z</time>
      </trkpt>
      <trkpt lat="47.54535" lon="-2.2847">
        <ele>50.400001525879</ele>
        <time>2021-07-25T07:07:28.000Z</time>
      </trkpt>
      <trkpt lat="47.54536" lon="-2.28471">
        <ele>50</ele>
        <time>2021-07-25T07:07:29.000Z</time>
      </trkpt>
      <trkpt lat="47.54538" lon="-2.2847">
        <ele>49.599998474121</ele>
        <time>2021-07-25T07:07:30.000Z</time>
      </trkpt>
      <trkpt lat="47.54539" lon="-2.28469">
        <ele>49.200000762939</ele>
        <time>2021-07-25T07:07:31.000Z</time>
      </trkpt>
      <trkpt lat="47.54541" lon="-2.28468">
        <ele>48.799999237061</ele>
        <time>2021-07-25T07:07:32.000Z</time>
      </trkpt>
      <trkpt lat="47.54548" lon="-2.28456">
        <ele>48.400001525879</ele>
        <time>2021-07-25T07:07:36.000Z</time>
      </trkpt>
      <trkpt lat="47.54549" lon="-2.28453">
        <ele>48</ele>
        <time>2021-07-25T07:07:37.000Z</time>
      </trkpt>
      <trkpt lat="47.54551" lon="-2.28449">
        <ele>47.400001525879</ele>
        <time>2021-07-25T07:07:38.000Z</time>
      </trkpt>
      <trkpt lat="47.54552" lon="-2.28445">
        <ele>47</ele>
        <time>2021-07-25T07:07:39.000Z</time>
      </trkpt>
      <trkpt lat="47.54554" lon="-2.28441">
        <ele>46.599998474121</ele>
        <time>2021-07-25T07:07:40.000Z</time>
      </trkpt>
      <trkpt lat="47.54556" lon="-2.28438">
        <ele>46.200000762939</ele>
        <time>2021-07-25T07:07:41.000Z</time>
      </trkpt>
      <trkpt lat="47.54559" lon="-2.28436">
        <ele>45.799999237061</ele>
        <time>2021-07-25T07:07:42.000Z</time>
      </trkpt>
      <trkpt lat="47.54561" lon="-2.28437">
        <ele>45.400001525879</ele>
        <time>2021-07-25T07:07:43.000Z</time>
      </trkpt>
      <trkpt lat="47.54562" lon="-2.28437">
        <ele>45</ele>
        <time>2021-07-25T07:07:44.000Z</time>
      </trkpt>
      <trkpt lat="47.54563" lon="-2.28438">
        <ele>44.599998474121</ele>
        <time>2021-07-25T07:07:45.000Z</time>
      </trkpt>
      <trkpt lat="47.54565" lon="-2.28444">
        <ele>44.599998474121</ele>
        <time>2021-07-25T07:07:47.000Z</time>
      </trkpt>
      <trkpt lat="47.54568" lon="-2.28446">
        <ele>44.599998474121</ele>
        <time>2021-07-25T07:07:48.000Z</time>
      </trkpt>
      <trkpt lat="47.54578" lon="-2.28442">
        <ele>44</ele>
        <time>2021-07-25T07:07:52.000Z</time>
      </trkpt>
      <trkpt lat="47.5458" lon="-2.2844">
        <ele>43.599998474121</ele>
        <time>2021-07-25T07:07:53.000Z</time>
      </trkpt>
      <trkpt lat="47.54582" lon="-2.28439">
        <ele>43</ele>
        <time>2021-07-25T07:07:54.000Z</time>
      </trkpt>
      <trkpt lat="47.54583" lon="-2.28439">
        <ele>42.599998474121</ele>
        <time>2021-07-25T07:07:55.000Z</time>
      </trkpt>
      <trkpt lat="47.54584" lon="-2.28438">
        <ele>42</ele>
        <time>2021-07-25T07:07:56.000Z</time>
      </trkpt>
      <trkpt lat="47.54584" lon="-2.28436">
        <ele>41.400001525879</ele>
        <time>2021-07-25T07:07:57.000Z</time>
      </trkpt>
      <trkpt lat="47.54585" lon="-2.28434">
        <ele>40.799999237061</ele>
        <time>2021-07-25T07:07:58.000Z</time>
      </trkpt>
      <trkpt lat="47.54584" lon="-2.28431">
        <ele>40.200000762939</ele>
        <time>2021-07-25T07:07:59.000Z</time>
      </trkpt>
      <trkpt lat="47.54584" lon="-2.28429">
        <ele>39.599998474121</ele>
        <time>2021-07-25T07:08:00.000Z</time>
      </trkpt>
      <trkpt lat="47.54586" lon="-2.28428">
        <ele>39.599998474121</ele>
        <time>2021-07-25T07:08:01.000Z</time>
      </trkpt>
      <trkpt lat="47.5459" lon="-2.28432">
        <ele>39.599998474121</ele>
        <time>2021-07-25T07:08:04.000Z</time>
      </trkpt>
      <trkpt lat="47.54592" lon="-2.28434">
        <ele>39.599998474121</ele>
        <time>2021-07-25T07:08:05.000Z</time>
      </trkpt>
      <trkpt lat="47.54597" lon="-2.28437">
        <ele>39.200000762939</ele>
        <time>2021-07-25T07:08:07.000Z</time>
      </trkpt>
      <trkpt lat="47.54599" lon="-2.28437">
        <ele>38.599998474121</ele>
        <time>2021-07-25T07:08:08.000Z</time>
      </trkpt>
      <trkpt lat="47.54601" lon="-2.28436">
        <ele>38.200000762939</ele>
        <time>2021-07-25T07:08:09.000Z</time>
      </trkpt>
      <trkpt lat="47.54603" lon="-2.28436">
        <ele>37.599998474121</ele>
        <time>2021-07-25T07:08:10.000Z</time>
      </trkpt>
      <trkpt lat="47.54605" lon="-2.28434">
        <ele>37.200000762939</ele>
        <time>2021-07-25T07:08:11.000Z</time>
      </trkpt>
      <trkpt lat="47.54606" lon="-2.2843">
        <ele>36.799999237061</ele>
        <time>2021-07-25T07:08:12.000Z</time>
      </trkpt>
      <trkpt lat="47.54607" lon="-2.28425">
        <ele>35.799999237061</ele>
        <time>2021-07-25T07:08:13.000Z</time>
      </trkpt>
      <trkpt lat="47.54608" lon="-2.28421">
        <ele>35.400001525879</ele>
        <time>2021-07-25T07:08:14.000Z</time>
      </trkpt>
      <trkpt lat="47.54607" lon="-2.28418">
        <ele>34.799999237061</ele>
        <time>2021-07-25T07:08:15.000Z</time>
      </trkpt>
      <trkpt lat="47.54604" lon="-2.28409">
        <ele>34.799999237061</ele>
        <time>2021-07-25T07:08:18.000Z</time>
      </trkpt>
      <trkpt lat="47.54603" lon="-2.28406">
        <ele>34.799999237061</ele>
        <time>2021-07-25T07:08:19.000Z</time>
      </trkpt>
      <trkpt lat="47.54591" lon="-2.28392">
        <ele>35.200000762939</ele>
        <time>2021-07-25T07:08:26.000Z</time>
      </trkpt>
      <trkpt lat="47.54589" lon="-2.2839">
        <ele>35.599998474121</ele>
        <time>2021-07-25T07:08:27.000Z</time>
      </trkpt>
      <trkpt lat="47.54587" lon="-2.28389">
        <ele>36</ele>
        <time>2021-07-25T07:08:28.000Z</time>
      </trkpt>
      <trkpt lat="47.54586" lon="-2.28387">
        <ele>36.599998474121</ele>
        <time>2021-07-25T07:08:29.000Z</time>
      </trkpt>
      <trkpt lat="47.54585" lon="-2.28386">
        <ele>37</ele>
        <time>2021-07-25T07:08:30.000Z</time>
      </trkpt>
      <trkpt lat="47.54581" lon="-2.28384">
        <ele>37</ele>
        <time>2021-07-25T07:08:32.000Z</time>
      </trkpt>
      <trkpt lat="47.54579" lon="-2.28383">
        <ele>37.400001525879</ele>
        <time>2021-07-25T07:08:33.000Z</time>
      </trkpt>
      <trkpt lat="47.54578" lon="-2.28382">
        <ele>37.799999237061</ele>
        <time>2021-07-25T07:08:34.000Z</time>
      </trkpt>
      <trkpt lat="47.54577" lon="-2.28382">
        <ele>38.200000762939</ele>
        <time>2021-07-25T07:08:35.000Z</time>
      </trkpt>
      <trkpt lat="47.54576" lon="-2.28381">
        <ele>38.599998474121</ele>
        <time>2021-07-25T07:08:36.000Z</time>
      </trkpt>
      <trkpt lat="47.54574" lon="-2.28381">
        <ele>39</ele>
        <time>2021-07-25T07:08:37.000Z</time>
      </trkpt>
      <trkpt lat="47.54572" lon="-2.28378">
        <ele>39</ele>
        <time>2021-07-25T07:08:39.000Z</time>
      </trkpt>
      <trkpt lat="47.54568" lon="-2.28362">
        <ele>39</ele>
        <time>2021-07-25T07:08:45.000Z</time>
      </trkpt>
      <trkpt lat="47.54562" lon="-2.2834">
        <ele>39</ele>
        <time>2021-07-25T07:08:51.000Z</time>
      </trkpt>
      <trkpt lat="47.54558" lon="-2.28312">
        <ele>39</ele>
        <time>2021-07-25T07:08:58.000Z</time>
      </trkpt>
      <trkpt lat="47.54564" lon="-2.28305">
        <ele>39</ele>
        <time>2021-07-25T07:09:02.000Z</time>
      </trkpt>
      <trkpt lat="47.54567" lon="-2.28301">
        <ele>39</ele>
        <time>2021-07-25T07:09:04.000Z</time>
      </trkpt>
      <trkpt lat="47.54571" lon="-2.2829">
        <ele>39</ele>
        <time>2021-07-25T07:09:07.000Z</time>
      </trkpt>
      <trkpt lat="47.54572" lon="-2.28288">
        <ele>38.599998474121</ele>
        <time>2021-07-25T07:09:08.000Z</time>
      </trkpt>
      <trkpt lat="47.54573" lon="-2.28287">
        <ele>38.200000762939</ele>
        <time>2021-07-25T07:09:09.000Z</time>
      </trkpt>
      <trkpt lat="47.54575" lon="-2.28285">
        <ele>37.799999237061</ele>
        <time>2021-07-25T07:09:10.000Z</time>
      </trkpt>
      <trkpt lat="47.54576" lon="-2.28284">
        <ele>37.400001525879</ele>
        <time>2021-07-25T07:09:11.000Z</time>
      </trkpt>
      <trkpt lat="47.54578" lon="-2.28282">
        <ele>37</ele>
        <time>2021-07-25T07:09:12.000Z</time>
      </trkpt>
      <trkpt lat="47.54581" lon="-2.2828">
        <ele>36.599998474121</ele>
        <time>2021-07-25T07:09:14.000Z</time>
      </trkpt>
      <trkpt lat="47.54582" lon="-2.28279">
        <ele>36</ele>
        <time>2021-07-25T07:09:15.000Z</time>
      </trkpt>
      <trkpt lat="47.54582" lon="-2.28279">
        <ele>35.599998474121</ele>
        <time>2021-07-25T07:09:16.000Z</time>
      </trkpt>
      <trkpt lat="47.54583" lon="-2.28279">
        <ele>35.200000762939</ele>
        <time>2021-07-25T07:09:17.000Z</time>
      </trkpt>
      <trkpt lat="47.54584" lon="-2.28278">
        <ele>34.799999237061</ele>
        <time>2021-07-25T07:09:18.000Z</time>
      </trkpt>
      <trkpt lat="47.54586" lon="-2.2828">
        <ele>34.799999237061</ele>
        <time>2021-07-25T07:09:21.000Z</time>
      </trkpt>
      <trkpt lat="47.54589" lon="-2.28284">
        <ele>34.799999237061</ele>
        <time>2021-07-25T07:09:24.000Z</time>
      </trkpt>
      <trkpt lat="47.54586" lon="-2.28294">
        <ele>34.799999237061</ele>
        <time>2021-07-25T07:09:28.000Z</time>
      </trkpt>
      <trkpt lat="47.54583" lon="-2.28302">
        <ele>34.799999237061</ele>
        <time>2021-07-25T07:09:32.000Z</time>
      </trkpt>
      <trkpt lat="47.54583" lon="-2.28305">
        <ele>34.799999237061</ele>
        <time>2021-07-25T07:09:33.000Z</time>
      </trkpt>
      <trkpt lat="47.54579" lon="-2.28321">
        <ele>34.799999237061</ele>
        <time>2021-07-25T07:09:38.000Z</time>
      </trkpt>
      <trkpt lat="47.54583" lon="-2.28328">
        <ele>35.200000762939</ele>
        <time>2021-07-25T07:09:41.000Z</time>
      </trkpt>
      <trkpt lat="47.54584" lon="-2.2833">
        <ele>35.599998474121</ele>
        <time>2021-07-25T07:09:42.000Z</time>
      </trkpt>
      <trkpt lat="47.54586" lon="-2.28333">
        <ele>36</ele>
        <time>2021-07-25T07:09:43.000Z</time>
      </trkpt>
      <trkpt lat="47.54589" lon="-2.28336">
        <ele>36.599998474121</ele>
        <time>2021-07-25T07:09:44.000Z</time>
      </trkpt>
      <trkpt lat="47.5459" lon="-2.2834">
        <ele>37</ele>
        <time>2021-07-25T07:09:45.000Z</time>
      </trkpt>
      <trkpt lat="47.54594" lon="-2.28347">
        <ele>37</ele>
        <time>2021-07-25T07:09:48.000Z</time>
      </trkpt>
      <trkpt lat="47.54595" lon="-2.28348">
        <ele>37</ele>
        <time>2021-07-25T07:09:49.000Z</time>
      </trkpt>
      <trkpt lat="47.54598" lon="-2.2835">
        <ele>36.599998474121</ele>
        <time>2021-07-25T07:09:51.000Z</time>
      </trkpt>
      <trkpt lat="47.54601" lon="-2.28347">
        <ele>36.200000762939</ele>
        <time>2021-07-25T07:09:52.000Z</time>
      </trkpt>
      <trkpt lat="47.54603" lon="-2.28346">
        <ele>35.799999237061</ele>
        <time>2021-07-25T07:09:53.000Z</time>
      </trkpt>
      <trkpt lat="47.54605" lon="-2.28344">
        <ele>35.200000762939</ele>
        <time>2021-07-25T07:09:54.000Z</time>
      </trkpt>
      <trkpt lat="47.54607" lon="-2.28342">
        <ele>34.799999237061</ele>
        <time>2021-07-25T07:09:55.000Z</time>
      </trkpt>
      <trkpt lat="47.54611" lon="-2.28338">
        <ele>34.400001525879</ele>
        <time>2021-07-25T07:09:57.000Z</time>
      </trkpt>
      <trkpt lat="47.54613" lon="-2.28337">
        <ele>34</ele>
        <time>2021-07-25T07:09:58.000Z</time>
      </trkpt>
      <trkpt lat="47.54615" lon="-2.28336">
        <ele>33.599998474121</ele>
        <time>2021-07-25T07:09:59.000Z</time>
      </trkpt>
      <trkpt lat="47.54617" lon="-2.28336">
        <ele>33.200000762939</ele>
        <time>2021-07-25T07:10:00.000Z</time>
      </trkpt>
      <trkpt lat="47.54619" lon="-2.28336">
        <ele>32.799999237061</ele>
        <time>2021-07-25T07:10:01.000Z</time>
      </trkpt>
      <trkpt lat="47.54621" lon="-2.28338">
        <ele>32.799999237061</ele>
        <time>2021-07-25T07:10:02.000Z</time>
      </trkpt>
      <trkpt lat="47.54626" lon="-2.28342">
        <ele>32.799999237061</ele>
        <time>2021-07-25T07:10:04.000Z</time>
      </trkpt>
      <trkpt lat="47.54629" lon="-2.28342">
        <ele>32.400001525879</ele>
        <time>2021-07-25T07:10:06.000Z</time>
      </trkpt>
      <trkpt lat="47.5463" lon="-2.28342">
        <ele>32</ele>
        <time>2021-07-25T07:10:07.000Z</time>
      </trkpt>
      <trkpt lat="47.54632" lon="-2.28341">
        <ele>31.60000038147</ele>
        <time>2021-07-25T07:10:08.000Z</time>
      </trkpt>
      <trkpt lat="47.54634" lon="-2.2834">
        <ele>31.200000762939</ele>
        <time>2021-07-25T07:10:09.000Z</time>
      </trkpt>
      <trkpt lat="47.54639" lon="-2.28338">
        <ele>30.799999237061</ele>
        <time>2021-07-25T07:10:10.000Z</time>
      </trkpt>
      <trkpt lat="47.54641" lon="-2.28337">
        <ele>30.799999237061</ele>
        <time>2021-07-25T07:10:11.000Z</time>
      </trkpt>
      <trkpt lat="47.54648" lon="-2.28327">
        <ele>30.200000762939</ele>
        <time>2021-07-25T07:10:14.000Z</time>
      </trkpt>
      <trkpt lat="47.5465" lon="-2.28324">
        <ele>29.799999237061</ele>
        <time>2021-07-25T07:10:15.000Z</time>
      </trkpt>
      <trkpt lat="47.54652" lon="-2.28322">
        <ele>29</ele>
        <time>2021-07-25T07:10:16.000Z</time>
      </trkpt>
      <trkpt lat="47.54653" lon="-2.2832">
        <ele>28.60000038147</ele>
        <time>2021-07-25T07:10:17.000Z</time>
      </trkpt>
      <trkpt lat="47.5466" lon="-2.28311">
        <ele>28.60000038147</ele>
        <time>2021-07-25T07:10:19.000Z</time>
      </trkpt>
      <trkpt lat="47.54663" lon="-2.2831">
        <ele>28.200000762939</ele>
        <time>2021-07-25T07:10:20.000Z</time>
      </trkpt>
      <trkpt lat="47.54665" lon="-2.2831">
        <ele>27.60000038147</ele>
        <time>2021-07-25T07:10:21.000Z</time>
      </trkpt>
      <trkpt lat="47.5467" lon="-2.2831">
        <ele>27.200000762939</ele>
        <time>2021-07-25T07:10:22.000Z</time>
      </trkpt>
      <trkpt lat="47.54672" lon="-2.2831">
        <ele>26.799999237061</ele>
        <time>2021-07-25T07:10:23.000Z</time>
      </trkpt>
      <trkpt lat="47.54674" lon="-2.28308">
        <ele>26.39999961853</ele>
        <time>2021-07-25T07:10:24.000Z</time>
      </trkpt>
      <trkpt lat="47.54681" lon="-2.28305">
        <ele>26.39999961853</ele>
        <time>2021-07-25T07:10:26.000Z</time>
      </trkpt>
      <trkpt lat="47.547" lon="-2.28291">
        <ele>26.39999961853</ele>
        <time>2021-07-25T07:10:31.000Z</time>
      </trkpt>
      <trkpt lat="47.54704" lon="-2.28293">
        <ele>26.39999961853</ele>
        <time>2021-07-25T07:10:32.000Z</time>
      </trkpt>
      <trkpt lat="47.54714" lon="-2.28295">
        <ele>26</ele>
        <time>2021-07-25T07:10:33.000Z</time>
      </trkpt>
      <trkpt lat="47.54716" lon="-2.28298">
        <ele>25.60000038147</ele>
        <time>2021-07-25T07:10:34.000Z</time>
      </trkpt>
      <trkpt lat="47.54718" lon="-2.28302">
        <ele>25.200000762939</ele>
        <time>2021-07-25T07:10:35.000Z</time>
      </trkpt>
      <trkpt lat="47.54719" lon="-2.28306">
        <ele>24.799999237061</ele>
        <time>2021-07-25T07:10:36.000Z</time>
      </trkpt>
      <trkpt lat="47.5472" lon="-2.28311">
        <ele>24.200000762939</ele>
        <time>2021-07-25T07:10:37.000Z</time>
      </trkpt>
      <trkpt lat="47.54719" lon="-2.28322">
        <ele>24.200000762939</ele>
        <time>2021-07-25T07:10:39.000Z</time>
      </trkpt>
      <trkpt lat="47.54719" lon="-2.28336">
        <ele>24.200000762939</ele>
        <time>2021-07-25T07:10:42.000Z</time>
      </trkpt>
      <trkpt lat="47.54719" lon="-2.28341">
        <ele>24.200000762939</ele>
        <time>2021-07-25T07:10:43.000Z</time>
      </trkpt>
      <trkpt lat="47.54718" lon="-2.28348">
        <ele>24.200000762939</ele>
        <time>2021-07-25T07:10:45.000Z</time>
      </trkpt>
      <trkpt lat="47.54716" lon="-2.28353">
        <ele>24.200000762939</ele>
        <time>2021-07-25T07:10:47.000Z</time>
      </trkpt>
      <trkpt lat="47.54712" lon="-2.28357">
        <ele>24.200000762939</ele>
        <time>2021-07-25T07:10:48.000Z</time>
      </trkpt>
      <trkpt lat="47.54706" lon="-2.28362">
        <ele>24.200000762939</ele>
        <time>2021-07-25T07:10:50.000Z</time>
      </trkpt>
      <trkpt lat="47.54698" lon="-2.28366">
        <ele>24.60000038147</ele>
        <time>2021-07-25T07:10:52.000Z</time>
      </trkpt>
      <trkpt lat="47.54695" lon="-2.28367">
        <ele>25</ele>
        <time>2021-07-25T07:10:53.000Z</time>
      </trkpt>
      <trkpt lat="47.54692" lon="-2.28368">
        <ele>25.60000038147</ele>
        <time>2021-07-25T07:10:54.000Z</time>
      </trkpt>
      <trkpt lat="47.54689" lon="-2.28368">
        <ele>26</ele>
        <time>2021-07-25T07:10:55.000Z</time>
      </trkpt>
      <trkpt lat="47.54687" lon="-2.28368">
        <ele>26.39999961853</ele>
        <time>2021-07-25T07:10:56.000Z</time>
      </trkpt>
      <trkpt lat="47.54674" lon="-2.28371">
        <ele>26.39999961853</ele>
        <time>2021-07-25T07:11:01.000Z</time>
      </trkpt>
      <trkpt lat="47.54666" lon="-2.28373">
        <ele>26.799999237061</ele>
        <time>2021-07-25T07:11:04.000Z</time>
      </trkpt>
      <trkpt lat="47.54663" lon="-2.28374">
        <ele>27.60000038147</ele>
        <time>2021-07-25T07:11:05.000Z</time>
      </trkpt>
      <trkpt lat="47.54661" lon="-2.28374">
        <ele>28</ele>
        <time>2021-07-25T07:11:06.000Z</time>
      </trkpt>
      <trkpt lat="47.54658" lon="-2.28374">
        <ele>28.39999961853</ele>
        <time>2021-07-25T07:11:07.000Z</time>
      </trkpt>
      <trkpt lat="47.54655" lon="-2.28375">
        <ele>28.39999961853</ele>
        <time>2021-07-25T07:11:08.000Z</time>
      </trkpt>
      <trkpt lat="47.54647" lon="-2.28386">
        <ele>28.39999961853</ele>
        <time>2021-07-25T07:11:14.000Z</time>
      </trkpt>
      <trkpt lat="47.54638" lon="-2.28395">
        <ele>29</ele>
        <time>2021-07-25T07:11:19.000Z</time>
      </trkpt>
      <trkpt lat="47.54636" lon="-2.28396">
        <ele>29.39999961853</ele>
        <time>2021-07-25T07:11:20.000Z</time>
      </trkpt>
      <trkpt lat="47.54633" lon="-2.28397">
        <ele>29.799999237061</ele>
        <time>2021-07-25T07:11:21.000Z</time>
      </trkpt>
      <trkpt lat="47.54631" lon="-2.28398">
        <ele>30.200000762939</ele>
        <time>2021-07-25T07:11:22.000Z</time>
      </trkpt>
      <trkpt lat="47.54628" lon="-2.28399">
        <ele>30.60000038147</ele>
        <time>2021-07-25T07:11:23.000Z</time>
      </trkpt>
      <trkpt lat="47.54626" lon="-2.28402">
        <ele>30.60000038147</ele>
        <time>2021-07-25T07:11:25.000Z</time>
      </trkpt>
      <trkpt lat="47.54624" lon="-2.28405">
        <ele>30.60000038147</ele>
        <time>2021-07-25T07:11:26.000Z</time>
      </trkpt>
      <trkpt lat="47.54624" lon="-2.28414">
        <ele>30.60000038147</ele>
        <time>2021-07-25T07:11:30.000Z</time>
      </trkpt>
      <trkpt lat="47.54629" lon="-2.28437">
        <ele>30.60000038147</ele>
        <time>2021-07-25T07:11:36.000Z</time>
      </trkpt>
      <trkpt lat="47.54631" lon="-2.28443">
        <ele>30.60000038147</ele>
        <time>2021-07-25T07:11:37.000Z</time>
      </trkpt>
      <trkpt lat="47.54633" lon="-2.28462">
        <ele>30.60000038147</ele>
        <time>2021-07-25T07:11:40.000Z</time>
      </trkpt>
      <trkpt lat="47.54634" lon="-2.28476">
        <ele>30.60000038147</ele>
        <time>2021-07-25T07:11:42.000Z</time>
      </trkpt>
      <trkpt lat="47.54641" lon="-2.28518">
        <ele>30.60000038147</ele>
        <time>2021-07-25T07:11:48.000Z</time>
      </trkpt>
      <trkpt lat="47.54645" lon="-2.28545">
        <ele>30.200000762939</ele>
        <time>2021-07-25T07:11:52.000Z</time>
      </trkpt>
      <trkpt lat="47.54646" lon="-2.28551">
        <ele>29.799999237061</ele>
        <time>2021-07-25T07:11:53.000Z</time>
      </trkpt>
      <trkpt lat="47.54647" lon="-2.28558">
        <ele>29.39999961853</ele>
        <time>2021-07-25T07:11:54.000Z</time>
      </trkpt>
      <trkpt lat="47.54648" lon="-2.28563">
        <ele>28.39999961853</ele>
        <time>2021-07-25T07:11:55.000Z</time>
      </trkpt>
      <trkpt lat="47.54649" lon="-2.28573">
        <ele>28.39999961853</ele>
        <time>2021-07-25T07:11:57.000Z</time>
      </trkpt>
      <trkpt lat="47.54648" lon="-2.28578">
        <ele>28</ele>
        <time>2021-07-25T07:11:58.000Z</time>
      </trkpt>
      <trkpt lat="47.54646" lon="-2.28583">
        <ele>27.60000038147</ele>
        <time>2021-07-25T07:11:59.000Z</time>
      </trkpt>
      <trkpt lat="47.54644" lon="-2.28588">
        <ele>27</ele>
        <time>2021-07-25T07:12:00.000Z</time>
      </trkpt>
      <trkpt lat="47.54643" lon="-2.28592">
        <ele>26.60000038147</ele>
        <time>2021-07-25T07:12:01.000Z</time>
      </trkpt>
      <trkpt lat="47.54643" lon="-2.28596">
        <ele>26.200000762939</ele>
        <time>2021-07-25T07:12:02.000Z</time>
      </trkpt>
      <trkpt lat="47.54643" lon="-2.28601">
        <ele>26.200000762939</ele>
        <time>2021-07-25T07:12:03.000Z</time>
      </trkpt>
      <trkpt lat="47.54643" lon="-2.28605">
        <ele>26.200000762939</ele>
        <time>2021-07-25T07:12:04.000Z</time>
      </trkpt>
      <trkpt lat="47.54644" lon="-2.28618">
        <ele>26.200000762939</ele>
        <time>2021-07-25T07:12:08.000Z</time>
      </trkpt>
      <trkpt lat="47.54644" lon="-2.28635">
        <ele>26.200000762939</ele>
        <time>2021-07-25T07:12:13.000Z</time>
      </trkpt>
      <trkpt lat="47.54648" lon="-2.28656">
        <ele>26.200000762939</ele>
        <time>2021-07-25T07:12:18.000Z</time>
      </trkpt>
      <trkpt lat="47.54652" lon="-2.28671">
        <ele>26.200000762939</ele>
        <time>2021-07-25T07:12:23.000Z</time>
      </trkpt>
      <trkpt lat="47.54655" lon="-2.28688">
        <ele>26.200000762939</ele>
        <time>2021-07-25T07:12:29.000Z</time>
      </trkpt>
      <trkpt lat="47.54661" lon="-2.28706">
        <ele>26.200000762939</ele>
        <time>2021-07-25T07:12:35.000Z</time>
      </trkpt>
      <trkpt lat="47.54667" lon="-2.28726">
        <ele>26.200000762939</ele>
        <time>2021-07-25T07:12:41.000Z</time>
      </trkpt>
      <trkpt lat="47.54667" lon="-2.2873">
        <ele>26.60000038147</ele>
        <time>2021-07-25T07:12:42.000Z</time>
      </trkpt>
      <trkpt lat="47.54668" lon="-2.28734">
        <ele>27</ele>
        <time>2021-07-25T07:12:43.000Z</time>
      </trkpt>
      <trkpt lat="47.54669" lon="-2.28738">
        <ele>27.60000038147</ele>
        <time>2021-07-25T07:12:44.000Z</time>
      </trkpt>
      <trkpt lat="47.5467" lon="-2.28742">
        <ele>28.39999961853</ele>
        <time>2021-07-25T07:12:45.000Z</time>
      </trkpt>
      <trkpt lat="47.54672" lon="-2.2875">
        <ele>28.39999961853</ele>
        <time>2021-07-25T07:12:47.000Z</time>
      </trkpt>
      <trkpt lat="47.54675" lon="-2.28777">
        <ele>28.799999237061</ele>
        <time>2021-07-25T07:12:52.000Z</time>
      </trkpt>
      <trkpt lat="47.54676" lon="-2.28781">
        <ele>29.200000762939</ele>
        <time>2021-07-25T07:12:53.000Z</time>
      </trkpt>
      <trkpt lat="47.54676" lon="-2.28784">
        <ele>29.60000038147</ele>
        <time>2021-07-25T07:12:54.000Z</time>
      </trkpt>
      <trkpt lat="47.54678" lon="-2.28788">
        <ele>30</ele>
        <time>2021-07-25T07:12:55.000Z</time>
      </trkpt>
      <trkpt lat="47.54679" lon="-2.28792">
        <ele>30.39999961853</ele>
        <time>2021-07-25T07:12:56.000Z</time>
      </trkpt>
      <trkpt lat="47.54682" lon="-2.28802">
        <ele>30.39999961853</ele>
        <time>2021-07-25T07:13:00.000Z</time>
      </trkpt>
      <trkpt lat="47.54682" lon="-2.28804">
        <ele>30.799999237061</ele>
        <time>2021-07-25T07:13:01.000Z</time>
      </trkpt>
      <trkpt lat="47.54682" lon="-2.28806">
        <ele>31.200000762939</ele>
        <time>2021-07-25T07:13:02.000Z</time>
      </trkpt>
      <trkpt lat="47.54682" lon="-2.28809">
        <ele>31.799999237061</ele>
        <time>2021-07-25T07:13:03.000Z</time>
      </trkpt>
      <trkpt lat="47.54682" lon="-2.28812">
        <ele>32.200000762939</ele>
        <time>2021-07-25T07:13:04.000Z</time>
      </trkpt>
      <trkpt lat="47.54682" lon="-2.28814">
        <ele>32.599998474121</ele>
        <time>2021-07-25T07:13:05.000Z</time>
      </trkpt>
      <trkpt lat="47.54683" lon="-2.28817">
        <ele>32.599998474121</ele>
        <time>2021-07-25T07:13:06.000Z</time>
      </trkpt>
      <trkpt lat="47.54683" lon="-2.2882">
        <ele>32.599998474121</ele>
        <time>2021-07-25T07:13:07.000Z</time>
      </trkpt>
      <trkpt lat="47.54686" lon="-2.28832">
        <ele>33</ele>
        <time>2021-07-25T07:13:12.000Z</time>
      </trkpt>
      <trkpt lat="47.54687" lon="-2.28835">
        <ele>33.400001525879</ele>
        <time>2021-07-25T07:13:13.000Z</time>
      </trkpt>
      <trkpt lat="47.54687" lon="-2.28838">
        <ele>33.799999237061</ele>
        <time>2021-07-25T07:13:14.000Z</time>
      </trkpt>
      <trkpt lat="47.54688" lon="-2.28842">
        <ele>34.200000762939</ele>
        <time>2021-07-25T07:13:15.000Z</time>
      </trkpt>
      <trkpt lat="47.54689" lon="-2.28845">
        <ele>34.599998474121</ele>
        <time>2021-07-25T07:13:16.000Z</time>
      </trkpt>
      <trkpt lat="47.54689" lon="-2.28848">
        <ele>34.599998474121</ele>
        <time>2021-07-25T07:13:17.000Z</time>
      </trkpt>
      <trkpt lat="47.54689" lon="-2.28861">
        <ele>34.599998474121</ele>
        <time>2021-07-25T07:13:23.000Z</time>
      </trkpt>
      <trkpt lat="47.54687" lon="-2.28868">
        <ele>34.599998474121</ele>
        <time>2021-07-25T07:13:27.000Z</time>
      </trkpt>
      <trkpt lat="47.54684" lon="-2.28873">
        <ele>35</ele>
        <time>2021-07-25T07:13:29.000Z</time>
      </trkpt>
      <trkpt lat="47.54682" lon="-2.28874">
        <ele>35.400001525879</ele>
        <time>2021-07-25T07:13:30.000Z</time>
      </trkpt>
      <trkpt lat="47.5468" lon="-2.28876">
        <ele>35.799999237061</ele>
        <time>2021-07-25T07:13:31.000Z</time>
      </trkpt>
      <trkpt lat="47.54678" lon="-2.28879">
        <ele>36.200000762939</ele>
        <time>2021-07-25T07:13:32.000Z</time>
      </trkpt>
      <trkpt lat="47.54676" lon="-2.28881">
        <ele>36.599998474121</ele>
        <time>2021-07-25T07:13:33.000Z</time>
      </trkpt>
      <trkpt lat="47.54672" lon="-2.28883">
        <ele>36.599998474121</ele>
        <time>2021-07-25T07:13:35.000Z</time>
      </trkpt>
      <trkpt lat="47.5466" lon="-2.28889">
        <ele>36.599998474121</ele>
        <time>2021-07-25T07:13:41.000Z</time>
      </trkpt>
      <trkpt lat="47.54652" lon="-2.28891">
        <ele>36.599998474121</ele>
        <time>2021-07-25T07:13:45.000Z</time>
      </trkpt>
      <trkpt lat="47.54649" lon="-2.28888">
        <ele>36.599998474121</ele>
        <time>2021-07-25T07:13:47.000Z</time>
      </trkpt>
      <trkpt lat="47.54643" lon="-2.28874">
        <ele>37.200000762939</ele>
        <time>2021-07-25T07:13:52.000Z</time>
      </trkpt>
      <trkpt lat="47.54642" lon="-2.28871">
        <ele>37.599998474121</ele>
        <time>2021-07-25T07:13:53.000Z</time>
      </trkpt>
      <trkpt lat="47.54642" lon="-2.28868">
        <ele>38</ele>
        <time>2021-07-25T07:13:54.000Z</time>
      </trkpt>
      <trkpt lat="47.54642" lon="-2.28865">
        <ele>38.599998474121</ele>
        <time>2021-07-25T07:13:55.000Z</time>
      </trkpt>
      <trkpt lat="47.54642" lon="-2.28862">
        <ele>39</ele>
        <time>2021-07-25T07:13:56.000Z</time>
      </trkpt>
      <trkpt lat="47.54641" lon="-2.28856">
        <ele>39</ele>
        <time>2021-07-25T07:13:58.000Z</time>
      </trkpt>
      <trkpt lat="47.54638" lon="-2.28839">
        <ele>39</ele>
        <time>2021-07-25T07:14:03.000Z</time>
      </trkpt>
      <trkpt lat="47.54638" lon="-2.28831">
        <ele>39.400001525879</ele>
        <time>2021-07-25T07:14:06.000Z</time>
      </trkpt>
      <trkpt lat="47.54638" lon="-2.28828">
        <ele>39.799999237061</ele>
        <time>2021-07-25T07:14:07.000Z</time>
      </trkpt>
      <trkpt lat="47.54638" lon="-2.28825">
        <ele>40.200000762939</ele>
        <time>2021-07-25T07:14:08.000Z</time>
      </trkpt>
      <trkpt lat="47.54638" lon="-2.28822">
        <ele>40.599998474121</ele>
        <time>2021-07-25T07:14:09.000Z</time>
      </trkpt>
      <trkpt lat="47.54638" lon="-2.28819">
        <ele>41</ele>
        <time>2021-07-25T07:14:10.000Z</time>
      </trkpt>
      <trkpt lat="47.54637" lon="-2.28813">
        <ele>41</ele>
        <time>2021-07-25T07:14:12.000Z</time>
      </trkpt>
      <trkpt lat="47.54637" lon="-2.28808">
        <ele>41</ele>
        <time>2021-07-25T07:14:14.000Z</time>
      </trkpt>
      <trkpt lat="47.54635" lon="-2.28803">
        <ele>41</ele>
        <time>2021-07-25T07:14:16.000Z</time>
      </trkpt>
      <trkpt lat="47.5463" lon="-2.28788">
        <ele>41</ele>
        <time>2021-07-25T07:14:21.000Z</time>
      </trkpt>
      <trkpt lat="47.54622" lon="-2.28774">
        <ele>41</ele>
        <time>2021-07-25T07:14:27.000Z</time>
      </trkpt>
      <trkpt lat="47.54615" lon="-2.28766">
        <ele>41.599998474121</ele>
        <time>2021-07-25T07:14:32.000Z</time>
      </trkpt>
      <trkpt lat="47.54614" lon="-2.28765">
        <ele>42</ele>
        <time>2021-07-25T07:14:33.000Z</time>
      </trkpt>
      <trkpt lat="47.54611" lon="-2.28763">
        <ele>42.400001525879</ele>
        <time>2021-07-25T07:14:34.000Z</time>
      </trkpt>
      <trkpt lat="47.54609" lon="-2.28762">
        <ele>42.799999237061</ele>
        <time>2021-07-25T07:14:35.000Z</time>
      </trkpt>
      <trkpt lat="47.54607" lon="-2.28761">
        <ele>43.200000762939</ele>
        <time>2021-07-25T07:14:36.000Z</time>
      </trkpt>
      <trkpt lat="47.54602" lon="-2.28756">
        <ele>43.200000762939</ele>
        <time>2021-07-25T07:14:39.000Z</time>
      </trkpt>
      <trkpt lat="47.546" lon="-2.28739">
        <ele>43.599998474121</ele>
        <time>2021-07-25T07:14:45.000Z</time>
      </trkpt>
      <trkpt lat="47.54599" lon="-2.28736">
        <ele>44</ele>
        <time>2021-07-25T07:14:46.000Z</time>
      </trkpt>
      <trkpt lat="47.54598" lon="-2.28734">
        <ele>44.599998474121</ele>
        <time>2021-07-25T07:14:47.000Z</time>
      </trkpt>
      <trkpt lat="47.54597" lon="-2.28731">
        <ele>45.400001525879</ele>
        <time>2021-07-25T07:14:48.000Z</time>
      </trkpt>
      <trkpt lat="47.54593" lon="-2.28713">
        <ele>45.799999237061</ele>
        <time>2021-07-25T07:14:53.000Z</time>
      </trkpt>
      <trkpt lat="47.54592" lon="-2.2871">
        <ele>46.200000762939</ele>
        <time>2021-07-25T07:14:54.000Z</time>
      </trkpt>
      <trkpt lat="47.54592" lon="-2.28706">
        <ele>46.599998474121</ele>
        <time>2021-07-25T07:14:55.000Z</time>
      </trkpt>
      <trkpt lat="47.54591" lon="-2.28703">
        <ele>47</ele>
        <time>2021-07-25T07:14:56.000Z</time>
      </trkpt>
      <trkpt lat="47.5459" lon="-2.287">
        <ele>47.400001525879</ele>
        <time>2021-07-25T07:14:57.000Z</time>
      </trkpt>
      <trkpt lat="47.54588" lon="-2.28693">
        <ele>47.400001525879</ele>
        <time>2021-07-25T07:14:59.000Z</time>
      </trkpt>
      <trkpt lat="47.54583" lon="-2.28675">
        <ele>47.799999237061</ele>
        <time>2021-07-25T07:15:04.000Z</time>
      </trkpt>
      <trkpt lat="47.54581" lon="-2.28672">
        <ele>48.200000762939</ele>
        <time>2021-07-25T07:15:05.000Z</time>
      </trkpt>
      <trkpt lat="47.5458" lon="-2.28669">
        <ele>48.599998474121</ele>
        <time>2021-07-25T07:15:06.000Z</time>
      </trkpt>
      <trkpt lat="47.54579" lon="-2.28665">
        <ele>49.200000762939</ele>
        <time>2021-07-25T07:15:07.000Z</time>
      </trkpt>
      <trkpt lat="47.54578" lon="-2.28662">
        <ele>49.599998474121</ele>
        <time>2021-07-25T07:15:08.000Z</time>
      </trkpt>
      <trkpt lat="47.54576" lon="-2.28646">
        <ele>49.599998474121</ele>
        <time>2021-07-25T07:15:12.000Z</time>
      </trkpt>
      <trkpt lat="47.54571" lon="-2.28626">
        <ele>50</ele>
        <time>2021-07-25T07:15:17.000Z</time>
      </trkpt>
      <trkpt lat="47.54571" lon="-2.28622">
        <ele>50.400001525879</ele>
        <time>2021-07-25T07:15:18.000Z</time>
      </trkpt>
      <trkpt lat="47.5457" lon="-2.28619">
        <ele>50.799999237061</ele>
        <time>2021-07-25T07:15:19.000Z</time>
      </trkpt>
      <trkpt lat="47.54569" lon="-2.28615">
        <ele>51.400001525879</ele>
        <time>2021-07-25T07:15:20.000Z</time>
      </trkpt>
      <trkpt lat="47.54568" lon="-2.28609">
        <ele>51.799999237061</ele>
        <time>2021-07-25T07:15:21.000Z</time>
      </trkpt>
      <trkpt lat="47.54567" lon="-2.28604">
        <ele>51.799999237061</ele>
        <time>2021-07-25T07:15:22.000Z</time>
      </trkpt>
      <trkpt lat="47.54559" lon="-2.28571">
        <ele>51.799999237061</ele>
        <time>2021-07-25T07:15:27.000Z</time>
      </trkpt>
      <trkpt lat="47.54547" lon="-2.28528">
        <ele>51.799999237061</ele>
        <time>2021-07-25T07:15:33.000Z</time>
      </trkpt>
      <trkpt lat="47.54544" lon="-2.28514">
        <ele>51.400001525879</ele>
        <time>2021-07-25T07:15:35.000Z</time>
      </trkpt>
      <trkpt lat="47.54541" lon="-2.28508">
        <ele>51</ele>
        <time>2021-07-25T07:15:36.000Z</time>
      </trkpt>
      <trkpt lat="47.5454" lon="-2.28501">
        <ele>50.200000762939</ele>
        <time>2021-07-25T07:15:37.000Z</time>
      </trkpt>
      <trkpt lat="47.54538" lon="-2.28495">
        <ele>49.799999237061</ele>
        <time>2021-07-25T07:15:38.000Z</time>
      </trkpt>
      <trkpt lat="47.54537" lon="-2.28488">
        <ele>49.799999237061</ele>
        <time>2021-07-25T07:15:39.000Z</time>
      </trkpt>
      <trkpt lat="47.54536" lon="-2.28482">
        <ele>49.799999237061</ele>
        <time>2021-07-25T07:15:40.000Z</time>
      </trkpt>
      <trkpt lat="47.54533" lon="-2.2846">
        <ele>49.799999237061</ele>
        <time>2021-07-25T07:15:44.000Z</time>
      </trkpt>
      <trkpt lat="47.54534" lon="-2.28459">
        <ele>49.799999237061</ele>
        <time>2021-07-25T07:15:45.000Z</time>
      </trkpt>
      <trkpt lat="47.54535" lon="-2.28452">
        <ele>49.799999237061</ele>
        <time>2021-07-25T07:16:12.000Z</time>
      </trkpt>
      <trkpt lat="47.54535" lon="-2.28449">
        <ele>49.799999237061</ele>
        <time>2021-07-25T07:16:13.000Z</time>
      </trkpt>
      <trkpt lat="47.54537" lon="-2.28434">
        <ele>49.799999237061</ele>
        <time>2021-07-25T07:16:18.000Z</time>
      </trkpt>
      <trkpt lat="47.54538" lon="-2.28431">
        <ele>49.400001525879</ele>
        <time>2021-07-25T07:16:19.000Z</time>
      </trkpt>
      <trkpt lat="47.54538" lon="-2.28428">
        <ele>48.799999237061</ele>
        <time>2021-07-25T07:16:20.000Z</time>
      </trkpt>
      <trkpt lat="47.54539" lon="-2.28425">
        <ele>48.400001525879</ele>
        <time>2021-07-25T07:16:21.000Z</time>
      </trkpt>
      <trkpt lat="47.54538" lon="-2.28421">
        <ele>48</ele>
        <time>2021-07-25T07:16:22.000Z</time>
      </trkpt>
      <trkpt lat="47.54537" lon="-2.28418">
        <ele>47.599998474121</ele>
        <time>2021-07-25T07:16:23.000Z</time>
      </trkpt>
      <trkpt lat="47.54535" lon="-2.28407">
        <ele>47.599998474121</ele>
        <time>2021-07-25T07:16:29.000Z</time>
      </trkpt>
      <trkpt lat="47.54535" lon="-2.28396">
        <ele>47.599998474121</ele>
        <time>2021-07-25T07:16:35.000Z</time>
      </trkpt>
      <trkpt lat="47.5454" lon="-2.2839">
        <ele>47.200000762939</ele>
        <time>2021-07-25T07:16:40.000Z</time>
      </trkpt>
      <trkpt lat="47.54542" lon="-2.28391">
        <ele>46.799999237061</ele>
        <time>2021-07-25T07:16:41.000Z</time>
      </trkpt>
      <trkpt lat="47.54543" lon="-2.28392">
        <ele>46.400001525879</ele>
        <time>2021-07-25T07:16:42.000Z</time>
      </trkpt>
      <trkpt lat="47.54545" lon="-2.28393">
        <ele>45.799999237061</ele>
        <time>2021-07-25T07:16:43.000Z</time>
      </trkpt>
      <trkpt lat="47.54548" lon="-2.28393">
        <ele>45.400001525879</ele>
        <time>2021-07-25T07:16:44.000Z</time>
      </trkpt>
      <trkpt lat="47.54552" lon="-2.28393">
        <ele>45.400001525879</ele>
        <time>2021-07-25T07:16:46.000Z</time>
      </trkpt>
      <trkpt lat="47.54554" lon="-2.28392">
        <ele>45</ele>
        <time>2021-07-25T07:16:47.000Z</time>
      </trkpt>
      <trkpt lat="47.54555" lon="-2.28389">
        <ele>44.400001525879</ele>
        <time>2021-07-25T07:16:48.000Z</time>
      </trkpt>
      <trkpt lat="47.54556" lon="-2.28386">
        <ele>44</ele>
        <time>2021-07-25T07:16:49.000Z</time>
      </trkpt>
      <trkpt lat="47.54556" lon="-2.28383">
        <ele>43.599998474121</ele>
        <time>2021-07-25T07:16:50.000Z</time>
      </trkpt>
      <trkpt lat="47.54555" lon="-2.28379">
        <ele>43.200000762939</ele>
        <time>2021-07-25T07:16:51.000Z</time>
      </trkpt>
      <trkpt lat="47.54553" lon="-2.28376">
        <ele>43.200000762939</ele>
        <time>2021-07-25T07:16:52.000Z</time>
      </trkpt>
      <trkpt lat="47.54552" lon="-2.28373">
        <ele>43.200000762939</ele>
        <time>2021-07-25T07:16:53.000Z</time>
      </trkpt>
      <trkpt lat="47.54549" lon="-2.28353">
        <ele>43.200000762939</ele>
        <time>2021-07-25T07:16:58.000Z</time>
      </trkpt>
      <trkpt lat="47.54548" lon="-2.28336">
        <ele>43.200000762939</ele>
        <time>2021-07-25T07:17:04.000Z</time>
      </trkpt>
      <trkpt lat="47.54548" lon="-2.2833">
        <ele>42.799999237061</ele>
        <time>2021-07-25T07:17:07.000Z</time>
      </trkpt>
      <trkpt lat="47.54547" lon="-2.28329">
        <ele>42.200000762939</ele>
        <time>2021-07-25T07:17:08.000Z</time>
      </trkpt>
      <trkpt lat="47.54548" lon="-2.28327">
        <ele>41.799999237061</ele>
        <time>2021-07-25T07:17:09.000Z</time>
      </trkpt>
      <trkpt lat="47.54548" lon="-2.28325">
        <ele>41.400001525879</ele>
        <time>2021-07-25T07:17:10.000Z</time>
      </trkpt>
      <trkpt lat="47.54549" lon="-2.28322">
        <ele>41</ele>
        <time>2021-07-25T07:17:11.000Z</time>
      </trkpt>
      <trkpt lat="47.54555" lon="-2.2831">
        <ele>41</ele>
        <time>2021-07-25T07:17:15.000Z</time>
      </trkpt>
      <trkpt lat="47.54557" lon="-2.28308">
        <ele>40.599998474121</ele>
        <time>2021-07-25T07:17:16.000Z</time>
      </trkpt>
      <trkpt lat="47.54559" lon="-2.28305">
        <ele>40.200000762939</ele>
        <time>2021-07-25T07:17:17.000Z</time>
      </trkpt>
      <trkpt lat="47.54561" lon="-2.28303">
        <ele>39.799999237061</ele>
        <time>2021-07-25T07:17:18.000Z</time>
      </trkpt>
      <trkpt lat="47.54564" lon="-2.28301">
        <ele>39.400001525879</ele>
        <time>2021-07-25T07:17:19.000Z</time>
      </trkpt>
      <trkpt lat="47.54566" lon="-2.28298">
        <ele>39</ele>
        <time>2021-07-25T07:17:20.000Z</time>
      </trkpt>
      <trkpt lat="47.5457" lon="-2.2829">
        <ele>38.599998474121</ele>
        <time>2021-07-25T07:17:22.000Z</time>
      </trkpt>
      <trkpt lat="47.54572" lon="-2.28287">
        <ele>38.200000762939</ele>
        <time>2021-07-25T07:17:23.000Z</time>
      </trkpt>
      <trkpt lat="47.54574" lon="-2.28284">
        <ele>37.799999237061</ele>
        <time>2021-07-25T07:17:24.000Z</time>
      </trkpt>
      <trkpt lat="47.54575" lon="-2.28283">
        <ele>37.400001525879</ele>
        <time>2021-07-25T07:17:25.000Z</time>
      </trkpt>
      <trkpt lat="47.54578" lon="-2.28281">
        <ele>37</ele>
        <time>2021-07-25T07:17:26.000Z</time>
      </trkpt>
      <trkpt lat="47.5458" lon="-2.2828">
        <ele>36.599998474121</ele>
        <time>2021-07-25T07:17:27.000Z</time>
      </trkpt>
      <trkpt lat="47.54582" lon="-2.28278">
        <ele>36</ele>
        <time>2021-07-25T07:17:28.000Z</time>
      </trkpt>
      <trkpt lat="47.54583" lon="-2.28277">
        <ele>35.599998474121</ele>
        <time>2021-07-25T07:17:29.000Z</time>
      </trkpt>
      <trkpt lat="47.54585" lon="-2.28277">
        <ele>35.200000762939</ele>
        <time>2021-07-25T07:17:30.000Z</time>
      </trkpt>
      <trkpt lat="47.54588" lon="-2.28278">
        <ele>34.799999237061</ele>
        <time>2021-07-25T07:17:31.000Z</time>
      </trkpt>
      <trkpt lat="47.54591" lon="-2.28281">
        <ele>34.799999237061</ele>
        <time>2021-07-25T07:17:34.000Z</time>
      </trkpt>
      <trkpt lat="47.5459" lon="-2.28285">
        <ele>34.799999237061</ele>
        <time>2021-07-25T07:17:36.000Z</time>
      </trkpt>
      <trkpt lat="47.54586" lon="-2.2829">
        <ele>34.799999237061</ele>
        <time>2021-07-25T07:17:38.000Z</time>
      </trkpt>
      <trkpt lat="47.54582" lon="-2.28304">
        <ele>34.799999237061</ele>
        <time>2021-07-25T07:17:42.000Z</time>
      </trkpt>
      <trkpt lat="47.5458" lon="-2.28321">
        <ele>34.799999237061</ele>
        <time>2021-07-25T07:17:46.000Z</time>
      </trkpt>
      <trkpt lat="47.54588" lon="-2.28336">
        <ele>34.799999237061</ele>
        <time>2021-07-25T07:17:51.000Z</time>
      </trkpt>
      <trkpt lat="47.54596" lon="-2.28348">
        <ele>34.799999237061</ele>
        <time>2021-07-25T07:17:55.000Z</time>
      </trkpt>
      <trkpt lat="47.54609" lon="-2.28348">
        <ele>34.400001525879</ele>
        <time>2021-07-25T07:18:00.000Z</time>
      </trkpt>
      <trkpt lat="47.54611" lon="-2.28352">
        <ele>34</ele>
        <time>2021-07-25T07:18:01.000Z</time>
      </trkpt>
      <trkpt lat="47.54613" lon="-2.28358">
        <ele>33.599998474121</ele>
        <time>2021-07-25T07:18:02.000Z</time>
      </trkpt>
      <trkpt lat="47.54614" lon="-2.28364">
        <ele>33.200000762939</ele>
        <time>2021-07-25T07:18:03.000Z</time>
      </trkpt>
      <trkpt lat="47.54615" lon="-2.28371">
        <ele>32.799999237061</ele>
        <time>2021-07-25T07:18:04.000Z</time>
      </trkpt>
      <trkpt lat="47.54625" lon="-2.28425">
        <ele>32.799999237061</ele>
        <time>2021-07-25T07:18:12.000Z</time>
      </trkpt>
      <trkpt lat="47.54635" lon="-2.28473">
        <ele>32.400001525879</ele>
        <time>2021-07-25T07:18:18.000Z</time>
      </trkpt>
      <trkpt lat="47.54636" lon="-2.28482">
        <ele>32</ele>
        <time>2021-07-25T07:18:19.000Z</time>
      </trkpt>
      <trkpt lat="47.54637" lon="-2.28491">
        <ele>31.60000038147</ele>
        <time>2021-07-25T07:18:20.000Z</time>
      </trkpt>
      <trkpt lat="47.54639" lon="-2.285">
        <ele>31</ele>
        <time>2021-07-25T07:18:21.000Z</time>
      </trkpt>
      <trkpt lat="47.5464" lon="-2.2851">
        <ele>30.60000038147</ele>
        <time>2021-07-25T07:18:22.000Z</time>
      </trkpt>
      <trkpt lat="47.54644" lon="-2.28544">
        <ele>30.60000038147</ele>
        <time>2021-07-25T07:18:25.000Z</time>
      </trkpt>
      <trkpt lat="47.5465" lon="-2.28579">
        <ele>30.200000762939</ele>
        <time>2021-07-25T07:18:28.000Z</time>
      </trkpt>
      <trkpt lat="47.54651" lon="-2.2859">
        <ele>29.200000762939</ele>
        <time>2021-07-25T07:18:29.000Z</time>
      </trkpt>
      <trkpt lat="47.54653" lon="-2.28602">
        <ele>28.60000038147</ele>
        <time>2021-07-25T07:18:30.000Z</time>
      </trkpt>
      <trkpt lat="47.54654" lon="-2.28613">
        <ele>28</ele>
        <time>2021-07-25T07:18:31.000Z</time>
      </trkpt>
      <trkpt lat="47.54655" lon="-2.28622">
        <ele>27.39999961853</ele>
        <time>2021-07-25T07:18:32.000Z</time>
      </trkpt>
      <trkpt lat="47.54656" lon="-2.2863">
        <ele>26.799999237061</ele>
        <time>2021-07-25T07:18:33.000Z</time>
      </trkpt>
      <trkpt lat="47.54656" lon="-2.28635">
        <ele>26</ele>
        <time>2021-07-25T07:18:34.000Z</time>
      </trkpt>
      <trkpt lat="47.54656" lon="-2.28638">
        <ele>25.200000762939</ele>
        <time>2021-07-25T07:18:35.000Z</time>
      </trkpt>
      <trkpt lat="47.54658" lon="-2.2864">
        <ele>24.39999961853</ele>
        <time>2021-07-25T07:18:36.000Z</time>
      </trkpt>
      <trkpt lat="47.54659" lon="-2.28639">
        <ele>23.39999961853</ele>
        <time>2021-07-25T07:18:37.000Z</time>
      </trkpt>
      <trkpt lat="47.54661" lon="-2.28635">
        <ele>22.60000038147</ele>
        <time>2021-07-25T07:18:38.000Z</time>
      </trkpt>
      <trkpt lat="47.54664" lon="-2.28629">
        <ele>22</ele>
        <time>2021-07-25T07:18:39.000Z</time>
      </trkpt>
      <trkpt lat="47.54665" lon="-2.28623">
        <ele>21.39999961853</ele>
        <time>2021-07-25T07:18:40.000Z</time>
      </trkpt>
      <trkpt lat="47.54667" lon="-2.28616">
        <ele>21</ele>
        <time>2021-07-25T07:18:41.000Z</time>
      </trkpt>
      <trkpt lat="47.54669" lon="-2.28608">
        <ele>20.39999961853</ele>
        <time>2021-07-25T07:18:42.000Z</time>
      </trkpt>
      <trkpt lat="47.54671" lon="-2.28599">
        <ele>19.799999237061</ele>
        <time>2021-07-25T07:18:43.000Z</time>
      </trkpt>
      <trkpt lat="47.54673" lon="-2.28591">
        <ele>19.799999237061</ele>
        <time>2021-07-25T07:18:44.000Z</time>
      </trkpt>
      <trkpt lat="47.54675" lon="-2.28582">
        <ele>19.799999237061</ele>
        <time>2021-07-25T07:18:45.000Z</time>
      </trkpt>
      <trkpt lat="47.54693" lon="-2.28559">
        <ele>19.799999237061</ele>
        <time>2021-07-25T07:18:49.000Z</time>
      </trkpt>
      <trkpt lat="47.54701" lon="-2.2855">
        <ele>19.799999237061</ele>
        <time>2021-07-25T07:18:50.000Z</time>
      </trkpt>
      <trkpt lat="47.54718" lon="-2.28535">
        <ele>19.799999237061</ele>
        <time>2021-07-25T07:18:53.000Z</time>
      </trkpt>
      <trkpt lat="47.54723" lon="-2.2853">
        <ele>19.799999237061</ele>
        <time>2021-07-25T07:18:54.000Z</time>
      </trkpt>
      <trkpt lat="47.54735" lon="-2.28511">
        <ele>19.799999237061</ele>
        <time>2021-07-25T07:18:57.000Z</time>
      </trkpt>
      <trkpt lat="47.5474" lon="-2.28506">
        <ele>19.799999237061</ele>
        <time>2021-07-25T07:18:58.000Z</time>
      </trkpt>
      <trkpt lat="47.54754" lon="-2.28502">
        <ele>19.799999237061</ele>
        <time>2021-07-25T07:19:01.000Z</time>
      </trkpt>
      <trkpt lat="47.54773" lon="-2.28512">
        <ele>19.799999237061</ele>
        <time>2021-07-25T07:19:05.000Z</time>
      </trkpt>
      <trkpt lat="47.54792" lon="-2.28522">
        <ele>19.799999237061</ele>
        <time>2021-07-25T07:19:09.000Z</time>
      </trkpt>
      <trkpt lat="47.54797" lon="-2.28523">
        <ele>19.799999237061</ele>
        <time>2021-07-25T07:19:10.000Z</time>
      </trkpt>
      <trkpt lat="47.54812" lon="-2.28526">
        <ele>19.799999237061</ele>
        <time>2021-07-25T07:19:13.000Z</time>
      </trkpt>
      <trkpt lat="47.54819" lon="-2.28526">
        <ele>19.799999237061</ele>
        <time>2021-07-25T07:19:15.000Z</time>
      </trkpt>
      <trkpt lat="47.54829" lon="-2.28528">
        <ele>19.799999237061</ele>
        <time>2021-07-25T07:19:19.000Z</time>
      </trkpt>
      <trkpt lat="47.54835" lon="-2.28533">
        <ele>20.200000762939</ele>
        <time>2021-07-25T07:19:24.000Z</time>
      </trkpt>
      <trkpt lat="47.54837" lon="-2.28533">
        <ele>20.60000038147</ele>
        <time>2021-07-25T07:19:25.000Z</time>
      </trkpt>
      <trkpt lat="47.54839" lon="-2.28534">
        <ele>21</ele>
        <time>2021-07-25T07:19:26.000Z</time>
      </trkpt>
      <trkpt lat="47.54841" lon="-2.28535">
        <ele>21.39999961853</ele>
        <time>2021-07-25T07:19:27.000Z</time>
      </trkpt>
      <trkpt lat="47.54843" lon="-2.28536">
        <ele>22</ele>
        <time>2021-07-25T07:19:28.000Z</time>
      </trkpt>
      <trkpt lat="47.54855" lon="-2.28543">
        <ele>22</ele>
        <time>2021-07-25T07:19:34.000Z</time>
      </trkpt>
      <trkpt lat="47.54859" lon="-2.28546">
        <ele>22.39999961853</ele>
        <time>2021-07-25T07:19:36.000Z</time>
      </trkpt>
      <trkpt lat="47.5486" lon="-2.28547">
        <ele>22.799999237061</ele>
        <time>2021-07-25T07:19:37.000Z</time>
      </trkpt>
      <trkpt lat="47.54862" lon="-2.28549">
        <ele>23.200000762939</ele>
        <time>2021-07-25T07:19:38.000Z</time>
      </trkpt>
      <trkpt lat="47.54864" lon="-2.28551">
        <ele>23.60000038147</ele>
        <time>2021-07-25T07:19:39.000Z</time>
      </trkpt>
      <trkpt lat="47.54866" lon="-2.28553">
        <ele>24</ele>
        <time>2021-07-25T07:19:40.000Z</time>
      </trkpt>
      <trkpt lat="47.54879" lon="-2.28561">
        <ele>24</ele>
        <time>2021-07-25T07:19:46.000Z</time>
      </trkpt>
      <trkpt lat="47.5489" lon="-2.28565">
        <ele>24.39999961853</ele>
        <time>2021-07-25T07:19:50.000Z</time>
      </trkpt>
      <trkpt lat="47.54893" lon="-2.28566">
        <ele>24.799999237061</ele>
        <time>2021-07-25T07:19:51.000Z</time>
      </trkpt>
      <trkpt lat="47.54895" lon="-2.28567">
        <ele>25.200000762939</ele>
        <time>2021-07-25T07:19:52.000Z</time>
      </trkpt>
      <trkpt lat="47.54898" lon="-2.28568">
        <ele>25.60000038147</ele>
        <time>2021-07-25T07:19:53.000Z</time>
      </trkpt>
      <trkpt lat="47.549" lon="-2.28569">
        <ele>26</ele>
        <time>2021-07-25T07:19:54.000Z</time>
      </trkpt>
      <trkpt lat="47.5491" lon="-2.28571">
        <ele>26</ele>
        <time>2021-07-25T07:19:59.000Z</time>
      </trkpt>
      <trkpt lat="47.5492" lon="-2.28573">
        <ele>26</ele>
        <time>2021-07-25T07:20:04.000Z</time>
      </trkpt>
      <trkpt lat="47.54929" lon="-2.28574">
        <ele>26.799999237061</ele>
        <time>2021-07-25T07:20:08.000Z</time>
      </trkpt>
      <trkpt lat="47.5493" lon="-2.28574">
        <ele>27.200000762939</ele>
        <time>2021-07-25T07:20:09.000Z</time>
      </trkpt>
      <trkpt lat="47.54932" lon="-2.28574">
        <ele>27.60000038147</ele>
        <time>2021-07-25T07:20:10.000Z</time>
      </trkpt>
      <trkpt lat="47.54934" lon="-2.28575">
        <ele>28</ele>
        <time>2021-07-25T07:20:11.000Z</time>
      </trkpt>
      <trkpt lat="47.54936" lon="-2.28575">
        <ele>28</ele>
        <time>2021-07-25T07:20:12.000Z</time>
      </trkpt>
      <trkpt lat="47.54953" lon="-2.28581">
        <ele>28</ele>
        <time>2021-07-25T07:20:20.000Z</time>
      </trkpt>
      <trkpt lat="47.5496" lon="-2.28585">
        <ele>28.39999961853</ele>
        <time>2021-07-25T07:20:23.000Z</time>
      </trkpt>
      <trkpt lat="47.54962" lon="-2.28585">
        <ele>29</ele>
        <time>2021-07-25T07:20:24.000Z</time>
      </trkpt>
      <trkpt lat="47.54964" lon="-2.28587">
        <ele>29.39999961853</ele>
        <time>2021-07-25T07:20:25.000Z</time>
      </trkpt>
      <trkpt lat="47.54967" lon="-2.28589">
        <ele>29.799999237061</ele>
        <time>2021-07-25T07:20:26.000Z</time>
      </trkpt>
      <trkpt lat="47.54969" lon="-2.28591">
        <ele>30.200000762939</ele>
        <time>2021-07-25T07:20:27.000Z</time>
      </trkpt>
      <trkpt lat="47.5497" lon="-2.28593">
        <ele>30.200000762939</ele>
        <time>2021-07-25T07:20:28.000Z</time>
      </trkpt>
      <trkpt lat="47.54984" lon="-2.28604">
        <ele>30.200000762939</ele>
        <time>2021-07-25T07:20:34.000Z</time>
      </trkpt>
      <trkpt lat="47.54985" lon="-2.28607">
        <ele>30.60000038147</ele>
        <time>2021-07-25T07:20:35.000Z</time>
      </trkpt>
      <trkpt lat="47.54987" lon="-2.28609">
        <ele>31</ele>
        <time>2021-07-25T07:20:36.000Z</time>
      </trkpt>
      <trkpt lat="47.54989" lon="-2.28611">
        <ele>31.39999961853</ele>
        <time>2021-07-25T07:20:37.000Z</time>
      </trkpt>
      <trkpt lat="47.5499" lon="-2.28613">
        <ele>31.799999237061</ele>
        <time>2021-07-25T07:20:38.000Z</time>
      </trkpt>
      <trkpt lat="47.54992" lon="-2.28614">
        <ele>32.400001525879</ele>
        <time>2021-07-25T07:20:39.000Z</time>
      </trkpt>
      <trkpt lat="47.54996" lon="-2.28618">
        <ele>32.400001525879</ele>
        <time>2021-07-25T07:20:41.000Z</time>
      </trkpt>
      <trkpt lat="47.55009" lon="-2.28624">
        <ele>32.799999237061</ele>
        <time>2021-07-25T07:20:47.000Z</time>
      </trkpt>
      <trkpt lat="47.55011" lon="-2.28625">
        <ele>33.200000762939</ele>
        <time>2021-07-25T07:20:48.000Z</time>
      </trkpt>
      <trkpt lat="47.55013" lon="-2.28626">
        <ele>33.599998474121</ele>
        <time>2021-07-25T07:20:49.000Z</time>
      </trkpt>
      <trkpt lat="47.55016" lon="-2.28628">
        <ele>34</ele>
        <time>2021-07-25T07:20:50.000Z</time>
      </trkpt>
      <trkpt lat="47.55018" lon="-2.28629">
        <ele>34.400001525879</ele>
        <time>2021-07-25T07:20:51.000Z</time>
      </trkpt>
      <trkpt lat="47.55033" lon="-2.28638">
        <ele>34.400001525879</ele>
        <time>2021-07-25T07:20:58.000Z</time>
      </trkpt>
      <trkpt lat="47.55049" lon="-2.28648">
        <ele>34.400001525879</ele>
        <time>2021-07-25T07:21:04.000Z</time>
      </trkpt>
      <trkpt lat="47.55069" lon="-2.28663">
        <ele>34.400001525879</ele>
        <time>2021-07-25T07:21:11.000Z</time>
      </trkpt>
      <trkpt lat="47.55082" lon="-2.28674">
        <ele>34.799999237061</ele>
        <time>2021-07-25T07:21:16.000Z</time>
      </trkpt>
      <trkpt lat="47.55085" lon="-2.28676">
        <ele>35.200000762939</ele>
        <time>2021-07-25T07:21:17.000Z</time>
      </trkpt>
      <trkpt lat="47.55089" lon="-2.28679">
        <ele>35.599998474121</ele>
        <time>2021-07-25T07:21:18.000Z</time>
      </trkpt>
      <trkpt lat="47.55091" lon="-2.28681">
        <ele>36.200000762939</ele>
        <time>2021-07-25T07:21:19.000Z</time>
      </trkpt>
      <trkpt lat="47.55095" lon="-2.28684">
        <ele>36.599998474121</ele>
        <time>2021-07-25T07:21:20.000Z</time>
      </trkpt>
      <trkpt lat="47.55109" lon="-2.28695">
        <ele>36.599998474121</ele>
        <time>2021-07-25T07:21:24.000Z</time>
      </trkpt>
      <trkpt lat="47.55131" lon="-2.28712">
        <ele>36.599998474121</ele>
        <time>2021-07-25T07:21:30.000Z</time>
      </trkpt>
      <trkpt lat="47.55156" lon="-2.28733">
        <ele>36.599998474121</ele>
        <time>2021-07-25T07:21:37.000Z</time>
      </trkpt>
      <trkpt lat="47.55182" lon="-2.28751">
        <ele>36.599998474121</ele>
        <time>2021-07-25T07:21:44.000Z</time>
      </trkpt>
      <trkpt lat="47.55208" lon="-2.28761">
        <ele>36.599998474121</ele>
        <time>2021-07-25T07:21:51.000Z</time>
      </trkpt>
      <trkpt lat="47.55228" lon="-2.28764">
        <ele>37</ele>
        <time>2021-07-25T07:21:56.000Z</time>
      </trkpt>
      <trkpt lat="47.55233" lon="-2.28764">
        <ele>37.400001525879</ele>
        <time>2021-07-25T07:21:57.000Z</time>
      </trkpt>
      <trkpt lat="47.55237" lon="-2.28765">
        <ele>37.799999237061</ele>
        <time>2021-07-25T07:21:58.000Z</time>
      </trkpt>
      <trkpt lat="47.55242" lon="-2.28765">
        <ele>38.200000762939</ele>
        <time>2021-07-25T07:21:59.000Z</time>
      </trkpt>
      <trkpt lat="47.55246" lon="-2.28765">
        <ele>38.599998474121</ele>
        <time>2021-07-25T07:22:00.000Z</time>
      </trkpt>
      <trkpt lat="47.5525" lon="-2.28765">
        <ele>38.599998474121</ele>
        <time>2021-07-25T07:22:01.000Z</time>
      </trkpt>
      <trkpt lat="47.55259" lon="-2.28763">
        <ele>38.599998474121</ele>
        <time>2021-07-25T07:22:03.000Z</time>
      </trkpt>
      <trkpt lat="47.55279" lon="-2.28759">
        <ele>38.599998474121</ele>
        <time>2021-07-25T07:22:09.000Z</time>
      </trkpt>
      <trkpt lat="47.553" lon="-2.28755">
        <ele>38.599998474121</ele>
        <time>2021-07-25T07:22:15.000Z</time>
      </trkpt>
      <trkpt lat="47.55313" lon="-2.28753">
        <ele>38.599998474121</ele>
        <time>2021-07-25T07:22:20.000Z</time>
      </trkpt>
      <trkpt lat="47.55336" lon="-2.28747">
        <ele>38.599998474121</ele>
        <time>2021-07-25T07:22:27.000Z</time>
      </trkpt>
      <trkpt lat="47.55355" lon="-2.28742">
        <ele>38.599998474121</ele>
        <time>2021-07-25T07:22:33.000Z</time>
      </trkpt>
      <trkpt lat="47.55375" lon="-2.28739">
        <ele>39</ele>
        <time>2021-07-25T07:22:38.000Z</time>
      </trkpt>
      <trkpt lat="47.55379" lon="-2.28739">
        <ele>39.400001525879</ele>
        <time>2021-07-25T07:22:39.000Z</time>
      </trkpt>
      <trkpt lat="47.55383" lon="-2.28739">
        <ele>39.799999237061</ele>
        <time>2021-07-25T07:22:40.000Z</time>
      </trkpt>
      <trkpt lat="47.55387" lon="-2.28739">
        <ele>40.200000762939</ele>
        <time>2021-07-25T07:22:41.000Z</time>
      </trkpt>
      <trkpt lat="47.55392" lon="-2.2874">
        <ele>40.599998474121</ele>
        <time>2021-07-25T07:22:42.000Z</time>
      </trkpt>
      <trkpt lat="47.55404" lon="-2.28739">
        <ele>40.599998474121</ele>
        <time>2021-07-25T07:22:45.000Z</time>
      </trkpt>
      <trkpt lat="47.55425" lon="-2.28743">
        <ele>40.599998474121</ele>
        <time>2021-07-25T07:22:52.000Z</time>
      </trkpt>
      <trkpt lat="47.55433" lon="-2.28744">
        <ele>41</ele>
        <time>2021-07-25T07:22:55.000Z</time>
      </trkpt>
      <trkpt lat="47.55435" lon="-2.28743">
        <ele>41.599998474121</ele>
        <time>2021-07-25T07:22:56.000Z</time>
      </trkpt>
      <trkpt lat="47.55437" lon="-2.28742">
        <ele>42</ele>
        <time>2021-07-25T07:22:57.000Z</time>
      </trkpt>
      <trkpt lat="47.55439" lon="-2.28741">
        <ele>42.400001525879</ele>
        <time>2021-07-25T07:22:58.000Z</time>
      </trkpt>
      <trkpt lat="47.55439" lon="-2.28738">
        <ele>42.799999237061</ele>
        <time>2021-07-25T07:22:59.000Z</time>
      </trkpt>
      <trkpt lat="47.55433" lon="-2.2872">
        <ele>42.799999237061</ele>
        <time>2021-07-25T07:23:04.000Z</time>
      </trkpt>
      <trkpt lat="47.55432" lon="-2.28716">
        <ele>42.799999237061</ele>
        <time>2021-07-25T07:23:05.000Z</time>
      </trkpt>
      <trkpt lat="47.55427" lon="-2.28689">
        <ele>42.799999237061</ele>
        <time>2021-07-25T07:23:11.000Z</time>
      </trkpt>
      <trkpt lat="47.55422" lon="-2.2866">
        <ele>43.200000762939</ele>
        <time>2021-07-25T07:23:17.000Z</time>
      </trkpt>
      <trkpt lat="47.55422" lon="-2.28654">
        <ele>43.599998474121</ele>
        <time>2021-07-25T07:23:18.000Z</time>
      </trkpt>
      <trkpt lat="47.55421" lon="-2.28648">
        <ele>44</ele>
        <time>2021-07-25T07:23:19.000Z</time>
      </trkpt>
      <trkpt lat="47.5542" lon="-2.28642">
        <ele>44.400001525879</ele>
        <time>2021-07-25T07:23:20.000Z</time>
      </trkpt>
      <trkpt lat="47.55419" lon="-2.28636">
        <ele>44.799999237061</ele>
        <time>2021-07-25T07:23:21.000Z</time>
      </trkpt>
      <trkpt lat="47.5541" lon="-2.2859">
        <ele>44.799999237061</ele>
        <time>2021-07-25T07:23:28.000Z</time>
      </trkpt>
      <trkpt lat="47.55398" lon="-2.28517">
        <ele>44.799999237061</ele>
        <time>2021-07-25T07:23:38.000Z</time>
      </trkpt>
      <trkpt lat="47.55388" lon="-2.28457">
        <ele>44.799999237061</ele>
        <time>2021-07-25T07:23:46.000Z</time>
      </trkpt>
      <trkpt lat="47.55381" lon="-2.28422">
        <ele>44.799999237061</ele>
        <time>2021-07-25T07:23:52.000Z</time>
      </trkpt>
      <trkpt lat="47.55379" lon="-2.28412">
        <ele>44.799999237061</ele>
        <time>2021-07-25T07:23:57.000Z</time>
      </trkpt>
      <trkpt lat="47.55378" lon="-2.28408">
        <ele>44.799999237061</ele>
        <time>2021-07-25T07:23:59.000Z</time>
      </trkpt>
      <trkpt lat="47.55381" lon="-2.28406">
        <ele>44.799999237061</ele>
        <time>2021-07-25T07:24:02.000Z</time>
      </trkpt>
      <trkpt lat="47.55383" lon="-2.28414">
        <ele>44.799999237061</ele>
        <time>2021-07-25T07:24:05.000Z</time>
      </trkpt>
      <trkpt lat="47.55384" lon="-2.28418">
        <ele>44.799999237061</ele>
        <time>2021-07-25T07:24:06.000Z</time>
      </trkpt>
      <trkpt lat="47.55389" lon="-2.2845">
        <ele>44.799999237061</ele>
        <time>2021-07-25T07:24:12.000Z</time>
      </trkpt>
      <trkpt lat="47.5539" lon="-2.28456">
        <ele>45.200000762939</ele>
        <time>2021-07-25T07:24:13.000Z</time>
      </trkpt>
      <trkpt lat="47.55391" lon="-2.28462">
        <ele>46.200000762939</ele>
        <time>2021-07-25T07:24:14.000Z</time>
      </trkpt>
      <trkpt lat="47.55392" lon="-2.28468">
        <ele>46.599998474121</ele>
        <time>2021-07-25T07:24:15.000Z</time>
      </trkpt>
      <trkpt lat="47.55393" lon="-2.28475">
        <ele>47</ele>
        <time>2021-07-25T07:24:16.000Z</time>
      </trkpt>
      <trkpt lat="47.55398" lon="-2.28501">
        <ele>47</ele>
        <time>2021-07-25T07:24:20.000Z</time>
      </trkpt>
      <trkpt lat="47.55401" lon="-2.2852">
        <ele>47</ele>
        <time>2021-07-25T07:24:23.000Z</time>
      </trkpt>
      <trkpt lat="47.55405" lon="-2.28546">
        <ele>47</ele>
        <time>2021-07-25T07:24:27.000Z</time>
      </trkpt>
      <trkpt lat="47.55411" lon="-2.28586">
        <ele>47</ele>
        <time>2021-07-25T07:24:34.000Z</time>
      </trkpt>
      <trkpt lat="47.55418" lon="-2.28628">
        <ele>47</ele>
        <time>2021-07-25T07:24:41.000Z</time>
      </trkpt>
      <trkpt lat="47.55427" lon="-2.28682">
        <ele>47</ele>
        <time>2021-07-25T07:24:49.000Z</time>
      </trkpt>
      <trkpt lat="47.5544" lon="-2.28745">
        <ele>47</ele>
        <time>2021-07-25T07:24:58.000Z</time>
      </trkpt>
      <trkpt lat="47.55445" lon="-2.28759">
        <ele>46.400001525879</ele>
        <time>2021-07-25T07:25:00.000Z</time>
      </trkpt>
      <trkpt lat="47.55449" lon="-2.28767">
        <ele>46</ele>
        <time>2021-07-25T07:25:01.000Z</time>
      </trkpt>
      <trkpt lat="47.55452" lon="-2.28774">
        <ele>45.599998474121</ele>
        <time>2021-07-25T07:25:02.000Z</time>
      </trkpt>
      <trkpt lat="47.55456" lon="-2.28781">
        <ele>45</ele>
        <time>2021-07-25T07:25:03.000Z</time>
      </trkpt>
      <trkpt lat="47.55461" lon="-2.28788">
        <ele>44.599998474121</ele>
        <time>2021-07-25T07:25:04.000Z</time>
      </trkpt>
      <trkpt lat="47.55483" lon="-2.28825">
        <ele>44.599998474121</ele>
        <time>2021-07-25T07:25:10.000Z</time>
      </trkpt>
      <trkpt lat="47.55491" lon="-2.28838">
        <ele>44.599998474121</ele>
        <time>2021-07-25T07:25:12.000Z</time>
      </trkpt>
      <trkpt lat="47.55501" lon="-2.28846">
        <ele>44.599998474121</ele>
        <time>2021-07-25T07:25:14.000Z</time>
      </trkpt>
      <trkpt lat="47.55511" lon="-2.28846">
        <ele>44.200000762939</ele>
        <time>2021-07-25T07:25:16.000Z</time>
      </trkpt>
      <trkpt lat="47.55517" lon="-2.28845">
        <ele>43.799999237061</ele>
        <time>2021-07-25T07:25:17.000Z</time>
      </trkpt>
      <trkpt lat="47.55522" lon="-2.28844">
        <ele>43.400001525879</ele>
        <time>2021-07-25T07:25:18.000Z</time>
      </trkpt>
      <trkpt lat="47.55527" lon="-2.28843">
        <ele>43</ele>
        <time>2021-07-25T07:25:19.000Z</time>
      </trkpt>
      <trkpt lat="47.55531" lon="-2.28843">
        <ele>42.599998474121</ele>
        <time>2021-07-25T07:25:20.000Z</time>
      </trkpt>
      <trkpt lat="47.55555" lon="-2.28839">
        <ele>42.599998474121</ele>
        <time>2021-07-25T07:25:25.000Z</time>
      </trkpt>
      <trkpt lat="47.55564" lon="-2.28837">
        <ele>43</ele>
        <time>2021-07-25T07:25:27.000Z</time>
      </trkpt>
      <trkpt lat="47.55569" lon="-2.28836">
        <ele>43.400001525879</ele>
        <time>2021-07-25T07:25:28.000Z</time>
      </trkpt>
      <trkpt lat="47.55574" lon="-2.28835">
        <ele>44.400001525879</ele>
        <time>2021-07-25T07:25:29.000Z</time>
      </trkpt>
      <trkpt lat="47.55579" lon="-2.28832">
        <ele>44.799999237061</ele>
        <time>2021-07-25T07:25:30.000Z</time>
      </trkpt>
      <trkpt lat="47.55582" lon="-2.28826">
        <ele>44.799999237061</ele>
        <time>2021-07-25T07:25:31.000Z</time>
      </trkpt>
      <trkpt lat="47.55582" lon="-2.28806">
        <ele>44.799999237061</ele>
        <time>2021-07-25T07:25:34.000Z</time>
      </trkpt>
      <trkpt lat="47.55579" lon="-2.28778">
        <ele>44.799999237061</ele>
        <time>2021-07-25T07:25:38.000Z</time>
      </trkpt>
      <trkpt lat="47.55579" lon="-2.2875">
        <ele>45.200000762939</ele>
        <time>2021-07-25T07:25:42.000Z</time>
      </trkpt>
      <trkpt lat="47.55579" lon="-2.28743">
        <ele>45.599998474121</ele>
        <time>2021-07-25T07:25:43.000Z</time>
      </trkpt>
      <trkpt lat="47.5558" lon="-2.28736">
        <ele>46</ele>
        <time>2021-07-25T07:25:44.000Z</time>
      </trkpt>
      <trkpt lat="47.5558" lon="-2.28729">
        <ele>46.400001525879</ele>
        <time>2021-07-25T07:25:45.000Z</time>
      </trkpt>
      <trkpt lat="47.5558" lon="-2.28722">
        <ele>46.799999237061</ele>
        <time>2021-07-25T07:25:46.000Z</time>
      </trkpt>
      <trkpt lat="47.55582" lon="-2.28668">
        <ele>46.799999237061</ele>
        <time>2021-07-25T07:25:54.000Z</time>
      </trkpt>
      <trkpt lat="47.55585" lon="-2.28632">
        <ele>46.799999237061</ele>
        <time>2021-07-25T07:26:00.000Z</time>
      </trkpt>
      <trkpt lat="47.55586" lon="-2.28626">
        <ele>46.799999237061</ele>
        <time>2021-07-25T07:26:01.000Z</time>
      </trkpt>
      <trkpt lat="47.55586" lon="-2.286">
        <ele>46.799999237061</ele>
        <time>2021-07-25T07:26:05.000Z</time>
      </trkpt>
      <trkpt lat="47.55584" lon="-2.28564">
        <ele>47.200000762939</ele>
        <time>2021-07-25T07:26:11.000Z</time>
      </trkpt>
      <trkpt lat="47.55584" lon="-2.28559">
        <ele>47.599998474121</ele>
        <time>2021-07-25T07:26:12.000Z</time>
      </trkpt>
      <trkpt lat="47.55584" lon="-2.28553">
        <ele>48</ele>
        <time>2021-07-25T07:26:13.000Z</time>
      </trkpt>
      <trkpt lat="47.55583" lon="-2.28547">
        <ele>48.599998474121</ele>
        <time>2021-07-25T07:26:14.000Z</time>
      </trkpt>
      <trkpt lat="47.55583" lon="-2.2854">
        <ele>49</ele>
        <time>2021-07-25T07:26:15.000Z</time>
      </trkpt>
      <trkpt lat="47.55584" lon="-2.28518">
        <ele>49</ele>
        <time>2021-07-25T07:26:18.000Z</time>
      </trkpt>
      <trkpt lat="47.55588" lon="-2.28473">
        <ele>49</ele>
        <time>2021-07-25T07:26:23.000Z</time>
      </trkpt>
      <trkpt lat="47.55589" lon="-2.28443">
        <ele>48.599998474121</ele>
        <time>2021-07-25T07:26:26.000Z</time>
      </trkpt>
      <trkpt lat="47.5559" lon="-2.28432">
        <ele>48.200000762939</ele>
        <time>2021-07-25T07:26:27.000Z</time>
      </trkpt>
      <trkpt lat="47.5559" lon="-2.28422">
        <ele>47.599998474121</ele>
        <time>2021-07-25T07:26:28.000Z</time>
      </trkpt>
      <trkpt lat="47.55591" lon="-2.28412">
        <ele>47.200000762939</ele>
        <time>2021-07-25T07:26:29.000Z</time>
      </trkpt>
      <trkpt lat="47.55591" lon="-2.28402">
        <ele>46.799999237061</ele>
        <time>2021-07-25T07:26:30.000Z</time>
      </trkpt>
      <trkpt lat="47.55599" lon="-2.28349">
        <ele>46.799999237061</ele>
        <time>2021-07-25T07:26:35.000Z</time>
      </trkpt>
      <trkpt lat="47.55606" lon="-2.28318">
        <ele>46.400001525879</ele>
        <time>2021-07-25T07:26:38.000Z</time>
      </trkpt>
      <trkpt lat="47.55608" lon="-2.28309">
        <ele>46</ele>
        <time>2021-07-25T07:26:39.000Z</time>
      </trkpt>
      <trkpt lat="47.55611" lon="-2.283">
        <ele>45.599998474121</ele>
        <time>2021-07-25T07:26:40.000Z</time>
      </trkpt>
      <trkpt lat="47.55613" lon="-2.28291">
        <ele>45</ele>
        <time>2021-07-25T07:26:41.000Z</time>
      </trkpt>
      <trkpt lat="47.55615" lon="-2.28282">
        <ele>44.599998474121</ele>
        <time>2021-07-25T07:26:42.000Z</time>
      </trkpt>
      <trkpt lat="47.55623" lon="-2.28251">
        <ele>44.599998474121</ele>
        <time>2021-07-25T07:26:46.000Z</time>
      </trkpt>
      <trkpt lat="47.55626" lon="-2.28244">
        <ele>44.599998474121</ele>
        <time>2021-07-25T07:26:47.000Z</time>
      </trkpt>
      <trkpt lat="47.55643" lon="-2.28186">
        <ele>44.599998474121</ele>
        <time>2021-07-25T07:26:55.000Z</time>
      </trkpt>
      <trkpt lat="47.55646" lon="-2.28166">
        <ele>44.599998474121</ele>
        <time>2021-07-25T07:26:58.000Z</time>
      </trkpt>
      <trkpt lat="47.55647" lon="-2.28152">
        <ele>45</ele>
        <time>2021-07-25T07:27:00.000Z</time>
      </trkpt>
      <trkpt lat="47.55648" lon="-2.28145">
        <ele>45.599998474121</ele>
        <time>2021-07-25T07:27:01.000Z</time>
      </trkpt>
      <trkpt lat="47.55649" lon="-2.28137">
        <ele>46</ele>
        <time>2021-07-25T07:27:02.000Z</time>
      </trkpt>
      <trkpt lat="47.5565" lon="-2.2813">
        <ele>46.400001525879</ele>
        <time>2021-07-25T07:27:03.000Z</time>
      </trkpt>
      <trkpt lat="47.55651" lon="-2.28123">
        <ele>46.799999237061</ele>
        <time>2021-07-25T07:27:04.000Z</time>
      </trkpt>
      <trkpt lat="47.55654" lon="-2.28102">
        <ele>46.799999237061</ele>
        <time>2021-07-25T07:27:07.000Z</time>
      </trkpt>
      <trkpt lat="47.55658" lon="-2.28063">
        <ele>46.799999237061</ele>
        <time>2021-07-25T07:27:13.000Z</time>
      </trkpt>
      <trkpt lat="47.55658" lon="-2.28054">
        <ele>47.200000762939</ele>
        <time>2021-07-25T07:27:15.000Z</time>
      </trkpt>
      <trkpt lat="47.55658" lon="-2.2805">
        <ele>47.599998474121</ele>
        <time>2021-07-25T07:27:16.000Z</time>
      </trkpt>
      <trkpt lat="47.55658" lon="-2.28046">
        <ele>48.200000762939</ele>
        <time>2021-07-25T07:27:17.000Z</time>
      </trkpt>
      <trkpt lat="47.55658" lon="-2.28043">
        <ele>48.599998474121</ele>
        <time>2021-07-25T07:27:18.000Z</time>
      </trkpt>
      <trkpt lat="47.55659" lon="-2.28039">
        <ele>49</ele>
        <time>2021-07-25T07:27:19.000Z</time>
      </trkpt>
      <trkpt lat="47.55661" lon="-2.28013">
        <ele>49</ele>
        <time>2021-07-25T07:27:26.000Z</time>
      </trkpt>
      <trkpt lat="47.55662" lon="-2.28004">
        <ele>49.400001525879</ele>
        <time>2021-07-25T07:27:28.000Z</time>
      </trkpt>
      <trkpt lat="47.55662" lon="-2.27998">
        <ele>49.799999237061</ele>
        <time>2021-07-25T07:27:29.000Z</time>
      </trkpt>
      <trkpt lat="47.55663" lon="-2.27993">
        <ele>50.200000762939</ele>
        <time>2021-07-25T07:27:30.000Z</time>
      </trkpt>
      <trkpt lat="47.55664" lon="-2.27988">
        <ele>50.599998474121</ele>
        <time>2021-07-25T07:27:31.000Z</time>
      </trkpt>
      <trkpt lat="47.55664" lon="-2.27984">
        <ele>51</ele>
        <time>2021-07-25T07:27:32.000Z</time>
      </trkpt>
      <trkpt lat="47.55667" lon="-2.27964">
        <ele>51</ele>
        <time>2021-07-25T07:27:39.000Z</time>
      </trkpt>
      <trkpt lat="47.5567" lon="-2.27958">
        <ele>51</ele>
        <time>2021-07-25T07:27:41.000Z</time>
      </trkpt>
      <trkpt lat="47.55673" lon="-2.27949">
        <ele>51</ele>
        <time>2021-07-25T07:27:44.000Z</time>
      </trkpt>
      <trkpt lat="47.55675" lon="-2.27929">
        <ele>51</ele>
        <time>2021-07-25T07:27:50.000Z</time>
      </trkpt>
      <trkpt lat="47.5568" lon="-2.27917">
        <ele>51</ele>
        <time>2021-07-25T07:27:53.000Z</time>
      </trkpt>
      <trkpt lat="47.55683" lon="-2.27914">
        <ele>51.400001525879</ele>
        <time>2021-07-25T07:27:54.000Z</time>
      </trkpt>
      <trkpt lat="47.55686" lon="-2.27912">
        <ele>51.799999237061</ele>
        <time>2021-07-25T07:27:55.000Z</time>
      </trkpt>
      <trkpt lat="47.55689" lon="-2.27911">
        <ele>52.200000762939</ele>
        <time>2021-07-25T07:27:56.000Z</time>
      </trkpt>
      <trkpt lat="47.55692" lon="-2.27908">
        <ele>53</ele>
        <time>2021-07-25T07:27:57.000Z</time>
      </trkpt>
      <trkpt lat="47.55703" lon="-2.27907">
        <ele>53</ele>
        <time>2021-07-25T07:28:01.000Z</time>
      </trkpt>
      <trkpt lat="47.55719" lon="-2.27894">
        <ele>53</ele>
        <time>2021-07-25T07:28:06.000Z</time>
      </trkpt>
      <trkpt lat="47.55735" lon="-2.27895">
        <ele>53</ele>
        <time>2021-07-25T07:28:12.000Z</time>
      </trkpt>
      <trkpt lat="47.55746" lon="-2.27895">
        <ele>52.599998474121</ele>
        <time>2021-07-25T07:28:15.000Z</time>
      </trkpt>
      <trkpt lat="47.5575" lon="-2.27894">
        <ele>52.200000762939</ele>
        <time>2021-07-25T07:28:16.000Z</time>
      </trkpt>
      <trkpt lat="47.55753" lon="-2.2789">
        <ele>51.799999237061</ele>
        <time>2021-07-25T07:28:17.000Z</time>
      </trkpt>
      <trkpt lat="47.55755" lon="-2.27885">
        <ele>51.400001525879</ele>
        <time>2021-07-25T07:28:18.000Z</time>
      </trkpt>
      <trkpt lat="47.55756" lon="-2.27879">
        <ele>51</ele>
        <time>2021-07-25T07:28:19.000Z</time>
      </trkpt>
      <trkpt lat="47.55757" lon="-2.27874">
        <ele>51</ele>
        <time>2021-07-25T07:28:20.000Z</time>
      </trkpt>
      <trkpt lat="47.55758" lon="-2.2787">
        <ele>51</ele>
        <time>2021-07-25T07:28:21.000Z</time>
      </trkpt>
      <trkpt lat="47.55763" lon="-2.27862">
        <ele>51</ele>
        <time>2021-07-25T07:28:24.000Z</time>
      </trkpt>
      <trkpt lat="47.5577" lon="-2.27856">
        <ele>50.599998474121</ele>
        <time>2021-07-25T07:28:27.000Z</time>
      </trkpt>
      <trkpt lat="47.55773" lon="-2.27856">
        <ele>50.200000762939</ele>
        <time>2021-07-25T07:28:28.000Z</time>
      </trkpt>
      <trkpt lat="47.55776" lon="-2.27855">
        <ele>49.599998474121</ele>
        <time>2021-07-25T07:28:29.000Z</time>
      </trkpt>
      <trkpt lat="47.55778" lon="-2.27856">
        <ele>49.200000762939</ele>
        <time>2021-07-25T07:28:30.000Z</time>
      </trkpt>
      <trkpt lat="47.5578" lon="-2.27856">
        <ele>48.799999237061</ele>
        <time>2021-07-25T07:28:31.000Z</time>
      </trkpt>
      <trkpt lat="47.55784" lon="-2.27854">
        <ele>48.400001525879</ele>
        <time>2021-07-25T07:28:33.000Z</time>
      </trkpt>
      <trkpt lat="47.55786" lon="-2.27853">
        <ele>48</ele>
        <time>2021-07-25T07:28:34.000Z</time>
      </trkpt>
      <trkpt lat="47.55787" lon="-2.27851">
        <ele>47.400001525879</ele>
        <time>2021-07-25T07:28:35.000Z</time>
      </trkpt>
      <trkpt lat="47.55789" lon="-2.27849">
        <ele>47</ele>
        <time>2021-07-25T07:28:36.000Z</time>
      </trkpt>
      <trkpt lat="47.5579" lon="-2.27846">
        <ele>46.599998474121</ele>
        <time>2021-07-25T07:28:37.000Z</time>
      </trkpt>
      <trkpt lat="47.55794" lon="-2.27833">
        <ele>46.599998474121</ele>
        <time>2021-07-25T07:28:40.000Z</time>
      </trkpt>
      <trkpt lat="47.55794" lon="-2.27811">
        <ele>46.599998474121</ele>
        <time>2021-07-25T07:28:46.000Z</time>
      </trkpt>
      <trkpt lat="47.55796" lon="-2.27804">
        <ele>46</ele>
        <time>2021-07-25T07:28:48.000Z</time>
      </trkpt>
      <trkpt lat="47.55798" lon="-2.27802">
        <ele>45.599998474121</ele>
        <time>2021-07-25T07:28:49.000Z</time>
      </trkpt>
      <trkpt lat="47.55799" lon="-2.27798">
        <ele>45.200000762939</ele>
        <time>2021-07-25T07:28:50.000Z</time>
      </trkpt>
      <trkpt lat="47.558" lon="-2.27795">
        <ele>44.599998474121</ele>
        <time>2021-07-25T07:28:51.000Z</time>
      </trkpt>
      <trkpt lat="47.558" lon="-2.27791">
        <ele>44.200000762939</ele>
        <time>2021-07-25T07:28:52.000Z</time>
      </trkpt>
      <trkpt lat="47.55799" lon="-2.27787">
        <ele>43.599998474121</ele>
        <time>2021-07-25T07:28:53.000Z</time>
      </trkpt>
      <trkpt lat="47.55799" lon="-2.27784">
        <ele>43.200000762939</ele>
        <time>2021-07-25T07:28:54.000Z</time>
      </trkpt>
      <trkpt lat="47.558" lon="-2.27781">
        <ele>42.599998474121</ele>
        <time>2021-07-25T07:28:55.000Z</time>
      </trkpt>
      <trkpt lat="47.558" lon="-2.27778">
        <ele>42</ele>
        <time>2021-07-25T07:28:56.000Z</time>
      </trkpt>
      <trkpt lat="47.55801" lon="-2.27774">
        <ele>42</ele>
        <time>2021-07-25T07:28:57.000Z</time>
      </trkpt>
      <trkpt lat="47.55802" lon="-2.27751">
        <ele>42</ele>
        <time>2021-07-25T07:29:03.000Z</time>
      </trkpt>
      <trkpt lat="47.55801" lon="-2.27729">
        <ele>42</ele>
        <time>2021-07-25T07:29:10.000Z</time>
      </trkpt>
      <trkpt lat="47.55803" lon="-2.27706">
        <ele>42</ele>
        <time>2021-07-25T07:29:16.000Z</time>
      </trkpt>
      <trkpt lat="47.55805" lon="-2.27696">
        <ele>42</ele>
        <time>2021-07-25T07:29:19.000Z</time>
      </trkpt>
      <trkpt lat="47.55809" lon="-2.27691">
        <ele>42</ele>
        <time>2021-07-25T07:29:22.000Z</time>
      </trkpt>
      <trkpt lat="47.55813" lon="-2.27689">
        <ele>41.599998474121</ele>
        <time>2021-07-25T07:29:26.000Z</time>
      </trkpt>
      <trkpt lat="47.55814" lon="-2.27689">
        <ele>41.200000762939</ele>
        <time>2021-07-25T07:29:27.000Z</time>
      </trkpt>
      <trkpt lat="47.55814" lon="-2.27689">
        <ele>40.799999237061</ele>
        <time>2021-07-25T07:29:28.000Z</time>
      </trkpt>
      <trkpt lat="47.55815" lon="-2.27689">
        <ele>40.400001525879</ele>
        <time>2021-07-25T07:29:29.000Z</time>
      </trkpt>
      <trkpt lat="47.55824" lon="-2.27691">
        <ele>37</ele>
        <time>2021-07-25T07:29:39.000Z</time>
      </trkpt>
      <trkpt lat="47.55826" lon="-2.2769">
        <ele>36.599998474121</ele>
        <time>2021-07-25T07:29:40.000Z</time>
      </trkpt>
      <trkpt lat="47.55827" lon="-2.27689">
        <ele>36</ele>
        <time>2021-07-25T07:29:41.000Z</time>
      </trkpt>
      <trkpt lat="47.55829" lon="-2.27688">
        <ele>35.599998474121</ele>
        <time>2021-07-25T07:29:42.000Z</time>
      </trkpt>
      <trkpt lat="47.55829" lon="-2.27688">
        <ele>35.200000762939</ele>
        <time>2021-07-25T07:29:43.000Z</time>
      </trkpt>
      <trkpt lat="47.5583" lon="-2.27687">
        <ele>34.599998474121</ele>
        <time>2021-07-25T07:29:44.000Z</time>
      </trkpt>
      <trkpt lat="47.55832" lon="-2.27686">
        <ele>34.200000762939</ele>
        <time>2021-07-25T07:29:45.000Z</time>
      </trkpt>
      <trkpt lat="47.55833" lon="-2.27685">
        <ele>33.799999237061</ele>
        <time>2021-07-25T07:29:46.000Z</time>
      </trkpt>
      <trkpt lat="47.55833" lon="-2.27683">
        <ele>33.400001525879</ele>
        <time>2021-07-25T07:29:47.000Z</time>
      </trkpt>
      <trkpt lat="47.55834" lon="-2.2768">
        <ele>33.400001525879</ele>
        <time>2021-07-25T07:29:48.000Z</time>
      </trkpt>
      <trkpt lat="47.55837" lon="-2.27672">
        <ele>33.400001525879</ele>
        <time>2021-07-25T07:29:51.000Z</time>
      </trkpt>
      <trkpt lat="47.55841" lon="-2.27651">
        <ele>33.400001525879</ele>
        <time>2021-07-25T07:29:57.000Z</time>
      </trkpt>
      <trkpt lat="47.55841" lon="-2.27648">
        <ele>33.799999237061</ele>
        <time>2021-07-25T07:29:58.000Z</time>
      </trkpt>
      <trkpt lat="47.55842" lon="-2.27645">
        <ele>34.200000762939</ele>
        <time>2021-07-25T07:29:59.000Z</time>
      </trkpt>
      <trkpt lat="47.55842" lon="-2.27642">
        <ele>34.599998474121</ele>
        <time>2021-07-25T07:30:00.000Z</time>
      </trkpt>
      <trkpt lat="47.55843" lon="-2.27639">
        <ele>35</ele>
        <time>2021-07-25T07:30:01.000Z</time>
      </trkpt>
      <trkpt lat="47.55843" lon="-2.27636">
        <ele>35.400001525879</ele>
        <time>2021-07-25T07:30:02.000Z</time>
      </trkpt>
      <trkpt lat="47.55845" lon="-2.2763">
        <ele>35.400001525879</ele>
        <time>2021-07-25T07:30:04.000Z</time>
      </trkpt>
      <trkpt lat="47.55848" lon="-2.27621">
        <ele>35.799999237061</ele>
        <time>2021-07-25T07:30:07.000Z</time>
      </trkpt>
      <trkpt lat="47.55848" lon="-2.27618">
        <ele>36.400001525879</ele>
        <time>2021-07-25T07:30:08.000Z</time>
      </trkpt>
      <trkpt lat="47.55849" lon="-2.27615">
        <ele>36.799999237061</ele>
        <time>2021-07-25T07:30:09.000Z</time>
      </trkpt>
      <trkpt lat="47.55851" lon="-2.27611">
        <ele>37.200000762939</ele>
        <time>2021-07-25T07:30:10.000Z</time>
      </trkpt>
      <trkpt lat="47.55852" lon="-2.27608">
        <ele>37.599998474121</ele>
        <time>2021-07-25T07:30:11.000Z</time>
      </trkpt>
      <trkpt lat="47.55855" lon="-2.27601">
        <ele>37.599998474121</ele>
        <time>2021-07-25T07:30:13.000Z</time>
      </trkpt>
      <trkpt lat="47.5586" lon="-2.2759">
        <ele>37.599998474121</ele>
        <time>2021-07-25T07:30:18.000Z</time>
      </trkpt>
      <trkpt lat="47.55864" lon="-2.27569">
        <ele>37.599998474121</ele>
        <time>2021-07-25T07:30:25.000Z</time>
      </trkpt>
      <trkpt lat="47.55864" lon="-2.27564">
        <ele>38.400001525879</ele>
        <time>2021-07-25T07:30:27.000Z</time>
      </trkpt>
      <trkpt lat="47.55864" lon="-2.27561">
        <ele>38.799999237061</ele>
        <time>2021-07-25T07:30:28.000Z</time>
      </trkpt>
      <trkpt lat="47.55864" lon="-2.27559">
        <ele>39.400001525879</ele>
        <time>2021-07-25T07:30:29.000Z</time>
      </trkpt>
      <trkpt lat="47.55864" lon="-2.27556">
        <ele>39.799999237061</ele>
        <time>2021-07-25T07:30:30.000Z</time>
      </trkpt>
      <trkpt lat="47.55862" lon="-2.27549">
        <ele>39.799999237061</ele>
        <time>2021-07-25T07:30:32.000Z</time>
      </trkpt>
      <trkpt lat="47.55857" lon="-2.27526">
        <ele>39.799999237061</ele>
        <time>2021-07-25T07:30:38.000Z</time>
      </trkpt>
      <trkpt lat="47.55856" lon="-2.27509">
        <ele>39.799999237061</ele>
        <time>2021-07-25T07:30:44.000Z</time>
      </trkpt>
      <trkpt lat="47.55855" lon="-2.27506">
        <ele>40.200000762939</ele>
        <time>2021-07-25T07:30:45.000Z</time>
      </trkpt>
      <trkpt lat="47.55855" lon="-2.27504">
        <ele>40.599998474121</ele>
        <time>2021-07-25T07:30:46.000Z</time>
      </trkpt>
      <trkpt lat="47.55855" lon="-2.27501">
        <ele>41</ele>
        <time>2021-07-25T07:30:47.000Z</time>
      </trkpt>
      <trkpt lat="47.55854" lon="-2.27499">
        <ele>41.400001525879</ele>
        <time>2021-07-25T07:30:48.000Z</time>
      </trkpt>
      <trkpt lat="47.55854" lon="-2.27496">
        <ele>41.799999237061</ele>
        <time>2021-07-25T07:30:49.000Z</time>
      </trkpt>
      <trkpt lat="47.55847" lon="-2.27477">
        <ele>41.799999237061</ele>
        <time>2021-07-25T07:30:57.000Z</time>
      </trkpt>
      <trkpt lat="47.55845" lon="-2.27467">
        <ele>42.200000762939</ele>
        <time>2021-07-25T07:31:01.000Z</time>
      </trkpt>
      <trkpt lat="47.55844" lon="-2.27464">
        <ele>42.799999237061</ele>
        <time>2021-07-25T07:31:02.000Z</time>
      </trkpt>
      <trkpt lat="47.55843" lon="-2.27462">
        <ele>43.200000762939</ele>
        <time>2021-07-25T07:31:03.000Z</time>
      </trkpt>
      <trkpt lat="47.55843" lon="-2.2746">
        <ele>43.599998474121</ele>
        <time>2021-07-25T07:31:04.000Z</time>
      </trkpt>
      <trkpt lat="47.55842" lon="-2.27458">
        <ele>44</ele>
        <time>2021-07-25T07:31:05.000Z</time>
      </trkpt>
      <trkpt lat="47.55839" lon="-2.27447">
        <ele>44</ele>
        <time>2021-07-25T07:31:11.000Z</time>
      </trkpt>
      <trkpt lat="47.55836" lon="-2.27437">
        <ele>44.400001525879</ele>
        <time>2021-07-25T07:31:16.000Z</time>
      </trkpt>
      <trkpt lat="47.55835" lon="-2.27434">
        <ele>44.799999237061</ele>
        <time>2021-07-25T07:31:17.000Z</time>
      </trkpt>
      <trkpt lat="47.55835" lon="-2.27431">
        <ele>45.200000762939</ele>
        <time>2021-07-25T07:31:18.000Z</time>
      </trkpt>
      <trkpt lat="47.55834" lon="-2.27428">
        <ele>45.599998474121</ele>
        <time>2021-07-25T07:31:19.000Z</time>
      </trkpt>
      <trkpt lat="47.55834" lon="-2.27426">
        <ele>46</ele>
        <time>2021-07-25T07:31:20.000Z</time>
      </trkpt>
      <trkpt lat="47.55829" lon="-2.27411">
        <ele>46</ele>
        <time>2021-07-25T07:31:25.000Z</time>
      </trkpt>
      <trkpt lat="47.55826" lon="-2.27408">
        <ele>46</ele>
        <time>2021-07-25T07:31:27.000Z</time>
      </trkpt>
      <trkpt lat="47.5582" lon="-2.27403">
        <ele>46</ele>
        <time>2021-07-25T07:31:31.000Z</time>
      </trkpt>
      <trkpt lat="47.55816" lon="-2.27398">
        <ele>46.400001525879</ele>
        <time>2021-07-25T07:31:34.000Z</time>
      </trkpt>
      <trkpt lat="47.55815" lon="-2.27396">
        <ele>46.799999237061</ele>
        <time>2021-07-25T07:31:35.000Z</time>
      </trkpt>
      <trkpt lat="47.55814" lon="-2.27395">
        <ele>47.400001525879</ele>
        <time>2021-07-25T07:31:36.000Z</time>
      </trkpt>
      <trkpt lat="47.55813" lon="-2.27395">
        <ele>47.799999237061</ele>
        <time>2021-07-25T07:31:37.000Z</time>
      </trkpt>
      <trkpt lat="47.55813" lon="-2.27395">
        <ele>48.200000762939</ele>
        <time>2021-07-25T07:31:38.000Z</time>
      </trkpt>
      <trkpt lat="47.55813" lon="-2.27395">
        <ele>48.200000762939</ele>
        <time>2021-07-25T07:31:39.000Z</time>
      </trkpt>
      <trkpt lat="47.55804" lon="-2.27387">
        <ele>49</ele>
        <time>2021-07-25T07:31:48.000Z</time>
      </trkpt>
      <trkpt lat="47.55803" lon="-2.27386">
        <ele>46.200000762939</ele>
        <time>2021-07-25T07:31:49.000Z</time>
      </trkpt>
      <trkpt lat="47.55802" lon="-2.27386">
        <ele>42</ele>
        <time>2021-07-25T07:31:50.000Z</time>
      </trkpt>
      <trkpt lat="47.55801" lon="-2.27386">
        <ele>40.400001525879</ele>
        <time>2021-07-25T07:31:51.000Z</time>
      </trkpt>
      <trkpt lat="47.558" lon="-2.27386">
        <ele>43.200000762939</ele>
        <time>2021-07-25T07:31:52.000Z</time>
      </trkpt>
      <trkpt lat="47.55799" lon="-2.27387">
        <ele>47.799999237061</ele>
        <time>2021-07-25T07:31:53.000Z</time>
      </trkpt>
      <trkpt lat="47.55799" lon="-2.27386">
        <ele>49.599998474121</ele>
        <time>2021-07-25T07:31:54.000Z</time>
      </trkpt>
      <trkpt lat="47.55794" lon="-2.27369">
        <ele>53</ele>
        <time>2021-07-25T07:33:10.000Z</time>
      </trkpt>
      <trkpt lat="47.55795" lon="-2.27368">
        <ele>53</ele>
        <time>2021-07-25T07:33:11.000Z</time>
      </trkpt>
      <trkpt lat="47.55802" lon="-2.27356">
        <ele>53</ele>
        <time>2021-07-25T07:33:17.000Z</time>
      </trkpt>
      <trkpt lat="47.55807" lon="-2.27346">
        <ele>53</ele>
        <time>2021-07-25T07:33:23.000Z</time>
      </trkpt>
      <trkpt lat="47.55812" lon="-2.27342">
        <ele>53</ele>
        <time>2021-07-25T07:33:28.000Z</time>
      </trkpt>
      <trkpt lat="47.55817" lon="-2.27337">
        <ele>53</ele>
        <time>2021-07-25T07:33:34.000Z</time>
      </trkpt>
      <trkpt lat="47.55817" lon="-2.27343">
        <ele>53</ele>
        <time>2021-07-25T07:33:49.000Z</time>
      </trkpt>
      <trkpt lat="47.55815" lon="-2.27346">
        <ele>53</ele>
        <time>2021-07-25T07:33:51.000Z</time>
      </trkpt>
      <trkpt lat="47.55814" lon="-2.27347">
        <ele>53</ele>
        <time>2021-07-25T07:33:53.000Z</time>
      </trkpt>
      <trkpt lat="47.55809" lon="-2.27349">
        <ele>53</ele>
        <time>2021-07-25T07:34:17.000Z</time>
      </trkpt>
      <trkpt lat="47.55798" lon="-2.27357">
        <ele>53</ele>
        <time>2021-07-25T07:34:23.000Z</time>
      </trkpt>
      <trkpt lat="47.55795" lon="-2.27361">
        <ele>53</ele>
        <time>2021-07-25T07:34:25.000Z</time>
      </trkpt>
      <trkpt lat="47.5579" lon="-2.27367">
        <ele>53</ele>
        <time>2021-07-25T07:34:30.000Z</time>
      </trkpt>
      <trkpt lat="47.5579" lon="-2.27367">
        <ele>53</ele>
        <time>2021-07-25T07:34:31.000Z</time>
      </trkpt>
      <trkpt lat="47.55797" lon="-2.27359">
        <ele>53</ele>
        <time>2021-07-25T07:44:29.000Z</time>
      </trkpt>
      <trkpt lat="47.558" lon="-2.27352">
        <ele>53</ele>
        <time>2021-07-25T07:44:31.000Z</time>
      </trkpt>
      <trkpt lat="47.55813" lon="-2.27326">
        <ele>53</ele>
        <time>2021-07-25T07:44:37.000Z</time>
      </trkpt>
      <trkpt lat="47.5582" lon="-2.27305">
        <ele>53.400001525879</ele>
        <time>2021-07-25T07:44:42.000Z</time>
      </trkpt>
      <trkpt lat="47.55821" lon="-2.27301">
        <ele>53.799999237061</ele>
        <time>2021-07-25T07:44:43.000Z</time>
      </trkpt>
      <trkpt lat="47.55822" lon="-2.27297">
        <ele>54.200000762939</ele>
        <time>2021-07-25T07:44:44.000Z</time>
      </trkpt>
      <trkpt lat="47.55823" lon="-2.27292">
        <ele>54.599998474121</ele>
        <time>2021-07-25T07:44:45.000Z</time>
      </trkpt>
      <trkpt lat="47.55824" lon="-2.27288">
        <ele>55</ele>
        <time>2021-07-25T07:44:46.000Z</time>
      </trkpt>
      <trkpt lat="47.55829" lon="-2.27276">
        <ele>55</ele>
        <time>2021-07-25T07:44:49.000Z</time>
      </trkpt>
      <trkpt lat="47.55835" lon="-2.27264">
        <ele>55.599998474121</ele>
        <time>2021-07-25T07:44:52.000Z</time>
      </trkpt>
      <trkpt lat="47.55838" lon="-2.27262">
        <ele>56.400001525879</ele>
        <time>2021-07-25T07:44:53.000Z</time>
      </trkpt>
      <trkpt lat="47.55841" lon="-2.27259">
        <ele>56.799999237061</ele>
        <time>2021-07-25T07:44:54.000Z</time>
      </trkpt>
      <trkpt lat="47.55843" lon="-2.27255">
        <ele>57.200000762939</ele>
        <time>2021-07-25T07:44:55.000Z</time>
      </trkpt>
      <trkpt lat="47.55863" lon="-2.27235">
        <ele>57.599998474121</ele>
        <time>2021-07-25T07:45:02.000Z</time>
      </trkpt>
      <trkpt lat="47.55866" lon="-2.27232">
        <ele>58</ele>
        <time>2021-07-25T07:45:03.000Z</time>
      </trkpt>
      <trkpt lat="47.55869" lon="-2.27228">
        <ele>58.400001525879</ele>
        <time>2021-07-25T07:45:04.000Z</time>
      </trkpt>
      <trkpt lat="47.55871" lon="-2.27225">
        <ele>58.799999237061</ele>
        <time>2021-07-25T07:45:05.000Z</time>
      </trkpt>
      <trkpt lat="47.55875" lon="-2.27222">
        <ele>59.200000762939</ele>
        <time>2021-07-25T07:45:06.000Z</time>
      </trkpt>
      <trkpt lat="47.55891" lon="-2.27201">
        <ele>59.200000762939</ele>
        <time>2021-07-25T07:45:12.000Z</time>
      </trkpt>
      <trkpt lat="47.5591" lon="-2.27172">
        <ele>59.599998474121</ele>
        <time>2021-07-25T07:45:19.000Z</time>
      </trkpt>
      <trkpt lat="47.55913" lon="-2.27167">
        <ele>60</ele>
        <time>2021-07-25T07:45:20.000Z</time>
      </trkpt>
      <trkpt lat="47.55915" lon="-2.27163">
        <ele>60.400001525879</ele>
        <time>2021-07-25T07:45:21.000Z</time>
      </trkpt>
      <trkpt lat="47.55918" lon="-2.27158">
        <ele>60.799999237061</ele>
        <time>2021-07-25T07:45:22.000Z</time>
      </trkpt>
      <trkpt lat="47.55921" lon="-2.27154">
        <ele>61.200000762939</ele>
        <time>2021-07-25T07:45:23.000Z</time>
      </trkpt>
      <trkpt lat="47.55936" lon="-2.27129">
        <ele>61.200000762939</ele>
        <time>2021-07-25T07:45:28.000Z</time>
      </trkpt>
      <trkpt lat="47.55958" lon="-2.27088">
        <ele>61.200000762939</ele>
        <time>2021-07-25T07:45:35.000Z</time>
      </trkpt>
      <trkpt lat="47.55978" lon="-2.27041">
        <ele>61.200000762939</ele>
        <time>2021-07-25T07:45:42.000Z</time>
      </trkpt>
      <trkpt lat="47.55999" lon="-2.26994">
        <ele>61.200000762939</ele>
        <time>2021-07-25T07:45:49.000Z</time>
      </trkpt>
      <trkpt lat="47.56002" lon="-2.26977">
        <ele>61.200000762939</ele>
        <time>2021-07-25T07:45:51.000Z</time>
      </trkpt>
      <trkpt lat="47.56" lon="-2.2696">
        <ele>61.200000762939</ele>
        <time>2021-07-25T07:45:53.000Z</time>
      </trkpt>
      <trkpt lat="47.55994" lon="-2.26945">
        <ele>61.200000762939</ele>
        <time>2021-07-25T07:45:55.000Z</time>
      </trkpt>
      <trkpt lat="47.55975" lon="-2.26896">
        <ele>61.200000762939</ele>
        <time>2021-07-25T07:46:02.000Z</time>
      </trkpt>
      <trkpt lat="47.55954" lon="-2.26837">
        <ele>61.200000762939</ele>
        <time>2021-07-25T07:46:11.000Z</time>
      </trkpt>
      <trkpt lat="47.55952" lon="-2.2683">
        <ele>61.599998474121</ele>
        <time>2021-07-25T07:46:12.000Z</time>
      </trkpt>
      <trkpt lat="47.5595" lon="-2.26823">
        <ele>62</ele>
        <time>2021-07-25T07:46:13.000Z</time>
      </trkpt>
      <trkpt lat="47.55947" lon="-2.26816">
        <ele>62.400001525879</ele>
        <time>2021-07-25T07:46:14.000Z</time>
      </trkpt>
      <trkpt lat="47.55944" lon="-2.26809">
        <ele>62.799999237061</ele>
        <time>2021-07-25T07:46:15.000Z</time>
      </trkpt>
      <trkpt lat="47.55942" lon="-2.26802">
        <ele>63.400001525879</ele>
        <time>2021-07-25T07:46:16.000Z</time>
      </trkpt>
      <trkpt lat="47.55931" lon="-2.26772">
        <ele>63.400001525879</ele>
        <time>2021-07-25T07:46:20.000Z</time>
      </trkpt>
      <trkpt lat="47.55926" lon="-2.26758">
        <ele>63.400001525879</ele>
        <time>2021-07-25T07:46:22.000Z</time>
      </trkpt>
      <trkpt lat="47.55909" lon="-2.26709">
        <ele>63.400001525879</ele>
        <time>2021-07-25T07:46:29.000Z</time>
      </trkpt>
      <trkpt lat="47.55901" lon="-2.26683">
        <ele>63.400001525879</ele>
        <time>2021-07-25T07:46:33.000Z</time>
      </trkpt>
      <trkpt lat="47.55901" lon="-2.26679">
        <ele>63.400001525879</ele>
        <time>2021-07-25T07:46:34.000Z</time>
      </trkpt>
      <trkpt lat="47.5591" lon="-2.26667">
        <ele>63.400001525879</ele>
        <time>2021-07-25T07:46:38.000Z</time>
      </trkpt>
      <trkpt lat="47.55934" lon="-2.26653">
        <ele>63.400001525879</ele>
        <time>2021-07-25T07:46:45.000Z</time>
      </trkpt>
      <trkpt lat="47.55936" lon="-2.26652">
        <ele>63.400001525879</ele>
        <time>2021-07-25T07:46:49.000Z</time>
      </trkpt>
      <trkpt lat="47.55936" lon="-2.26652">
        <ele>63.400001525879</ele>
        <time>2021-07-25T07:46:51.000Z</time>
      </trkpt>
      <trkpt lat="47.55938" lon="-2.26648">
        <ele>63.400001525879</ele>
        <time>2021-07-25T07:46:56.000Z</time>
      </trkpt>
      <trkpt lat="47.55941" lon="-2.26646">
        <ele>63.400001525879</ele>
        <time>2021-07-25T07:46:58.000Z</time>
      </trkpt>
      <trkpt lat="47.5595" lon="-2.26644">
        <ele>63.799999237061</ele>
        <time>2021-07-25T07:47:03.000Z</time>
      </trkpt>
      <trkpt lat="47.55952" lon="-2.26643">
        <ele>64.199996948242</ele>
        <time>2021-07-25T07:47:04.000Z</time>
      </trkpt>
      <trkpt lat="47.55954" lon="-2.26644">
        <ele>64.599998474121</ele>
        <time>2021-07-25T07:47:05.000Z</time>
      </trkpt>
      <trkpt lat="47.55956" lon="-2.26645">
        <ele>65</ele>
        <time>2021-07-25T07:47:06.000Z</time>
      </trkpt>
      <trkpt lat="47.55957" lon="-2.26645">
        <ele>65.400001525879</ele>
        <time>2021-07-25T07:47:07.000Z</time>
      </trkpt>
      <trkpt lat="47.55959" lon="-2.26644">
        <ele>65.400001525879</ele>
        <time>2021-07-25T07:47:08.000Z</time>
      </trkpt>
      <trkpt lat="47.55962" lon="-2.26641">
        <ele>65.400001525879</ele>
        <time>2021-07-25T07:47:10.000Z</time>
      </trkpt>
      <trkpt lat="47.55964" lon="-2.2664">
        <ele>65.400001525879</ele>
        <time>2021-07-25T07:47:11.000Z</time>
      </trkpt>
      <trkpt lat="47.55969" lon="-2.26638">
        <ele>65.400001525879</ele>
        <time>2021-07-25T07:47:13.000Z</time>
      </trkpt>
      <trkpt lat="47.55981" lon="-2.26634">
        <ele>65.400001525879</ele>
        <time>2021-07-25T07:47:18.000Z</time>
      </trkpt>
      <trkpt lat="47.55983" lon="-2.26633">
        <ele>65.400001525879</ele>
        <time>2021-07-25T07:47:19.000Z</time>
      </trkpt>
      <trkpt lat="47.55992" lon="-2.26625">
        <ele>65.400001525879</ele>
        <time>2021-07-25T07:47:25.000Z</time>
      </trkpt>
      <trkpt lat="47.56003" lon="-2.26613">
        <ele>65.400001525879</ele>
        <time>2021-07-25T07:47:30.000Z</time>
      </trkpt>
      <trkpt lat="47.56006" lon="-2.26599">
        <ele>65.400001525879</ele>
        <time>2021-07-25T07:47:34.000Z</time>
      </trkpt>
      <trkpt lat="47.56006" lon="-2.26593">
        <ele>65.400001525879</ele>
        <time>2021-07-25T07:47:36.000Z</time>
      </trkpt>
      <trkpt lat="47.56004" lon="-2.26589">
        <ele>65.400001525879</ele>
        <time>2021-07-25T07:47:39.000Z</time>
      </trkpt>
      <trkpt lat="47.56004" lon="-2.26586">
        <ele>65.400001525879</ele>
        <time>2021-07-25T07:47:40.000Z</time>
      </trkpt>
      <trkpt lat="47.56004" lon="-2.2657">
        <ele>65.400001525879</ele>
        <time>2021-07-25T07:47:43.000Z</time>
      </trkpt>
      <trkpt lat="47.55996" lon="-2.26551">
        <ele>65.400001525879</ele>
        <time>2021-07-25T07:47:49.000Z</time>
      </trkpt>
      <trkpt lat="47.55984" lon="-2.26534">
        <ele>65.400001525879</ele>
        <time>2021-07-25T07:47:54.000Z</time>
      </trkpt>
      <trkpt lat="47.5598" lon="-2.26518">
        <ele>65.400001525879</ele>
        <time>2021-07-25T07:47:59.000Z</time>
      </trkpt>
      <trkpt lat="47.5598" lon="-2.26514">
        <ele>65.400001525879</ele>
        <time>2021-07-25T07:48:00.000Z</time>
      </trkpt>
      <trkpt lat="47.5598" lon="-2.265">
        <ele>65.400001525879</ele>
        <time>2021-07-25T07:48:04.000Z</time>
      </trkpt>
      <trkpt lat="47.55982" lon="-2.26494">
        <ele>65.400001525879</ele>
        <time>2021-07-25T07:48:06.000Z</time>
      </trkpt>
      <trkpt lat="47.55989" lon="-2.26486">
        <ele>65.400001525879</ele>
        <time>2021-07-25T07:48:09.000Z</time>
      </trkpt>
      <trkpt lat="47.55992" lon="-2.26479">
        <ele>65.400001525879</ele>
        <time>2021-07-25T07:48:11.000Z</time>
      </trkpt>
      <trkpt lat="47.5599" lon="-2.26471">
        <ele>65.400001525879</ele>
        <time>2021-07-25T07:48:13.000Z</time>
      </trkpt>
      <trkpt lat="47.5598" lon="-2.26447">
        <ele>65.400001525879</ele>
        <time>2021-07-25T07:48:18.000Z</time>
      </trkpt>
      <trkpt lat="47.55963" lon="-2.26406">
        <ele>65.400001525879</ele>
        <time>2021-07-25T07:48:25.000Z</time>
      </trkpt>
      <trkpt lat="47.55957" lon="-2.26394">
        <ele>65.400001525879</ele>
        <time>2021-07-25T07:48:27.000Z</time>
      </trkpt>
      <trkpt lat="47.55946" lon="-2.26372">
        <ele>65.400001525879</ele>
        <time>2021-07-25T07:48:31.000Z</time>
      </trkpt>
      <trkpt lat="47.55943" lon="-2.26367">
        <ele>65.400001525879</ele>
        <time>2021-07-25T07:48:32.000Z</time>
      </trkpt>
      <trkpt lat="47.55941" lon="-2.2635">
        <ele>65.400001525879</ele>
        <time>2021-07-25T07:48:35.000Z</time>
      </trkpt>
      <trkpt lat="47.55947" lon="-2.26336">
        <ele>65.400001525879</ele>
        <time>2021-07-25T07:48:38.000Z</time>
      </trkpt>
      <trkpt lat="47.55953" lon="-2.26325">
        <ele>65.400001525879</ele>
        <time>2021-07-25T07:48:40.000Z</time>
      </trkpt>
      <trkpt lat="47.55959" lon="-2.26313">
        <ele>65.800003051758</ele>
        <time>2021-07-25T07:48:42.000Z</time>
      </trkpt>
      <trkpt lat="47.55962" lon="-2.26308">
        <ele>66.199996948242</ele>
        <time>2021-07-25T07:48:43.000Z</time>
      </trkpt>
      <trkpt lat="47.55965" lon="-2.26302">
        <ele>66.599998474121</ele>
        <time>2021-07-25T07:48:44.000Z</time>
      </trkpt>
      <trkpt lat="47.55968" lon="-2.26296">
        <ele>67</ele>
        <time>2021-07-25T07:48:45.000Z</time>
      </trkpt>
      <trkpt lat="47.55971" lon="-2.26291">
        <ele>67.400001525879</ele>
        <time>2021-07-25T07:48:46.000Z</time>
      </trkpt>
      <trkpt lat="47.55974" lon="-2.26285">
        <ele>67.400001525879</ele>
        <time>2021-07-25T07:48:47.000Z</time>
      </trkpt>
      <trkpt lat="47.55976" lon="-2.2628">
        <ele>67.400001525879</ele>
        <time>2021-07-25T07:48:48.000Z</time>
      </trkpt>
      <trkpt lat="47.55984" lon="-2.26249">
        <ele>67.400001525879</ele>
        <time>2021-07-25T07:48:53.000Z</time>
      </trkpt>
      <trkpt lat="47.55991" lon="-2.26215">
        <ele>67.400001525879</ele>
        <time>2021-07-25T07:48:59.000Z</time>
      </trkpt>
      <trkpt lat="47.56006" lon="-2.26187">
        <ele>67.400001525879</ele>
        <time>2021-07-25T07:49:04.000Z</time>
      </trkpt>
      <trkpt lat="47.56023" lon="-2.26164">
        <ele>67.400001525879</ele>
        <time>2021-07-25T07:49:09.000Z</time>
      </trkpt>
      <trkpt lat="47.56026" lon="-2.26156">
        <ele>67.400001525879</ele>
        <time>2021-07-25T07:49:11.000Z</time>
      </trkpt>
      <trkpt lat="47.56028" lon="-2.26147">
        <ele>67.400001525879</ele>
        <time>2021-07-25T07:49:13.000Z</time>
      </trkpt>
      <trkpt lat="47.56027" lon="-2.26142">
        <ele>67.400001525879</ele>
        <time>2021-07-25T07:49:14.000Z</time>
      </trkpt>
      <trkpt lat="47.56023" lon="-2.2613">
        <ele>67.400001525879</ele>
        <time>2021-07-25T07:49:16.000Z</time>
      </trkpt>
      <trkpt lat="47.56019" lon="-2.26111">
        <ele>67.400001525879</ele>
        <time>2021-07-25T07:49:19.000Z</time>
      </trkpt>
      <trkpt lat="47.56017" lon="-2.26099">
        <ele>67.400001525879</ele>
        <time>2021-07-25T07:49:21.000Z</time>
      </trkpt>
      <trkpt lat="47.56015" lon="-2.26086">
        <ele>67.400001525879</ele>
        <time>2021-07-25T07:49:23.000Z</time>
      </trkpt>
      <trkpt lat="47.56012" lon="-2.26062">
        <ele>67.400001525879</ele>
        <time>2021-07-25T07:49:27.000Z</time>
      </trkpt>
      <trkpt lat="47.56006" lon="-2.26039">
        <ele>67.400001525879</ele>
        <time>2021-07-25T07:49:31.000Z</time>
      </trkpt>
      <trkpt lat="47.56008" lon="-2.26029">
        <ele>67.400001525879</ele>
        <time>2021-07-25T07:49:33.000Z</time>
      </trkpt>
      <trkpt lat="47.56011" lon="-2.26025">
        <ele>67.400001525879</ele>
        <time>2021-07-25T07:49:34.000Z</time>
      </trkpt>
      <trkpt lat="47.56022" lon="-2.26014">
        <ele>67.400001525879</ele>
        <time>2021-07-25T07:49:37.000Z</time>
      </trkpt>
      <trkpt lat="47.56026" lon="-2.26011">
        <ele>67.400001525879</ele>
        <time>2021-07-25T07:49:38.000Z</time>
      </trkpt>
      <trkpt lat="47.56046" lon="-2.25999">
        <ele>67.400001525879</ele>
        <time>2021-07-25T07:49:43.000Z</time>
      </trkpt>
      <trkpt lat="47.5605" lon="-2.25996">
        <ele>67.400001525879</ele>
        <time>2021-07-25T07:49:44.000Z</time>
      </trkpt>
      <trkpt lat="47.56057" lon="-2.25991">
        <ele>67.400001525879</ele>
        <time>2021-07-25T07:49:46.000Z</time>
      </trkpt>
      <trkpt lat="47.56071" lon="-2.25987">
        <ele>67.400001525879</ele>
        <time>2021-07-25T07:49:49.000Z</time>
      </trkpt>
      <trkpt lat="47.56076" lon="-2.25986">
        <ele>67.400001525879</ele>
        <time>2021-07-25T07:49:50.000Z</time>
      </trkpt>
      <trkpt lat="47.56089" lon="-2.25983">
        <ele>67.400001525879</ele>
        <time>2021-07-25T07:49:53.000Z</time>
      </trkpt>
      <trkpt lat="47.56093" lon="-2.25981">
        <ele>67.400001525879</ele>
        <time>2021-07-25T07:49:54.000Z</time>
      </trkpt>
      <trkpt lat="47.56106" lon="-2.25978">
        <ele>67</ele>
        <time>2021-07-25T07:49:57.000Z</time>
      </trkpt>
      <trkpt lat="47.56109" lon="-2.25977">
        <ele>66.599998474121</ele>
        <time>2021-07-25T07:49:58.000Z</time>
      </trkpt>
      <trkpt lat="47.56113" lon="-2.25976">
        <ele>66.199996948242</ele>
        <time>2021-07-25T07:49:59.000Z</time>
      </trkpt>
      <trkpt lat="47.56116" lon="-2.25974">
        <ele>65.800003051758</ele>
        <time>2021-07-25T07:50:00.000Z</time>
      </trkpt>
      <trkpt lat="47.56118" lon="-2.25971">
        <ele>65.400001525879</ele>
        <time>2021-07-25T07:50:01.000Z</time>
      </trkpt>
      <trkpt lat="47.5612" lon="-2.25968">
        <ele>65.400001525879</ele>
        <time>2021-07-25T07:50:02.000Z</time>
      </trkpt>
      <trkpt lat="47.56119" lon="-2.25951">
        <ele>65.400001525879</ele>
        <time>2021-07-25T07:50:06.000Z</time>
      </trkpt>
      <trkpt lat="47.56119" lon="-2.25946">
        <ele>65.400001525879</ele>
        <time>2021-07-25T07:50:07.000Z</time>
      </trkpt>
      <trkpt lat="47.56118" lon="-2.25939">
        <ele>65</ele>
        <time>2021-07-25T07:50:09.000Z</time>
      </trkpt>
      <trkpt lat="47.56117" lon="-2.25936">
        <ele>64.599998474121</ele>
        <time>2021-07-25T07:50:10.000Z</time>
      </trkpt>
      <trkpt lat="47.56117" lon="-2.25933">
        <ele>64.199996948242</ele>
        <time>2021-07-25T07:50:11.000Z</time>
      </trkpt>
      <trkpt lat="47.56116" lon="-2.25931">
        <ele>63.799999237061</ele>
        <time>2021-07-25T07:50:12.000Z</time>
      </trkpt>
      <trkpt lat="47.56116" lon="-2.2593">
        <ele>63.400001525879</ele>
        <time>2021-07-25T07:50:13.000Z</time>
      </trkpt>
      <trkpt lat="47.56116" lon="-2.25929">
        <ele>63.400001525879</ele>
        <time>2021-07-25T07:50:16.000Z</time>
      </trkpt>
      <trkpt lat="47.56115" lon="-2.25926">
        <ele>63.400001525879</ele>
        <time>2021-07-25T07:50:29.000Z</time>
      </trkpt>
      <trkpt lat="47.56113" lon="-2.25908">
        <ele>63.400001525879</ele>
        <time>2021-07-25T07:50:34.000Z</time>
      </trkpt>
      <trkpt lat="47.56113" lon="-2.25885">
        <ele>63.400001525879</ele>
        <time>2021-07-25T07:50:39.000Z</time>
      </trkpt>
      <trkpt lat="47.56115" lon="-2.25878">
        <ele>63.400001525879</ele>
        <time>2021-07-25T07:50:41.000Z</time>
      </trkpt>
      <trkpt lat="47.56119" lon="-2.25876">
        <ele>63.400001525879</ele>
        <time>2021-07-25T07:50:43.000Z</time>
      </trkpt>
      <trkpt lat="47.56129" lon="-2.25873">
        <ele>63.400001525879</ele>
        <time>2021-07-25T07:50:46.000Z</time>
      </trkpt>
      <trkpt lat="47.56133" lon="-2.25872">
        <ele>63.400001525879</ele>
        <time>2021-07-25T07:50:47.000Z</time>
      </trkpt>
      <trkpt lat="47.56137" lon="-2.2587">
        <ele>63</ele>
        <time>2021-07-25T07:50:48.000Z</time>
      </trkpt>
      <trkpt lat="47.56142" lon="-2.2587">
        <ele>62.599998474121</ele>
        <time>2021-07-25T07:50:49.000Z</time>
      </trkpt>
      <trkpt lat="47.56146" lon="-2.25868">
        <ele>62.200000762939</ele>
        <time>2021-07-25T07:50:50.000Z</time>
      </trkpt>
      <trkpt lat="47.56151" lon="-2.25867">
        <ele>61.599998474121</ele>
        <time>2021-07-25T07:50:51.000Z</time>
      </trkpt>
      <trkpt lat="47.56155" lon="-2.25864">
        <ele>61.200000762939</ele>
        <time>2021-07-25T07:50:52.000Z</time>
      </trkpt>
      <trkpt lat="47.5616" lon="-2.25862">
        <ele>61.200000762939</ele>
        <time>2021-07-25T07:50:53.000Z</time>
      </trkpt>
      <trkpt lat="47.56187" lon="-2.25846">
        <ele>60.799999237061</ele>
        <time>2021-07-25T07:50:59.000Z</time>
      </trkpt>
      <trkpt lat="47.56191" lon="-2.25844">
        <ele>60.400001525879</ele>
        <time>2021-07-25T07:51:00.000Z</time>
      </trkpt>
      <trkpt lat="47.56196" lon="-2.25842">
        <ele>59.799999237061</ele>
        <time>2021-07-25T07:51:01.000Z</time>
      </trkpt>
      <trkpt lat="47.562" lon="-2.2584">
        <ele>59.400001525879</ele>
        <time>2021-07-25T07:51:02.000Z</time>
      </trkpt>
      <trkpt lat="47.56204" lon="-2.25838">
        <ele>59</ele>
        <time>2021-07-25T07:51:03.000Z</time>
      </trkpt>
      <trkpt lat="47.56213" lon="-2.25833">
        <ele>59</ele>
        <time>2021-07-25T07:51:05.000Z</time>
      </trkpt>
      <trkpt lat="47.56218" lon="-2.25831">
        <ele>59</ele>
        <time>2021-07-25T07:51:06.000Z</time>
      </trkpt>
      <trkpt lat="47.5623" lon="-2.25827">
        <ele>58.599998474121</ele>
        <time>2021-07-25T07:51:09.000Z</time>
      </trkpt>
      <trkpt lat="47.56234" lon="-2.25827">
        <ele>58.200000762939</ele>
        <time>2021-07-25T07:51:10.000Z</time>
      </trkpt>
      <trkpt lat="47.56238" lon="-2.25826">
        <ele>57.599998474121</ele>
        <time>2021-07-25T07:51:11.000Z</time>
      </trkpt>
      <trkpt lat="47.56243" lon="-2.25826">
        <ele>57.200000762939</ele>
        <time>2021-07-25T07:51:12.000Z</time>
      </trkpt>
      <trkpt lat="47.56247" lon="-2.25825">
        <ele>56.799999237061</ele>
        <time>2021-07-25T07:51:13.000Z</time>
      </trkpt>
      <trkpt lat="47.56268" lon="-2.25822">
        <ele>56.799999237061</ele>
        <time>2021-07-25T07:51:18.000Z</time>
      </trkpt>
      <trkpt lat="47.56283" lon="-2.25819">
        <ele>56.799999237061</ele>
        <time>2021-07-25T07:51:23.000Z</time>
      </trkpt>
      <trkpt lat="47.563" lon="-2.25817">
        <ele>56.799999237061</ele>
        <time>2021-07-25T07:51:29.000Z</time>
      </trkpt>
      <trkpt lat="47.56313" lon="-2.25815">
        <ele>56.400001525879</ele>
        <time>2021-07-25T07:51:33.000Z</time>
      </trkpt>
      <trkpt lat="47.56316" lon="-2.25815">
        <ele>56</ele>
        <time>2021-07-25T07:51:34.000Z</time>
      </trkpt>
      <trkpt lat="47.56319" lon="-2.25815">
        <ele>55.400001525879</ele>
        <time>2021-07-25T07:51:35.000Z</time>
      </trkpt>
      <trkpt lat="47.56323" lon="-2.25815">
        <ele>55</ele>
        <time>2021-07-25T07:51:36.000Z</time>
      </trkpt>
      <trkpt lat="47.56326" lon="-2.25815">
        <ele>54.599998474121</ele>
        <time>2021-07-25T07:51:37.000Z</time>
      </trkpt>
      <trkpt lat="47.56337" lon="-2.25813">
        <ele>54.599998474121</ele>
        <time>2021-07-25T07:51:41.000Z</time>
      </trkpt>
      <trkpt lat="47.56346" lon="-2.25812">
        <ele>54.200000762939</ele>
        <time>2021-07-25T07:51:44.000Z</time>
      </trkpt>
      <trkpt lat="47.56348" lon="-2.25811">
        <ele>53.799999237061</ele>
        <time>2021-07-25T07:51:45.000Z</time>
      </trkpt>
      <trkpt lat="47.56351" lon="-2.25811">
        <ele>53.400001525879</ele>
        <time>2021-07-25T07:51:46.000Z</time>
      </trkpt>
      <trkpt lat="47.56353" lon="-2.25811">
        <ele>53</ele>
        <time>2021-07-25T07:51:47.000Z</time>
      </trkpt>
      <trkpt lat="47.56356" lon="-2.2581">
        <ele>52.400001525879</ele>
        <time>2021-07-25T07:51:48.000Z</time>
      </trkpt>
      <trkpt lat="47.56366" lon="-2.25807">
        <ele>51.599998474121</ele>
        <time>2021-07-25T07:51:52.000Z</time>
      </trkpt>
      <trkpt lat="47.56369" lon="-2.25806">
        <ele>51.200000762939</ele>
        <time>2021-07-25T07:51:53.000Z</time>
      </trkpt>
      <trkpt lat="47.56372" lon="-2.25805">
        <ele>50.799999237061</ele>
        <time>2021-07-25T07:51:54.000Z</time>
      </trkpt>
      <trkpt lat="47.56376" lon="-2.25804">
        <ele>50.400001525879</ele>
        <time>2021-07-25T07:51:55.000Z</time>
      </trkpt>
      <trkpt lat="47.56385" lon="-2.25804">
        <ele>50.400001525879</ele>
        <time>2021-07-25T07:51:57.000Z</time>
      </trkpt>
      <trkpt lat="47.5639" lon="-2.25805">
        <ele>50.400001525879</ele>
        <time>2021-07-25T07:51:58.000Z</time>
      </trkpt>
      <trkpt lat="47.56394" lon="-2.25806">
        <ele>50</ele>
        <time>2021-07-25T07:51:59.000Z</time>
      </trkpt>
      <trkpt lat="47.56398" lon="-2.25806">
        <ele>49.599998474121</ele>
        <time>2021-07-25T07:52:00.000Z</time>
      </trkpt>
      <trkpt lat="47.56402" lon="-2.25806">
        <ele>49.200000762939</ele>
        <time>2021-07-25T07:52:01.000Z</time>
      </trkpt>
      <trkpt lat="47.56406" lon="-2.25805">
        <ele>48.799999237061</ele>
        <time>2021-07-25T07:52:02.000Z</time>
      </trkpt>
      <trkpt lat="47.56409" lon="-2.25805">
        <ele>48.400001525879</ele>
        <time>2021-07-25T07:52:03.000Z</time>
      </trkpt>
      <trkpt lat="47.56415" lon="-2.25804">
        <ele>48.400001525879</ele>
        <time>2021-07-25T07:52:05.000Z</time>
      </trkpt>
      <trkpt lat="47.56422" lon="-2.25804">
        <ele>48.400001525879</ele>
        <time>2021-07-25T07:52:09.000Z</time>
      </trkpt>
      <trkpt lat="47.56433" lon="-2.25806">
        <ele>48.400001525879</ele>
        <time>2021-07-25T07:52:14.000Z</time>
      </trkpt>
      <trkpt lat="47.56444" lon="-2.258">
        <ele>48.400001525879</ele>
        <time>2021-07-25T07:52:19.000Z</time>
      </trkpt>
      <trkpt lat="47.56445" lon="-2.25798">
        <ele>48.400001525879</ele>
        <time>2021-07-25T07:52:20.000Z</time>
      </trkpt>
      <trkpt lat="47.56444" lon="-2.25789">
        <ele>48.400001525879</ele>
        <time>2021-07-25T07:52:22.000Z</time>
      </trkpt>
      <trkpt lat="47.56443" lon="-2.25765">
        <ele>48</ele>
        <time>2021-07-25T07:52:26.000Z</time>
      </trkpt>
      <trkpt lat="47.56443" lon="-2.25759">
        <ele>47.400001525879</ele>
        <time>2021-07-25T07:52:27.000Z</time>
      </trkpt>
      <trkpt lat="47.56442" lon="-2.25752">
        <ele>47</ele>
        <time>2021-07-25T07:52:28.000Z</time>
      </trkpt>
      <trkpt lat="47.56442" lon="-2.25745">
        <ele>46.599998474121</ele>
        <time>2021-07-25T07:52:29.000Z</time>
      </trkpt>
      <trkpt lat="47.56442" lon="-2.2574">
        <ele>46.200000762939</ele>
        <time>2021-07-25T07:52:30.000Z</time>
      </trkpt>
      <trkpt lat="47.56443" lon="-2.25724">
        <ele>46.200000762939</ele>
        <time>2021-07-25T07:52:33.000Z</time>
      </trkpt>
      <trkpt lat="47.56444" lon="-2.25689">
        <ele>45.799999237061</ele>
        <time>2021-07-25T07:52:38.000Z</time>
      </trkpt>
      <trkpt lat="47.56444" lon="-2.25682">
        <ele>45.400001525879</ele>
        <time>2021-07-25T07:52:39.000Z</time>
      </trkpt>
      <trkpt lat="47.56447" lon="-2.25675">
        <ele>45</ele>
        <time>2021-07-25T07:52:40.000Z</time>
      </trkpt>
      <trkpt lat="47.56449" lon="-2.25669">
        <ele>44.599998474121</ele>
        <time>2021-07-25T07:52:41.000Z</time>
      </trkpt>
      <trkpt lat="47.56451" lon="-2.25664">
        <ele>44.200000762939</ele>
        <time>2021-07-25T07:52:42.000Z</time>
      </trkpt>
      <trkpt lat="47.56455" lon="-2.25656">
        <ele>44.200000762939</ele>
        <time>2021-07-25T07:52:44.000Z</time>
      </trkpt>
      <trkpt lat="47.56463" lon="-2.25638">
        <ele>44.200000762939</ele>
        <time>2021-07-25T07:52:49.000Z</time>
      </trkpt>
      <trkpt lat="47.56475" lon="-2.25621">
        <ele>44.200000762939</ele>
        <time>2021-07-25T07:52:54.000Z</time>
      </trkpt>
      <trkpt lat="47.56487" lon="-2.25614">
        <ele>44.200000762939</ele>
        <time>2021-07-25T07:52:59.000Z</time>
      </trkpt>
      <trkpt lat="47.56497" lon="-2.25607">
        <ele>43.799999237061</ele>
        <time>2021-07-25T07:53:04.000Z</time>
      </trkpt>
      <trkpt lat="47.56499" lon="-2.25606">
        <ele>43.200000762939</ele>
        <time>2021-07-25T07:53:05.000Z</time>
      </trkpt>
      <trkpt lat="47.56502" lon="-2.25605">
        <ele>42.799999237061</ele>
        <time>2021-07-25T07:53:06.000Z</time>
      </trkpt>
      <trkpt lat="47.56503" lon="-2.25603">
        <ele>41.799999237061</ele>
        <time>2021-07-25T07:53:07.000Z</time>
      </trkpt>
      <trkpt lat="47.56504" lon="-2.256">
        <ele>41.799999237061</ele>
        <time>2021-07-25T07:53:08.000Z</time>
      </trkpt>
      <trkpt lat="47.56505" lon="-2.25597">
        <ele>41.400001525879</ele>
        <time>2021-07-25T07:53:09.000Z</time>
      </trkpt>
      <trkpt lat="47.56505" lon="-2.25594">
        <ele>41</ele>
        <time>2021-07-25T07:53:10.000Z</time>
      </trkpt>
      <trkpt lat="47.56504" lon="-2.2559">
        <ele>40.599998474121</ele>
        <time>2021-07-25T07:53:11.000Z</time>
      </trkpt>
      <trkpt lat="47.56503" lon="-2.25588">
        <ele>40.200000762939</ele>
        <time>2021-07-25T07:53:12.000Z</time>
      </trkpt>
      <trkpt lat="47.56502" lon="-2.25584">
        <ele>39.799999237061</ele>
        <time>2021-07-25T07:53:13.000Z</time>
      </trkpt>
      <trkpt lat="47.56502" lon="-2.25576">
        <ele>39.799999237061</ele>
        <time>2021-07-25T07:53:15.000Z</time>
      </trkpt>
      <trkpt lat="47.56504" lon="-2.25568">
        <ele>39.799999237061</ele>
        <time>2021-07-25T07:53:19.000Z</time>
      </trkpt>
      <trkpt lat="47.56506" lon="-2.25567">
        <ele>39.799999237061</ele>
        <time>2021-07-25T07:53:20.000Z</time>
      </trkpt>
      <trkpt lat="47.56513" lon="-2.25564">
        <ele>39.799999237061</ele>
        <time>2021-07-25T07:53:23.000Z</time>
      </trkpt>
      <trkpt lat="47.56522" lon="-2.25555">
        <ele>39.799999237061</ele>
        <time>2021-07-25T07:53:29.000Z</time>
      </trkpt>
      <trkpt lat="47.56524" lon="-2.25554">
        <ele>39.799999237061</ele>
        <time>2021-07-25T07:53:30.000Z</time>
      </trkpt>
      <trkpt lat="47.56533" lon="-2.25542">
        <ele>39.799999237061</ele>
        <time>2021-07-25T07:53:37.000Z</time>
      </trkpt>
      <trkpt lat="47.56537" lon="-2.25536">
        <ele>39.400001525879</ele>
        <time>2021-07-25T07:53:39.000Z</time>
      </trkpt>
      <trkpt lat="47.56539" lon="-2.25533">
        <ele>39</ele>
        <time>2021-07-25T07:53:40.000Z</time>
      </trkpt>
      <trkpt lat="47.56542" lon="-2.25532">
        <ele>38.599998474121</ele>
        <time>2021-07-25T07:53:41.000Z</time>
      </trkpt>
      <trkpt lat="47.56545" lon="-2.25531">
        <ele>38.200000762939</ele>
        <time>2021-07-25T07:53:42.000Z</time>
      </trkpt>
      <trkpt lat="47.56548" lon="-2.25529">
        <ele>37.599998474121</ele>
        <time>2021-07-25T07:53:43.000Z</time>
      </trkpt>
      <trkpt lat="47.56561" lon="-2.25519">
        <ele>37.599998474121</ele>
        <time>2021-07-25T07:53:48.000Z</time>
      </trkpt>
      <trkpt lat="47.56579" lon="-2.25514">
        <ele>37.599998474121</ele>
        <time>2021-07-25T07:53:54.000Z</time>
      </trkpt>
      <trkpt lat="47.56595" lon="-2.25508">
        <ele>37.599998474121</ele>
        <time>2021-07-25T07:54:00.000Z</time>
      </trkpt>
      <trkpt lat="47.56598" lon="-2.25503">
        <ele>37.599998474121</ele>
        <time>2021-07-25T07:54:03.000Z</time>
      </trkpt>
      <trkpt lat="47.56597" lon="-2.25496">
        <ele>37.599998474121</ele>
        <time>2021-07-25T07:55:04.000Z</time>
      </trkpt>
      <trkpt lat="47.56596" lon="-2.25497">
        <ele>37.599998474121</ele>
        <time>2021-07-25T07:55:05.000Z</time>
      </trkpt>
      <trkpt lat="47.56594" lon="-2.25496">
        <ele>37.599998474121</ele>
        <time>2021-07-25T07:55:07.000Z</time>
      </trkpt>
      <trkpt lat="47.56593" lon="-2.25496">
        <ele>38.200000762939</ele>
        <time>2021-07-25T07:55:08.000Z</time>
      </trkpt>
      <trkpt lat="47.56591" lon="-2.25495">
        <ele>38.599998474121</ele>
        <time>2021-07-25T07:55:09.000Z</time>
      </trkpt>
      <trkpt lat="47.5659" lon="-2.25495">
        <ele>39.400001525879</ele>
        <time>2021-07-25T07:55:10.000Z</time>
      </trkpt>
      <trkpt lat="47.56589" lon="-2.25496">
        <ele>39.799999237061</ele>
        <time>2021-07-25T07:55:11.000Z</time>
      </trkpt>
      <trkpt lat="47.56581" lon="-2.25503">
        <ele>39.799999237061</ele>
        <time>2021-07-25T07:55:17.000Z</time>
      </trkpt>
      <trkpt lat="47.56576" lon="-2.25506">
        <ele>39.799999237061</ele>
        <time>2021-07-25T07:55:22.000Z</time>
      </trkpt>
      <trkpt lat="47.56573" lon="-2.25508">
        <ele>39.799999237061</ele>
        <time>2021-07-25T07:55:24.000Z</time>
      </trkpt>
      <trkpt lat="47.56565" lon="-2.25513">
        <ele>39.799999237061</ele>
        <time>2021-07-25T07:55:28.000Z</time>
      </trkpt>
      <trkpt lat="47.56554" lon="-2.25517">
        <ele>40.200000762939</ele>
        <time>2021-07-25T07:55:34.000Z</time>
      </trkpt>
      <trkpt lat="47.56552" lon="-2.25519">
        <ele>41</ele>
        <time>2021-07-25T07:55:35.000Z</time>
      </trkpt>
      <trkpt lat="47.5655" lon="-2.25522">
        <ele>41.400001525879</ele>
        <time>2021-07-25T07:55:36.000Z</time>
      </trkpt>
      <trkpt lat="47.56549" lon="-2.25524">
        <ele>42</ele>
        <time>2021-07-25T07:55:37.000Z</time>
      </trkpt>
      <trkpt lat="47.56543" lon="-2.25529">
        <ele>42</ele>
        <time>2021-07-25T07:55:40.000Z</time>
      </trkpt>
      <trkpt lat="47.56541" lon="-2.25531">
        <ele>42.400001525879</ele>
        <time>2021-07-25T07:55:41.000Z</time>
      </trkpt>
      <trkpt lat="47.56539" lon="-2.25532">
        <ele>42.799999237061</ele>
        <time>2021-07-25T07:55:42.000Z</time>
      </trkpt>
      <trkpt lat="47.56537" lon="-2.25534">
        <ele>43.200000762939</ele>
        <time>2021-07-25T07:55:43.000Z</time>
      </trkpt>
      <trkpt lat="47.56535" lon="-2.25534">
        <ele>43.599998474121</ele>
        <time>2021-07-25T07:55:44.000Z</time>
      </trkpt>
      <trkpt lat="47.56533" lon="-2.25535">
        <ele>44</ele>
        <time>2021-07-25T07:55:45.000Z</time>
      </trkpt>
      <trkpt lat="47.56531" lon="-2.25536">
        <ele>44</ele>
        <time>2021-07-25T07:55:47.000Z</time>
      </trkpt>
      <trkpt lat="47.56529" lon="-2.25538">
        <ele>44.400001525879</ele>
        <time>2021-07-25T07:55:49.000Z</time>
      </trkpt>
      <trkpt lat="47.56528" lon="-2.25539">
        <ele>44.799999237061</ele>
        <time>2021-07-25T07:55:50.000Z</time>
      </trkpt>
      <trkpt lat="47.56526" lon="-2.2554">
        <ele>45.200000762939</ele>
        <time>2021-07-25T07:55:51.000Z</time>
      </trkpt>
      <trkpt lat="47.56524" lon="-2.25541">
        <ele>45.599998474121</ele>
        <time>2021-07-25T07:55:52.000Z</time>
      </trkpt>
      <trkpt lat="47.56523" lon="-2.25541">
        <ele>46</ele>
        <time>2021-07-25T07:55:53.000Z</time>
      </trkpt>
      <trkpt lat="47.56509" lon="-2.2555">
        <ele>45</ele>
        <time>2021-07-25T07:56:00.000Z</time>
      </trkpt>
      <trkpt lat="47.56507" lon="-2.25551">
        <ele>44.599998474121</ele>
        <time>2021-07-25T07:56:01.000Z</time>
      </trkpt>
      <trkpt lat="47.56505" lon="-2.25552">
        <ele>44.200000762939</ele>
        <time>2021-07-25T07:56:02.000Z</time>
      </trkpt>
      <trkpt lat="47.56504" lon="-2.25555">
        <ele>43.599998474121</ele>
        <time>2021-07-25T07:56:03.000Z</time>
      </trkpt>
      <trkpt lat="47.56499" lon="-2.25563">
        <ele>43.599998474121</ele>
        <time>2021-07-25T07:56:06.000Z</time>
      </trkpt>
      <trkpt lat="47.56497" lon="-2.25566">
        <ele>43.599998474121</ele>
        <time>2021-07-25T07:56:07.000Z</time>
      </trkpt>
      <trkpt lat="47.56492" lon="-2.25572">
        <ele>43.599998474121</ele>
        <time>2021-07-25T07:56:12.000Z</time>
      </trkpt>
      <trkpt lat="47.56488" lon="-2.25576">
        <ele>43.599998474121</ele>
        <time>2021-07-25T07:56:20.000Z</time>
      </trkpt>
      <trkpt lat="47.56483" lon="-2.25577">
        <ele>43.599998474121</ele>
        <time>2021-07-25T07:56:24.000Z</time>
      </trkpt>
      <trkpt lat="47.56474" lon="-2.25577">
        <ele>43.599998474121</ele>
        <time>2021-07-25T07:56:32.000Z</time>
      </trkpt>
      <trkpt lat="47.5647" lon="-2.25579">
        <ele>43.599998474121</ele>
        <time>2021-07-25T07:56:35.000Z</time>
      </trkpt>
      <trkpt lat="47.56458" lon="-2.25584">
        <ele>43.599998474121</ele>
        <time>2021-07-25T07:56:43.000Z</time>
      </trkpt>
      <trkpt lat="47.56452" lon="-2.25586">
        <ele>44.200000762939</ele>
        <time>2021-07-25T07:56:46.000Z</time>
      </trkpt>
      <trkpt lat="47.5645" lon="-2.25587">
        <ele>44.599998474121</ele>
        <time>2021-07-25T07:56:47.000Z</time>
      </trkpt>
      <trkpt lat="47.56448" lon="-2.25587">
        <ele>45</ele>
        <time>2021-07-25T07:56:48.000Z</time>
      </trkpt>
      <trkpt lat="47.56447" lon="-2.25588">
        <ele>45.599998474121</ele>
        <time>2021-07-25T07:56:49.000Z</time>
      </trkpt>
      <trkpt lat="47.56446" lon="-2.25589">
        <ele>46</ele>
        <time>2021-07-25T07:56:50.000Z</time>
      </trkpt>
      <trkpt lat="47.56441" lon="-2.25589">
        <ele>46</ele>
        <time>2021-07-25T07:56:55.000Z</time>
      </trkpt>
      <trkpt lat="47.56441" lon="-2.25588">
        <ele>46</ele>
        <time>2021-07-25T07:56:56.000Z</time>
      </trkpt>
      <trkpt lat="47.56445" lon="-2.2558">
        <ele>46</ele>
        <time>2021-07-25T07:57:07.000Z</time>
      </trkpt>
      <trkpt lat="47.56447" lon="-2.25577">
        <ele>46</ele>
        <time>2021-07-25T07:57:09.000Z</time>
      </trkpt>
      <trkpt lat="47.56456" lon="-2.25566">
        <ele>46.400001525879</ele>
        <time>2021-07-25T07:57:16.000Z</time>
      </trkpt>
      <trkpt lat="47.56457" lon="-2.25565">
        <ele>46.799999237061</ele>
        <time>2021-07-25T07:57:17.000Z</time>
      </trkpt>
      <trkpt lat="47.56458" lon="-2.25563">
        <ele>47.200000762939</ele>
        <time>2021-07-25T07:57:18.000Z</time>
      </trkpt>
      <trkpt lat="47.56458" lon="-2.25562">
        <ele>47.599998474121</ele>
        <time>2021-07-25T07:57:19.000Z</time>
      </trkpt>
      <trkpt lat="47.56459" lon="-2.25558">
        <ele>48</ele>
        <time>2021-07-25T07:57:20.000Z</time>
      </trkpt>
      <trkpt lat="47.56458" lon="-2.25553">
        <ele>48</ele>
        <time>2021-07-25T07:57:22.000Z</time>
      </trkpt>
      <trkpt lat="47.56454" lon="-2.25554">
        <ele>48</ele>
        <time>2021-07-25T07:57:25.000Z</time>
      </trkpt>
      <trkpt lat="47.56449" lon="-2.25557">
        <ele>48</ele>
        <time>2021-07-25T07:57:28.000Z</time>
      </trkpt>
      <trkpt lat="47.5644" lon="-2.25558">
        <ele>48</ele>
        <time>2021-07-25T07:57:33.000Z</time>
      </trkpt>
      <trkpt lat="47.5644" lon="-2.25553">
        <ele>48</ele>
        <time>2021-07-25T07:57:38.000Z</time>
      </trkpt>
      <trkpt lat="47.56441" lon="-2.25552">
        <ele>48</ele>
        <time>2021-07-25T07:57:39.000Z</time>
      </trkpt>
      <trkpt lat="47.56442" lon="-2.25551">
        <ele>48.400001525879</ele>
        <time>2021-07-25T07:57:40.000Z</time>
      </trkpt>
      <trkpt lat="47.56444" lon="-2.2555">
        <ele>48.799999237061</ele>
        <time>2021-07-25T07:57:41.000Z</time>
      </trkpt>
      <trkpt lat="47.56446" lon="-2.25549">
        <ele>49.200000762939</ele>
        <time>2021-07-25T07:57:42.000Z</time>
      </trkpt>
      <trkpt lat="47.56448" lon="-2.25549">
        <ele>49.599998474121</ele>
        <time>2021-07-25T07:57:43.000Z</time>
      </trkpt>
      <trkpt lat="47.5645" lon="-2.25549">
        <ele>50</ele>
        <time>2021-07-25T07:57:44.000Z</time>
      </trkpt>
      <trkpt lat="47.56458" lon="-2.25541">
        <ele>50</ele>
        <time>2021-07-25T07:57:50.000Z</time>
      </trkpt>
      <trkpt lat="47.56458" lon="-2.25536">
        <ele>50</ele>
        <time>2021-07-25T07:57:53.000Z</time>
      </trkpt>
      <trkpt lat="47.56452" lon="-2.25534">
        <ele>50</ele>
        <time>2021-07-25T07:57:59.000Z</time>
      </trkpt>
      <trkpt lat="47.56441" lon="-2.2553">
        <ele>50</ele>
        <time>2021-07-25T07:58:04.000Z</time>
      </trkpt>
      <trkpt lat="47.56438" lon="-2.25529">
        <ele>50</ele>
        <time>2021-07-25T07:58:05.000Z</time>
      </trkpt>
      <trkpt lat="47.56437" lon="-2.25524">
        <ele>50.599998474121</ele>
        <time>2021-07-25T07:58:07.000Z</time>
      </trkpt>
      <trkpt lat="47.56436" lon="-2.25521">
        <ele>51</ele>
        <time>2021-07-25T07:58:08.000Z</time>
      </trkpt>
      <trkpt lat="47.56436" lon="-2.25518">
        <ele>51.400001525879</ele>
        <time>2021-07-25T07:58:09.000Z</time>
      </trkpt>
      <trkpt lat="47.56435" lon="-2.25514">
        <ele>51.799999237061</ele>
        <time>2021-07-25T07:58:10.000Z</time>
      </trkpt>
      <trkpt lat="47.56435" lon="-2.2551">
        <ele>52.200000762939</ele>
        <time>2021-07-25T07:58:11.000Z</time>
      </trkpt>
      <trkpt lat="47.56432" lon="-2.25494">
        <ele>52.200000762939</ele>
        <time>2021-07-25T07:58:16.000Z</time>
      </trkpt>
      <trkpt lat="47.5643" lon="-2.25486">
        <ele>52.200000762939</ele>
        <time>2021-07-25T07:58:20.000Z</time>
      </trkpt>
      <trkpt lat="47.5643" lon="-2.25484">
        <ele>52.200000762939</ele>
        <time>2021-07-25T07:58:21.000Z</time>
      </trkpt>
      <trkpt lat="47.56431" lon="-2.25483">
        <ele>52.200000762939</ele>
        <time>2021-07-25T07:58:22.000Z</time>
      </trkpt>
      <trkpt lat="47.56439" lon="-2.25485">
        <ele>52.200000762939</ele>
        <time>2021-07-25T07:58:27.000Z</time>
      </trkpt>
      <trkpt lat="47.56441" lon="-2.25485">
        <ele>52.799999237061</ele>
        <time>2021-07-25T07:58:28.000Z</time>
      </trkpt>
      <trkpt lat="47.56444" lon="-2.25486">
        <ele>53.200000762939</ele>
        <time>2021-07-25T07:58:29.000Z</time>
      </trkpt>
      <trkpt lat="47.56448" lon="-2.25487">
        <ele>54</ele>
        <time>2021-07-25T07:58:30.000Z</time>
      </trkpt>
      <trkpt lat="47.56451" lon="-2.25487">
        <ele>54.400001525879</ele>
        <time>2021-07-25T07:58:31.000Z</time>
      </trkpt>
      <trkpt lat="47.56453" lon="-2.25486">
        <ele>54.400001525879</ele>
        <time>2021-07-25T07:58:32.000Z</time>
      </trkpt>
      <trkpt lat="47.56462" lon="-2.25481">
        <ele>54.400001525879</ele>
        <time>2021-07-25T07:58:37.000Z</time>
      </trkpt>
      <trkpt lat="47.56463" lon="-2.25481">
        <ele>54.400001525879</ele>
        <time>2021-07-25T07:58:38.000Z</time>
      </trkpt>
      <trkpt lat="47.56472" lon="-2.25484">
        <ele>54.400001525879</ele>
        <time>2021-07-25T07:58:46.000Z</time>
      </trkpt>
      <trkpt lat="47.56473" lon="-2.25484">
        <ele>54.400001525879</ele>
        <time>2021-07-25T07:58:47.000Z</time>
      </trkpt>
      <trkpt lat="47.56473" lon="-2.25484">
        <ele>54.400001525879</ele>
        <time>2021-07-25T07:59:07.000Z</time>
      </trkpt>
      <trkpt lat="47.56477" lon="-2.25485">
        <ele>54.400001525879</ele>
        <time>2021-07-25T07:59:09.000Z</time>
      </trkpt>
      <trkpt lat="47.56482" lon="-2.25489">
        <ele>54.400001525879</ele>
        <time>2021-07-25T07:59:15.000Z</time>
      </trkpt>
      <trkpt lat="47.56482" lon="-2.25489">
        <ele>54.400001525879</ele>
        <time>2021-07-25T07:59:16.000Z</time>
      </trkpt>
      <trkpt lat="47.56489" lon="-2.25493">
        <ele>54.400001525879</ele>
        <time>2021-07-25T07:59:26.000Z</time>
      </trkpt>
      <trkpt lat="47.56491" lon="-2.25493">
        <ele>54.400001525879</ele>
        <time>2021-07-25T07:59:27.000Z</time>
      </trkpt>
      <trkpt lat="47.56493" lon="-2.25493">
        <ele>54.400001525879</ele>
        <time>2021-07-25T07:59:28.000Z</time>
      </trkpt>
      <trkpt lat="47.56496" lon="-2.25494">
        <ele>54.400001525879</ele>
        <time>2021-07-25T07:59:30.000Z</time>
      </trkpt>
      <trkpt lat="47.56501" lon="-2.25496">
        <ele>54.400001525879</ele>
        <time>2021-07-25T07:59:33.000Z</time>
      </trkpt>
      <trkpt lat="47.56502" lon="-2.25496">
        <ele>54.400001525879</ele>
        <time>2021-07-25T07:59:34.000Z</time>
      </trkpt>
      <trkpt lat="47.5651" lon="-2.25498">
        <ele>54.400001525879</ele>
        <time>2021-07-25T07:59:40.000Z</time>
      </trkpt>
      <trkpt lat="47.56511" lon="-2.25497">
        <ele>54.400001525879</ele>
        <time>2021-07-25T07:59:41.000Z</time>
      </trkpt>
      <trkpt lat="47.56512" lon="-2.25496">
        <ele>54.400001525879</ele>
        <time>2021-07-25T07:59:42.000Z</time>
      </trkpt>
      <trkpt lat="47.56514" lon="-2.25492">
        <ele>54.400001525879</ele>
        <time>2021-07-25T07:59:45.000Z</time>
      </trkpt>
      <trkpt lat="47.56516" lon="-2.25488">
        <ele>54.400001525879</ele>
        <time>2021-07-25T07:59:47.000Z</time>
      </trkpt>
      <trkpt lat="47.56518" lon="-2.25478">
        <ele>54.400001525879</ele>
        <time>2021-07-25T07:59:52.000Z</time>
      </trkpt>
      <trkpt lat="47.56519" lon="-2.25477">
        <ele>54.400001525879</ele>
        <time>2021-07-25T07:59:53.000Z</time>
      </trkpt>
      <trkpt lat="47.56524" lon="-2.25476">
        <ele>54</ele>
        <time>2021-07-25T07:59:56.000Z</time>
      </trkpt>
      <trkpt lat="47.56526" lon="-2.25477">
        <ele>53.599998474121</ele>
        <time>2021-07-25T07:59:57.000Z</time>
      </trkpt>
      <trkpt lat="47.56527" lon="-2.25478">
        <ele>53.200000762939</ele>
        <time>2021-07-25T07:59:58.000Z</time>
      </trkpt>
      <trkpt lat="47.56528" lon="-2.25479">
        <ele>52.799999237061</ele>
        <time>2021-07-25T07:59:59.000Z</time>
      </trkpt>
      <trkpt lat="47.56529" lon="-2.2548">
        <ele>52.400001525879</ele>
        <time>2021-07-25T08:00:00.000Z</time>
      </trkpt>
      <trkpt lat="47.56532" lon="-2.2548">
        <ele>52.400001525879</ele>
        <time>2021-07-25T08:00:03.000Z</time>
      </trkpt>
      <trkpt lat="47.56535" lon="-2.25477">
        <ele>52</ele>
        <time>2021-07-25T08:00:06.000Z</time>
      </trkpt>
      <trkpt lat="47.56537" lon="-2.25477">
        <ele>51.599998474121</ele>
        <time>2021-07-25T08:00:07.000Z</time>
      </trkpt>
      <trkpt lat="47.56539" lon="-2.25477">
        <ele>50.799999237061</ele>
        <time>2021-07-25T08:00:08.000Z</time>
      </trkpt>
      <trkpt lat="47.5654" lon="-2.25477">
        <ele>50.400001525879</ele>
        <time>2021-07-25T08:00:09.000Z</time>
      </trkpt>
      <trkpt lat="47.56546" lon="-2.25479">
        <ele>49.799999237061</ele>
        <time>2021-07-25T08:00:14.000Z</time>
      </trkpt>
      <trkpt lat="47.56547" lon="-2.2548">
        <ele>49.400001525879</ele>
        <time>2021-07-25T08:00:15.000Z</time>
      </trkpt>
      <trkpt lat="47.56548" lon="-2.25479">
        <ele>48.799999237061</ele>
        <time>2021-07-25T08:00:16.000Z</time>
      </trkpt>
      <trkpt lat="47.56549" lon="-2.2548">
        <ele>48.400001525879</ele>
        <time>2021-07-25T08:00:17.000Z</time>
      </trkpt>
      <trkpt lat="47.56552" lon="-2.2548">
        <ele>47.799999237061</ele>
        <time>2021-07-25T08:00:18.000Z</time>
      </trkpt>
      <trkpt lat="47.56556" lon="-2.25479">
        <ele>47.400001525879</ele>
        <time>2021-07-25T08:00:20.000Z</time>
      </trkpt>
      <trkpt lat="47.56558" lon="-2.25478">
        <ele>47</ele>
        <time>2021-07-25T08:00:21.000Z</time>
      </trkpt>
      <trkpt lat="47.5656" lon="-2.25477">
        <ele>46.599998474121</ele>
        <time>2021-07-25T08:00:22.000Z</time>
      </trkpt>
      <trkpt lat="47.56562" lon="-2.25476">
        <ele>46.200000762939</ele>
        <time>2021-07-25T08:00:23.000Z</time>
      </trkpt>
      <trkpt lat="47.56564" lon="-2.25475">
        <ele>45.799999237061</ele>
        <time>2021-07-25T08:00:24.000Z</time>
      </trkpt>
      <trkpt lat="47.56571" lon="-2.25475">
        <ele>45.799999237061</ele>
        <time>2021-07-25T08:00:27.000Z</time>
      </trkpt>
      <trkpt lat="47.56579" lon="-2.25471">
        <ele>45.799999237061</ele>
        <time>2021-07-25T08:00:31.000Z</time>
      </trkpt>
      <trkpt lat="47.5658" lon="-2.2547">
        <ele>45.799999237061</ele>
        <time>2021-07-25T08:00:32.000Z</time>
      </trkpt>
      <trkpt lat="47.56583" lon="-2.25468">
        <ele>45.799999237061</ele>
        <time>2021-07-25T08:00:34.000Z</time>
      </trkpt>
      <trkpt lat="47.56586" lon="-2.25467">
        <ele>45.799999237061</ele>
        <time>2021-07-25T08:00:36.000Z</time>
      </trkpt>
      <trkpt lat="47.56587" lon="-2.25468">
        <ele>45.799999237061</ele>
        <time>2021-07-25T08:00:37.000Z</time>
      </trkpt>
      <trkpt lat="47.56599" lon="-2.25465">
        <ele>45.400001525879</ele>
        <time>2021-07-25T08:00:43.000Z</time>
      </trkpt>
      <trkpt lat="47.56601" lon="-2.25462">
        <ele>45</ele>
        <time>2021-07-25T08:00:44.000Z</time>
      </trkpt>
      <trkpt lat="47.56603" lon="-2.25459">
        <ele>44.599998474121</ele>
        <time>2021-07-25T08:00:45.000Z</time>
      </trkpt>
      <trkpt lat="47.56605" lon="-2.25456">
        <ele>44.200000762939</ele>
        <time>2021-07-25T08:00:46.000Z</time>
      </trkpt>
      <trkpt lat="47.56606" lon="-2.25454">
        <ele>43.599998474121</ele>
        <time>2021-07-25T08:00:47.000Z</time>
      </trkpt>
      <trkpt lat="47.56606" lon="-2.25451">
        <ele>43.599998474121</ele>
        <time>2021-07-25T08:00:48.000Z</time>
      </trkpt>
      <trkpt lat="47.56605" lon="-2.25448">
        <ele>43.599998474121</ele>
        <time>2021-07-25T08:00:53.000Z</time>
      </trkpt>
      <trkpt lat="47.56605" lon="-2.25449">
        <ele>43.599998474121</ele>
        <time>2021-07-25T08:00:54.000Z</time>
      </trkpt>
      <trkpt lat="47.56601" lon="-2.2545">
        <ele>44.200000762939</ele>
        <time>2021-07-25T08:00:57.000Z</time>
      </trkpt>
      <trkpt lat="47.566" lon="-2.25451">
        <ele>44.599998474121</ele>
        <time>2021-07-25T08:00:58.000Z</time>
      </trkpt>
      <trkpt lat="47.56598" lon="-2.25453">
        <ele>45</ele>
        <time>2021-07-25T08:00:59.000Z</time>
      </trkpt>
      <trkpt lat="47.56597" lon="-2.25453">
        <ele>45.400001525879</ele>
        <time>2021-07-25T08:01:00.000Z</time>
      </trkpt>
      <trkpt lat="47.56596" lon="-2.25452">
        <ele>45.799999237061</ele>
        <time>2021-07-25T08:01:01.000Z</time>
      </trkpt>
      <trkpt lat="47.56596" lon="-2.25449">
        <ele>45.799999237061</ele>
        <time>2021-07-25T08:01:03.000Z</time>
      </trkpt>
      <trkpt lat="47.56594" lon="-2.25446">
        <ele>45.799999237061</ele>
        <time>2021-07-25T08:01:05.000Z</time>
      </trkpt>
      <trkpt lat="47.56589" lon="-2.25442">
        <ele>46.200000762939</ele>
        <time>2021-07-25T08:01:09.000Z</time>
      </trkpt>
      <trkpt lat="47.56588" lon="-2.25441">
        <ele>46.599998474121</ele>
        <time>2021-07-25T08:01:10.000Z</time>
      </trkpt>
      <trkpt lat="47.56587" lon="-2.25439">
        <ele>47</ele>
        <time>2021-07-25T08:01:11.000Z</time>
      </trkpt>
      <trkpt lat="47.56586" lon="-2.25437">
        <ele>47.400001525879</ele>
        <time>2021-07-25T08:01:12.000Z</time>
      </trkpt>
      <trkpt lat="47.56586" lon="-2.25436">
        <ele>47.799999237061</ele>
        <time>2021-07-25T08:01:13.000Z</time>
      </trkpt>
      <trkpt lat="47.56585" lon="-2.25433">
        <ele>47.799999237061</ele>
        <time>2021-07-25T08:01:14.000Z</time>
      </trkpt>
      <trkpt lat="47.56585" lon="-2.25431">
        <ele>47.799999237061</ele>
        <time>2021-07-25T08:01:15.000Z</time>
      </trkpt>
      <trkpt lat="47.56583" lon="-2.25416">
        <ele>47.799999237061</ele>
        <time>2021-07-25T08:01:21.000Z</time>
      </trkpt>
      <trkpt lat="47.56583" lon="-2.25412">
        <ele>47.799999237061</ele>
        <time>2021-07-25T08:01:22.000Z</time>
      </trkpt>
      <trkpt lat="47.5658" lon="-2.25395">
        <ele>47.799999237061</ele>
        <time>2021-07-25T08:01:28.000Z</time>
      </trkpt>
      <trkpt lat="47.56572" lon="-2.2539">
        <ele>47.799999237061</ele>
        <time>2021-07-25T08:01:34.000Z</time>
      </trkpt>
      <trkpt lat="47.56571" lon="-2.25387">
        <ele>47.799999237061</ele>
        <time>2021-07-25T08:01:35.000Z</time>
      </trkpt>
      <trkpt lat="47.56565" lon="-2.2537">
        <ele>47.799999237061</ele>
        <time>2021-07-25T08:01:39.000Z</time>
      </trkpt>
      <trkpt lat="47.56558" lon="-2.25348">
        <ele>47.400001525879</ele>
        <time>2021-07-25T08:01:43.000Z</time>
      </trkpt>
      <trkpt lat="47.56556" lon="-2.25343">
        <ele>47</ele>
        <time>2021-07-25T08:01:44.000Z</time>
      </trkpt>
      <trkpt lat="47.56555" lon="-2.25339">
        <ele>46.400001525879</ele>
        <time>2021-07-25T08:01:45.000Z</time>
      </trkpt>
      <trkpt lat="47.56554" lon="-2.25336">
        <ele>46</ele>
        <time>2021-07-25T08:01:46.000Z</time>
      </trkpt>
      <trkpt lat="47.56553" lon="-2.25333">
        <ele>45.400001525879</ele>
        <time>2021-07-25T08:01:47.000Z</time>
      </trkpt>
      <trkpt lat="47.56552" lon="-2.2533">
        <ele>45</ele>
        <time>2021-07-25T08:01:48.000Z</time>
      </trkpt>
      <trkpt lat="47.56551" lon="-2.25328">
        <ele>44.599998474121</ele>
        <time>2021-07-25T08:01:49.000Z</time>
      </trkpt>
      <trkpt lat="47.56551" lon="-2.25325">
        <ele>44.200000762939</ele>
        <time>2021-07-25T08:01:50.000Z</time>
      </trkpt>
      <trkpt lat="47.56551" lon="-2.25323">
        <ele>43.799999237061</ele>
        <time>2021-07-25T08:01:51.000Z</time>
      </trkpt>
      <trkpt lat="47.56552" lon="-2.25321">
        <ele>43.400001525879</ele>
        <time>2021-07-25T08:01:52.000Z</time>
      </trkpt>
      <trkpt lat="47.56552" lon="-2.2532">
        <ele>43.400001525879</ele>
        <time>2021-07-25T08:01:53.000Z</time>
      </trkpt>
      <trkpt lat="47.56556" lon="-2.25321">
        <ele>43.400001525879</ele>
        <time>2021-07-25T08:01:57.000Z</time>
      </trkpt>
      <trkpt lat="47.56559" lon="-2.25319">
        <ele>43.400001525879</ele>
        <time>2021-07-25T08:01:58.000Z</time>
      </trkpt>
      <trkpt lat="47.56566" lon="-2.25325">
        <ele>43.400001525879</ele>
        <time>2021-07-25T08:02:03.000Z</time>
      </trkpt>
      <trkpt lat="47.56567" lon="-2.25327">
        <ele>43.400001525879</ele>
        <time>2021-07-25T08:02:04.000Z</time>
      </trkpt>
      <trkpt lat="47.56577" lon="-2.25338">
        <ele>43.400001525879</ele>
        <time>2021-07-25T08:02:10.000Z</time>
      </trkpt>
      <trkpt lat="47.56579" lon="-2.25344">
        <ele>43.799999237061</ele>
        <time>2021-07-25T08:02:13.000Z</time>
      </trkpt>
      <trkpt lat="47.56579" lon="-2.25347">
        <ele>44.200000762939</ele>
        <time>2021-07-25T08:02:14.000Z</time>
      </trkpt>
      <trkpt lat="47.5658" lon="-2.25349">
        <ele>44.599998474121</ele>
        <time>2021-07-25T08:02:15.000Z</time>
      </trkpt>
      <trkpt lat="47.5658" lon="-2.25352">
        <ele>45.200000762939</ele>
        <time>2021-07-25T08:02:16.000Z</time>
      </trkpt>
      <trkpt lat="47.56581" lon="-2.25355">
        <ele>45.599998474121</ele>
        <time>2021-07-25T08:02:17.000Z</time>
      </trkpt>
      <trkpt lat="47.56584" lon="-2.25365">
        <ele>45.599998474121</ele>
        <time>2021-07-25T08:02:21.000Z</time>
      </trkpt>
      <trkpt lat="47.56587" lon="-2.25376">
        <ele>45.599998474121</ele>
        <time>2021-07-25T08:02:27.000Z</time>
      </trkpt>
      <trkpt lat="47.56589" lon="-2.2538">
        <ele>45.599998474121</ele>
        <time>2021-07-25T08:02:29.000Z</time>
      </trkpt>
      <trkpt lat="47.56592" lon="-2.25388">
        <ele>45.599998474121</ele>
        <time>2021-07-25T08:02:32.000Z</time>
      </trkpt>
      <trkpt lat="47.56592" lon="-2.25393">
        <ele>45.599998474121</ele>
        <time>2021-07-25T08:02:33.000Z</time>
      </trkpt>
      <trkpt lat="47.56591" lon="-2.25399">
        <ele>46</ele>
        <time>2021-07-25T08:02:36.000Z</time>
      </trkpt>
      <trkpt lat="47.56591" lon="-2.25402">
        <ele>46.799999237061</ele>
        <time>2021-07-25T08:02:37.000Z</time>
      </trkpt>
      <trkpt lat="47.56591" lon="-2.25405">
        <ele>47.200000762939</ele>
        <time>2021-07-25T08:02:38.000Z</time>
      </trkpt>
      <trkpt lat="47.56592" lon="-2.25409">
        <ele>47.599998474121</ele>
        <time>2021-07-25T08:02:39.000Z</time>
      </trkpt>
      <trkpt lat="47.56604" lon="-2.25415">
        <ele>47.599998474121</ele>
        <time>2021-07-25T08:02:44.000Z</time>
      </trkpt>
      <trkpt lat="47.56612" lon="-2.25411">
        <ele>47.599998474121</ele>
        <time>2021-07-25T08:02:47.000Z</time>
      </trkpt>
      <trkpt lat="47.56614" lon="-2.25409">
        <ele>47.200000762939</ele>
        <time>2021-07-25T08:02:48.000Z</time>
      </trkpt>
      <trkpt lat="47.56615" lon="-2.25407">
        <ele>46.599998474121</ele>
        <time>2021-07-25T08:02:49.000Z</time>
      </trkpt>
      <trkpt lat="47.56616" lon="-2.25406">
        <ele>46.200000762939</ele>
        <time>2021-07-25T08:02:50.000Z</time>
      </trkpt>
      <trkpt lat="47.56617" lon="-2.25404">
        <ele>45.799999237061</ele>
        <time>2021-07-25T08:02:51.000Z</time>
      </trkpt>
      <trkpt lat="47.56618" lon="-2.25402">
        <ele>45.200000762939</ele>
        <time>2021-07-25T08:02:52.000Z</time>
      </trkpt>
      <trkpt lat="47.56618" lon="-2.25397">
        <ele>45.200000762939</ele>
        <time>2021-07-25T08:02:55.000Z</time>
      </trkpt>
      <trkpt lat="47.5661" lon="-2.25387">
        <ele>45.200000762939</ele>
        <time>2021-07-25T08:03:00.000Z</time>
      </trkpt>
      <trkpt lat="47.56599" lon="-2.25376">
        <ele>45.200000762939</ele>
        <time>2021-07-25T08:03:06.000Z</time>
      </trkpt>
      <trkpt lat="47.56592" lon="-2.25357">
        <ele>45.200000762939</ele>
        <time>2021-07-25T08:03:12.000Z</time>
      </trkpt>
      <trkpt lat="47.56587" lon="-2.25335">
        <ele>45.200000762939</ele>
        <time>2021-07-25T08:03:18.000Z</time>
      </trkpt>
      <trkpt lat="47.56582" lon="-2.25318">
        <ele>44.799999237061</ele>
        <time>2021-07-25T08:03:23.000Z</time>
      </trkpt>
      <trkpt lat="47.56583" lon="-2.25315">
        <ele>44.400001525879</ele>
        <time>2021-07-25T08:03:24.000Z</time>
      </trkpt>
      <trkpt lat="47.56584" lon="-2.25313">
        <ele>44</ele>
        <time>2021-07-25T08:03:25.000Z</time>
      </trkpt>
      <trkpt lat="47.56586" lon="-2.25311">
        <ele>43.200000762939</ele>
        <time>2021-07-25T08:03:26.000Z</time>
      </trkpt>
      <trkpt lat="47.56593" lon="-2.2531">
        <ele>43.200000762939</ele>
        <time>2021-07-25T08:03:30.000Z</time>
      </trkpt>
      <trkpt lat="47.56596" lon="-2.25318">
        <ele>43.200000762939</ele>
        <time>2021-07-25T08:03:35.000Z</time>
      </trkpt>
      <trkpt lat="47.56591" lon="-2.25328">
        <ele>43.200000762939</ele>
        <time>2021-07-25T08:03:43.000Z</time>
      </trkpt>
      <trkpt lat="47.56591" lon="-2.25329">
        <ele>43.200000762939</ele>
        <time>2021-07-25T08:03:45.000Z</time>
      </trkpt>
      <trkpt lat="47.56607" lon="-2.25367">
        <ele>43.200000762939</ele>
        <time>2021-07-25T08:04:00.000Z</time>
      </trkpt>
      <trkpt lat="47.56613" lon="-2.25373">
        <ele>43.200000762939</ele>
        <time>2021-07-25T08:04:03.000Z</time>
      </trkpt>
      <trkpt lat="47.56626" lon="-2.25383">
        <ele>43.200000762939</ele>
        <time>2021-07-25T08:04:10.000Z</time>
      </trkpt>
      <trkpt lat="47.56629" lon="-2.25377">
        <ele>43.200000762939</ele>
        <time>2021-07-25T08:04:13.000Z</time>
      </trkpt>
      <trkpt lat="47.5663" lon="-2.25374">
        <ele>42.799999237061</ele>
        <time>2021-07-25T08:04:14.000Z</time>
      </trkpt>
      <trkpt lat="47.5663" lon="-2.25372">
        <ele>42</ele>
        <time>2021-07-25T08:04:15.000Z</time>
      </trkpt>
      <trkpt lat="47.5663" lon="-2.2537">
        <ele>41.599998474121</ele>
        <time>2021-07-25T08:04:16.000Z</time>
      </trkpt>
      <trkpt lat="47.5663" lon="-2.25368">
        <ele>41.200000762939</ele>
        <time>2021-07-25T08:04:17.000Z</time>
      </trkpt>
      <trkpt lat="47.56628" lon="-2.25363">
        <ele>41.200000762939</ele>
        <time>2021-07-25T08:04:20.000Z</time>
      </trkpt>
      <trkpt lat="47.56626" lon="-2.2536">
        <ele>41.200000762939</ele>
        <time>2021-07-25T08:04:22.000Z</time>
      </trkpt>
      <trkpt lat="47.56623" lon="-2.25347">
        <ele>41.200000762939</ele>
        <time>2021-07-25T08:04:28.000Z</time>
      </trkpt>
      <trkpt lat="47.56617" lon="-2.25339">
        <ele>41.200000762939</ele>
        <time>2021-07-25T08:04:31.000Z</time>
      </trkpt>
      <trkpt lat="47.56615" lon="-2.25331">
        <ele>41.200000762939</ele>
        <time>2021-07-25T08:04:34.000Z</time>
      </trkpt>
      <trkpt lat="47.56607" lon="-2.25309">
        <ele>41.200000762939</ele>
        <time>2021-07-25T08:04:40.000Z</time>
      </trkpt>
      <trkpt lat="47.56596" lon="-2.25299">
        <ele>41.200000762939</ele>
        <time>2021-07-25T08:04:45.000Z</time>
      </trkpt>
      <trkpt lat="47.56581" lon="-2.25292">
        <ele>41.200000762939</ele>
        <time>2021-07-25T08:04:52.000Z</time>
      </trkpt>
      <trkpt lat="47.56576" lon="-2.25292">
        <ele>41.200000762939</ele>
        <time>2021-07-25T08:04:55.000Z</time>
      </trkpt>
      <trkpt lat="47.56578" lon="-2.25282">
        <ele>39</ele>
        <time>2021-07-25T08:05:38.000Z</time>
      </trkpt>
      <trkpt lat="47.56577" lon="-2.25278">
        <ele>38.599998474121</ele>
        <time>2021-07-25T08:05:39.000Z</time>
      </trkpt>
      <trkpt lat="47.56577" lon="-2.25273">
        <ele>38.200000762939</ele>
        <time>2021-07-25T08:05:40.000Z</time>
      </trkpt>
      <trkpt lat="47.56577" lon="-2.25269">
        <ele>37.799999237061</ele>
        <time>2021-07-25T08:05:41.000Z</time>
      </trkpt>
      <trkpt lat="47.56576" lon="-2.25264">
        <ele>37</ele>
        <time>2021-07-25T08:05:42.000Z</time>
      </trkpt>
      <trkpt lat="47.56576" lon="-2.2526">
        <ele>36.400001525879</ele>
        <time>2021-07-25T08:05:43.000Z</time>
      </trkpt>
      <trkpt lat="47.56576" lon="-2.25256">
        <ele>35.599998474121</ele>
        <time>2021-07-25T08:05:44.000Z</time>
      </trkpt>
      <trkpt lat="47.56576" lon="-2.25253">
        <ele>34.799999237061</ele>
        <time>2021-07-25T08:05:45.000Z</time>
      </trkpt>
      <trkpt lat="47.56577" lon="-2.25251">
        <ele>34</ele>
        <time>2021-07-25T08:05:46.000Z</time>
      </trkpt>
      <trkpt lat="47.56577" lon="-2.25251">
        <ele>33.400001525879</ele>
        <time>2021-07-25T08:05:47.000Z</time>
      </trkpt>
      <trkpt lat="47.56578" lon="-2.2525">
        <ele>32.599998474121</ele>
        <time>2021-07-25T08:05:48.000Z</time>
      </trkpt>
      <trkpt lat="47.56581" lon="-2.25249">
        <ele>31.799999237061</ele>
        <time>2021-07-25T08:05:49.000Z</time>
      </trkpt>
      <trkpt lat="47.56587" lon="-2.25247">
        <ele>31.799999237061</ele>
        <time>2021-07-25T08:05:51.000Z</time>
      </trkpt>
      <trkpt lat="47.566" lon="-2.25242">
        <ele>31.799999237061</ele>
        <time>2021-07-25T08:05:55.000Z</time>
      </trkpt>
      <trkpt lat="47.56624" lon="-2.25244">
        <ele>31.799999237061</ele>
        <time>2021-07-25T08:06:01.000Z</time>
      </trkpt>
      <trkpt lat="47.56628" lon="-2.25244">
        <ele>31.39999961853</ele>
        <time>2021-07-25T08:06:02.000Z</time>
      </trkpt>
      <trkpt lat="47.56631" lon="-2.25245">
        <ele>31</ele>
        <time>2021-07-25T08:06:03.000Z</time>
      </trkpt>
      <trkpt lat="47.56633" lon="-2.25244">
        <ele>30.60000038147</ele>
        <time>2021-07-25T08:06:04.000Z</time>
      </trkpt>
      <trkpt lat="47.56634" lon="-2.25245">
        <ele>30.200000762939</ele>
        <time>2021-07-25T08:06:05.000Z</time>
      </trkpt>
      <trkpt lat="47.56647" lon="-2.25249">
        <ele>29.799999237061</ele>
        <time>2021-07-25T08:06:38.000Z</time>
      </trkpt>
      <trkpt lat="47.5666" lon="-2.25249">
        <ele>29.799999237061</ele>
        <time>2021-07-25T08:06:44.000Z</time>
      </trkpt>
      <trkpt lat="47.56676" lon="-2.25242">
        <ele>29.799999237061</ele>
        <time>2021-07-25T08:06:49.000Z</time>
      </trkpt>
      <trkpt lat="47.56689" lon="-2.25248">
        <ele>29.799999237061</ele>
        <time>2021-07-25T08:06:53.000Z</time>
      </trkpt>
      <trkpt lat="47.567" lon="-2.2525">
        <ele>29.799999237061</ele>
        <time>2021-07-25T08:06:59.000Z</time>
      </trkpt>
      <trkpt lat="47.56702" lon="-2.25233">
        <ele>29.39999961853</ele>
        <time>2021-07-25T08:07:04.000Z</time>
      </trkpt>
      <trkpt lat="47.56702" lon="-2.25229">
        <ele>28.799999237061</ele>
        <time>2021-07-25T08:07:05.000Z</time>
      </trkpt>
      <trkpt lat="47.56702" lon="-2.25226">
        <ele>28.39999961853</ele>
        <time>2021-07-25T08:07:06.000Z</time>
      </trkpt>
      <trkpt lat="47.56701" lon="-2.25224">
        <ele>28</ele>
        <time>2021-07-25T08:07:07.000Z</time>
      </trkpt>
      <trkpt lat="47.567" lon="-2.25221">
        <ele>27.60000038147</ele>
        <time>2021-07-25T08:07:08.000Z</time>
      </trkpt>
      <trkpt lat="47.56698" lon="-2.25212">
        <ele>27.60000038147</ele>
        <time>2021-07-25T08:07:11.000Z</time>
      </trkpt>
      <trkpt lat="47.56699" lon="-2.25192">
        <ele>27.60000038147</ele>
        <time>2021-07-25T08:07:18.000Z</time>
      </trkpt>
      <trkpt lat="47.56701" lon="-2.25174">
        <ele>28</ele>
        <time>2021-07-25T08:07:23.000Z</time>
      </trkpt>
      <trkpt lat="47.56701" lon="-2.25171">
        <ele>28.60000038147</ele>
        <time>2021-07-25T08:07:24.000Z</time>
      </trkpt>
      <trkpt lat="47.56701" lon="-2.25169">
        <ele>29</ele>
        <time>2021-07-25T08:07:25.000Z</time>
      </trkpt>
      <trkpt lat="47.56702" lon="-2.25168">
        <ele>29.39999961853</ele>
        <time>2021-07-25T08:07:26.000Z</time>
      </trkpt>
      <trkpt lat="47.56702" lon="-2.25165">
        <ele>30</ele>
        <time>2021-07-25T08:07:27.000Z</time>
      </trkpt>
      <trkpt lat="47.56703" lon="-2.25162">
        <ele>30.39999961853</ele>
        <time>2021-07-25T08:07:28.000Z</time>
      </trkpt>
      <trkpt lat="47.56703" lon="-2.25159">
        <ele>30.799999237061</ele>
        <time>2021-07-25T08:07:29.000Z</time>
      </trkpt>
      <trkpt lat="47.56704" lon="-2.25156">
        <ele>31.39999961853</ele>
        <time>2021-07-25T08:07:30.000Z</time>
      </trkpt>
      <trkpt lat="47.56704" lon="-2.25154">
        <ele>31.799999237061</ele>
        <time>2021-07-25T08:07:31.000Z</time>
      </trkpt>
      <trkpt lat="47.56705" lon="-2.25151">
        <ele>32.200000762939</ele>
        <time>2021-07-25T08:07:32.000Z</time>
      </trkpt>
      <trkpt lat="47.56706" lon="-2.25146">
        <ele>32.200000762939</ele>
        <time>2021-07-25T08:07:34.000Z</time>
      </trkpt>
      <trkpt lat="47.56703" lon="-2.25132">
        <ele>34.400001525879</ele>
        <time>2021-07-25T08:07:45.000Z</time>
      </trkpt>
      <trkpt lat="47.567" lon="-2.25133">
        <ele>34.400001525879</ele>
        <time>2021-07-25T08:07:47.000Z</time>
      </trkpt>
      <trkpt lat="47.56696" lon="-2.25132">
        <ele>34.400001525879</ele>
        <time>2021-07-25T08:07:49.000Z</time>
      </trkpt>
      <trkpt lat="47.56686" lon="-2.25122">
        <ele>34.400001525879</ele>
        <time>2021-07-25T08:07:55.000Z</time>
      </trkpt>
      <trkpt lat="47.56684" lon="-2.25118">
        <ele>35.200000762939</ele>
        <time>2021-07-25T08:07:57.000Z</time>
      </trkpt>
      <trkpt lat="47.56684" lon="-2.25117">
        <ele>35.799999237061</ele>
        <time>2021-07-25T08:07:58.000Z</time>
      </trkpt>
      <trkpt lat="47.56684" lon="-2.25115">
        <ele>36.200000762939</ele>
        <time>2021-07-25T08:07:59.000Z</time>
      </trkpt>
      <trkpt lat="47.56684" lon="-2.25115">
        <ele>36.599998474121</ele>
        <time>2021-07-25T08:08:00.000Z</time>
      </trkpt>
      <trkpt lat="47.56693" lon="-2.25087">
        <ele>40.799999237061</ele>
        <time>2021-07-25T08:08:30.000Z</time>
      </trkpt>
      <trkpt lat="47.56697" lon="-2.25085">
        <ele>40.799999237061</ele>
        <time>2021-07-25T08:08:32.000Z</time>
      </trkpt>
      <trkpt lat="47.56715" lon="-2.25077">
        <ele>40.799999237061</ele>
        <time>2021-07-25T08:08:41.000Z</time>
      </trkpt>
      <trkpt lat="47.56739" lon="-2.25069">
        <ele>40.799999237061</ele>
        <time>2021-07-25T08:08:48.000Z</time>
      </trkpt>
      <trkpt lat="47.56758" lon="-2.25062">
        <ele>40.799999237061</ele>
        <time>2021-07-25T08:08:54.000Z</time>
      </trkpt>
      <trkpt lat="47.56764" lon="-2.25059">
        <ele>40.799999237061</ele>
        <time>2021-07-25T08:09:00.000Z</time>
      </trkpt>
      <trkpt lat="47.56761" lon="-2.2506">
        <ele>40.799999237061</ele>
        <time>2021-07-25T08:09:06.000Z</time>
      </trkpt>
      <trkpt lat="47.56755" lon="-2.25063">
        <ele>40.799999237061</ele>
        <time>2021-07-25T08:09:09.000Z</time>
      </trkpt>
      <trkpt lat="47.56733" lon="-2.25069">
        <ele>40.799999237061</ele>
        <time>2021-07-25T08:09:17.000Z</time>
      </trkpt>
      <trkpt lat="47.56718" lon="-2.25072">
        <ele>40.799999237061</ele>
        <time>2021-07-25T08:09:24.000Z</time>
      </trkpt>
      <trkpt lat="47.56703" lon="-2.25072">
        <ele>40.799999237061</ele>
        <time>2021-07-25T08:09:31.000Z</time>
      </trkpt>
      <trkpt lat="47.56702" lon="-2.25072">
        <ele>40.799999237061</ele>
        <time>2021-07-25T08:09:32.000Z</time>
      </trkpt>
      <trkpt lat="47.567" lon="-2.25075">
        <ele>40.799999237061</ele>
        <time>2021-07-25T08:10:42.000Z</time>
      </trkpt>
      <trkpt lat="47.56698" lon="-2.25079">
        <ele>40.799999237061</ele>
        <time>2021-07-25T08:10:44.000Z</time>
      </trkpt>
      <trkpt lat="47.56698" lon="-2.25088">
        <ele>40.799999237061</ele>
        <time>2021-07-25T08:10:49.000Z</time>
      </trkpt>
      <trkpt lat="47.56698" lon="-2.25092">
        <ele>40.400001525879</ele>
        <time>2021-07-25T08:10:51.000Z</time>
      </trkpt>
      <trkpt lat="47.56697" lon="-2.25093">
        <ele>40</ele>
        <time>2021-07-25T08:10:52.000Z</time>
      </trkpt>
      <trkpt lat="47.56697" lon="-2.25095">
        <ele>39.400001525879</ele>
        <time>2021-07-25T08:10:53.000Z</time>
      </trkpt>
      <trkpt lat="47.56696" lon="-2.25097">
        <ele>39</ele>
        <time>2021-07-25T08:10:54.000Z</time>
      </trkpt>
      <trkpt lat="47.56696" lon="-2.25099">
        <ele>38.599998474121</ele>
        <time>2021-07-25T08:10:55.000Z</time>
      </trkpt>
      <trkpt lat="47.56696" lon="-2.25101">
        <ele>38.599998474121</ele>
        <time>2021-07-25T08:10:56.000Z</time>
      </trkpt>
      <trkpt lat="47.56697" lon="-2.25103">
        <ele>38.200000762939</ele>
        <time>2021-07-25T08:10:57.000Z</time>
      </trkpt>
      <trkpt lat="47.56698" lon="-2.25105">
        <ele>37.799999237061</ele>
        <time>2021-07-25T08:10:58.000Z</time>
      </trkpt>
      <trkpt lat="47.56698" lon="-2.25107">
        <ele>37.400001525879</ele>
        <time>2021-07-25T08:10:59.000Z</time>
      </trkpt>
      <trkpt lat="47.56699" lon="-2.2511">
        <ele>37</ele>
        <time>2021-07-25T08:11:00.000Z</time>
      </trkpt>
      <trkpt lat="47.567" lon="-2.25112">
        <ele>36.599998474121</ele>
        <time>2021-07-25T08:11:01.000Z</time>
      </trkpt>
      <trkpt lat="47.56705" lon="-2.25115">
        <ele>36.599998474121</ele>
        <time>2021-07-25T08:11:06.000Z</time>
      </trkpt>
      <trkpt lat="47.56708" lon="-2.25118">
        <ele>36.599998474121</ele>
        <time>2021-07-25T08:11:09.000Z</time>
      </trkpt>
      <trkpt lat="47.56709" lon="-2.25122">
        <ele>36.599998474121</ele>
        <time>2021-07-25T08:11:11.000Z</time>
      </trkpt>
      <trkpt lat="47.56709" lon="-2.25123">
        <ele>36.599998474121</ele>
        <time>2021-07-25T08:11:12.000Z</time>
      </trkpt>
      <trkpt lat="47.56709" lon="-2.25126">
        <ele>36.200000762939</ele>
        <time>2021-07-25T08:11:15.000Z</time>
      </trkpt>
      <trkpt lat="47.56709" lon="-2.25127">
        <ele>35.799999237061</ele>
        <time>2021-07-25T08:11:16.000Z</time>
      </trkpt>
      <trkpt lat="47.56709" lon="-2.25129">
        <ele>35.400001525879</ele>
        <time>2021-07-25T08:11:17.000Z</time>
      </trkpt>
      <trkpt lat="47.56708" lon="-2.2513">
        <ele>35</ele>
        <time>2021-07-25T08:11:18.000Z</time>
      </trkpt>
      <trkpt lat="47.56703" lon="-2.25146">
        <ele>32.400001525879</ele>
        <time>2021-07-25T08:11:33.000Z</time>
      </trkpt>
      <trkpt lat="47.56701" lon="-2.25146">
        <ele>32.400001525879</ele>
        <time>2021-07-25T08:11:34.000Z</time>
      </trkpt>
      <trkpt lat="47.56692" lon="-2.25143">
        <ele>32.400001525879</ele>
        <time>2021-07-25T08:11:39.000Z</time>
      </trkpt>
      <trkpt lat="47.56688" lon="-2.25141">
        <ele>32.400001525879</ele>
        <time>2021-07-25T08:11:42.000Z</time>
      </trkpt>
      <trkpt lat="47.56678" lon="-2.25136">
        <ele>32.400001525879</ele>
        <time>2021-07-25T08:11:47.000Z</time>
      </trkpt>
      <trkpt lat="47.56671" lon="-2.2513">
        <ele>32.799999237061</ele>
        <time>2021-07-25T08:11:51.000Z</time>
      </trkpt>
      <trkpt lat="47.56669" lon="-2.25129">
        <ele>33.400001525879</ele>
        <time>2021-07-25T08:11:52.000Z</time>
      </trkpt>
      <trkpt lat="47.56668" lon="-2.25129">
        <ele>33.799999237061</ele>
        <time>2021-07-25T08:11:53.000Z</time>
      </trkpt>
      <trkpt lat="47.56667" lon="-2.25129">
        <ele>34.400001525879</ele>
        <time>2021-07-25T08:11:54.000Z</time>
      </trkpt>
      <trkpt lat="47.56666" lon="-2.25129">
        <ele>34.799999237061</ele>
        <time>2021-07-25T08:11:55.000Z</time>
      </trkpt>
      <trkpt lat="47.56665" lon="-2.25129">
        <ele>34.799999237061</ele>
        <time>2021-07-25T08:11:56.000Z</time>
      </trkpt>
      <trkpt lat="47.56661" lon="-2.25132">
        <ele>34.799999237061</ele>
        <time>2021-07-25T08:11:59.000Z</time>
      </trkpt>
      <trkpt lat="47.56659" lon="-2.25134">
        <ele>34.799999237061</ele>
        <time>2021-07-25T08:12:00.000Z</time>
      </trkpt>
      <trkpt lat="47.56654" lon="-2.25135">
        <ele>35.200000762939</ele>
        <time>2021-07-25T08:12:03.000Z</time>
      </trkpt>
      <trkpt lat="47.56652" lon="-2.25135">
        <ele>35.599998474121</ele>
        <time>2021-07-25T08:12:04.000Z</time>
      </trkpt>
      <trkpt lat="47.5665" lon="-2.25136">
        <ele>36.400001525879</ele>
        <time>2021-07-25T08:12:05.000Z</time>
      </trkpt>
      <trkpt lat="47.56649" lon="-2.25139">
        <ele>36.799999237061</ele>
        <time>2021-07-25T08:12:06.000Z</time>
      </trkpt>
      <trkpt lat="47.56645" lon="-2.25149">
        <ele>36.799999237061</ele>
        <time>2021-07-25T08:12:09.000Z</time>
      </trkpt>
      <trkpt lat="47.56645" lon="-2.25155">
        <ele>36.799999237061</ele>
        <time>2021-07-25T08:12:11.000Z</time>
      </trkpt>
      <trkpt lat="47.56646" lon="-2.25161">
        <ele>36.799999237061</ele>
        <time>2021-07-25T08:12:13.000Z</time>
      </trkpt>
      <trkpt lat="47.56646" lon="-2.25164">
        <ele>36.400001525879</ele>
        <time>2021-07-25T08:12:14.000Z</time>
      </trkpt>
      <trkpt lat="47.56645" lon="-2.25166">
        <ele>36</ele>
        <time>2021-07-25T08:12:15.000Z</time>
      </trkpt>
      <trkpt lat="47.56644" lon="-2.25168">
        <ele>35.599998474121</ele>
        <time>2021-07-25T08:12:16.000Z</time>
      </trkpt>
      <trkpt lat="47.56643" lon="-2.25171">
        <ele>35</ele>
        <time>2021-07-25T08:12:17.000Z</time>
      </trkpt>
      <trkpt lat="47.56642" lon="-2.25173">
        <ele>34.599998474121</ele>
        <time>2021-07-25T08:12:18.000Z</time>
      </trkpt>
      <trkpt lat="47.56635" lon="-2.25182">
        <ele>34.599998474121</ele>
        <time>2021-07-25T08:12:22.000Z</time>
      </trkpt>
      <trkpt lat="47.5663" lon="-2.25187">
        <ele>34.599998474121</ele>
        <time>2021-07-25T08:12:24.000Z</time>
      </trkpt>
      <trkpt lat="47.56617" lon="-2.252">
        <ele>34.599998474121</ele>
        <time>2021-07-25T08:12:30.000Z</time>
      </trkpt>
      <trkpt lat="47.56603" lon="-2.25211">
        <ele>34.599998474121</ele>
        <time>2021-07-25T08:12:37.000Z</time>
      </trkpt>
      <trkpt lat="47.56595" lon="-2.25213">
        <ele>34.599998474121</ele>
        <time>2021-07-25T08:12:40.000Z</time>
      </trkpt>
      <trkpt lat="47.56583" lon="-2.25218">
        <ele>34.599998474121</ele>
        <time>2021-07-25T08:12:44.000Z</time>
      </trkpt>
      <trkpt lat="47.56569" lon="-2.25225">
        <ele>34.599998474121</ele>
        <time>2021-07-25T08:12:50.000Z</time>
      </trkpt>
      <trkpt lat="47.56563" lon="-2.25224">
        <ele>34.599998474121</ele>
        <time>2021-07-25T08:12:53.000Z</time>
      </trkpt>
      <trkpt lat="47.56549" lon="-2.25224">
        <ele>34.599998474121</ele>
        <time>2021-07-25T08:13:06.000Z</time>
      </trkpt>
      <trkpt lat="47.56547" lon="-2.25224">
        <ele>34.599998474121</ele>
        <time>2021-07-25T08:13:07.000Z</time>
      </trkpt>
      <trkpt lat="47.5654" lon="-2.25223">
        <ele>35</ele>
        <time>2021-07-25T08:13:13.000Z</time>
      </trkpt>
      <trkpt lat="47.56539" lon="-2.25222">
        <ele>35.400001525879</ele>
        <time>2021-07-25T08:13:14.000Z</time>
      </trkpt>
      <trkpt lat="47.56536" lon="-2.25221">
        <ele>35.799999237061</ele>
        <time>2021-07-25T08:13:15.000Z</time>
      </trkpt>
      <trkpt lat="47.56535" lon="-2.2522">
        <ele>36.200000762939</ele>
        <time>2021-07-25T08:13:16.000Z</time>
      </trkpt>
      <trkpt lat="47.56533" lon="-2.25219">
        <ele>36.599998474121</ele>
        <time>2021-07-25T08:13:17.000Z</time>
      </trkpt>
      <trkpt lat="47.56526" lon="-2.25216">
        <ele>37</ele>
        <time>2021-07-25T08:13:20.000Z</time>
      </trkpt>
      <trkpt lat="47.56524" lon="-2.25215">
        <ele>37.400001525879</ele>
        <time>2021-07-25T08:13:21.000Z</time>
      </trkpt>
      <trkpt lat="47.56522" lon="-2.25215">
        <ele>37.799999237061</ele>
        <time>2021-07-25T08:13:22.000Z</time>
      </trkpt>
      <trkpt lat="47.5652" lon="-2.25214">
        <ele>38.200000762939</ele>
        <time>2021-07-25T08:13:23.000Z</time>
      </trkpt>
      <trkpt lat="47.56518" lon="-2.25213">
        <ele>38.599998474121</ele>
        <time>2021-07-25T08:13:24.000Z</time>
      </trkpt>
      <trkpt lat="47.56511" lon="-2.2521">
        <ele>38.599998474121</ele>
        <time>2021-07-25T08:13:28.000Z</time>
      </trkpt>
      <trkpt lat="47.56501" lon="-2.25209">
        <ele>39</ele>
        <time>2021-07-25T08:13:37.000Z</time>
      </trkpt>
      <trkpt lat="47.565" lon="-2.25209">
        <ele>39.599998474121</ele>
        <time>2021-07-25T08:13:38.000Z</time>
      </trkpt>
      <trkpt lat="47.56498" lon="-2.25209">
        <ele>40</ele>
        <time>2021-07-25T08:13:39.000Z</time>
      </trkpt>
      <trkpt lat="47.56497" lon="-2.25209">
        <ele>40.400001525879</ele>
        <time>2021-07-25T08:13:40.000Z</time>
      </trkpt>
      <trkpt lat="47.56497" lon="-2.25209">
        <ele>40.799999237061</ele>
        <time>2021-07-25T08:13:41.000Z</time>
      </trkpt>
      <trkpt lat="47.56489" lon="-2.2521">
        <ele>40.799999237061</ele>
        <time>2021-07-25T08:13:46.000Z</time>
      </trkpt>
      <trkpt lat="47.56484" lon="-2.25208">
        <ele>41.200000762939</ele>
        <time>2021-07-25T08:13:51.000Z</time>
      </trkpt>
      <trkpt lat="47.56484" lon="-2.25207">
        <ele>41.599998474121</ele>
        <time>2021-07-25T08:13:52.000Z</time>
      </trkpt>
      <trkpt lat="47.56482" lon="-2.25207">
        <ele>42</ele>
        <time>2021-07-25T08:13:53.000Z</time>
      </trkpt>
      <trkpt lat="47.5648" lon="-2.25207">
        <ele>42.400001525879</ele>
        <time>2021-07-25T08:13:54.000Z</time>
      </trkpt>
      <trkpt lat="47.56479" lon="-2.25207">
        <ele>42.799999237061</ele>
        <time>2021-07-25T08:13:55.000Z</time>
      </trkpt>
      <trkpt lat="47.56469" lon="-2.25205">
        <ele>42.799999237061</ele>
        <time>2021-07-25T08:14:00.000Z</time>
      </trkpt>
      <trkpt lat="47.56443" lon="-2.25192">
        <ele>43.599998474121</ele>
        <time>2021-07-25T08:14:08.000Z</time>
      </trkpt>
      <trkpt lat="47.5644" lon="-2.25192">
        <ele>44</ele>
        <time>2021-07-25T08:14:09.000Z</time>
      </trkpt>
      <trkpt lat="47.56438" lon="-2.2519">
        <ele>44.400001525879</ele>
        <time>2021-07-25T08:14:10.000Z</time>
      </trkpt>
      <trkpt lat="47.56436" lon="-2.25189">
        <ele>44.799999237061</ele>
        <time>2021-07-25T08:14:11.000Z</time>
      </trkpt>
      <trkpt lat="47.56432" lon="-2.25184">
        <ele>44.799999237061</ele>
        <time>2021-07-25T08:14:14.000Z</time>
      </trkpt>
      <trkpt lat="47.56431" lon="-2.25183">
        <ele>45.400001525879</ele>
        <time>2021-07-25T08:14:16.000Z</time>
      </trkpt>
      <trkpt lat="47.5643" lon="-2.25182">
        <ele>45.799999237061</ele>
        <time>2021-07-25T08:14:17.000Z</time>
      </trkpt>
      <trkpt lat="47.56429" lon="-2.2518">
        <ele>46.200000762939</ele>
        <time>2021-07-25T08:14:18.000Z</time>
      </trkpt>
      <trkpt lat="47.56428" lon="-2.25179">
        <ele>46.599998474121</ele>
        <time>2021-07-25T08:14:19.000Z</time>
      </trkpt>
      <trkpt lat="47.56427" lon="-2.25178">
        <ele>47.200000762939</ele>
        <time>2021-07-25T08:14:20.000Z</time>
      </trkpt>
      <trkpt lat="47.56427" lon="-2.25176">
        <ele>47.200000762939</ele>
        <time>2021-07-25T08:14:21.000Z</time>
      </trkpt>
      <trkpt lat="47.56427" lon="-2.25172">
        <ele>47.599998474121</ele>
        <time>2021-07-25T08:14:23.000Z</time>
      </trkpt>
      <trkpt lat="47.56426" lon="-2.25171">
        <ele>48</ele>
        <time>2021-07-25T08:14:24.000Z</time>
      </trkpt>
      <trkpt lat="47.56426" lon="-2.2517">
        <ele>48.599998474121</ele>
        <time>2021-07-25T08:14:25.000Z</time>
      </trkpt>
      <trkpt lat="47.56425" lon="-2.25169">
        <ele>49</ele>
        <time>2021-07-25T08:14:26.000Z</time>
      </trkpt>
      <trkpt lat="47.56424" lon="-2.25167">
        <ele>49.400001525879</ele>
        <time>2021-07-25T08:14:27.000Z</time>
      </trkpt>
      <trkpt lat="47.56418" lon="-2.25163">
        <ele>50</ele>
        <time>2021-07-25T08:14:31.000Z</time>
      </trkpt>
      <trkpt lat="47.56416" lon="-2.25162">
        <ele>50.799999237061</ele>
        <time>2021-07-25T08:14:32.000Z</time>
      </trkpt>
      <trkpt lat="47.56414" lon="-2.25161">
        <ele>51.200000762939</ele>
        <time>2021-07-25T08:14:33.000Z</time>
      </trkpt>
      <trkpt lat="47.56413" lon="-2.25161">
        <ele>51.599998474121</ele>
        <time>2021-07-25T08:14:34.000Z</time>
      </trkpt>
      <trkpt lat="47.56402" lon="-2.25161">
        <ele>52</ele>
        <time>2021-07-25T08:14:40.000Z</time>
      </trkpt>
      <trkpt lat="47.564" lon="-2.25161">
        <ele>52.400001525879</ele>
        <time>2021-07-25T08:14:41.000Z</time>
      </trkpt>
      <trkpt lat="47.56398" lon="-2.2516">
        <ele>52.799999237061</ele>
        <time>2021-07-25T08:14:42.000Z</time>
      </trkpt>
      <trkpt lat="47.56397" lon="-2.2516">
        <ele>53.400001525879</ele>
        <time>2021-07-25T08:14:43.000Z</time>
      </trkpt>
      <trkpt lat="47.56394" lon="-2.2516">
        <ele>53.799999237061</ele>
        <time>2021-07-25T08:14:44.000Z</time>
      </trkpt>
      <trkpt lat="47.56386" lon="-2.25161">
        <ele>53.799999237061</ele>
        <time>2021-07-25T08:14:48.000Z</time>
      </trkpt>
      <trkpt lat="47.56367" lon="-2.2517">
        <ele>53.799999237061</ele>
        <time>2021-07-25T08:14:56.000Z</time>
      </trkpt>
      <trkpt lat="47.56359" lon="-2.25172">
        <ele>53.799999237061</ele>
        <time>2021-07-25T08:14:59.000Z</time>
      </trkpt>
      <trkpt lat="47.56358" lon="-2.25171">
        <ele>53.799999237061</ele>
        <time>2021-07-25T08:15:00.000Z</time>
      </trkpt>
      <trkpt lat="47.56352" lon="-2.2516">
        <ele>53.799999237061</ele>
        <time>2021-07-25T08:15:05.000Z</time>
      </trkpt>
      <trkpt lat="47.56348" lon="-2.25153">
        <ele>54.200000762939</ele>
        <time>2021-07-25T08:15:08.000Z</time>
      </trkpt>
      <trkpt lat="47.56347" lon="-2.25152">
        <ele>54.599998474121</ele>
        <time>2021-07-25T08:15:09.000Z</time>
      </trkpt>
      <trkpt lat="47.56345" lon="-2.25152">
        <ele>55</ele>
        <time>2021-07-25T08:15:10.000Z</time>
      </trkpt>
      <trkpt lat="47.56344" lon="-2.25152">
        <ele>55.400001525879</ele>
        <time>2021-07-25T08:15:11.000Z</time>
      </trkpt>
      <trkpt lat="47.56342" lon="-2.25153">
        <ele>55.799999237061</ele>
        <time>2021-07-25T08:15:12.000Z</time>
      </trkpt>
      <trkpt lat="47.56332" lon="-2.25154">
        <ele>55.400001525879</ele>
        <time>2021-07-25T08:15:17.000Z</time>
      </trkpt>
      <trkpt lat="47.56329" lon="-2.25153">
        <ele>54.799999237061</ele>
        <time>2021-07-25T08:15:18.000Z</time>
      </trkpt>
      <trkpt lat="47.56327" lon="-2.25153">
        <ele>54.400001525879</ele>
        <time>2021-07-25T08:15:19.000Z</time>
      </trkpt>
      <trkpt lat="47.56325" lon="-2.25151">
        <ele>54</ele>
        <time>2021-07-25T08:15:20.000Z</time>
      </trkpt>
      <trkpt lat="47.56323" lon="-2.2515">
        <ele>53.400001525879</ele>
        <time>2021-07-25T08:15:21.000Z</time>
      </trkpt>
      <trkpt lat="47.56318" lon="-2.25148">
        <ele>53.400001525879</ele>
        <time>2021-07-25T08:15:23.000Z</time>
      </trkpt>
      <trkpt lat="47.56296" lon="-2.25139">
        <ele>53.400001525879</ele>
        <time>2021-07-25T08:15:30.000Z</time>
      </trkpt>
      <trkpt lat="47.56292" lon="-2.25143">
        <ele>53.400001525879</ele>
        <time>2021-07-25T08:15:32.000Z</time>
      </trkpt>
      <trkpt lat="47.56291" lon="-2.25147">
        <ele>53</ele>
        <time>2021-07-25T08:15:33.000Z</time>
      </trkpt>
      <trkpt lat="47.56291" lon="-2.2515">
        <ele>52.599998474121</ele>
        <time>2021-07-25T08:15:34.000Z</time>
      </trkpt>
      <trkpt lat="47.56292" lon="-2.25154">
        <ele>52.200000762939</ele>
        <time>2021-07-25T08:15:35.000Z</time>
      </trkpt>
      <trkpt lat="47.56293" lon="-2.25157">
        <ele>51.799999237061</ele>
        <time>2021-07-25T08:15:36.000Z</time>
      </trkpt>
      <trkpt lat="47.56294" lon="-2.2516">
        <ele>51.400001525879</ele>
        <time>2021-07-25T08:15:37.000Z</time>
      </trkpt>
      <trkpt lat="47.56296" lon="-2.25164">
        <ele>51.400001525879</ele>
        <time>2021-07-25T08:15:38.000Z</time>
      </trkpt>
      <trkpt lat="47.56298" lon="-2.25166">
        <ele>51.400001525879</ele>
        <time>2021-07-25T08:15:39.000Z</time>
      </trkpt>
      <trkpt lat="47.563" lon="-2.25169">
        <ele>51</ele>
        <time>2021-07-25T08:15:40.000Z</time>
      </trkpt>
      <trkpt lat="47.56304" lon="-2.25172">
        <ele>50.599998474121</ele>
        <time>2021-07-25T08:15:41.000Z</time>
      </trkpt>
      <trkpt lat="47.56308" lon="-2.25174">
        <ele>50.200000762939</ele>
        <time>2021-07-25T08:15:42.000Z</time>
      </trkpt>
      <trkpt lat="47.56312" lon="-2.25176">
        <ele>49.599998474121</ele>
        <time>2021-07-25T08:15:43.000Z</time>
      </trkpt>
      <trkpt lat="47.56315" lon="-2.25178">
        <ele>49.200000762939</ele>
        <time>2021-07-25T08:15:44.000Z</time>
      </trkpt>
      <trkpt lat="47.5634" lon="-2.25199">
        <ele>48.799999237061</ele>
        <time>2021-07-25T08:15:51.000Z</time>
      </trkpt>
      <trkpt lat="47.56344" lon="-2.25202">
        <ele>48.400001525879</ele>
        <time>2021-07-25T08:15:52.000Z</time>
      </trkpt>
      <trkpt lat="47.56348" lon="-2.25205">
        <ele>48</ele>
        <time>2021-07-25T08:15:53.000Z</time>
      </trkpt>
      <trkpt lat="47.56352" lon="-2.25207">
        <ele>47.400001525879</ele>
        <time>2021-07-25T08:15:54.000Z</time>
      </trkpt>
      <trkpt lat="47.56356" lon="-2.2521">
        <ele>46.799999237061</ele>
        <time>2021-07-25T08:15:55.000Z</time>
      </trkpt>
      <trkpt lat="47.5636" lon="-2.25215">
        <ele>46</ele>
        <time>2021-07-25T08:15:56.000Z</time>
      </trkpt>
      <trkpt lat="47.56362" lon="-2.25219">
        <ele>45.400001525879</ele>
        <time>2021-07-25T08:15:57.000Z</time>
      </trkpt>
      <trkpt lat="47.56364" lon="-2.25221">
        <ele>44.799999237061</ele>
        <time>2021-07-25T08:15:58.000Z</time>
      </trkpt>
      <trkpt lat="47.56366" lon="-2.25223">
        <ele>44.200000762939</ele>
        <time>2021-07-25T08:15:59.000Z</time>
      </trkpt>
      <trkpt lat="47.56368" lon="-2.25223">
        <ele>43.400001525879</ele>
        <time>2021-07-25T08:16:00.000Z</time>
      </trkpt>
      <trkpt lat="47.56369" lon="-2.25223">
        <ele>42.799999237061</ele>
        <time>2021-07-25T08:16:01.000Z</time>
      </trkpt>
      <trkpt lat="47.56371" lon="-2.25223">
        <ele>42.200000762939</ele>
        <time>2021-07-25T08:16:02.000Z</time>
      </trkpt>
      <trkpt lat="47.56375" lon="-2.25222">
        <ele>42.200000762939</ele>
        <time>2021-07-25T08:16:05.000Z</time>
      </trkpt>
      <trkpt lat="47.56377" lon="-2.25222">
        <ele>42.200000762939</ele>
        <time>2021-07-25T08:16:07.000Z</time>
      </trkpt>
      <trkpt lat="47.56387" lon="-2.25243">
        <ele>44.200000762939</ele>
        <time>2021-07-25T08:22:48.000Z</time>
      </trkpt>
      <trkpt lat="47.56389" lon="-2.25242">
        <ele>44.200000762939</ele>
        <time>2021-07-25T08:22:49.000Z</time>
      </trkpt>
      <trkpt lat="47.56399" lon="-2.25238">
        <ele>43.799999237061</ele>
        <time>2021-07-25T08:22:53.000Z</time>
      </trkpt>
      <trkpt lat="47.56402" lon="-2.25238">
        <ele>43.400001525879</ele>
        <time>2021-07-25T08:22:54.000Z</time>
      </trkpt>
      <trkpt lat="47.56404" lon="-2.25238">
        <ele>43</ele>
        <time>2021-07-25T08:22:55.000Z</time>
      </trkpt>
      <trkpt lat="47.56405" lon="-2.25239">
        <ele>42.599998474121</ele>
        <time>2021-07-25T08:22:56.000Z</time>
      </trkpt>
      <trkpt lat="47.56406" lon="-2.25239">
        <ele>42.200000762939</ele>
        <time>2021-07-25T08:22:57.000Z</time>
      </trkpt>
      <trkpt lat="47.56429" lon="-2.25255">
        <ele>42.200000762939</ele>
        <time>2021-07-25T08:23:35.000Z</time>
      </trkpt>
      <trkpt lat="47.56431" lon="-2.25257">
        <ele>42.200000762939</ele>
        <time>2021-07-25T08:23:36.000Z</time>
      </trkpt>
      <trkpt lat="47.56439" lon="-2.25263">
        <ele>42.200000762939</ele>
        <time>2021-07-25T08:23:43.000Z</time>
      </trkpt>
      <trkpt lat="47.56441" lon="-2.25262">
        <ele>42.200000762939</ele>
        <time>2021-07-25T08:23:53.000Z</time>
      </trkpt>
      <trkpt lat="47.56447" lon="-2.25258">
        <ele>42.200000762939</ele>
        <time>2021-07-25T08:23:56.000Z</time>
      </trkpt>
      <trkpt lat="47.56456" lon="-2.25256">
        <ele>41.799999237061</ele>
        <time>2021-07-25T08:23:59.000Z</time>
      </trkpt>
      <trkpt lat="47.56462" lon="-2.25257">
        <ele>41.400001525879</ele>
        <time>2021-07-25T08:24:00.000Z</time>
      </trkpt>
      <trkpt lat="47.56466" lon="-2.25259">
        <ele>40.400001525879</ele>
        <time>2021-07-25T08:24:01.000Z</time>
      </trkpt>
      <trkpt lat="47.56469" lon="-2.2526">
        <ele>40</ele>
        <time>2021-07-25T08:24:02.000Z</time>
      </trkpt>
      <trkpt lat="47.56473" lon="-2.25262">
        <ele>40</ele>
        <time>2021-07-25T08:24:03.000Z</time>
      </trkpt>
      <trkpt lat="47.5649" lon="-2.2527">
        <ele>40</ele>
        <time>2021-07-25T08:24:08.000Z</time>
      </trkpt>
      <trkpt lat="47.56508" lon="-2.25276">
        <ele>40</ele>
        <time>2021-07-25T08:24:14.000Z</time>
      </trkpt>
      <trkpt lat="47.56511" lon="-2.25277">
        <ele>40.400001525879</ele>
        <time>2021-07-25T08:24:15.000Z</time>
      </trkpt>
      <trkpt lat="47.56514" lon="-2.25278">
        <ele>40.799999237061</ele>
        <time>2021-07-25T08:24:16.000Z</time>
      </trkpt>
      <trkpt lat="47.56517" lon="-2.25279">
        <ele>41.200000762939</ele>
        <time>2021-07-25T08:24:17.000Z</time>
      </trkpt>
      <trkpt lat="47.56519" lon="-2.25279">
        <ele>41.799999237061</ele>
        <time>2021-07-25T08:24:18.000Z</time>
      </trkpt>
      <trkpt lat="47.56521" lon="-2.25279">
        <ele>42.200000762939</ele>
        <time>2021-07-25T08:24:19.000Z</time>
      </trkpt>
      <trkpt lat="47.56537" lon="-2.25277">
        <ele>42.200000762939</ele>
        <time>2021-07-25T08:24:25.000Z</time>
      </trkpt>
      <trkpt lat="47.56565" lon="-2.25281">
        <ele>41.799999237061</ele>
        <time>2021-07-25T08:24:34.000Z</time>
      </trkpt>
      <trkpt lat="47.56568" lon="-2.25279">
        <ele>41.400001525879</ele>
        <time>2021-07-25T08:24:35.000Z</time>
      </trkpt>
      <trkpt lat="47.5657" lon="-2.25277">
        <ele>41</ele>
        <time>2021-07-25T08:24:36.000Z</time>
      </trkpt>
      <trkpt lat="47.56572" lon="-2.25276">
        <ele>40.599998474121</ele>
        <time>2021-07-25T08:24:37.000Z</time>
      </trkpt>
      <trkpt lat="47.56572" lon="-2.25272">
        <ele>40</ele>
        <time>2021-07-25T08:24:38.000Z</time>
      </trkpt>
      <trkpt lat="47.56574" lon="-2.25267">
        <ele>39.400001525879</ele>
        <time>2021-07-25T08:24:39.000Z</time>
      </trkpt>
      <trkpt lat="47.56574" lon="-2.25263">
        <ele>38.799999237061</ele>
        <time>2021-07-25T08:24:40.000Z</time>
      </trkpt>
      <trkpt lat="47.56574" lon="-2.25258">
        <ele>38</ele>
        <time>2021-07-25T08:24:41.000Z</time>
      </trkpt>
      <trkpt lat="47.56574" lon="-2.25254">
        <ele>37.200000762939</ele>
        <time>2021-07-25T08:24:42.000Z</time>
      </trkpt>
      <trkpt lat="47.56577" lon="-2.25251">
        <ele>36.200000762939</ele>
        <time>2021-07-25T08:24:43.000Z</time>
      </trkpt>
      <trkpt lat="47.5658" lon="-2.25249">
        <ele>35.400001525879</ele>
        <time>2021-07-25T08:24:44.000Z</time>
      </trkpt>
      <trkpt lat="47.56583" lon="-2.25248">
        <ele>34.599998474121</ele>
        <time>2021-07-25T08:24:45.000Z</time>
      </trkpt>
      <trkpt lat="47.56586" lon="-2.25248">
        <ele>33.799999237061</ele>
        <time>2021-07-25T08:24:46.000Z</time>
      </trkpt>
      <trkpt lat="47.56588" lon="-2.25249">
        <ele>33.799999237061</ele>
        <time>2021-07-25T08:24:47.000Z</time>
      </trkpt>
      <trkpt lat="47.56602" lon="-2.25246">
        <ele>33.799999237061</ele>
        <time>2021-07-25T08:24:51.000Z</time>
      </trkpt>
      <trkpt lat="47.56605" lon="-2.25244">
        <ele>33.799999237061</ele>
        <time>2021-07-25T08:24:52.000Z</time>
      </trkpt>
      <trkpt lat="47.5661" lon="-2.25243">
        <ele>33.200000762939</ele>
        <time>2021-07-25T08:24:53.000Z</time>
      </trkpt>
      <trkpt lat="47.56614" lon="-2.25243">
        <ele>32.799999237061</ele>
        <time>2021-07-25T08:24:54.000Z</time>
      </trkpt>
      <trkpt lat="47.56617" lon="-2.25243">
        <ele>32.400001525879</ele>
        <time>2021-07-25T08:24:55.000Z</time>
      </trkpt>
      <trkpt lat="47.5662" lon="-2.25243">
        <ele>31.39999961853</ele>
        <time>2021-07-25T08:24:56.000Z</time>
      </trkpt>
      <trkpt lat="47.56639" lon="-2.25246">
        <ele>31.39999961853</ele>
        <time>2021-07-25T08:25:01.000Z</time>
      </trkpt>
      <trkpt lat="47.56642" lon="-2.25243">
        <ele>31.39999961853</ele>
        <time>2021-07-25T08:25:03.000Z</time>
      </trkpt>
      <trkpt lat="47.56646" lon="-2.25238">
        <ele>31.39999961853</ele>
        <time>2021-07-25T08:25:05.000Z</time>
      </trkpt>
      <trkpt lat="47.56654" lon="-2.25234">
        <ele>31.39999961853</ele>
        <time>2021-07-25T08:25:07.000Z</time>
      </trkpt>
      <trkpt lat="47.56662" lon="-2.25233">
        <ele>31.39999961853</ele>
        <time>2021-07-25T08:25:09.000Z</time>
      </trkpt>
      <trkpt lat="47.56671" lon="-2.25241">
        <ele>31.39999961853</ele>
        <time>2021-07-25T08:25:12.000Z</time>
      </trkpt>
      <trkpt lat="47.56673" lon="-2.25243">
        <ele>31.39999961853</ele>
        <time>2021-07-25T08:25:13.000Z</time>
      </trkpt>
      <trkpt lat="47.56682" lon="-2.25244">
        <ele>31.39999961853</ele>
        <time>2021-07-25T08:25:17.000Z</time>
      </trkpt>
      <trkpt lat="47.56683" lon="-2.25245">
        <ele>31.39999961853</ele>
        <time>2021-07-25T08:25:18.000Z</time>
      </trkpt>
      <trkpt lat="47.56684" lon="-2.25247">
        <ele>31.39999961853</ele>
        <time>2021-07-25T08:25:38.000Z</time>
      </trkpt>
      <trkpt lat="47.56691" lon="-2.25251">
        <ele>31.39999961853</ele>
        <time>2021-07-25T08:25:40.000Z</time>
      </trkpt>
      <trkpt lat="47.56702" lon="-2.25259">
        <ele>31.39999961853</ele>
        <time>2021-07-25T08:25:45.000Z</time>
      </trkpt>
      <trkpt lat="47.5671" lon="-2.2525">
        <ele>31.39999961853</ele>
        <time>2021-07-25T08:25:49.000Z</time>
      </trkpt>
      <trkpt lat="47.56715" lon="-2.25245">
        <ele>31</ele>
        <time>2021-07-25T08:25:52.000Z</time>
      </trkpt>
      <trkpt lat="47.56717" lon="-2.25243">
        <ele>30.60000038147</ele>
        <time>2021-07-25T08:25:53.000Z</time>
      </trkpt>
      <trkpt lat="47.56719" lon="-2.25242">
        <ele>30.200000762939</ele>
        <time>2021-07-25T08:25:54.000Z</time>
      </trkpt>
      <trkpt lat="47.56721" lon="-2.25241">
        <ele>29.60000038147</ele>
        <time>2021-07-25T08:25:55.000Z</time>
      </trkpt>
      <trkpt lat="47.56723" lon="-2.25241">
        <ele>29.200000762939</ele>
        <time>2021-07-25T08:25:56.000Z</time>
      </trkpt>
      <trkpt lat="47.56725" lon="-2.25243">
        <ele>28.60000038147</ele>
        <time>2021-07-25T08:25:57.000Z</time>
      </trkpt>
      <trkpt lat="47.56727" lon="-2.25245">
        <ele>28</ele>
        <time>2021-07-25T08:25:58.000Z</time>
      </trkpt>
      <trkpt lat="47.56729" lon="-2.25247">
        <ele>27.39999961853</ele>
        <time>2021-07-25T08:25:59.000Z</time>
      </trkpt>
      <trkpt lat="47.56732" lon="-2.25251">
        <ele>27</ele>
        <time>2021-07-25T08:26:00.000Z</time>
      </trkpt>
      <trkpt lat="47.56738" lon="-2.25263">
        <ele>27</ele>
        <time>2021-07-25T08:26:03.000Z</time>
      </trkpt>
      <trkpt lat="47.5674" lon="-2.25274">
        <ele>27</ele>
        <time>2021-07-25T08:26:06.000Z</time>
      </trkpt>
      <trkpt lat="47.56739" lon="-2.25276">
        <ele>27</ele>
        <time>2021-07-25T08:26:07.000Z</time>
      </trkpt>
      <trkpt lat="47.56733" lon="-2.25282">
        <ele>27</ele>
        <time>2021-07-25T08:26:11.000Z</time>
      </trkpt>
      <trkpt lat="47.56732" lon="-2.25282">
        <ele>27</ele>
        <time>2021-07-25T08:26:12.000Z</time>
      </trkpt>
      <trkpt lat="47.56726" lon="-2.25284">
        <ele>27</ele>
        <time>2021-07-25T08:26:16.000Z</time>
      </trkpt>
      <trkpt lat="47.56725" lon="-2.25285">
        <ele>27</ele>
        <time>2021-07-25T08:26:17.000Z</time>
      </trkpt>
      <trkpt lat="47.56726" lon="-2.25285">
        <ele>27.39999961853</ele>
        <time>2021-07-25T08:26:18.000Z</time>
      </trkpt>
      <trkpt lat="47.56725" lon="-2.25285">
        <ele>27.799999237061</ele>
        <time>2021-07-25T08:26:19.000Z</time>
      </trkpt>
      <trkpt lat="47.5672" lon="-2.25291">
        <ele>29</ele>
        <time>2021-07-25T08:26:34.000Z</time>
      </trkpt>
      <trkpt lat="47.56721" lon="-2.25294">
        <ele>29</ele>
        <time>2021-07-25T08:26:35.000Z</time>
      </trkpt>
      <trkpt lat="47.5672" lon="-2.25312">
        <ele>29</ele>
        <time>2021-07-25T08:26:41.000Z</time>
      </trkpt>
      <trkpt lat="47.56719" lon="-2.25313">
        <ele>29</ele>
        <time>2021-07-25T08:26:42.000Z</time>
      </trkpt>
      <trkpt lat="47.56712" lon="-2.25316">
        <ele>29</ele>
        <time>2021-07-25T08:26:45.000Z</time>
      </trkpt>
      <trkpt lat="47.56701" lon="-2.25324">
        <ele>29</ele>
        <time>2021-07-25T08:26:52.000Z</time>
      </trkpt>
      <trkpt lat="47.56693" lon="-2.2533">
        <ele>29</ele>
        <time>2021-07-25T08:26:56.000Z</time>
      </trkpt>
      <trkpt lat="47.56688" lon="-2.25338">
        <ele>29</ele>
        <time>2021-07-25T08:27:00.000Z</time>
      </trkpt>
      <trkpt lat="47.56685" lon="-2.25342">
        <ele>29</ele>
        <time>2021-07-25T08:27:02.000Z</time>
      </trkpt>
      <trkpt lat="47.56682" lon="-2.25346">
        <ele>29.39999961853</ele>
        <time>2021-07-25T08:27:04.000Z</time>
      </trkpt>
      <trkpt lat="47.56681" lon="-2.25349">
        <ele>29.799999237061</ele>
        <time>2021-07-25T08:27:05.000Z</time>
      </trkpt>
      <trkpt lat="47.5668" lon="-2.25352">
        <ele>30.39999961853</ele>
        <time>2021-07-25T08:27:06.000Z</time>
      </trkpt>
      <trkpt lat="47.56678" lon="-2.25354">
        <ele>30.799999237061</ele>
        <time>2021-07-25T08:27:07.000Z</time>
      </trkpt>
      <trkpt lat="47.56676" lon="-2.25355">
        <ele>31.200000762939</ele>
        <time>2021-07-25T08:27:08.000Z</time>
      </trkpt>
      <trkpt lat="47.56674" lon="-2.25357">
        <ele>31.60000038147</ele>
        <time>2021-07-25T08:27:09.000Z</time>
      </trkpt>
      <trkpt lat="47.56674" lon="-2.25357">
        <ele>32</ele>
        <time>2021-07-25T08:27:10.000Z</time>
      </trkpt>
      <trkpt lat="47.56672" lon="-2.2536">
        <ele>32.400001525879</ele>
        <time>2021-07-25T08:27:11.000Z</time>
      </trkpt>
      <trkpt lat="47.5667" lon="-2.25361">
        <ele>33</ele>
        <time>2021-07-25T08:27:12.000Z</time>
      </trkpt>
      <trkpt lat="47.56668" lon="-2.25363">
        <ele>33.400001525879</ele>
        <time>2021-07-25T08:27:13.000Z</time>
      </trkpt>
      <trkpt lat="47.56665" lon="-2.25368">
        <ele>33.799999237061</ele>
        <time>2021-07-25T08:27:15.000Z</time>
      </trkpt>
      <trkpt lat="47.56664" lon="-2.25369">
        <ele>34.200000762939</ele>
        <time>2021-07-25T08:27:16.000Z</time>
      </trkpt>
      <trkpt lat="47.56663" lon="-2.25372">
        <ele>34.599998474121</ele>
        <time>2021-07-25T08:27:17.000Z</time>
      </trkpt>
      <trkpt lat="47.56662" lon="-2.25373">
        <ele>35</ele>
        <time>2021-07-25T08:27:18.000Z</time>
      </trkpt>
      <trkpt lat="47.5666" lon="-2.25376">
        <ele>35.400001525879</ele>
        <time>2021-07-25T08:27:19.000Z</time>
      </trkpt>
      <trkpt lat="47.56659" lon="-2.25379">
        <ele>35.400001525879</ele>
        <time>2021-07-25T08:27:20.000Z</time>
      </trkpt>
      <trkpt lat="47.56655" lon="-2.25386">
        <ele>35.400001525879</ele>
        <time>2021-07-25T08:27:23.000Z</time>
      </trkpt>
      <trkpt lat="47.56649" lon="-2.254">
        <ele>35.400001525879</ele>
        <time>2021-07-25T08:27:28.000Z</time>
      </trkpt>
      <trkpt lat="47.56649" lon="-2.25403">
        <ele>35.400001525879</ele>
        <time>2021-07-25T08:27:29.000Z</time>
      </trkpt>
      <trkpt lat="47.56647" lon="-2.25412">
        <ele>35.799999237061</ele>
        <time>2021-07-25T08:27:32.000Z</time>
      </trkpt>
      <trkpt lat="47.56647" lon="-2.25413">
        <ele>36.200000762939</ele>
        <time>2021-07-25T08:27:33.000Z</time>
      </trkpt>
      <trkpt lat="47.56647" lon="-2.25416">
        <ele>36.599998474121</ele>
        <time>2021-07-25T08:27:34.000Z</time>
      </trkpt>
      <trkpt lat="47.56646" lon="-2.25418">
        <ele>37.200000762939</ele>
        <time>2021-07-25T08:27:35.000Z</time>
      </trkpt>
      <trkpt lat="47.56646" lon="-2.25422">
        <ele>37.599998474121</ele>
        <time>2021-07-25T08:27:36.000Z</time>
      </trkpt>
      <trkpt lat="47.56645" lon="-2.25435">
        <ele>37.599998474121</ele>
        <time>2021-07-25T08:27:40.000Z</time>
      </trkpt>
      <trkpt lat="47.56645" lon="-2.25442">
        <ele>37.599998474121</ele>
        <time>2021-07-25T08:27:42.000Z</time>
      </trkpt>
      <trkpt lat="47.56643" lon="-2.25453">
        <ele>37.599998474121</ele>
        <time>2021-07-25T08:27:47.000Z</time>
      </trkpt>
      <trkpt lat="47.56641" lon="-2.25457">
        <ele>37.599998474121</ele>
        <time>2021-07-25T08:27:48.000Z</time>
      </trkpt>
      <trkpt lat="47.56636" lon="-2.2547">
        <ele>37.599998474121</ele>
        <time>2021-07-25T08:27:51.000Z</time>
      </trkpt>
      <trkpt lat="47.56634" lon="-2.25472">
        <ele>37.599998474121</ele>
        <time>2021-07-25T08:27:52.000Z</time>
      </trkpt>
      <trkpt lat="47.56629" lon="-2.25477">
        <ele>37.599998474121</ele>
        <time>2021-07-25T08:27:54.000Z</time>
      </trkpt>
      <trkpt lat="47.56623" lon="-2.2548">
        <ele>37.599998474121</ele>
        <time>2021-07-25T08:27:57.000Z</time>
      </trkpt>
      <trkpt lat="47.56621" lon="-2.25481">
        <ele>38</ele>
        <time>2021-07-25T08:27:58.000Z</time>
      </trkpt>
      <trkpt lat="47.56619" lon="-2.25482">
        <ele>38.400001525879</ele>
        <time>2021-07-25T08:27:59.000Z</time>
      </trkpt>
      <trkpt lat="47.56618" lon="-2.25483">
        <ele>38.799999237061</ele>
        <time>2021-07-25T08:28:00.000Z</time>
      </trkpt>
      <trkpt lat="47.56615" lon="-2.25485">
        <ele>39.200000762939</ele>
        <time>2021-07-25T08:28:01.000Z</time>
      </trkpt>
      <trkpt lat="47.56614" lon="-2.25485">
        <ele>39.599998474121</ele>
        <time>2021-07-25T08:28:02.000Z</time>
      </trkpt>
      <trkpt lat="47.56609" lon="-2.25488">
        <ele>39.599998474121</ele>
        <time>2021-07-25T08:28:05.000Z</time>
      </trkpt>
      <trkpt lat="47.56595" lon="-2.25496">
        <ele>39.599998474121</ele>
        <time>2021-07-25T08:28:13.000Z</time>
      </trkpt>
      <trkpt lat="47.56574" lon="-2.25512">
        <ele>39.599998474121</ele>
        <time>2021-07-25T08:28:22.000Z</time>
      </trkpt>
      <trkpt lat="47.56561" lon="-2.25521">
        <ele>39.599998474121</ele>
        <time>2021-07-25T08:28:27.000Z</time>
      </trkpt>
      <trkpt lat="47.56554" lon="-2.25527">
        <ele>39.599998474121</ele>
        <time>2021-07-25T08:28:32.000Z</time>
      </trkpt>
      <trkpt lat="47.56553" lon="-2.25528">
        <ele>40</ele>
        <time>2021-07-25T08:28:34.000Z</time>
      </trkpt>
      <trkpt lat="47.5655" lon="-2.2553">
        <ele>40.400001525879</ele>
        <time>2021-07-25T08:28:35.000Z</time>
      </trkpt>
      <trkpt lat="47.56549" lon="-2.25531">
        <ele>41</ele>
        <time>2021-07-25T08:28:36.000Z</time>
      </trkpt>
      <trkpt lat="47.56549" lon="-2.25532">
        <ele>41.799999237061</ele>
        <time>2021-07-25T08:28:37.000Z</time>
      </trkpt>
      <trkpt lat="47.56544" lon="-2.25537">
        <ele>41.799999237061</ele>
        <time>2021-07-25T08:28:40.000Z</time>
      </trkpt>
      <trkpt lat="47.56539" lon="-2.25542">
        <ele>41.799999237061</ele>
        <time>2021-07-25T08:28:43.000Z</time>
      </trkpt>
      <trkpt lat="47.56533" lon="-2.25546">
        <ele>41.799999237061</ele>
        <time>2021-07-25T08:28:47.000Z</time>
      </trkpt>
      <trkpt lat="47.5653" lon="-2.25553">
        <ele>41.799999237061</ele>
        <time>2021-07-25T08:28:51.000Z</time>
      </trkpt>
      <trkpt lat="47.5653" lon="-2.25556">
        <ele>41.799999237061</ele>
        <time>2021-07-25T08:28:52.000Z</time>
      </trkpt>
      <trkpt lat="47.56526" lon="-2.25561">
        <ele>41.799999237061</ele>
        <time>2021-07-25T08:28:56.000Z</time>
      </trkpt>
      <trkpt lat="47.56523" lon="-2.25571">
        <ele>41.799999237061</ele>
        <time>2021-07-25T08:29:01.000Z</time>
      </trkpt>
      <trkpt lat="47.56521" lon="-2.25584">
        <ele>41.799999237061</ele>
        <time>2021-07-25T08:29:05.000Z</time>
      </trkpt>
      <trkpt lat="47.56504" lon="-2.25602">
        <ele>46</ele>
        <time>2021-07-25T08:29:33.000Z</time>
      </trkpt>
      <trkpt lat="47.56498" lon="-2.25608">
        <ele>46</ele>
        <time>2021-07-25T08:29:36.000Z</time>
      </trkpt>
      <trkpt lat="47.56485" lon="-2.25627">
        <ele>46</ele>
        <time>2021-07-25T08:29:41.000Z</time>
      </trkpt>
      <trkpt lat="47.56474" lon="-2.25646">
        <ele>46</ele>
        <time>2021-07-25T08:29:47.000Z</time>
      </trkpt>
      <trkpt lat="47.56464" lon="-2.25671">
        <ele>46</ele>
        <time>2021-07-25T08:29:52.000Z</time>
      </trkpt>
      <trkpt lat="47.5646" lon="-2.25702">
        <ele>46</ele>
        <time>2021-07-25T08:29:58.000Z</time>
      </trkpt>
      <trkpt lat="47.56455" lon="-2.2573">
        <ele>46</ele>
        <time>2021-07-25T08:30:04.000Z</time>
      </trkpt>
      <trkpt lat="47.56455" lon="-2.25739">
        <ele>46.400001525879</ele>
        <time>2021-07-25T08:30:06.000Z</time>
      </trkpt>
      <trkpt lat="47.56455" lon="-2.25743">
        <ele>46.799999237061</ele>
        <time>2021-07-25T08:30:07.000Z</time>
      </trkpt>
      <trkpt lat="47.56455" lon="-2.25748">
        <ele>47.200000762939</ele>
        <time>2021-07-25T08:30:08.000Z</time>
      </trkpt>
      <trkpt lat="47.56455" lon="-2.25752">
        <ele>47.599998474121</ele>
        <time>2021-07-25T08:30:09.000Z</time>
      </trkpt>
      <trkpt lat="47.56455" lon="-2.25756">
        <ele>48</ele>
        <time>2021-07-25T08:30:10.000Z</time>
      </trkpt>
      <trkpt lat="47.56455" lon="-2.25759">
        <ele>48</ele>
        <time>2021-07-25T08:30:11.000Z</time>
      </trkpt>
      <trkpt lat="47.56455" lon="-2.25775">
        <ele>48</ele>
        <time>2021-07-25T08:30:18.000Z</time>
      </trkpt>
      <trkpt lat="47.56454" lon="-2.25782">
        <ele>48</ele>
        <time>2021-07-25T08:30:21.000Z</time>
      </trkpt>
      <trkpt lat="47.56449" lon="-2.25788">
        <ele>48</ele>
        <time>2021-07-25T08:30:32.000Z</time>
      </trkpt>
      <trkpt lat="47.56446" lon="-2.25789">
        <ele>48</ele>
        <time>2021-07-25T08:30:33.000Z</time>
      </trkpt>
      <trkpt lat="47.56433" lon="-2.25791">
        <ele>48</ele>
        <time>2021-07-25T08:30:38.000Z</time>
      </trkpt>
      <trkpt lat="47.56431" lon="-2.25791">
        <ele>48</ele>
        <time>2021-07-25T08:30:39.000Z</time>
      </trkpt>
      <trkpt lat="47.56423" lon="-2.25793">
        <ele>48</ele>
        <time>2021-07-25T08:30:44.000Z</time>
      </trkpt>
      <trkpt lat="47.56408" lon="-2.25797">
        <ele>48</ele>
        <time>2021-07-25T08:30:50.000Z</time>
      </trkpt>
      <trkpt lat="47.56401" lon="-2.25798">
        <ele>48.400001525879</ele>
        <time>2021-07-25T08:30:53.000Z</time>
      </trkpt>
      <trkpt lat="47.56398" lon="-2.25799">
        <ele>48.799999237061</ele>
        <time>2021-07-25T08:30:54.000Z</time>
      </trkpt>
      <trkpt lat="47.56396" lon="-2.258">
        <ele>49.200000762939</ele>
        <time>2021-07-25T08:30:55.000Z</time>
      </trkpt>
      <trkpt lat="47.56393" lon="-2.25801">
        <ele>49.599998474121</ele>
        <time>2021-07-25T08:30:56.000Z</time>
      </trkpt>
      <trkpt lat="47.5639" lon="-2.25802">
        <ele>50</ele>
        <time>2021-07-25T08:30:57.000Z</time>
      </trkpt>
      <trkpt lat="47.56377" lon="-2.25806">
        <ele>50</ele>
        <time>2021-07-25T08:31:02.000Z</time>
      </trkpt>
      <trkpt lat="47.56369" lon="-2.25808">
        <ele>50.400001525879</ele>
        <time>2021-07-25T08:31:06.000Z</time>
      </trkpt>
      <trkpt lat="47.56366" lon="-2.25808">
        <ele>51</ele>
        <time>2021-07-25T08:31:07.000Z</time>
      </trkpt>
      <trkpt lat="47.56364" lon="-2.25808">
        <ele>51.400001525879</ele>
        <time>2021-07-25T08:31:08.000Z</time>
      </trkpt>
      <trkpt lat="47.56362" lon="-2.25808">
        <ele>51.799999237061</ele>
        <time>2021-07-25T08:31:09.000Z</time>
      </trkpt>
      <trkpt lat="47.5636" lon="-2.25809">
        <ele>52.200000762939</ele>
        <time>2021-07-25T08:31:10.000Z</time>
      </trkpt>
      <trkpt lat="47.56351" lon="-2.25811">
        <ele>52.599998474121</ele>
        <time>2021-07-25T08:31:14.000Z</time>
      </trkpt>
      <trkpt lat="47.56348" lon="-2.25811">
        <ele>53</ele>
        <time>2021-07-25T08:31:15.000Z</time>
      </trkpt>
      <trkpt lat="47.56346" lon="-2.25812">
        <ele>53.400001525879</ele>
        <time>2021-07-25T08:31:16.000Z</time>
      </trkpt>
      <trkpt lat="47.56343" lon="-2.25812">
        <ele>54</ele>
        <time>2021-07-25T08:31:17.000Z</time>
      </trkpt>
      <trkpt lat="47.56341" lon="-2.25813">
        <ele>54.400001525879</ele>
        <time>2021-07-25T08:31:18.000Z</time>
      </trkpt>
      <trkpt lat="47.56333" lon="-2.25814">
        <ele>54.400001525879</ele>
        <time>2021-07-25T08:31:22.000Z</time>
      </trkpt>
      <trkpt lat="47.56324" lon="-2.25816">
        <ele>54.799999237061</ele>
        <time>2021-07-25T08:31:28.000Z</time>
      </trkpt>
      <trkpt lat="47.56323" lon="-2.25816">
        <ele>56.400001525879</ele>
        <time>2021-07-25T08:31:34.000Z</time>
      </trkpt>
      <trkpt lat="47.56316" lon="-2.25817">
        <ele>56.400001525879</ele>
        <time>2021-07-25T08:31:37.000Z</time>
      </trkpt>
      <trkpt lat="47.56304" lon="-2.25819">
        <ele>56.400001525879</ele>
        <time>2021-07-25T08:31:43.000Z</time>
      </trkpt>
      <trkpt lat="47.56292" lon="-2.2582">
        <ele>56.400001525879</ele>
        <time>2021-07-25T08:31:49.000Z</time>
      </trkpt>
      <trkpt lat="47.56286" lon="-2.2582">
        <ele>56.400001525879</ele>
        <time>2021-07-25T08:31:55.000Z</time>
      </trkpt>
      <trkpt lat="47.56273" lon="-2.25824">
        <ele>56.400001525879</ele>
        <time>2021-07-25T08:32:02.000Z</time>
      </trkpt>
      <trkpt lat="47.5625" lon="-2.25827">
        <ele>56.400001525879</ele>
        <time>2021-07-25T08:32:09.000Z</time>
      </trkpt>
      <trkpt lat="47.56237" lon="-2.25829">
        <ele>56.799999237061</ele>
        <time>2021-07-25T08:32:13.000Z</time>
      </trkpt>
      <trkpt lat="47.56235" lon="-2.25829">
        <ele>57.200000762939</ele>
        <time>2021-07-25T08:32:14.000Z</time>
      </trkpt>
      <trkpt lat="47.56232" lon="-2.2583">
        <ele>57.599998474121</ele>
        <time>2021-07-25T08:32:15.000Z</time>
      </trkpt>
      <trkpt lat="47.5623" lon="-2.2583">
        <ele>58</ele>
        <time>2021-07-25T08:32:16.000Z</time>
      </trkpt>
      <trkpt lat="47.56228" lon="-2.25831">
        <ele>58.400001525879</ele>
        <time>2021-07-25T08:32:17.000Z</time>
      </trkpt>
      <trkpt lat="47.56215" lon="-2.25837">
        <ele>58.400001525879</ele>
        <time>2021-07-25T08:32:23.000Z</time>
      </trkpt>
      <trkpt lat="47.56199" lon="-2.25845">
        <ele>58.799999237061</ele>
        <time>2021-07-25T08:32:30.000Z</time>
      </trkpt>
      <trkpt lat="47.56197" lon="-2.25846">
        <ele>59.200000762939</ele>
        <time>2021-07-25T08:32:31.000Z</time>
      </trkpt>
      <trkpt lat="47.56195" lon="-2.25847">
        <ele>59.799999237061</ele>
        <time>2021-07-25T08:32:32.000Z</time>
      </trkpt>
      <trkpt lat="47.56192" lon="-2.25847">
        <ele>60.200000762939</ele>
        <time>2021-07-25T08:32:33.000Z</time>
      </trkpt>
      <trkpt lat="47.5619" lon="-2.25848">
        <ele>60.599998474121</ele>
        <time>2021-07-25T08:32:34.000Z</time>
      </trkpt>
      <trkpt lat="47.5618" lon="-2.25853">
        <ele>60.599998474121</ele>
        <time>2021-07-25T08:32:38.000Z</time>
      </trkpt>
      <trkpt lat="47.56161" lon="-2.2586">
        <ele>61</ele>
        <time>2021-07-25T08:32:45.000Z</time>
      </trkpt>
      <trkpt lat="47.56159" lon="-2.2586">
        <ele>61.400001525879</ele>
        <time>2021-07-25T08:32:46.000Z</time>
      </trkpt>
      <trkpt lat="47.56157" lon="-2.2586">
        <ele>61.799999237061</ele>
        <time>2021-07-25T08:32:47.000Z</time>
      </trkpt>
      <trkpt lat="47.56154" lon="-2.2586">
        <ele>62.200000762939</ele>
        <time>2021-07-25T08:32:48.000Z</time>
      </trkpt>
      <trkpt lat="47.56152" lon="-2.2586">
        <ele>62.599998474121</ele>
        <time>2021-07-25T08:32:49.000Z</time>
      </trkpt>
      <trkpt lat="47.56139" lon="-2.25862">
        <ele>62.599998474121</ele>
        <time>2021-07-25T08:32:54.000Z</time>
      </trkpt>
      <trkpt lat="47.56131" lon="-2.25863">
        <ele>62.599998474121</ele>
        <time>2021-07-25T08:32:57.000Z</time>
      </trkpt>
      <trkpt lat="47.56124" lon="-2.25864">
        <ele>63</ele>
        <time>2021-07-25T08:33:00.000Z</time>
      </trkpt>
      <trkpt lat="47.56122" lon="-2.25863">
        <ele>63.400001525879</ele>
        <time>2021-07-25T08:33:01.000Z</time>
      </trkpt>
      <trkpt lat="47.5612" lon="-2.25864">
        <ele>63.799999237061</ele>
        <time>2021-07-25T08:33:02.000Z</time>
      </trkpt>
      <trkpt lat="47.56118" lon="-2.25864">
        <ele>64.199996948242</ele>
        <time>2021-07-25T08:33:03.000Z</time>
      </trkpt>
      <trkpt lat="47.56116" lon="-2.25865">
        <ele>64.599998474121</ele>
        <time>2021-07-25T08:33:04.000Z</time>
      </trkpt>
      <trkpt lat="47.56111" lon="-2.25871">
        <ele>64.599998474121</ele>
        <time>2021-07-25T08:33:07.000Z</time>
      </trkpt>
      <trkpt lat="47.56111" lon="-2.25882">
        <ele>64.599998474121</ele>
        <time>2021-07-25T08:33:11.000Z</time>
      </trkpt>
      <trkpt lat="47.56111" lon="-2.25901">
        <ele>64.599998474121</ele>
        <time>2021-07-25T08:33:17.000Z</time>
      </trkpt>
      <trkpt lat="47.56111" lon="-2.25907">
        <ele>64.599998474121</ele>
        <time>2021-07-25T08:33:21.000Z</time>
      </trkpt>
      <trkpt lat="47.56113" lon="-2.25913">
        <ele>64.599998474121</ele>
        <time>2021-07-25T08:33:37.000Z</time>
      </trkpt>
      <trkpt lat="47.56114" lon="-2.25924">
        <ele>65</ele>
        <time>2021-07-25T08:33:41.000Z</time>
      </trkpt>
      <trkpt lat="47.56113" lon="-2.25926">
        <ele>65.400001525879</ele>
        <time>2021-07-25T08:33:42.000Z</time>
      </trkpt>
      <trkpt lat="47.56113" lon="-2.25929">
        <ele>65.800003051758</ele>
        <time>2021-07-25T08:33:43.000Z</time>
      </trkpt>
      <trkpt lat="47.56113" lon="-2.25931">
        <ele>66.199996948242</ele>
        <time>2021-07-25T08:33:44.000Z</time>
      </trkpt>
      <trkpt lat="47.56114" lon="-2.25934">
        <ele>66.599998474121</ele>
        <time>2021-07-25T08:33:45.000Z</time>
      </trkpt>
      <trkpt lat="47.56116" lon="-2.25937">
        <ele>66.599998474121</ele>
        <time>2021-07-25T08:33:46.000Z</time>
      </trkpt>
      <trkpt lat="47.56118" lon="-2.25943">
        <ele>66.599998474121</ele>
        <time>2021-07-25T08:33:48.000Z</time>
      </trkpt>
      <trkpt lat="47.56118" lon="-2.25947">
        <ele>66.599998474121</ele>
        <time>2021-07-25T08:33:49.000Z</time>
      </trkpt>
      <trkpt lat="47.56116" lon="-2.25951">
        <ele>66.599998474121</ele>
        <time>2021-07-25T08:33:51.000Z</time>
      </trkpt>
      <trkpt lat="47.56112" lon="-2.25955">
        <ele>66.599998474121</ele>
        <time>2021-07-25T08:33:53.000Z</time>
      </trkpt>
      <trkpt lat="47.56104" lon="-2.25961">
        <ele>66.599998474121</ele>
        <time>2021-07-25T08:33:56.000Z</time>
      </trkpt>
      <trkpt lat="47.56094" lon="-2.25967">
        <ele>67.400001525879</ele>
        <time>2021-07-25T08:33:59.000Z</time>
      </trkpt>
      <trkpt lat="47.5609" lon="-2.25969">
        <ele>67.800003051758</ele>
        <time>2021-07-25T08:34:00.000Z</time>
      </trkpt>
      <trkpt lat="47.56086" lon="-2.25971">
        <ele>68.199996948242</ele>
        <time>2021-07-25T08:34:01.000Z</time>
      </trkpt>
      <trkpt lat="47.56082" lon="-2.25972">
        <ele>68.800003051758</ele>
        <time>2021-07-25T08:34:02.000Z</time>
      </trkpt>
      <trkpt lat="47.56075" lon="-2.25976">
        <ele>68.800003051758</ele>
        <time>2021-07-25T08:34:04.000Z</time>
      </trkpt>
      <trkpt lat="47.56054" lon="-2.25988">
        <ele>68.800003051758</ele>
        <time>2021-07-25T08:34:10.000Z</time>
      </trkpt>
      <trkpt lat="47.56036" lon="-2.26001">
        <ele>68.800003051758</ele>
        <time>2021-07-25T08:34:17.000Z</time>
      </trkpt>
      <trkpt lat="47.56019" lon="-2.26011">
        <ele>68.800003051758</ele>
        <time>2021-07-25T08:34:23.000Z</time>
      </trkpt>
      <trkpt lat="47.56011" lon="-2.26015">
        <ele>69.199996948242</ele>
        <time>2021-07-25T08:34:26.000Z</time>
      </trkpt>
      <trkpt lat="47.56009" lon="-2.26017">
        <ele>69.599998474121</ele>
        <time>2021-07-25T08:34:27.000Z</time>
      </trkpt>
      <trkpt lat="47.56007" lon="-2.2602">
        <ele>70</ele>
        <time>2021-07-25T08:34:28.000Z</time>
      </trkpt>
      <trkpt lat="47.56005" lon="-2.26023">
        <ele>70.400001525879</ele>
        <time>2021-07-25T08:34:29.000Z</time>
      </trkpt>
      <trkpt lat="47.56004" lon="-2.26027">
        <ele>70.800003051758</ele>
        <time>2021-07-25T08:34:30.000Z</time>
      </trkpt>
      <trkpt lat="47.56005" lon="-2.26044">
        <ele>70.800003051758</ele>
        <time>2021-07-25T08:34:36.000Z</time>
      </trkpt>
      <trkpt lat="47.56009" lon="-2.26061">
        <ele>70.800003051758</ele>
        <time>2021-07-25T08:34:42.000Z</time>
      </trkpt>
      <trkpt lat="47.56015" lon="-2.2609">
        <ele>70.800003051758</ele>
        <time>2021-07-25T08:34:49.000Z</time>
      </trkpt>
      <trkpt lat="47.56023" lon="-2.26121">
        <ele>70.800003051758</ele>
        <time>2021-07-25T08:34:55.000Z</time>
      </trkpt>
      <trkpt lat="47.56025" lon="-2.26136">
        <ele>70.800003051758</ele>
        <time>2021-07-25T08:34:58.000Z</time>
      </trkpt>
      <trkpt lat="47.56023" lon="-2.26139">
        <ele>70.800003051758</ele>
        <time>2021-07-25T08:34:59.000Z</time>
      </trkpt>
      <trkpt lat="47.56015" lon="-2.26148">
        <ele>70.800003051758</ele>
        <time>2021-07-25T08:35:02.000Z</time>
      </trkpt>
      <trkpt lat="47.5601" lon="-2.26157">
        <ele>70.800003051758</ele>
        <time>2021-07-25T08:35:04.000Z</time>
      </trkpt>
      <trkpt lat="47.56007" lon="-2.26163">
        <ele>70.800003051758</ele>
        <time>2021-07-25T08:35:05.000Z</time>
      </trkpt>
      <trkpt lat="47.5599" lon="-2.26202">
        <ele>70.800003051758</ele>
        <time>2021-07-25T08:35:11.000Z</time>
      </trkpt>
      <trkpt lat="47.5598" lon="-2.26242">
        <ele>70.800003051758</ele>
        <time>2021-07-25T08:35:17.000Z</time>
      </trkpt>
      <trkpt lat="47.55971" lon="-2.26273">
        <ele>70.800003051758</ele>
        <time>2021-07-25T08:35:22.000Z</time>
      </trkpt>
      <trkpt lat="47.55956" lon="-2.26308">
        <ele>70.800003051758</ele>
        <time>2021-07-25T08:35:28.000Z</time>
      </trkpt>
      <trkpt lat="47.55947" lon="-2.26326">
        <ele>70.800003051758</ele>
        <time>2021-07-25T08:35:31.000Z</time>
      </trkpt>
      <trkpt lat="47.55941" lon="-2.26337">
        <ele>70.800003051758</ele>
        <time>2021-07-25T08:35:33.000Z</time>
      </trkpt>
      <trkpt lat="47.5594" lon="-2.26354">
        <ele>70.800003051758</ele>
        <time>2021-07-25T08:35:36.000Z</time>
      </trkpt>
      <trkpt lat="47.55947" lon="-2.2637">
        <ele>70.800003051758</ele>
        <time>2021-07-25T08:35:39.000Z</time>
      </trkpt>
      <trkpt lat="47.55949" lon="-2.26376">
        <ele>70.800003051758</ele>
        <time>2021-07-25T08:35:40.000Z</time>
      </trkpt>
      <trkpt lat="47.55965" lon="-2.26407">
        <ele>70.800003051758</ele>
        <time>2021-07-25T08:35:46.000Z</time>
      </trkpt>
      <trkpt lat="47.55977" lon="-2.26432">
        <ele>70.800003051758</ele>
        <time>2021-07-25T08:35:51.000Z</time>
      </trkpt>
      <trkpt lat="47.5599" lon="-2.26457">
        <ele>70.800003051758</ele>
        <time>2021-07-25T08:35:57.000Z</time>
      </trkpt>
      <trkpt lat="47.55991" lon="-2.26461">
        <ele>70.800003051758</ele>
        <time>2021-07-25T08:36:01.000Z</time>
      </trkpt>
      <trkpt lat="47.55986" lon="-2.26476">
        <ele>70.800003051758</ele>
        <time>2021-07-25T08:36:04.000Z</time>
      </trkpt>
      <trkpt lat="47.55985" lon="-2.26496">
        <ele>70.800003051758</ele>
        <time>2021-07-25T08:36:08.000Z</time>
      </trkpt>
      <trkpt lat="47.55986" lon="-2.265">
        <ele>70.800003051758</ele>
        <time>2021-07-25T08:36:09.000Z</time>
      </trkpt>
      <trkpt lat="47.5599" lon="-2.26516">
        <ele>70.800003051758</ele>
        <time>2021-07-25T08:36:13.000Z</time>
      </trkpt>
      <trkpt lat="47.55999" lon="-2.26534">
        <ele>70.800003051758</ele>
        <time>2021-07-25T08:36:19.000Z</time>
      </trkpt>
      <trkpt lat="47.56004" lon="-2.26547">
        <ele>70.800003051758</ele>
        <time>2021-07-25T08:36:24.000Z</time>
      </trkpt>
      <trkpt lat="47.56006" lon="-2.26559">
        <ele>70.800003051758</ele>
        <time>2021-07-25T08:36:28.000Z</time>
      </trkpt>
      <trkpt lat="47.56008" lon="-2.26562">
        <ele>70.800003051758</ele>
        <time>2021-07-25T08:36:29.000Z</time>
      </trkpt>
      <trkpt lat="47.56013" lon="-2.26576">
        <ele>70.800003051758</ele>
        <time>2021-07-25T08:36:33.000Z</time>
      </trkpt>
      <trkpt lat="47.56014" lon="-2.26583">
        <ele>70.800003051758</ele>
        <time>2021-07-25T08:36:35.000Z</time>
      </trkpt>
      <trkpt lat="47.56014" lon="-2.26589">
        <ele>70.800003051758</ele>
        <time>2021-07-25T08:36:37.000Z</time>
      </trkpt>
      <trkpt lat="47.56011" lon="-2.26595">
        <ele>70.800003051758</ele>
        <time>2021-07-25T08:36:39.000Z</time>
      </trkpt>
      <trkpt lat="47.56003" lon="-2.26603">
        <ele>70.800003051758</ele>
        <time>2021-07-25T08:36:42.000Z</time>
      </trkpt>
      <trkpt lat="47.55992" lon="-2.26613">
        <ele>70.800003051758</ele>
        <time>2021-07-25T08:36:47.000Z</time>
      </trkpt>
      <trkpt lat="47.55979" lon="-2.26622">
        <ele>70.800003051758</ele>
        <time>2021-07-25T08:36:52.000Z</time>
      </trkpt>
      <trkpt lat="47.55972" lon="-2.26627">
        <ele>70.400001525879</ele>
        <time>2021-07-25T08:36:54.000Z</time>
      </trkpt>
      <trkpt lat="47.55969" lon="-2.26628">
        <ele>70</ele>
        <time>2021-07-25T08:36:55.000Z</time>
      </trkpt>
      <trkpt lat="47.55967" lon="-2.26628">
        <ele>69.599998474121</ele>
        <time>2021-07-25T08:36:56.000Z</time>
      </trkpt>
      <trkpt lat="47.55965" lon="-2.26629">
        <ele>69.199996948242</ele>
        <time>2021-07-25T08:36:57.000Z</time>
      </trkpt>
      <trkpt lat="47.55963" lon="-2.26629">
        <ele>68.800003051758</ele>
        <time>2021-07-25T08:36:58.000Z</time>
      </trkpt>
      <trkpt lat="47.5596" lon="-2.2663">
        <ele>68.800003051758</ele>
        <time>2021-07-25T08:36:59.000Z</time>
      </trkpt>
      <trkpt lat="47.55956" lon="-2.26631">
        <ele>68.800003051758</ele>
        <time>2021-07-25T08:37:01.000Z</time>
      </trkpt>
      <trkpt lat="47.5595" lon="-2.26634">
        <ele>68.800003051758</ele>
        <time>2021-07-25T08:37:03.000Z</time>
      </trkpt>
      <trkpt lat="47.55937" lon="-2.26644">
        <ele>68.800003051758</ele>
        <time>2021-07-25T08:37:06.000Z</time>
      </trkpt>
      <trkpt lat="47.55909" lon="-2.26666">
        <ele>68.800003051758</ele>
        <time>2021-07-25T08:37:12.000Z</time>
      </trkpt>
      <trkpt lat="47.55906" lon="-2.26667">
        <ele>68.400001525879</ele>
        <time>2021-07-25T08:37:13.000Z</time>
      </trkpt>
      <trkpt lat="47.55903" lon="-2.26668">
        <ele>68</ele>
        <time>2021-07-25T08:37:14.000Z</time>
      </trkpt>
      <trkpt lat="47.55902" lon="-2.26668">
        <ele>67.599998474121</ele>
        <time>2021-07-25T08:37:15.000Z</time>
      </trkpt>
      <trkpt lat="47.55902" lon="-2.26668">
        <ele>67.199996948242</ele>
        <time>2021-07-25T08:37:16.000Z</time>
      </trkpt>
      <trkpt lat="47.55902" lon="-2.26668">
        <ele>66.800003051758</ele>
        <time>2021-07-25T08:37:17.000Z</time>
      </trkpt>
      <trkpt lat="47.559" lon="-2.26666">
        <ele>66.800003051758</ele>
        <time>2021-07-25T08:37:32.000Z</time>
      </trkpt>
      <trkpt lat="47.55899" lon="-2.26661">
        <ele>66.800003051758</ele>
        <time>2021-07-25T08:37:34.000Z</time>
      </trkpt>
      <trkpt lat="47.5589" lon="-2.26642">
        <ele>66.800003051758</ele>
        <time>2021-07-25T08:37:38.000Z</time>
      </trkpt>
      <trkpt lat="47.55887" lon="-2.26636">
        <ele>66.800003051758</ele>
        <time>2021-07-25T08:37:39.000Z</time>
      </trkpt>
      <trkpt lat="47.55881" lon="-2.2662">
        <ele>66.800003051758</ele>
        <time>2021-07-25T08:37:42.000Z</time>
      </trkpt>
      <trkpt lat="47.55875" lon="-2.26602">
        <ele>66.800003051758</ele>
        <time>2021-07-25T08:37:45.000Z</time>
      </trkpt>
      <trkpt lat="47.55868" lon="-2.26579">
        <ele>66.800003051758</ele>
        <time>2021-07-25T08:37:49.000Z</time>
      </trkpt>
      <trkpt lat="47.55865" lon="-2.26577">
        <ele>66.800003051758</ele>
        <time>2021-07-25T08:37:50.000Z</time>
      </trkpt>
      <trkpt lat="47.55862" lon="-2.26577">
        <ele>66.800003051758</ele>
        <time>2021-07-25T08:37:51.000Z</time>
      </trkpt>
      <trkpt lat="47.55849" lon="-2.26585">
        <ele>66.800003051758</ele>
        <time>2021-07-25T08:37:55.000Z</time>
      </trkpt>
      <trkpt lat="47.55839" lon="-2.26595">
        <ele>66.400001525879</ele>
        <time>2021-07-25T08:37:58.000Z</time>
      </trkpt>
      <trkpt lat="47.55836" lon="-2.266">
        <ele>66</ele>
        <time>2021-07-25T08:37:59.000Z</time>
      </trkpt>
      <trkpt lat="47.55833" lon="-2.26604">
        <ele>65.400001525879</ele>
        <time>2021-07-25T08:38:00.000Z</time>
      </trkpt>
      <trkpt lat="47.5583" lon="-2.26609">
        <ele>65</ele>
        <time>2021-07-25T08:38:01.000Z</time>
      </trkpt>
      <trkpt lat="47.55826" lon="-2.26613">
        <ele>64.599998474121</ele>
        <time>2021-07-25T08:38:02.000Z</time>
      </trkpt>
      <trkpt lat="47.55819" lon="-2.26617">
        <ele>64.599998474121</ele>
        <time>2021-07-25T08:38:04.000Z</time>
      </trkpt>
      <trkpt lat="47.55798" lon="-2.26632">
        <ele>64.599998474121</ele>
        <time>2021-07-25T08:38:10.000Z</time>
      </trkpt>
      <trkpt lat="47.55778" lon="-2.26647">
        <ele>64.599998474121</ele>
        <time>2021-07-25T08:38:16.000Z</time>
      </trkpt>
      <trkpt lat="47.55764" lon="-2.26651">
        <ele>64.199996948242</ele>
        <time>2021-07-25T08:38:20.000Z</time>
      </trkpt>
      <trkpt lat="47.55761" lon="-2.2665">
        <ele>63.799999237061</ele>
        <time>2021-07-25T08:38:21.000Z</time>
      </trkpt>
      <trkpt lat="47.55758" lon="-2.26647">
        <ele>63.400001525879</ele>
        <time>2021-07-25T08:38:22.000Z</time>
      </trkpt>
      <trkpt lat="47.55756" lon="-2.26644">
        <ele>62.799999237061</ele>
        <time>2021-07-25T08:38:23.000Z</time>
      </trkpt>
      <trkpt lat="47.55754" lon="-2.26641">
        <ele>62.400001525879</ele>
        <time>2021-07-25T08:38:24.000Z</time>
      </trkpt>
      <trkpt lat="47.55752" lon="-2.26639">
        <ele>62.400001525879</ele>
        <time>2021-07-25T08:38:25.000Z</time>
      </trkpt>
      <trkpt lat="47.55748" lon="-2.26634">
        <ele>62.400001525879</ele>
        <time>2021-07-25T08:38:29.000Z</time>
      </trkpt>
      <trkpt lat="47.55745" lon="-2.26632">
        <ele>62.400001525879</ele>
        <time>2021-07-25T08:38:31.000Z</time>
      </trkpt>
      <trkpt lat="47.55736" lon="-2.26633">
        <ele>62.400001525879</ele>
        <time>2021-07-25T08:38:34.000Z</time>
      </trkpt>
      <trkpt lat="47.55718" lon="-2.2664">
        <ele>62.400001525879</ele>
        <time>2021-07-25T08:38:40.000Z</time>
      </trkpt>
      <trkpt lat="47.55706" lon="-2.26648">
        <ele>62.400001525879</ele>
        <time>2021-07-25T08:38:43.000Z</time>
      </trkpt>
      <trkpt lat="47.55697" lon="-2.26652">
        <ele>62.400001525879</ele>
        <time>2021-07-25T08:38:45.000Z</time>
      </trkpt>
      <trkpt lat="47.5569" lon="-2.26657">
        <ele>62.400001525879</ele>
        <time>2021-07-25T08:38:47.000Z</time>
      </trkpt>
      <trkpt lat="47.5568" lon="-2.26664">
        <ele>62.400001525879</ele>
        <time>2021-07-25T08:38:50.000Z</time>
      </trkpt>
      <trkpt lat="47.55664" lon="-2.26664">
        <ele>62.400001525879</ele>
        <time>2021-07-25T08:38:54.000Z</time>
      </trkpt>
      <trkpt lat="47.55654" lon="-2.26661">
        <ele>62.400001525879</ele>
        <time>2021-07-25T08:38:56.000Z</time>
      </trkpt>
      <trkpt lat="47.55647" lon="-2.26652">
        <ele>62.400001525879</ele>
        <time>2021-07-25T08:38:58.000Z</time>
      </trkpt>
      <trkpt lat="47.55635" lon="-2.26637">
        <ele>62.400001525879</ele>
        <time>2021-07-25T08:39:02.000Z</time>
      </trkpt>
      <trkpt lat="47.55619" lon="-2.26641">
        <ele>62.400001525879</ele>
        <time>2021-07-25T08:39:06.000Z</time>
      </trkpt>
      <trkpt lat="47.55586" lon="-2.26657">
        <ele>62.400001525879</ele>
        <time>2021-07-25T08:39:12.000Z</time>
      </trkpt>
      <trkpt lat="47.55546" lon="-2.26676">
        <ele>61.599998474121</ele>
        <time>2021-07-25T08:39:19.000Z</time>
      </trkpt>
      <trkpt lat="47.55541" lon="-2.26679">
        <ele>61.200000762939</ele>
        <time>2021-07-25T08:39:20.000Z</time>
      </trkpt>
      <trkpt lat="47.55535" lon="-2.26683">
        <ele>60.799999237061</ele>
        <time>2021-07-25T08:39:21.000Z</time>
      </trkpt>
      <trkpt lat="47.55529" lon="-2.26686">
        <ele>60.400001525879</ele>
        <time>2021-07-25T08:39:22.000Z</time>
      </trkpt>
      <trkpt lat="47.55497" lon="-2.26704">
        <ele>60</ele>
        <time>2021-07-25T08:39:28.000Z</time>
      </trkpt>
      <trkpt lat="47.55492" lon="-2.26706">
        <ele>59.599998474121</ele>
        <time>2021-07-25T08:39:29.000Z</time>
      </trkpt>
      <trkpt lat="47.55487" lon="-2.26709">
        <ele>59.200000762939</ele>
        <time>2021-07-25T08:39:30.000Z</time>
      </trkpt>
      <trkpt lat="47.55481" lon="-2.26712">
        <ele>58.799999237061</ele>
        <time>2021-07-25T08:39:31.000Z</time>
      </trkpt>
      <trkpt lat="47.55476" lon="-2.26715">
        <ele>58.400001525879</ele>
        <time>2021-07-25T08:39:32.000Z</time>
      </trkpt>
      <trkpt lat="47.55454" lon="-2.26727">
        <ele>58.400001525879</ele>
        <time>2021-07-25T08:39:36.000Z</time>
      </trkpt>
      <trkpt lat="47.55438" lon="-2.26733">
        <ele>58.400001525879</ele>
        <time>2021-07-25T08:39:39.000Z</time>
      </trkpt>
      <trkpt lat="47.55429" lon="-2.26737">
        <ele>58.400001525879</ele>
        <time>2021-07-25T08:39:41.000Z</time>
      </trkpt>
      <trkpt lat="47.55395" lon="-2.26754">
        <ele>58.400001525879</ele>
        <time>2021-07-25T08:39:49.000Z</time>
      </trkpt>
      <trkpt lat="47.55359" lon="-2.26774">
        <ele>58.400001525879</ele>
        <time>2021-07-25T08:39:57.000Z</time>
      </trkpt>
      <trkpt lat="47.55324" lon="-2.26794">
        <ele>58</ele>
        <time>2021-07-25T08:40:05.000Z</time>
      </trkpt>
      <trkpt lat="47.55319" lon="-2.26796">
        <ele>57.599998474121</ele>
        <time>2021-07-25T08:40:06.000Z</time>
      </trkpt>
      <trkpt lat="47.55315" lon="-2.26799">
        <ele>57.200000762939</ele>
        <time>2021-07-25T08:40:07.000Z</time>
      </trkpt>
      <trkpt lat="47.55311" lon="-2.26802">
        <ele>56.799999237061</ele>
        <time>2021-07-25T08:40:08.000Z</time>
      </trkpt>
      <trkpt lat="47.55307" lon="-2.26805">
        <ele>56.400001525879</ele>
        <time>2021-07-25T08:40:09.000Z</time>
      </trkpt>
      <trkpt lat="47.553" lon="-2.26812">
        <ele>56.400001525879</ele>
        <time>2021-07-25T08:40:11.000Z</time>
      </trkpt>
      <trkpt lat="47.55298" lon="-2.26819">
        <ele>56.400001525879</ele>
        <time>2021-07-25T08:40:12.000Z</time>
      </trkpt>
      <trkpt lat="47.55299" lon="-2.26842">
        <ele>56.400001525879</ele>
        <time>2021-07-25T08:40:15.000Z</time>
      </trkpt>
      <trkpt lat="47.553" lon="-2.2685">
        <ele>55.799999237061</ele>
        <time>2021-07-25T08:40:16.000Z</time>
      </trkpt>
      <trkpt lat="47.55301" lon="-2.26859">
        <ele>55.400001525879</ele>
        <time>2021-07-25T08:40:17.000Z</time>
      </trkpt>
      <trkpt lat="47.55303" lon="-2.26868">
        <ele>55</ele>
        <time>2021-07-25T08:40:18.000Z</time>
      </trkpt>
      <trkpt lat="47.55304" lon="-2.26877">
        <ele>54.599998474121</ele>
        <time>2021-07-25T08:40:19.000Z</time>
      </trkpt>
      <trkpt lat="47.55306" lon="-2.26887">
        <ele>54.200000762939</ele>
        <time>2021-07-25T08:40:20.000Z</time>
      </trkpt>
      <trkpt lat="47.55307" lon="-2.26896">
        <ele>54.200000762939</ele>
        <time>2021-07-25T08:40:21.000Z</time>
      </trkpt>
      <trkpt lat="47.55316" lon="-2.26979">
        <ele>53.599998474121</ele>
        <time>2021-07-25T08:40:29.000Z</time>
      </trkpt>
      <trkpt lat="47.55316" lon="-2.2699">
        <ele>53.200000762939</ele>
        <time>2021-07-25T08:40:30.000Z</time>
      </trkpt>
      <trkpt lat="47.55316" lon="-2.27003">
        <ele>52.599998474121</ele>
        <time>2021-07-25T08:40:31.000Z</time>
      </trkpt>
      <trkpt lat="47.55316" lon="-2.27014">
        <ele>52</ele>
        <time>2021-07-25T08:40:32.000Z</time>
      </trkpt>
      <trkpt lat="47.55315" lon="-2.27024">
        <ele>51</ele>
        <time>2021-07-25T08:40:33.000Z</time>
      </trkpt>
      <trkpt lat="47.55314" lon="-2.27034">
        <ele>50.400001525879</ele>
        <time>2021-07-25T08:40:34.000Z</time>
      </trkpt>
      <trkpt lat="47.55314" lon="-2.27044">
        <ele>50</ele>
        <time>2021-07-25T08:40:35.000Z</time>
      </trkpt>
      <trkpt lat="47.55313" lon="-2.27053">
        <ele>49.400001525879</ele>
        <time>2021-07-25T08:40:36.000Z</time>
      </trkpt>
      <trkpt lat="47.55311" lon="-2.27094">
        <ele>49.400001525879</ele>
        <time>2021-07-25T08:40:41.000Z</time>
      </trkpt>
      <trkpt lat="47.55304" lon="-2.27142">
        <ele>49.400001525879</ele>
        <time>2021-07-25T08:40:47.000Z</time>
      </trkpt>
      <trkpt lat="47.55299" lon="-2.27171">
        <ele>49.400001525879</ele>
        <time>2021-07-25T08:40:51.000Z</time>
      </trkpt>
      <trkpt lat="47.55295" lon="-2.27185">
        <ele>49.400001525879</ele>
        <time>2021-07-25T08:40:53.000Z</time>
      </trkpt>
      <trkpt lat="47.55291" lon="-2.272">
        <ele>49.400001525879</ele>
        <time>2021-07-25T08:40:55.000Z</time>
      </trkpt>
      <trkpt lat="47.55283" lon="-2.2723">
        <ele>49.400001525879</ele>
        <time>2021-07-25T08:40:59.000Z</time>
      </trkpt>
      <trkpt lat="47.55273" lon="-2.27289">
        <ele>49.400001525879</ele>
        <time>2021-07-25T08:41:06.000Z</time>
      </trkpt>
      <trkpt lat="47.55267" lon="-2.2735">
        <ele>49.400001525879</ele>
        <time>2021-07-25T08:41:13.000Z</time>
      </trkpt>
      <trkpt lat="47.55264" lon="-2.27404">
        <ele>49.400001525879</ele>
        <time>2021-07-25T08:41:19.000Z</time>
      </trkpt>
      <trkpt lat="47.55263" lon="-2.27418">
        <ele>49.400001525879</ele>
        <time>2021-07-25T08:41:21.000Z</time>
      </trkpt>
      <trkpt lat="47.55259" lon="-2.27426">
        <ele>49.400001525879</ele>
        <time>2021-07-25T08:41:23.000Z</time>
      </trkpt>
      <trkpt lat="47.55241" lon="-2.27429">
        <ele>49.400001525879</ele>
        <time>2021-07-25T08:41:27.000Z</time>
      </trkpt>
      <trkpt lat="47.55236" lon="-2.27428">
        <ele>49.400001525879</ele>
        <time>2021-07-25T08:41:28.000Z</time>
      </trkpt>
      <trkpt lat="47.55203" lon="-2.27426">
        <ele>49.400001525879</ele>
        <time>2021-07-25T08:41:34.000Z</time>
      </trkpt>
      <trkpt lat="47.5517" lon="-2.27424">
        <ele>49</ele>
        <time>2021-07-25T08:41:39.000Z</time>
      </trkpt>
      <trkpt lat="47.55163" lon="-2.27423">
        <ele>48.599998474121</ele>
        <time>2021-07-25T08:41:40.000Z</time>
      </trkpt>
      <trkpt lat="47.55156" lon="-2.27423">
        <ele>48.200000762939</ele>
        <time>2021-07-25T08:41:41.000Z</time>
      </trkpt>
      <trkpt lat="47.5515" lon="-2.27422">
        <ele>47.799999237061</ele>
        <time>2021-07-25T08:41:42.000Z</time>
      </trkpt>
      <trkpt lat="47.55143" lon="-2.27422">
        <ele>47.400001525879</ele>
        <time>2021-07-25T08:41:43.000Z</time>
      </trkpt>
      <trkpt lat="47.55098" lon="-2.27418">
        <ele>47.400001525879</ele>
        <time>2021-07-25T08:41:50.000Z</time>
      </trkpt>
      <trkpt lat="47.55092" lon="-2.27418">
        <ele>47.400001525879</ele>
        <time>2021-07-25T08:41:51.000Z</time>
      </trkpt>
      <trkpt lat="47.55052" lon="-2.27415">
        <ele>47.400001525879</ele>
        <time>2021-07-25T08:41:58.000Z</time>
      </trkpt>
      <trkpt lat="47.55013" lon="-2.27413">
        <ele>47</ele>
        <time>2021-07-25T08:42:05.000Z</time>
      </trkpt>
      <trkpt lat="47.55006" lon="-2.27413">
        <ele>46.599998474121</ele>
        <time>2021-07-25T08:42:06.000Z</time>
      </trkpt>
      <trkpt lat="47.54999" lon="-2.27412">
        <ele>46.200000762939</ele>
        <time>2021-07-25T08:42:07.000Z</time>
      </trkpt>
      <trkpt lat="47.54992" lon="-2.27411">
        <ele>45.599998474121</ele>
        <time>2021-07-25T08:42:08.000Z</time>
      </trkpt>
      <trkpt lat="47.54984" lon="-2.2741">
        <ele>44.799999237061</ele>
        <time>2021-07-25T08:42:09.000Z</time>
      </trkpt>
      <trkpt lat="47.54976" lon="-2.27408">
        <ele>44</ele>
        <time>2021-07-25T08:42:10.000Z</time>
      </trkpt>
      <trkpt lat="47.54969" lon="-2.27408">
        <ele>43.200000762939</ele>
        <time>2021-07-25T08:42:11.000Z</time>
      </trkpt>
      <trkpt lat="47.54964" lon="-2.27407">
        <ele>41.400001525879</ele>
        <time>2021-07-25T08:42:12.000Z</time>
      </trkpt>
      <trkpt lat="47.54959" lon="-2.27406">
        <ele>40.599998474121</ele>
        <time>2021-07-25T08:42:13.000Z</time>
      </trkpt>
      <trkpt lat="47.54948" lon="-2.27403">
        <ele>40.599998474121</ele>
        <time>2021-07-25T08:42:17.000Z</time>
      </trkpt>
      <trkpt lat="47.54944" lon="-2.27402">
        <ele>41</ele>
        <time>2021-07-25T08:42:19.000Z</time>
      </trkpt>
      <trkpt lat="47.54942" lon="-2.27401">
        <ele>41.400001525879</ele>
        <time>2021-07-25T08:42:20.000Z</time>
      </trkpt>
      <trkpt lat="47.5494" lon="-2.27402">
        <ele>41.799999237061</ele>
        <time>2021-07-25T08:42:21.000Z</time>
      </trkpt>
      <trkpt lat="47.54938" lon="-2.27402">
        <ele>42.200000762939</ele>
        <time>2021-07-25T08:42:22.000Z</time>
      </trkpt>
      <trkpt lat="47.54936" lon="-2.27401">
        <ele>42.599998474121</ele>
        <time>2021-07-25T08:42:23.000Z</time>
      </trkpt>
      <trkpt lat="47.54934" lon="-2.27402">
        <ele>43.200000762939</ele>
        <time>2021-07-25T08:42:24.000Z</time>
      </trkpt>
      <trkpt lat="47.54932" lon="-2.27402">
        <ele>43.799999237061</ele>
        <time>2021-07-25T08:42:25.000Z</time>
      </trkpt>
      <trkpt lat="47.54931" lon="-2.27402">
        <ele>44.200000762939</ele>
        <time>2021-07-25T08:42:26.000Z</time>
      </trkpt>
      <trkpt lat="47.54929" lon="-2.27402">
        <ele>44.799999237061</ele>
        <time>2021-07-25T08:42:27.000Z</time>
      </trkpt>
      <trkpt lat="47.54927" lon="-2.27402">
        <ele>45.200000762939</ele>
        <time>2021-07-25T08:42:28.000Z</time>
      </trkpt>
      <trkpt lat="47.54925" lon="-2.27402">
        <ele>45.599998474121</ele>
        <time>2021-07-25T08:42:29.000Z</time>
      </trkpt>
      <trkpt lat="47.54923" lon="-2.27401">
        <ele>46</ele>
        <time>2021-07-25T08:42:30.000Z</time>
      </trkpt>
      <trkpt lat="47.54921" lon="-2.274">
        <ele>46.400001525879</ele>
        <time>2021-07-25T08:42:31.000Z</time>
      </trkpt>
      <trkpt lat="47.54917" lon="-2.274">
        <ele>46.799999237061</ele>
        <time>2021-07-25T08:42:32.000Z</time>
      </trkpt>
      <trkpt lat="47.54914" lon="-2.274">
        <ele>47.200000762939</ele>
        <time>2021-07-25T08:42:33.000Z</time>
      </trkpt>
      <trkpt lat="47.5491" lon="-2.27401">
        <ele>47.599998474121</ele>
        <time>2021-07-25T08:42:34.000Z</time>
      </trkpt>
      <trkpt lat="47.54907" lon="-2.27401">
        <ele>48</ele>
        <time>2021-07-25T08:42:35.000Z</time>
      </trkpt>
      <trkpt lat="47.54904" lon="-2.27401">
        <ele>48.400001525879</ele>
        <time>2021-07-25T08:42:36.000Z</time>
      </trkpt>
      <trkpt lat="47.54901" lon="-2.27401">
        <ele>48.799999237061</ele>
        <time>2021-07-25T08:42:37.000Z</time>
      </trkpt>
      <trkpt lat="47.54895" lon="-2.274">
        <ele>49.200000762939</ele>
        <time>2021-07-25T08:42:40.000Z</time>
      </trkpt>
      <trkpt lat="47.54894" lon="-2.274">
        <ele>49.599998474121</ele>
        <time>2021-07-25T08:42:41.000Z</time>
      </trkpt>
      <trkpt lat="47.54893" lon="-2.274">
        <ele>50</ele>
        <time>2021-07-25T08:42:42.000Z</time>
      </trkpt>
      <trkpt lat="47.54892" lon="-2.274">
        <ele>50.400001525879</ele>
        <time>2021-07-25T08:42:43.000Z</time>
      </trkpt>
      <trkpt lat="47.54887" lon="-2.274">
        <ele>50.799999237061</ele>
        <time>2021-07-25T08:43:07.000Z</time>
      </trkpt>
      <trkpt lat="47.5488" lon="-2.27401">
        <ele>50.799999237061</ele>
        <time>2021-07-25T08:43:10.000Z</time>
      </trkpt>
      <trkpt lat="47.5486" lon="-2.27399">
        <ele>50.799999237061</ele>
        <time>2021-07-25T08:43:17.000Z</time>
      </trkpt>
      <trkpt lat="47.54841" lon="-2.27397">
        <ele>50.799999237061</ele>
        <time>2021-07-25T08:43:23.000Z</time>
      </trkpt>
      <trkpt lat="47.54821" lon="-2.27384">
        <ele>50.799999237061</ele>
        <time>2021-07-25T08:43:29.000Z</time>
      </trkpt>
      <trkpt lat="47.54812" lon="-2.27368">
        <ele>50.799999237061</ele>
        <time>2021-07-25T08:43:34.000Z</time>
      </trkpt>
      <trkpt lat="47.5481" lon="-2.27361">
        <ele>51.200000762939</ele>
        <time>2021-07-25T08:43:36.000Z</time>
      </trkpt>
      <trkpt lat="47.54809" lon="-2.27358">
        <ele>51.599998474121</ele>
        <time>2021-07-25T08:43:37.000Z</time>
      </trkpt>
      <trkpt lat="47.54808" lon="-2.27354">
        <ele>52</ele>
        <time>2021-07-25T08:43:38.000Z</time>
      </trkpt>
      <trkpt lat="47.54807" lon="-2.27351">
        <ele>52.400001525879</ele>
        <time>2021-07-25T08:43:39.000Z</time>
      </trkpt>
      <trkpt lat="47.54806" lon="-2.27347">
        <ele>52.799999237061</ele>
        <time>2021-07-25T08:43:40.000Z</time>
      </trkpt>
      <trkpt lat="47.54799" lon="-2.27321">
        <ele>52.799999237061</ele>
        <time>2021-07-25T08:43:46.000Z</time>
      </trkpt>
      <trkpt lat="47.5479" lon="-2.27283">
        <ele>52.799999237061</ele>
        <time>2021-07-25T08:43:54.000Z</time>
      </trkpt>
      <trkpt lat="47.5478" lon="-2.27248">
        <ele>52.799999237061</ele>
        <time>2021-07-25T08:44:01.000Z</time>
      </trkpt>
      <trkpt lat="47.54775" lon="-2.27225">
        <ele>52.799999237061</ele>
        <time>2021-07-25T08:44:07.000Z</time>
      </trkpt>
      <trkpt lat="47.54774" lon="-2.27217">
        <ele>53.200000762939</ele>
        <time>2021-07-25T08:44:11.000Z</time>
      </trkpt>
      <trkpt lat="47.54774" lon="-2.27214">
        <ele>53.599998474121</ele>
        <time>2021-07-25T08:44:12.000Z</time>
      </trkpt>
      <trkpt lat="47.54773" lon="-2.27212">
        <ele>54</ele>
        <time>2021-07-25T08:44:13.000Z</time>
      </trkpt>
      <trkpt lat="47.54772" lon="-2.27209">
        <ele>54.400001525879</ele>
        <time>2021-07-25T08:44:14.000Z</time>
      </trkpt>
      <trkpt lat="47.54772" lon="-2.27206">
        <ele>54.799999237061</ele>
        <time>2021-07-25T08:44:15.000Z</time>
      </trkpt>
      <trkpt lat="47.54769" lon="-2.27199">
        <ele>54.799999237061</ele>
        <time>2021-07-25T08:44:17.000Z</time>
      </trkpt>
      <trkpt lat="47.54763" lon="-2.27174">
        <ele>54.799999237061</ele>
        <time>2021-07-25T08:44:23.000Z</time>
      </trkpt>
      <trkpt lat="47.54751" lon="-2.27147">
        <ele>54.799999237061</ele>
        <time>2021-07-25T08:44:29.000Z</time>
      </trkpt>
      <trkpt lat="47.54748" lon="-2.27135">
        <ele>54.799999237061</ele>
        <time>2021-07-25T08:44:31.000Z</time>
      </trkpt>
      <trkpt lat="47.54745" lon="-2.27109">
        <ele>54.799999237061</ele>
        <time>2021-07-25T08:44:35.000Z</time>
      </trkpt>
      <trkpt lat="47.54739" lon="-2.27091">
        <ele>54.799999237061</ele>
        <time>2021-07-25T08:44:39.000Z</time>
      </trkpt>
      <trkpt lat="47.54734" lon="-2.27068">
        <ele>54.799999237061</ele>
        <time>2021-07-25T08:44:43.000Z</time>
      </trkpt>
      <trkpt lat="47.54732" lon="-2.27061">
        <ele>54.799999237061</ele>
        <time>2021-07-25T08:44:44.000Z</time>
      </trkpt>
      <trkpt lat="47.54719" lon="-2.27004">
        <ele>54.799999237061</ele>
        <time>2021-07-25T08:44:52.000Z</time>
      </trkpt>
      <trkpt lat="47.5471" lon="-2.2697">
        <ele>54.799999237061</ele>
        <time>2021-07-25T08:44:57.000Z</time>
      </trkpt>
      <trkpt lat="47.54705" lon="-2.26956">
        <ele>54.799999237061</ele>
        <time>2021-07-25T08:44:59.000Z</time>
      </trkpt>
      <trkpt lat="47.54697" lon="-2.26926">
        <ele>54.799999237061</ele>
        <time>2021-07-25T08:45:03.000Z</time>
      </trkpt>
      <trkpt lat="47.54695" lon="-2.26918">
        <ele>54.799999237061</ele>
        <time>2021-07-25T08:45:04.000Z</time>
      </trkpt>
      <trkpt lat="47.54677" lon="-2.26845">
        <ele>54.799999237061</ele>
        <time>2021-07-25T08:45:13.000Z</time>
      </trkpt>
      <trkpt lat="47.54661" lon="-2.26788">
        <ele>54.799999237061</ele>
        <time>2021-07-25T08:45:20.000Z</time>
      </trkpt>
      <trkpt lat="47.54646" lon="-2.26729">
        <ele>54.799999237061</ele>
        <time>2021-07-25T08:45:27.000Z</time>
      </trkpt>
      <trkpt lat="47.54636" lon="-2.26694">
        <ele>54.799999237061</ele>
        <time>2021-07-25T08:45:31.000Z</time>
      </trkpt>
      <trkpt lat="47.54634" lon="-2.26685">
        <ele>54.799999237061</ele>
        <time>2021-07-25T08:45:32.000Z</time>
      </trkpt>
      <trkpt lat="47.54621" lon="-2.26633">
        <ele>54.799999237061</ele>
        <time>2021-07-25T08:45:38.000Z</time>
      </trkpt>
      <trkpt lat="47.54607" lon="-2.26585">
        <ele>54.799999237061</ele>
        <time>2021-07-25T08:45:44.000Z</time>
      </trkpt>
      <trkpt lat="47.5459" lon="-2.26523">
        <ele>54.799999237061</ele>
        <time>2021-07-25T08:45:52.000Z</time>
      </trkpt>
      <trkpt lat="47.54573" lon="-2.2646">
        <ele>54.799999237061</ele>
        <time>2021-07-25T08:46:00.000Z</time>
      </trkpt>
      <trkpt lat="47.54559" lon="-2.26406">
        <ele>54.799999237061</ele>
        <time>2021-07-25T08:46:07.000Z</time>
      </trkpt>
      <trkpt lat="47.54554" lon="-2.26384">
        <ele>54.400001525879</ele>
        <time>2021-07-25T08:46:10.000Z</time>
      </trkpt>
      <trkpt lat="47.54552" lon="-2.26377">
        <ele>54</ele>
        <time>2021-07-25T08:46:11.000Z</time>
      </trkpt>
      <trkpt lat="47.54551" lon="-2.2637">
        <ele>53.599998474121</ele>
        <time>2021-07-25T08:46:12.000Z</time>
      </trkpt>
      <trkpt lat="47.54548" lon="-2.26364">
        <ele>53.200000762939</ele>
        <time>2021-07-25T08:46:13.000Z</time>
      </trkpt>
      <trkpt lat="47.54545" lon="-2.26361">
        <ele>52.799999237061</ele>
        <time>2021-07-25T08:46:14.000Z</time>
      </trkpt>
      <trkpt lat="47.54537" lon="-2.2636">
        <ele>52.799999237061</ele>
        <time>2021-07-25T08:46:16.000Z</time>
      </trkpt>
      <trkpt lat="47.54529" lon="-2.26366">
        <ele>52.799999237061</ele>
        <time>2021-07-25T08:46:18.000Z</time>
      </trkpt>
      <trkpt lat="47.5452" lon="-2.26374">
        <ele>52.799999237061</ele>
        <time>2021-07-25T08:46:20.000Z</time>
      </trkpt>
      <trkpt lat="47.54482" lon="-2.26406">
        <ele>52.799999237061</ele>
        <time>2021-07-25T08:46:28.000Z</time>
      </trkpt>
      <trkpt lat="47.54429" lon="-2.2645">
        <ele>52.799999237061</ele>
        <time>2021-07-25T08:46:38.000Z</time>
      </trkpt>
      <trkpt lat="47.54387" lon="-2.26483">
        <ele>52.799999237061</ele>
        <time>2021-07-25T08:46:45.000Z</time>
      </trkpt>
      <trkpt lat="47.54374" lon="-2.26492">
        <ele>52.400001525879</ele>
        <time>2021-07-25T08:46:47.000Z</time>
      </trkpt>
      <trkpt lat="47.54368" lon="-2.26498">
        <ele>52</ele>
        <time>2021-07-25T08:46:48.000Z</time>
      </trkpt>
      <trkpt lat="47.54362" lon="-2.26504">
        <ele>51.599998474121</ele>
        <time>2021-07-25T08:46:49.000Z</time>
      </trkpt>
      <trkpt lat="47.54356" lon="-2.2651">
        <ele>51.200000762939</ele>
        <time>2021-07-25T08:46:50.000Z</time>
      </trkpt>
      <trkpt lat="47.5435" lon="-2.26515">
        <ele>50.799999237061</ele>
        <time>2021-07-25T08:46:51.000Z</time>
      </trkpt>
      <trkpt lat="47.54303" lon="-2.26554">
        <ele>50.799999237061</ele>
        <time>2021-07-25T08:46:58.000Z</time>
      </trkpt>
      <trkpt lat="47.54278" lon="-2.26575">
        <ele>50.400001525879</ele>
        <time>2021-07-25T08:47:03.000Z</time>
      </trkpt>
      <trkpt lat="47.54273" lon="-2.26579">
        <ele>49.799999237061</ele>
        <time>2021-07-25T08:47:04.000Z</time>
      </trkpt>
      <trkpt lat="47.54267" lon="-2.26584">
        <ele>49.400001525879</ele>
        <time>2021-07-25T08:47:05.000Z</time>
      </trkpt>
      <trkpt lat="47.54262" lon="-2.26588">
        <ele>49</ele>
        <time>2021-07-25T08:47:06.000Z</time>
      </trkpt>
      <trkpt lat="47.54257" lon="-2.26592">
        <ele>48.599998474121</ele>
        <time>2021-07-25T08:47:07.000Z</time>
      </trkpt>
      <trkpt lat="47.54217" lon="-2.26624">
        <ele>48.599998474121</ele>
        <time>2021-07-25T08:47:14.000Z</time>
      </trkpt>
      <trkpt lat="47.54175" lon="-2.26657">
        <ele>48.599998474121</ele>
        <time>2021-07-25T08:47:22.000Z</time>
      </trkpt>
      <trkpt lat="47.5417" lon="-2.26661">
        <ele>48.200000762939</ele>
        <time>2021-07-25T08:47:23.000Z</time>
      </trkpt>
      <trkpt lat="47.54165" lon="-2.26665">
        <ele>47.799999237061</ele>
        <time>2021-07-25T08:47:24.000Z</time>
      </trkpt>
      <trkpt lat="47.5416" lon="-2.26669">
        <ele>47.400001525879</ele>
        <time>2021-07-25T08:47:25.000Z</time>
      </trkpt>
      <trkpt lat="47.54156" lon="-2.26673">
        <ele>46.799999237061</ele>
        <time>2021-07-25T08:47:26.000Z</time>
      </trkpt>
      <trkpt lat="47.54151" lon="-2.26677">
        <ele>46.400001525879</ele>
        <time>2021-07-25T08:47:27.000Z</time>
      </trkpt>
      <trkpt lat="47.54129" lon="-2.26695">
        <ele>46.400001525879</ele>
        <time>2021-07-25T08:47:31.000Z</time>
      </trkpt>
      <trkpt lat="47.54081" lon="-2.26734">
        <ele>46.400001525879</ele>
        <time>2021-07-25T08:47:39.000Z</time>
      </trkpt>
      <trkpt lat="47.54075" lon="-2.26739">
        <ele>46.400001525879</ele>
        <time>2021-07-25T08:47:40.000Z</time>
      </trkpt>
      <trkpt lat="47.54037" lon="-2.26771">
        <ele>46.400001525879</ele>
        <time>2021-07-25T08:47:47.000Z</time>
      </trkpt>
      <trkpt lat="47.54004" lon="-2.26799">
        <ele>46.400001525879</ele>
        <time>2021-07-25T08:47:54.000Z</time>
      </trkpt>
      <trkpt lat="47.53993" lon="-2.26811">
        <ele>46.799999237061</ele>
        <time>2021-07-25T08:47:57.000Z</time>
      </trkpt>
      <trkpt lat="47.53989" lon="-2.26815">
        <ele>47.200000762939</ele>
        <time>2021-07-25T08:47:58.000Z</time>
      </trkpt>
      <trkpt lat="47.53985" lon="-2.26819">
        <ele>48.200000762939</ele>
        <time>2021-07-25T08:47:59.000Z</time>
      </trkpt>
      <trkpt lat="47.53981" lon="-2.26823">
        <ele>48.599998474121</ele>
        <time>2021-07-25T08:48:00.000Z</time>
      </trkpt>
      <trkpt lat="47.53977" lon="-2.26828">
        <ele>48.599998474121</ele>
        <time>2021-07-25T08:48:01.000Z</time>
      </trkpt>
      <trkpt lat="47.53954" lon="-2.26853">
        <ele>48.599998474121</ele>
        <time>2021-07-25T08:48:06.000Z</time>
      </trkpt>
      <trkpt lat="47.53915" lon="-2.26897">
        <ele>48.599998474121</ele>
        <time>2021-07-25T08:48:14.000Z</time>
      </trkpt>
      <trkpt lat="47.53873" lon="-2.26944">
        <ele>48.599998474121</ele>
        <time>2021-07-25T08:48:23.000Z</time>
      </trkpt>
      <trkpt lat="47.53843" lon="-2.26979">
        <ele>48.599998474121</ele>
        <time>2021-07-25T08:48:31.000Z</time>
      </trkpt>
      <trkpt lat="47.53817" lon="-2.27008">
        <ele>48.599998474121</ele>
        <time>2021-07-25T08:48:38.000Z</time>
      </trkpt>
      <trkpt lat="47.53813" lon="-2.2701">
        <ele>48.599998474121</ele>
        <time>2021-07-25T08:48:39.000Z</time>
      </trkpt>
      <trkpt lat="47.53801" lon="-2.27026">
        <ele>48.599998474121</ele>
        <time>2021-07-25T08:48:43.000Z</time>
      </trkpt>
      <trkpt lat="47.53778" lon="-2.27053">
        <ele>48.599998474121</ele>
        <time>2021-07-25T08:48:50.000Z</time>
      </trkpt>
      <trkpt lat="47.53745" lon="-2.27091">
        <ele>48.599998474121</ele>
        <time>2021-07-25T08:48:59.000Z</time>
      </trkpt>
      <trkpt lat="47.53715" lon="-2.27127">
        <ele>48.599998474121</ele>
        <time>2021-07-25T08:49:06.000Z</time>
      </trkpt>
      <trkpt lat="47.53683" lon="-2.27166">
        <ele>48.599998474121</ele>
        <time>2021-07-25T08:49:14.000Z</time>
      </trkpt>
      <trkpt lat="47.53675" lon="-2.27175">
        <ele>48.599998474121</ele>
        <time>2021-07-25T08:49:16.000Z</time>
      </trkpt>
      <trkpt lat="47.5365" lon="-2.27205">
        <ele>48.599998474121</ele>
        <time>2021-07-25T08:49:22.000Z</time>
      </trkpt>
      <trkpt lat="47.53638" lon="-2.27221">
        <ele>49</ele>
        <time>2021-07-25T08:49:25.000Z</time>
      </trkpt>
      <trkpt lat="47.53633" lon="-2.27226">
        <ele>49.400001525879</ele>
        <time>2021-07-25T08:49:26.000Z</time>
      </trkpt>
      <trkpt lat="47.53629" lon="-2.27231">
        <ele>49.799999237061</ele>
        <time>2021-07-25T08:49:27.000Z</time>
      </trkpt>
      <trkpt lat="47.53625" lon="-2.27236">
        <ele>50.200000762939</ele>
        <time>2021-07-25T08:49:28.000Z</time>
      </trkpt>
      <trkpt lat="47.53621" lon="-2.27241">
        <ele>50.599998474121</ele>
        <time>2021-07-25T08:49:29.000Z</time>
      </trkpt>
      <trkpt lat="47.53617" lon="-2.27246">
        <ele>50.599998474121</ele>
        <time>2021-07-25T08:49:30.000Z</time>
      </trkpt>
      <trkpt lat="47.5358" lon="-2.27287">
        <ele>50.599998474121</ele>
        <time>2021-07-25T08:49:38.000Z</time>
      </trkpt>
      <trkpt lat="47.53537" lon="-2.27332">
        <ele>50.599998474121</ele>
        <time>2021-07-25T08:49:47.000Z</time>
      </trkpt>
      <trkpt lat="47.53489" lon="-2.27376">
        <ele>50.599998474121</ele>
        <time>2021-07-25T08:49:56.000Z</time>
      </trkpt>
      <trkpt lat="47.53449" lon="-2.27415">
        <ele>50.599998474121</ele>
        <time>2021-07-25T08:50:03.000Z</time>
      </trkpt>
      <trkpt lat="47.53408" lon="-2.27448">
        <ele>50.599998474121</ele>
        <time>2021-07-25T08:50:10.000Z</time>
      </trkpt>
      <trkpt lat="47.53366" lon="-2.2747">
        <ele>50.599998474121</ele>
        <time>2021-07-25T08:50:17.000Z</time>
      </trkpt>
      <trkpt lat="47.5333" lon="-2.27495">
        <ele>50.200000762939</ele>
        <time>2021-07-25T08:50:23.000Z</time>
      </trkpt>
      <trkpt lat="47.53325" lon="-2.27503">
        <ele>49.599998474121</ele>
        <time>2021-07-25T08:50:24.000Z</time>
      </trkpt>
      <trkpt lat="47.53321" lon="-2.27511">
        <ele>49.200000762939</ele>
        <time>2021-07-25T08:50:25.000Z</time>
      </trkpt>
      <trkpt lat="47.53318" lon="-2.27521">
        <ele>48.799999237061</ele>
        <time>2021-07-25T08:50:26.000Z</time>
      </trkpt>
      <trkpt lat="47.53316" lon="-2.27531">
        <ele>48.400001525879</ele>
        <time>2021-07-25T08:50:27.000Z</time>
      </trkpt>
      <trkpt lat="47.53313" lon="-2.2756">
        <ele>48.400001525879</ele>
        <time>2021-07-25T08:50:30.000Z</time>
      </trkpt>
      <trkpt lat="47.53309" lon="-2.27635">
        <ele>48.400001525879</ele>
        <time>2021-07-25T08:50:38.000Z</time>
      </trkpt>
      <trkpt lat="47.53307" lon="-2.27707">
        <ele>48.400001525879</ele>
        <time>2021-07-25T08:50:45.000Z</time>
      </trkpt>
      <trkpt lat="47.53306" lon="-2.27717">
        <ele>48</ele>
        <time>2021-07-25T08:50:46.000Z</time>
      </trkpt>
      <trkpt lat="47.53305" lon="-2.27728">
        <ele>47.599998474121</ele>
        <time>2021-07-25T08:50:47.000Z</time>
      </trkpt>
      <trkpt lat="47.53305" lon="-2.27739">
        <ele>47</ele>
        <time>2021-07-25T08:50:48.000Z</time>
      </trkpt>
      <trkpt lat="47.53304" lon="-2.2775">
        <ele>46.599998474121</ele>
        <time>2021-07-25T08:50:49.000Z</time>
      </trkpt>
      <trkpt lat="47.53303" lon="-2.27761">
        <ele>46.200000762939</ele>
        <time>2021-07-25T08:50:50.000Z</time>
      </trkpt>
      <trkpt lat="47.53302" lon="-2.27795">
        <ele>46.200000762939</ele>
        <time>2021-07-25T08:50:53.000Z</time>
      </trkpt>
      <trkpt lat="47.53299" lon="-2.27841">
        <ele>45.799999237061</ele>
        <time>2021-07-25T08:50:57.000Z</time>
      </trkpt>
      <trkpt lat="47.53298" lon="-2.27852">
        <ele>45.200000762939</ele>
        <time>2021-07-25T08:50:58.000Z</time>
      </trkpt>
      <trkpt lat="47.53298" lon="-2.27864">
        <ele>44.799999237061</ele>
        <time>2021-07-25T08:50:59.000Z</time>
      </trkpt>
      <trkpt lat="47.53297" lon="-2.27876">
        <ele>44.200000762939</ele>
        <time>2021-07-25T08:51:00.000Z</time>
      </trkpt>
      <trkpt lat="47.53296" lon="-2.27888">
        <ele>43.799999237061</ele>
        <time>2021-07-25T08:51:01.000Z</time>
      </trkpt>
      <trkpt lat="47.53295" lon="-2.27912">
        <ele>43.400001525879</ele>
        <time>2021-07-25T08:51:03.000Z</time>
      </trkpt>
      <trkpt lat="47.53295" lon="-2.27925">
        <ele>42.799999237061</ele>
        <time>2021-07-25T08:51:04.000Z</time>
      </trkpt>
      <trkpt lat="47.53295" lon="-2.27937">
        <ele>42.400001525879</ele>
        <time>2021-07-25T08:51:05.000Z</time>
      </trkpt>
      <trkpt lat="47.53295" lon="-2.27949">
        <ele>42</ele>
        <time>2021-07-25T08:51:06.000Z</time>
      </trkpt>
      <trkpt lat="47.53295" lon="-2.27962">
        <ele>41.599998474121</ele>
        <time>2021-07-25T08:51:07.000Z</time>
      </trkpt>
      <trkpt lat="47.53295" lon="-2.27987">
        <ele>41.599998474121</ele>
        <time>2021-07-25T08:51:09.000Z</time>
      </trkpt>
      <trkpt lat="47.53296" lon="-2.27999">
        <ele>41.200000762939</ele>
        <time>2021-07-25T08:51:10.000Z</time>
      </trkpt>
      <trkpt lat="47.53297" lon="-2.28012">
        <ele>40.599998474121</ele>
        <time>2021-07-25T08:51:11.000Z</time>
      </trkpt>
      <trkpt lat="47.53299" lon="-2.28024">
        <ele>40.200000762939</ele>
        <time>2021-07-25T08:51:12.000Z</time>
      </trkpt>
      <trkpt lat="47.53303" lon="-2.28035">
        <ele>39.799999237061</ele>
        <time>2021-07-25T08:51:13.000Z</time>
      </trkpt>
      <trkpt lat="47.53308" lon="-2.28044">
        <ele>39.200000762939</ele>
        <time>2021-07-25T08:51:14.000Z</time>
      </trkpt>
      <trkpt lat="47.53313" lon="-2.28053">
        <ele>38.799999237061</ele>
        <time>2021-07-25T08:51:15.000Z</time>
      </trkpt>
      <trkpt lat="47.53317" lon="-2.28062">
        <ele>37.599998474121</ele>
        <time>2021-07-25T08:51:16.000Z</time>
      </trkpt>
      <trkpt lat="47.53321" lon="-2.28071">
        <ele>37.200000762939</ele>
        <time>2021-07-25T08:51:17.000Z</time>
      </trkpt>
      <trkpt lat="47.53334" lon="-2.28096">
        <ele>36.799999237061</ele>
        <time>2021-07-25T08:51:20.000Z</time>
      </trkpt>
      <trkpt lat="47.53339" lon="-2.28102">
        <ele>36.400001525879</ele>
        <time>2021-07-25T08:51:21.000Z</time>
      </trkpt>
      <trkpt lat="47.53345" lon="-2.28107">
        <ele>36</ele>
        <time>2021-07-25T08:51:22.000Z</time>
      </trkpt>
      <trkpt lat="47.5335" lon="-2.28112">
        <ele>35.599998474121</ele>
        <time>2021-07-25T08:51:23.000Z</time>
      </trkpt>
      <trkpt lat="47.53354" lon="-2.28117">
        <ele>35.200000762939</ele>
        <time>2021-07-25T08:51:24.000Z</time>
      </trkpt>
      <trkpt lat="47.53377" lon="-2.28144">
        <ele>35.200000762939</ele>
        <time>2021-07-25T08:51:29.000Z</time>
      </trkpt>
      <trkpt lat="47.5339" lon="-2.28162">
        <ele>35.200000762939</ele>
        <time>2021-07-25T08:51:32.000Z</time>
      </trkpt>
      <trkpt lat="47.53401" lon="-2.28184">
        <ele>35.200000762939</ele>
        <time>2021-07-25T08:51:35.000Z</time>
      </trkpt>
      <trkpt lat="47.53419" lon="-2.2824">
        <ele>35.200000762939</ele>
        <time>2021-07-25T08:51:42.000Z</time>
      </trkpt>
      <trkpt lat="47.53432" lon="-2.28288">
        <ele>35.200000762939</ele>
        <time>2021-07-25T08:51:48.000Z</time>
      </trkpt>
      <trkpt lat="47.53432" lon="-2.28294">
        <ele>35.200000762939</ele>
        <time>2021-07-25T08:51:49.000Z</time>
      </trkpt>
      <trkpt lat="47.5343" lon="-2.28302">
        <ele>35.200000762939</ele>
        <time>2021-07-25T08:51:51.000Z</time>
      </trkpt>
      <trkpt lat="47.53418" lon="-2.28307">
        <ele>35.200000762939</ele>
        <time>2021-07-25T08:51:54.000Z</time>
      </trkpt>
      <trkpt lat="47.53413" lon="-2.28309">
        <ele>35.200000762939</ele>
        <time>2021-07-25T08:51:55.000Z</time>
      </trkpt>
      <trkpt lat="47.53407" lon="-2.28311">
        <ele>35.200000762939</ele>
        <time>2021-07-25T08:51:56.000Z</time>
      </trkpt>
      <trkpt lat="47.5339" lon="-2.28318">
        <ele>35.200000762939</ele>
        <time>2021-07-25T08:51:59.000Z</time>
      </trkpt>
      <trkpt lat="47.5337" lon="-2.28324">
        <ele>35.200000762939</ele>
        <time>2021-07-25T08:52:02.000Z</time>
      </trkpt>
      <trkpt lat="47.53355" lon="-2.28326">
        <ele>35.200000762939</ele>
        <time>2021-07-25T08:52:04.000Z</time>
      </trkpt>
      <trkpt lat="47.53347" lon="-2.28328">
        <ele>34.799999237061</ele>
        <time>2021-07-25T08:52:05.000Z</time>
      </trkpt>
      <trkpt lat="47.53339" lon="-2.2833">
        <ele>33.799999237061</ele>
        <time>2021-07-25T08:52:06.000Z</time>
      </trkpt>
      <trkpt lat="47.53331" lon="-2.28333">
        <ele>33.400001525879</ele>
        <time>2021-07-25T08:52:07.000Z</time>
      </trkpt>
      <trkpt lat="47.53322" lon="-2.28336">
        <ele>33</ele>
        <time>2021-07-25T08:52:08.000Z</time>
      </trkpt>
      <trkpt lat="47.53314" lon="-2.28339">
        <ele>33</ele>
        <time>2021-07-25T08:52:09.000Z</time>
      </trkpt>
      <trkpt lat="47.53306" lon="-2.28343">
        <ele>32.400001525879</ele>
        <time>2021-07-25T08:52:10.000Z</time>
      </trkpt>
      <trkpt lat="47.53298" lon="-2.28347">
        <ele>32</ele>
        <time>2021-07-25T08:52:11.000Z</time>
      </trkpt>
      <trkpt lat="47.53291" lon="-2.28353">
        <ele>31.60000038147</ele>
        <time>2021-07-25T08:52:12.000Z</time>
      </trkpt>
      <trkpt lat="47.53283" lon="-2.2836">
        <ele>31</ele>
        <time>2021-07-25T08:52:13.000Z</time>
      </trkpt>
      <trkpt lat="47.53277" lon="-2.28365">
        <ele>30.60000038147</ele>
        <time>2021-07-25T08:52:14.000Z</time>
      </trkpt>
      <trkpt lat="47.53246" lon="-2.28388">
        <ele>30.200000762939</ele>
        <time>2021-07-25T08:52:19.000Z</time>
      </trkpt>
      <trkpt lat="47.53239" lon="-2.28391">
        <ele>29.60000038147</ele>
        <time>2021-07-25T08:52:20.000Z</time>
      </trkpt>
      <trkpt lat="47.53232" lon="-2.28395">
        <ele>29.200000762939</ele>
        <time>2021-07-25T08:52:21.000Z</time>
      </trkpt>
      <trkpt lat="47.53224" lon="-2.28398">
        <ele>28.799999237061</ele>
        <time>2021-07-25T08:52:22.000Z</time>
      </trkpt>
      <trkpt lat="47.53216" lon="-2.284">
        <ele>28.39999961853</ele>
        <time>2021-07-25T08:52:23.000Z</time>
      </trkpt>
      <trkpt lat="47.532" lon="-2.28404">
        <ele>28.39999961853</ele>
        <time>2021-07-25T08:52:25.000Z</time>
      </trkpt>
      <trkpt lat="47.53158" lon="-2.28404">
        <ele>28.39999961853</ele>
        <time>2021-07-25T08:52:30.000Z</time>
      </trkpt>
      <trkpt lat="47.53125" lon="-2.28395">
        <ele>28</ele>
        <time>2021-07-25T08:52:34.000Z</time>
      </trkpt>
      <trkpt lat="47.53118" lon="-2.28391">
        <ele>27.60000038147</ele>
        <time>2021-07-25T08:52:35.000Z</time>
      </trkpt>
      <trkpt lat="47.5311" lon="-2.28388">
        <ele>27</ele>
        <time>2021-07-25T08:52:36.000Z</time>
      </trkpt>
      <trkpt lat="47.53104" lon="-2.28389">
        <ele>26.60000038147</ele>
        <time>2021-07-25T08:52:37.000Z</time>
      </trkpt>
      <trkpt lat="47.53099" lon="-2.28394">
        <ele>26</ele>
        <time>2021-07-25T08:52:38.000Z</time>
      </trkpt>
      <trkpt lat="47.53095" lon="-2.284">
        <ele>25.60000038147</ele>
        <time>2021-07-25T08:52:39.000Z</time>
      </trkpt>
      <trkpt lat="47.53091" lon="-2.28406">
        <ele>25</ele>
        <time>2021-07-25T08:52:40.000Z</time>
      </trkpt>
      <trkpt lat="47.53087" lon="-2.28412">
        <ele>24.39999961853</ele>
        <time>2021-07-25T08:52:41.000Z</time>
      </trkpt>
      <trkpt lat="47.53084" lon="-2.28418">
        <ele>24</ele>
        <time>2021-07-25T08:52:42.000Z</time>
      </trkpt>
      <trkpt lat="47.53082" lon="-2.28421">
        <ele>23.39999961853</ele>
        <time>2021-07-25T08:52:43.000Z</time>
      </trkpt>
      <trkpt lat="47.53081" lon="-2.28424">
        <ele>22.799999237061</ele>
        <time>2021-07-25T08:52:44.000Z</time>
      </trkpt>
      <trkpt lat="47.5308" lon="-2.28427">
        <ele>22.39999961853</ele>
        <time>2021-07-25T08:52:45.000Z</time>
      </trkpt>
      <trkpt lat="47.53078" lon="-2.28431">
        <ele>21.799999237061</ele>
        <time>2021-07-25T08:52:46.000Z</time>
      </trkpt>
      <trkpt lat="47.53071" lon="-2.28441">
        <ele>21.799999237061</ele>
        <time>2021-07-25T08:52:48.000Z</time>
      </trkpt>
      <trkpt lat="47.53059" lon="-2.28461">
        <ele>21.39999961853</ele>
        <time>2021-07-25T08:52:51.000Z</time>
      </trkpt>
      <trkpt lat="47.53055" lon="-2.28467">
        <ele>21</ele>
        <time>2021-07-25T08:52:52.000Z</time>
      </trkpt>
      <trkpt lat="47.53051" lon="-2.28474">
        <ele>20.60000038147</ele>
        <time>2021-07-25T08:52:53.000Z</time>
      </trkpt>
      <trkpt lat="47.53046" lon="-2.28481">
        <ele>20.200000762939</ele>
        <time>2021-07-25T08:52:54.000Z</time>
      </trkpt>
      <trkpt lat="47.53042" lon="-2.28487">
        <ele>19.799999237061</ele>
        <time>2021-07-25T08:52:55.000Z</time>
      </trkpt>
      <trkpt lat="47.53037" lon="-2.2849">
        <ele>19.799999237061</ele>
        <time>2021-07-25T08:52:56.000Z</time>
      </trkpt>
      <trkpt lat="47.53032" lon="-2.28489">
        <ele>19.799999237061</ele>
        <time>2021-07-25T08:52:57.000Z</time>
      </trkpt>
      <trkpt lat="47.5302" lon="-2.28493">
        <ele>19.799999237061</ele>
        <time>2021-07-25T08:53:00.000Z</time>
      </trkpt>
      <trkpt lat="47.53007" lon="-2.28513">
        <ele>19.799999237061</ele>
        <time>2021-07-25T08:53:04.000Z</time>
      </trkpt>
      <trkpt lat="47.53001" lon="-2.28524">
        <ele>19.799999237061</ele>
        <time>2021-07-25T08:53:06.000Z</time>
      </trkpt>
      <trkpt lat="47.52997" lon="-2.2853">
        <ele>19.799999237061</ele>
        <time>2021-07-25T08:53:07.000Z</time>
      </trkpt>
      <trkpt lat="47.5299" lon="-2.28539">
        <ele>19.799999237061</ele>
        <time>2021-07-25T08:53:09.000Z</time>
      </trkpt>
      <trkpt lat="47.52984" lon="-2.2855">
        <ele>19.799999237061</ele>
        <time>2021-07-25T08:53:11.000Z</time>
      </trkpt>
      <trkpt lat="47.5298" lon="-2.28555">
        <ele>19.799999237061</ele>
        <time>2021-07-25T08:53:12.000Z</time>
      </trkpt>
      <trkpt lat="47.52974" lon="-2.28563">
        <ele>20.200000762939</ele>
        <time>2021-07-25T08:53:14.000Z</time>
      </trkpt>
      <trkpt lat="47.52972" lon="-2.28567">
        <ele>20.60000038147</ele>
        <time>2021-07-25T08:53:15.000Z</time>
      </trkpt>
      <trkpt lat="47.5297" lon="-2.2857">
        <ele>21</ele>
        <time>2021-07-25T08:53:16.000Z</time>
      </trkpt>
      <trkpt lat="47.52969" lon="-2.28573">
        <ele>21.60000038147</ele>
        <time>2021-07-25T08:53:17.000Z</time>
      </trkpt>
      <trkpt lat="47.52968" lon="-2.28577">
        <ele>22</ele>
        <time>2021-07-25T08:53:18.000Z</time>
      </trkpt>
      <trkpt lat="47.52967" lon="-2.2858">
        <ele>22</ele>
        <time>2021-07-25T08:53:19.000Z</time>
      </trkpt>
      <trkpt lat="47.52961" lon="-2.28585">
        <ele>22</ele>
        <time>2021-07-25T08:53:22.000Z</time>
      </trkpt>
      <trkpt lat="47.52955" lon="-2.28588">
        <ele>22.39999961853</ele>
        <time>2021-07-25T08:53:24.000Z</time>
      </trkpt>
      <trkpt lat="47.52952" lon="-2.28589">
        <ele>22.799999237061</ele>
        <time>2021-07-25T08:53:25.000Z</time>
      </trkpt>
      <trkpt lat="47.52949" lon="-2.28591">
        <ele>23.200000762939</ele>
        <time>2021-07-25T08:53:26.000Z</time>
      </trkpt>
      <trkpt lat="47.52947" lon="-2.28593">
        <ele>23.60000038147</ele>
        <time>2021-07-25T08:53:27.000Z</time>
      </trkpt>
      <trkpt lat="47.52945" lon="-2.28596">
        <ele>24</ele>
        <time>2021-07-25T08:53:28.000Z</time>
      </trkpt>
      <trkpt lat="47.52943" lon="-2.28599">
        <ele>24</ele>
        <time>2021-07-25T08:53:29.000Z</time>
      </trkpt>
      <trkpt lat="47.52932" lon="-2.28615">
        <ele>24.60000038147</ele>
        <time>2021-07-25T08:53:35.000Z</time>
      </trkpt>
      <trkpt lat="47.52931" lon="-2.28617">
        <ele>25</ele>
        <time>2021-07-25T08:53:36.000Z</time>
      </trkpt>
      <trkpt lat="47.52929" lon="-2.2862">
        <ele>25.39999961853</ele>
        <time>2021-07-25T08:53:37.000Z</time>
      </trkpt>
      <trkpt lat="47.52928" lon="-2.28623">
        <ele>25.799999237061</ele>
        <time>2021-07-25T08:53:38.000Z</time>
      </trkpt>
      <trkpt lat="47.52926" lon="-2.28625">
        <ele>26.200000762939</ele>
        <time>2021-07-25T08:53:39.000Z</time>
      </trkpt>
      <trkpt lat="47.52923" lon="-2.2863">
        <ele>26.200000762939</ele>
        <time>2021-07-25T08:53:41.000Z</time>
      </trkpt>
      <trkpt lat="47.52912" lon="-2.28646">
        <ele>26.60000038147</ele>
        <time>2021-07-25T08:53:48.000Z</time>
      </trkpt>
      <trkpt lat="47.52911" lon="-2.28648">
        <ele>27</ele>
        <time>2021-07-25T08:53:49.000Z</time>
      </trkpt>
      <trkpt lat="47.52909" lon="-2.2865">
        <ele>27.39999961853</ele>
        <time>2021-07-25T08:53:50.000Z</time>
      </trkpt>
      <trkpt lat="47.52907" lon="-2.28653">
        <ele>27.799999237061</ele>
        <time>2021-07-25T08:53:51.000Z</time>
      </trkpt>
      <trkpt lat="47.52906" lon="-2.28656">
        <ele>28.200000762939</ele>
        <time>2021-07-25T08:53:52.000Z</time>
      </trkpt>
      <trkpt lat="47.52903" lon="-2.28662">
        <ele>28.200000762939</ele>
        <time>2021-07-25T08:53:54.000Z</time>
      </trkpt>
      <trkpt lat="47.52892" lon="-2.28677">
        <ele>28.60000038147</ele>
        <time>2021-07-25T08:54:00.000Z</time>
      </trkpt>
      <trkpt lat="47.5289" lon="-2.28679">
        <ele>29.200000762939</ele>
        <time>2021-07-25T08:54:01.000Z</time>
      </trkpt>
      <trkpt lat="47.52889" lon="-2.28682">
        <ele>29.60000038147</ele>
        <time>2021-07-25T08:54:02.000Z</time>
      </trkpt>
      <trkpt lat="47.52887" lon="-2.28684">
        <ele>30</ele>
        <time>2021-07-25T08:54:03.000Z</time>
      </trkpt>
      <trkpt lat="47.52886" lon="-2.28687">
        <ele>30.39999961853</ele>
        <time>2021-07-25T08:54:04.000Z</time>
      </trkpt>
      <trkpt lat="47.52877" lon="-2.28701">
        <ele>30.39999961853</ele>
        <time>2021-07-25T08:54:10.000Z</time>
      </trkpt>
      <trkpt lat="47.52873" lon="-2.28705">
        <ele>30.799999237061</ele>
        <time>2021-07-25T08:54:12.000Z</time>
      </trkpt>
      <trkpt lat="47.52871" lon="-2.28708">
        <ele>31.200000762939</ele>
        <time>2021-07-25T08:54:13.000Z</time>
      </trkpt>
      <trkpt lat="47.52869" lon="-2.28711">
        <ele>31.60000038147</ele>
        <time>2021-07-25T08:54:14.000Z</time>
      </trkpt>
      <trkpt lat="47.52868" lon="-2.28713">
        <ele>32</ele>
        <time>2021-07-25T08:54:15.000Z</time>
      </trkpt>
      <trkpt lat="47.52866" lon="-2.28716">
        <ele>32.400001525879</ele>
        <time>2021-07-25T08:54:16.000Z</time>
      </trkpt>
      <trkpt lat="47.52865" lon="-2.28718">
        <ele>32.400001525879</ele>
        <time>2021-07-25T08:54:17.000Z</time>
      </trkpt>
      <trkpt lat="47.52856" lon="-2.28733">
        <ele>32.400001525879</ele>
        <time>2021-07-25T08:54:24.000Z</time>
      </trkpt>
      <trkpt lat="47.52851" lon="-2.28738">
        <ele>32.799999237061</ele>
        <time>2021-07-25T08:54:27.000Z</time>
      </trkpt>
      <trkpt lat="47.5285" lon="-2.2874">
        <ele>33.200000762939</ele>
        <time>2021-07-25T08:54:28.000Z</time>
      </trkpt>
      <trkpt lat="47.52849" lon="-2.28743">
        <ele>33.599998474121</ele>
        <time>2021-07-25T08:54:29.000Z</time>
      </trkpt>
      <trkpt lat="47.52848" lon="-2.28746">
        <ele>34</ele>
        <time>2021-07-25T08:54:30.000Z</time>
      </trkpt>
      <trkpt lat="47.52846" lon="-2.28747">
        <ele>34.599998474121</ele>
        <time>2021-07-25T08:54:31.000Z</time>
      </trkpt>
      <trkpt lat="47.5284" lon="-2.28755">
        <ele>34.599998474121</ele>
        <time>2021-07-25T08:54:34.000Z</time>
      </trkpt>
      <trkpt lat="47.52835" lon="-2.28761">
        <ele>35</ele>
        <time>2021-07-25T08:54:36.000Z</time>
      </trkpt>
      <trkpt lat="47.52834" lon="-2.28764">
        <ele>35.400001525879</ele>
        <time>2021-07-25T08:54:37.000Z</time>
      </trkpt>
      <trkpt lat="47.52832" lon="-2.28767">
        <ele>35.799999237061</ele>
        <time>2021-07-25T08:54:38.000Z</time>
      </trkpt>
      <trkpt lat="47.52831" lon="-2.2877">
        <ele>36.200000762939</ele>
        <time>2021-07-25T08:54:39.000Z</time>
      </trkpt>
      <trkpt lat="47.52829" lon="-2.28773">
        <ele>36.599998474121</ele>
        <time>2021-07-25T08:54:40.000Z</time>
      </trkpt>
      <trkpt lat="47.52827" lon="-2.28774">
        <ele>36.599998474121</ele>
        <time>2021-07-25T08:54:41.000Z</time>
      </trkpt>
      <trkpt lat="47.52816" lon="-2.28792">
        <ele>36.599998474121</ele>
        <time>2021-07-25T08:54:47.000Z</time>
      </trkpt>
      <trkpt lat="47.52813" lon="-2.28796">
        <ele>37</ele>
        <time>2021-07-25T08:54:48.000Z</time>
      </trkpt>
      <trkpt lat="47.52811" lon="-2.28799">
        <ele>37.400001525879</ele>
        <time>2021-07-25T08:54:49.000Z</time>
      </trkpt>
      <trkpt lat="47.52808" lon="-2.28803">
        <ele>37.799999237061</ele>
        <time>2021-07-25T08:54:50.000Z</time>
      </trkpt>
      <trkpt lat="47.52805" lon="-2.28807">
        <ele>38.400001525879</ele>
        <time>2021-07-25T08:54:51.000Z</time>
      </trkpt>
      <trkpt lat="47.52802" lon="-2.2881">
        <ele>38.799999237061</ele>
        <time>2021-07-25T08:54:52.000Z</time>
      </trkpt>
      <trkpt lat="47.52789" lon="-2.28828">
        <ele>39.200000762939</ele>
        <time>2021-07-25T08:54:57.000Z</time>
      </trkpt>
      <trkpt lat="47.52787" lon="-2.28831">
        <ele>39.599998474121</ele>
        <time>2021-07-25T08:54:58.000Z</time>
      </trkpt>
      <trkpt lat="47.52784" lon="-2.28834">
        <ele>40.599998474121</ele>
        <time>2021-07-25T08:54:59.000Z</time>
      </trkpt>
      <trkpt lat="47.52782" lon="-2.28837">
        <ele>41</ele>
        <time>2021-07-25T08:55:00.000Z</time>
      </trkpt>
      <trkpt lat="47.5277" lon="-2.2885">
        <ele>41.400001525879</ele>
        <time>2021-07-25T08:55:04.000Z</time>
      </trkpt>
      <trkpt lat="47.52767" lon="-2.28853">
        <ele>41.799999237061</ele>
        <time>2021-07-25T08:55:05.000Z</time>
      </trkpt>
      <trkpt lat="47.52764" lon="-2.28857">
        <ele>42.200000762939</ele>
        <time>2021-07-25T08:55:06.000Z</time>
      </trkpt>
      <trkpt lat="47.52761" lon="-2.2886">
        <ele>42.599998474121</ele>
        <time>2021-07-25T08:55:07.000Z</time>
      </trkpt>
      <trkpt lat="47.52759" lon="-2.28864">
        <ele>43.200000762939</ele>
        <time>2021-07-25T08:55:08.000Z</time>
      </trkpt>
      <trkpt lat="47.52747" lon="-2.28877">
        <ele>43.200000762939</ele>
        <time>2021-07-25T08:55:12.000Z</time>
      </trkpt>
      <trkpt lat="47.52736" lon="-2.2889">
        <ele>43.599998474121</ele>
        <time>2021-07-25T08:55:16.000Z</time>
      </trkpt>
      <trkpt lat="47.52733" lon="-2.28893">
        <ele>44</ele>
        <time>2021-07-25T08:55:17.000Z</time>
      </trkpt>
      <trkpt lat="47.5273" lon="-2.28896">
        <ele>44.400001525879</ele>
        <time>2021-07-25T08:55:18.000Z</time>
      </trkpt>
      <trkpt lat="47.52728" lon="-2.289">
        <ele>44.799999237061</ele>
        <time>2021-07-25T08:55:19.000Z</time>
      </trkpt>
      <trkpt lat="47.52725" lon="-2.28903">
        <ele>45.200000762939</ele>
        <time>2021-07-25T08:55:20.000Z</time>
      </trkpt>
      <trkpt lat="47.52709" lon="-2.28922">
        <ele>45.200000762939</ele>
        <time>2021-07-25T08:55:26.000Z</time>
      </trkpt>
      <trkpt lat="47.52707" lon="-2.28926">
        <ele>45.599998474121</ele>
        <time>2021-07-25T08:55:28.000Z</time>
      </trkpt>
      <trkpt lat="47.52705" lon="-2.28928">
        <ele>46</ele>
        <time>2021-07-25T08:55:29.000Z</time>
      </trkpt>
      <trkpt lat="47.52704" lon="-2.28929">
        <ele>46.400001525879</ele>
        <time>2021-07-25T08:55:30.000Z</time>
      </trkpt>
      <trkpt lat="47.52702" lon="-2.2893">
        <ele>46.799999237061</ele>
        <time>2021-07-25T08:55:31.000Z</time>
      </trkpt>
      <trkpt lat="47.52702" lon="-2.28932">
        <ele>47.200000762939</ele>
        <time>2021-07-25T08:55:32.000Z</time>
      </trkpt>
      <trkpt lat="47.52703" lon="-2.28941">
        <ele>47.200000762939</ele>
        <time>2021-07-25T08:55:35.000Z</time>
      </trkpt>
      <trkpt lat="47.52702" lon="-2.28944">
        <ele>47.200000762939</ele>
        <time>2021-07-25T08:55:37.000Z</time>
      </trkpt>
      <trkpt lat="47.52703" lon="-2.28944">
        <ele>47.200000762939</ele>
        <time>2021-07-25T08:55:38.000Z</time>
      </trkpt>
      <trkpt lat="47.52704" lon="-2.28949">
        <ele>47.200000762939</ele>
        <time>2021-07-25T08:55:55.000Z</time>
      </trkpt>
      <trkpt lat="47.52709" lon="-2.28968">
        <ele>47.200000762939</ele>
        <time>2021-07-25T08:56:00.000Z</time>
      </trkpt>
      <trkpt lat="47.52715" lon="-2.29002">
        <ele>47.200000762939</ele>
        <time>2021-07-25T08:56:06.000Z</time>
      </trkpt>
      <trkpt lat="47.5272" lon="-2.29045">
        <ele>47.200000762939</ele>
        <time>2021-07-25T08:56:12.000Z</time>
      </trkpt>
      <trkpt lat="47.52727" lon="-2.29105">
        <ele>47.200000762939</ele>
        <time>2021-07-25T08:56:19.000Z</time>
      </trkpt>
      <trkpt lat="47.52733" lon="-2.29176">
        <ele>47.200000762939</ele>
        <time>2021-07-25T08:56:27.000Z</time>
      </trkpt>
      <trkpt lat="47.52739" lon="-2.29208">
        <ele>47.200000762939</ele>
        <time>2021-07-25T08:56:31.000Z</time>
      </trkpt>
      <trkpt lat="47.52743" lon="-2.29213">
        <ele>47.200000762939</ele>
        <time>2021-07-25T08:56:32.000Z</time>
      </trkpt>
      <trkpt lat="47.52753" lon="-2.29213">
        <ele>47.200000762939</ele>
        <time>2021-07-25T08:56:34.000Z</time>
      </trkpt>
      <trkpt lat="47.52765" lon="-2.29209">
        <ele>47.200000762939</ele>
        <time>2021-07-25T08:56:36.000Z</time>
      </trkpt>
      <trkpt lat="47.5278" lon="-2.29201">
        <ele>47.200000762939</ele>
        <time>2021-07-25T08:56:38.000Z</time>
      </trkpt>
      <trkpt lat="47.52787" lon="-2.29197">
        <ele>46.799999237061</ele>
        <time>2021-07-25T08:56:39.000Z</time>
      </trkpt>
      <trkpt lat="47.52795" lon="-2.29194">
        <ele>46.400001525879</ele>
        <time>2021-07-25T08:56:40.000Z</time>
      </trkpt>
      <trkpt lat="47.52802" lon="-2.2919">
        <ele>46</ele>
        <time>2021-07-25T08:56:41.000Z</time>
      </trkpt>
      <trkpt lat="47.52809" lon="-2.29187">
        <ele>45.599998474121</ele>
        <time>2021-07-25T08:56:42.000Z</time>
      </trkpt>
      <trkpt lat="47.52816" lon="-2.29183">
        <ele>45.200000762939</ele>
        <time>2021-07-25T08:56:43.000Z</time>
      </trkpt>
      <trkpt lat="47.52836" lon="-2.29174">
        <ele>45.200000762939</ele>
        <time>2021-07-25T08:56:46.000Z</time>
      </trkpt>
      <trkpt lat="47.52869" lon="-2.2916">
        <ele>45.200000762939</ele>
        <time>2021-07-25T08:56:52.000Z</time>
      </trkpt>
      <trkpt lat="47.52892" lon="-2.29151">
        <ele>45.200000762939</ele>
        <time>2021-07-25T08:56:58.000Z</time>
      </trkpt>
      <trkpt lat="47.52901" lon="-2.29148">
        <ele>45.200000762939</ele>
        <time>2021-07-25T08:57:03.000Z</time>
      </trkpt>
      <trkpt lat="47.5291" lon="-2.29141">
        <ele>45.200000762939</ele>
        <time>2021-07-25T08:57:12.000Z</time>
      </trkpt>
      <trkpt lat="47.52911" lon="-2.29136">
        <ele>45.200000762939</ele>
        <time>2021-07-25T08:57:14.000Z</time>
      </trkpt>
      <trkpt lat="47.52909" lon="-2.2913">
        <ele>45.200000762939</ele>
        <time>2021-07-25T08:57:17.000Z</time>
      </trkpt>
      <trkpt lat="47.52908" lon="-2.29128">
        <ele>45.200000762939</ele>
        <time>2021-07-25T08:57:18.000Z</time>
      </trkpt>
      <trkpt lat="47.52904" lon="-2.29118">
        <ele>45.200000762939</ele>
        <time>2021-07-25T08:57:23.000Z</time>
      </trkpt>
      <trkpt lat="47.52906" lon="-2.291">
        <ele>45.200000762939</ele>
        <time>2021-07-25T08:57:29.000Z</time>
      </trkpt>
      <trkpt lat="47.52905" lon="-2.29082">
        <ele>45.200000762939</ele>
        <time>2021-07-25T08:57:34.000Z</time>
      </trkpt>
      <trkpt lat="47.52906" lon="-2.29072">
        <ele>45.200000762939</ele>
        <time>2021-07-25T08:57:37.000Z</time>
      </trkpt>
      <trkpt lat="47.52908" lon="-2.29069">
        <ele>44.799999237061</ele>
        <time>2021-07-25T08:57:38.000Z</time>
      </trkpt>
      <trkpt lat="47.52911" lon="-2.29066">
        <ele>44.400001525879</ele>
        <time>2021-07-25T08:57:39.000Z</time>
      </trkpt>
      <trkpt lat="47.52914" lon="-2.29062">
        <ele>44</ele>
        <time>2021-07-25T08:57:40.000Z</time>
      </trkpt>
      <trkpt lat="47.52918" lon="-2.29058">
        <ele>43.599998474121</ele>
        <time>2021-07-25T08:57:41.000Z</time>
      </trkpt>
      <trkpt lat="47.52921" lon="-2.29053">
        <ele>43.200000762939</ele>
        <time>2021-07-25T08:57:42.000Z</time>
      </trkpt>
      <trkpt lat="47.52925" lon="-2.29048">
        <ele>43.200000762939</ele>
        <time>2021-07-25T08:57:44.000Z</time>
      </trkpt>
      <trkpt lat="47.52927" lon="-2.29043">
        <ele>42.799999237061</ele>
        <time>2021-07-25T08:57:45.000Z</time>
      </trkpt>
      <trkpt lat="47.52928" lon="-2.29039">
        <ele>42.400001525879</ele>
        <time>2021-07-25T08:57:46.000Z</time>
      </trkpt>
      <trkpt lat="47.5293" lon="-2.29036">
        <ele>42</ele>
        <time>2021-07-25T08:57:47.000Z</time>
      </trkpt>
      <trkpt lat="47.52931" lon="-2.29034">
        <ele>41.599998474121</ele>
        <time>2021-07-25T08:57:48.000Z</time>
      </trkpt>
      <trkpt lat="47.52933" lon="-2.29033">
        <ele>41</ele>
        <time>2021-07-25T08:57:49.000Z</time>
      </trkpt>
      <trkpt lat="47.52935" lon="-2.29032">
        <ele>40.599998474121</ele>
        <time>2021-07-25T08:57:50.000Z</time>
      </trkpt>
      <trkpt lat="47.52937" lon="-2.29032">
        <ele>40</ele>
        <time>2021-07-25T08:57:51.000Z</time>
      </trkpt>
      <trkpt lat="47.52939" lon="-2.29031">
        <ele>39</ele>
        <time>2021-07-25T08:57:52.000Z</time>
      </trkpt>
      <trkpt lat="47.52941" lon="-2.2903">
        <ele>39</ele>
        <time>2021-07-25T08:57:53.000Z</time>
      </trkpt>
      <trkpt lat="47.52947" lon="-2.29027">
        <ele>38.400001525879</ele>
        <time>2021-07-25T08:57:55.000Z</time>
      </trkpt>
      <trkpt lat="47.52949" lon="-2.29025">
        <ele>38</ele>
        <time>2021-07-25T08:57:56.000Z</time>
      </trkpt>
      <trkpt lat="47.5295" lon="-2.29025">
        <ele>37.599998474121</ele>
        <time>2021-07-25T08:57:57.000Z</time>
      </trkpt>
      <trkpt lat="47.52957" lon="-2.29012">
        <ele>36.799999237061</ele>
        <time>2021-07-25T08:58:07.000Z</time>
      </trkpt>
      <trkpt lat="47.52959" lon="-2.2901">
        <ele>36.200000762939</ele>
        <time>2021-07-25T08:58:08.000Z</time>
      </trkpt>
      <trkpt lat="47.52961" lon="-2.29007">
        <ele>35.799999237061</ele>
        <time>2021-07-25T08:58:09.000Z</time>
      </trkpt>
      <trkpt lat="47.52963" lon="-2.29005">
        <ele>35.400001525879</ele>
        <time>2021-07-25T08:58:10.000Z</time>
      </trkpt>
      <trkpt lat="47.52965" lon="-2.29002">
        <ele>34.799999237061</ele>
        <time>2021-07-25T08:58:11.000Z</time>
      </trkpt>
      <trkpt lat="47.52968" lon="-2.29001">
        <ele>34.400001525879</ele>
        <time>2021-07-25T08:58:12.000Z</time>
      </trkpt>
      <trkpt lat="47.52971" lon="-2.29002">
        <ele>34</ele>
        <time>2021-07-25T08:58:13.000Z</time>
      </trkpt>
      <trkpt lat="47.52973" lon="-2.29003">
        <ele>33.599998474121</ele>
        <time>2021-07-25T08:58:14.000Z</time>
      </trkpt>
      <trkpt lat="47.52976" lon="-2.29006">
        <ele>33</ele>
        <time>2021-07-25T08:58:15.000Z</time>
      </trkpt>
      <trkpt lat="47.52978" lon="-2.29008">
        <ele>32.200000762939</ele>
        <time>2021-07-25T08:58:16.000Z</time>
      </trkpt>
      <trkpt lat="47.52982" lon="-2.29011">
        <ele>32.200000762939</ele>
        <time>2021-07-25T08:58:18.000Z</time>
      </trkpt>
      <trkpt lat="47.52982" lon="-2.29018">
        <ele>32.200000762939</ele>
        <time>2021-07-25T08:58:23.000Z</time>
      </trkpt>
      <trkpt lat="47.52978" lon="-2.29021">
        <ele>32.200000762939</ele>
        <time>2021-07-25T08:58:26.000Z</time>
      </trkpt>
      <trkpt lat="47.52969" lon="-2.29024">
        <ele>32.599998474121</ele>
        <time>2021-07-25T08:58:30.000Z</time>
      </trkpt>
      <trkpt lat="47.52967" lon="-2.29023">
        <ele>33</ele>
        <time>2021-07-25T08:58:31.000Z</time>
      </trkpt>
      <trkpt lat="47.52965" lon="-2.29022">
        <ele>33.400001525879</ele>
        <time>2021-07-25T08:58:32.000Z</time>
      </trkpt>
      <trkpt lat="47.52962" lon="-2.29022">
        <ele>33.799999237061</ele>
        <time>2021-07-25T08:58:33.000Z</time>
      </trkpt>
      <trkpt lat="47.5296" lon="-2.29021">
        <ele>34.200000762939</ele>
        <time>2021-07-25T08:58:34.000Z</time>
      </trkpt>
      <trkpt lat="47.52958" lon="-2.29022">
        <ele>34.200000762939</ele>
        <time>2021-07-25T08:58:35.000Z</time>
      </trkpt>
      <trkpt lat="47.52955" lon="-2.29024">
        <ele>34.599998474121</ele>
        <time>2021-07-25T08:58:37.000Z</time>
      </trkpt>
      <trkpt lat="47.52954" lon="-2.29027">
        <ele>35</ele>
        <time>2021-07-25T08:58:38.000Z</time>
      </trkpt>
      <trkpt lat="47.52954" lon="-2.29029">
        <ele>35.400001525879</ele>
        <time>2021-07-25T08:58:39.000Z</time>
      </trkpt>
      <trkpt lat="47.52953" lon="-2.2903">
        <ele>36</ele>
        <time>2021-07-25T08:58:40.000Z</time>
      </trkpt>
      <trkpt lat="47.52952" lon="-2.29032">
        <ele>36.799999237061</ele>
        <time>2021-07-25T08:58:41.000Z</time>
      </trkpt>
      <trkpt lat="47.52952" lon="-2.29033">
        <ele>37.200000762939</ele>
        <time>2021-07-25T08:58:42.000Z</time>
      </trkpt>
      <trkpt lat="47.52952" lon="-2.29034">
        <ele>37.599998474121</ele>
        <time>2021-07-25T08:58:43.000Z</time>
      </trkpt>
      <trkpt lat="47.52952" lon="-2.29036">
        <ele>38</ele>
        <time>2021-07-25T08:58:44.000Z</time>
      </trkpt>
      <trkpt lat="47.52952" lon="-2.29037">
        <ele>38.599998474121</ele>
        <time>2021-07-25T08:58:45.000Z</time>
      </trkpt>
      <trkpt lat="47.52953" lon="-2.29042">
        <ele>38.599998474121</ele>
        <time>2021-07-25T08:58:47.000Z</time>
      </trkpt>
      <trkpt lat="47.52953" lon="-2.29044">
        <ele>38.599998474121</ele>
        <time>2021-07-25T08:58:48.000Z</time>
      </trkpt>
      <trkpt lat="47.52952" lon="-2.29057">
        <ele>38.599998474121</ele>
        <time>2021-07-25T08:58:54.000Z</time>
      </trkpt>
      <trkpt lat="47.52949" lon="-2.29063">
        <ele>38.599998474121</ele>
        <time>2021-07-25T08:58:56.000Z</time>
      </trkpt>
      <trkpt lat="47.52947" lon="-2.29067">
        <ele>39</ele>
        <time>2021-07-25T08:58:58.000Z</time>
      </trkpt>
      <trkpt lat="47.52946" lon="-2.2907">
        <ele>39.400001525879</ele>
        <time>2021-07-25T08:58:59.000Z</time>
      </trkpt>
      <trkpt lat="47.52945" lon="-2.29072">
        <ele>39.799999237061</ele>
        <time>2021-07-25T08:59:00.000Z</time>
      </trkpt>
      <trkpt lat="47.52944" lon="-2.29073">
        <ele>40.200000762939</ele>
        <time>2021-07-25T08:59:01.000Z</time>
      </trkpt>
      <trkpt lat="47.52943" lon="-2.29074">
        <ele>40.599998474121</ele>
        <time>2021-07-25T08:59:02.000Z</time>
      </trkpt>
      <trkpt lat="47.52938" lon="-2.29078">
        <ele>40.599998474121</ele>
        <time>2021-07-25T08:59:05.000Z</time>
      </trkpt>
      <trkpt lat="47.52933" lon="-2.29079">
        <ele>41</ele>
        <time>2021-07-25T08:59:08.000Z</time>
      </trkpt>
      <trkpt lat="47.52932" lon="-2.2908">
        <ele>41.599998474121</ele>
        <time>2021-07-25T08:59:09.000Z</time>
      </trkpt>
      <trkpt lat="47.5293" lon="-2.2908">
        <ele>42</ele>
        <time>2021-07-25T08:59:10.000Z</time>
      </trkpt>
      <trkpt lat="47.52928" lon="-2.2908">
        <ele>42.400001525879</ele>
        <time>2021-07-25T08:59:11.000Z</time>
      </trkpt>
      <trkpt lat="47.52926" lon="-2.29081">
        <ele>42.799999237061</ele>
        <time>2021-07-25T08:59:12.000Z</time>
      </trkpt>
      <trkpt lat="47.52921" lon="-2.29092">
        <ele>42.799999237061</ele>
        <time>2021-07-25T08:59:16.000Z</time>
      </trkpt>
      <trkpt lat="47.52921" lon="-2.29098">
        <ele>42.799999237061</ele>
        <time>2021-07-25T08:59:18.000Z</time>
      </trkpt>
      <trkpt lat="47.52923" lon="-2.29107">
        <ele>42.799999237061</ele>
        <time>2021-07-25T08:59:21.000Z</time>
      </trkpt>
      <trkpt lat="47.52925" lon="-2.29108">
        <ele>42.799999237061</ele>
        <time>2021-07-25T08:59:22.000Z</time>
      </trkpt>
      <trkpt lat="47.52934" lon="-2.29111">
        <ele>42.799999237061</ele>
        <time>2021-07-25T08:59:26.000Z</time>
      </trkpt>
      <trkpt lat="47.52938" lon="-2.2911">
        <ele>42.799999237061</ele>
        <time>2021-07-25T08:59:28.000Z</time>
      </trkpt>
      <trkpt lat="47.52942" lon="-2.29112">
        <ele>42.799999237061</ele>
        <time>2021-07-25T08:59:30.000Z</time>
      </trkpt>
      <trkpt lat="47.52944" lon="-2.29114">
        <ele>42.799999237061</ele>
        <time>2021-07-25T08:59:31.000Z</time>
      </trkpt>
      <trkpt lat="47.5295" lon="-2.29117">
        <ele>42.799999237061</ele>
        <time>2021-07-25T08:59:34.000Z</time>
      </trkpt>
      <trkpt lat="47.52952" lon="-2.29117">
        <ele>42.799999237061</ele>
        <time>2021-07-25T08:59:35.000Z</time>
      </trkpt>
      <trkpt lat="47.52954" lon="-2.29116">
        <ele>42.799999237061</ele>
        <time>2021-07-25T08:59:36.000Z</time>
      </trkpt>
      <trkpt lat="47.52959" lon="-2.29111">
        <ele>42.400001525879</ele>
        <time>2021-07-25T08:59:39.000Z</time>
      </trkpt>
      <trkpt lat="47.52961" lon="-2.29108">
        <ele>42</ele>
        <time>2021-07-25T08:59:40.000Z</time>
      </trkpt>
      <trkpt lat="47.52963" lon="-2.29105">
        <ele>41.599998474121</ele>
        <time>2021-07-25T08:59:41.000Z</time>
      </trkpt>
      <trkpt lat="47.52963" lon="-2.29101">
        <ele>41.200000762939</ele>
        <time>2021-07-25T08:59:42.000Z</time>
      </trkpt>
      <trkpt lat="47.52963" lon="-2.29097">
        <ele>40.799999237061</ele>
        <time>2021-07-25T08:59:43.000Z</time>
      </trkpt>
      <trkpt lat="47.5296" lon="-2.29088">
        <ele>40.799999237061</ele>
        <time>2021-07-25T08:59:47.000Z</time>
      </trkpt>
      <trkpt lat="47.52963" lon="-2.29075">
        <ele>40.799999237061</ele>
        <time>2021-07-25T08:59:52.000Z</time>
      </trkpt>
      <trkpt lat="47.52968" lon="-2.29077">
        <ele>40.400001525879</ele>
        <time>2021-07-25T08:59:54.000Z</time>
      </trkpt>
      <trkpt lat="47.52971" lon="-2.29078">
        <ele>39.400001525879</ele>
        <time>2021-07-25T08:59:55.000Z</time>
      </trkpt>
      <trkpt lat="47.52973" lon="-2.2908">
        <ele>39</ele>
        <time>2021-07-25T08:59:56.000Z</time>
      </trkpt>
      <trkpt lat="47.52973" lon="-2.2908">
        <ele>38.599998474121</ele>
        <time>2021-07-25T08:59:57.000Z</time>
      </trkpt>
      <trkpt lat="47.52975" lon="-2.29078">
        <ele>38.599998474121</ele>
        <time>2021-07-25T08:59:59.000Z</time>
      </trkpt>
      <trkpt lat="47.52977" lon="-2.29078">
        <ele>38.200000762939</ele>
        <time>2021-07-25T09:00:00.000Z</time>
      </trkpt>
      <trkpt lat="47.52978" lon="-2.29077">
        <ele>37.799999237061</ele>
        <time>2021-07-25T09:00:01.000Z</time>
      </trkpt>
      <trkpt lat="47.52981" lon="-2.29078">
        <ele>37.400001525879</ele>
        <time>2021-07-25T09:00:02.000Z</time>
      </trkpt>
      <trkpt lat="47.52982" lon="-2.29077">
        <ele>37</ele>
        <time>2021-07-25T09:00:03.000Z</time>
      </trkpt>
      <trkpt lat="47.52983" lon="-2.29076">
        <ele>36.599998474121</ele>
        <time>2021-07-25T09:00:04.000Z</time>
      </trkpt>
      <trkpt lat="47.52985" lon="-2.29071">
        <ele>36.200000762939</ele>
        <time>2021-07-25T09:00:06.000Z</time>
      </trkpt>
      <trkpt lat="47.52985" lon="-2.29069">
        <ele>35.799999237061</ele>
        <time>2021-07-25T09:00:07.000Z</time>
      </trkpt>
      <trkpt lat="47.52985" lon="-2.29067">
        <ele>35.400001525879</ele>
        <time>2021-07-25T09:00:08.000Z</time>
      </trkpt>
      <trkpt lat="47.52986" lon="-2.29067">
        <ele>34.799999237061</ele>
        <time>2021-07-25T09:00:09.000Z</time>
      </trkpt>
      <trkpt lat="47.52988" lon="-2.29068">
        <ele>34.400001525879</ele>
        <time>2021-07-25T09:00:10.000Z</time>
      </trkpt>
      <trkpt lat="47.52991" lon="-2.29072">
        <ele>34.400001525879</ele>
        <time>2021-07-25T09:00:13.000Z</time>
      </trkpt>
      <trkpt lat="47.52996" lon="-2.29075">
        <ele>34</ele>
        <time>2021-07-25T09:00:16.000Z</time>
      </trkpt>
      <trkpt lat="47.52998" lon="-2.29075">
        <ele>33.599998474121</ele>
        <time>2021-07-25T09:00:17.000Z</time>
      </trkpt>
      <trkpt lat="47.53" lon="-2.29075">
        <ele>33.200000762939</ele>
        <time>2021-07-25T09:00:18.000Z</time>
      </trkpt>
      <trkpt lat="47.53003" lon="-2.29074">
        <ele>32.799999237061</ele>
        <time>2021-07-25T09:00:19.000Z</time>
      </trkpt>
      <trkpt lat="47.53007" lon="-2.29075">
        <ele>32.400001525879</ele>
        <time>2021-07-25T09:00:20.000Z</time>
      </trkpt>
      <trkpt lat="47.53011" lon="-2.29085">
        <ele>32.400001525879</ele>
        <time>2021-07-25T09:00:23.000Z</time>
      </trkpt>
      <trkpt lat="47.53014" lon="-2.29096">
        <ele>32.400001525879</ele>
        <time>2021-07-25T09:00:26.000Z</time>
      </trkpt>
      <trkpt lat="47.53013" lon="-2.291">
        <ele>32.400001525879</ele>
        <time>2021-07-25T09:00:29.000Z</time>
      </trkpt>
      <trkpt lat="47.53013" lon="-2.29101">
        <ele>32.400001525879</ele>
        <time>2021-07-25T09:00:30.000Z</time>
      </trkpt>
      <trkpt lat="47.53016" lon="-2.29105">
        <ele>32.400001525879</ele>
        <time>2021-07-25T09:00:49.000Z</time>
      </trkpt>
      <trkpt lat="47.5302" lon="-2.29112">
        <ele>32.400001525879</ele>
        <time>2021-07-25T09:00:51.000Z</time>
      </trkpt>
      <trkpt lat="47.53027" lon="-2.29126">
        <ele>32.400001525879</ele>
        <time>2021-07-25T09:00:55.000Z</time>
      </trkpt>
      <trkpt lat="47.53028" lon="-2.29129">
        <ele>32.400001525879</ele>
        <time>2021-07-25T09:00:56.000Z</time>
      </trkpt>
      <trkpt lat="47.53035" lon="-2.29157">
        <ele>32.400001525879</ele>
        <time>2021-07-25T09:01:03.000Z</time>
      </trkpt>
      <trkpt lat="47.53036" lon="-2.29171">
        <ele>32.400001525879</ele>
        <time>2021-07-25T09:01:07.000Z</time>
      </trkpt>
      <trkpt lat="47.53039" lon="-2.29183">
        <ele>32.799999237061</ele>
        <time>2021-07-25T09:01:11.000Z</time>
      </trkpt>
      <trkpt lat="47.5304" lon="-2.29186">
        <ele>33.400001525879</ele>
        <time>2021-07-25T09:01:12.000Z</time>
      </trkpt>
      <trkpt lat="47.5304" lon="-2.29188">
        <ele>33.799999237061</ele>
        <time>2021-07-25T09:01:13.000Z</time>
      </trkpt>
      <trkpt lat="47.53041" lon="-2.29191">
        <ele>34.200000762939</ele>
        <time>2021-07-25T09:01:14.000Z</time>
      </trkpt>
      <trkpt lat="47.53041" lon="-2.29192">
        <ele>34.599998474121</ele>
        <time>2021-07-25T09:01:15.000Z</time>
      </trkpt>
      <trkpt lat="47.53043" lon="-2.29199">
        <ele>34.599998474121</ele>
        <time>2021-07-25T09:01:19.000Z</time>
      </trkpt>
      <trkpt lat="47.53041" lon="-2.29206">
        <ele>34.599998474121</ele>
        <time>2021-07-25T09:01:24.000Z</time>
      </trkpt>
      <trkpt lat="47.53036" lon="-2.29244">
        <ele>40.200000762939</ele>
        <time>2021-07-25T09:01:51.000Z</time>
      </trkpt>
      <trkpt lat="47.53034" lon="-2.29245">
        <ele>40.599998474121</ele>
        <time>2021-07-25T09:01:52.000Z</time>
      </trkpt>
      <trkpt lat="47.53033" lon="-2.29246">
        <ele>41</ele>
        <time>2021-07-25T09:01:53.000Z</time>
      </trkpt>
      <trkpt lat="47.53025" lon="-2.2925">
        <ele>41</ele>
        <time>2021-07-25T09:01:58.000Z</time>
      </trkpt>
      <trkpt lat="47.53018" lon="-2.29253">
        <ele>41.400001525879</ele>
        <time>2021-07-25T09:02:03.000Z</time>
      </trkpt>
      <trkpt lat="47.53017" lon="-2.29254">
        <ele>41.799999237061</ele>
        <time>2021-07-25T09:02:04.000Z</time>
      </trkpt>
      <trkpt lat="47.53016" lon="-2.29255">
        <ele>42.200000762939</ele>
        <time>2021-07-25T09:02:05.000Z</time>
      </trkpt>
      <trkpt lat="47.53014" lon="-2.29256">
        <ele>42.599998474121</ele>
        <time>2021-07-25T09:02:06.000Z</time>
      </trkpt>
      <trkpt lat="47.53013" lon="-2.29257">
        <ele>43</ele>
        <time>2021-07-25T09:02:07.000Z</time>
      </trkpt>
      <trkpt lat="47.53007" lon="-2.29255">
        <ele>43</ele>
        <time>2021-07-25T09:02:11.000Z</time>
      </trkpt>
      <trkpt lat="47.53006" lon="-2.29254">
        <ele>43</ele>
        <time>2021-07-25T09:02:12.000Z</time>
      </trkpt>
      <trkpt lat="47.53001" lon="-2.29252">
        <ele>43</ele>
        <time>2021-07-25T09:02:15.000Z</time>
      </trkpt>
      <trkpt lat="47.52997" lon="-2.29251">
        <ele>43</ele>
        <time>2021-07-25T09:02:18.000Z</time>
      </trkpt>
      <trkpt lat="47.52994" lon="-2.29249">
        <ele>43</ele>
        <time>2021-07-25T09:02:20.000Z</time>
      </trkpt>
      <trkpt lat="47.52989" lon="-2.29239">
        <ele>43</ele>
        <time>2021-07-25T09:02:24.000Z</time>
      </trkpt>
      <trkpt lat="47.52978" lon="-2.29221">
        <ele>43</ele>
        <time>2021-07-25T09:02:31.000Z</time>
      </trkpt>
      <trkpt lat="47.52978" lon="-2.29218">
        <ele>43</ele>
        <time>2021-07-25T09:02:32.000Z</time>
      </trkpt>
      <trkpt lat="47.52977" lon="-2.29204">
        <ele>43</ele>
        <time>2021-07-25T09:02:36.000Z</time>
      </trkpt>
      <trkpt lat="47.52977" lon="-2.29202">
        <ele>43</ele>
        <time>2021-07-25T09:02:37.000Z</time>
      </trkpt>
      <trkpt lat="47.52975" lon="-2.29199">
        <ele>43</ele>
        <time>2021-07-25T09:02:38.000Z</time>
      </trkpt>
      <trkpt lat="47.52974" lon="-2.29189">
        <ele>43</ele>
        <time>2021-07-25T09:02:41.000Z</time>
      </trkpt>
      <trkpt lat="47.5297" lon="-2.29177">
        <ele>43</ele>
        <time>2021-07-25T09:02:44.000Z</time>
      </trkpt>
      <trkpt lat="47.52965" lon="-2.29163">
        <ele>43</ele>
        <time>2021-07-25T09:02:49.000Z</time>
      </trkpt>
      <trkpt lat="47.52961" lon="-2.29156">
        <ele>43</ele>
        <time>2021-07-25T09:02:52.000Z</time>
      </trkpt>
      <trkpt lat="47.5296" lon="-2.29158">
        <ele>43</ele>
        <time>2021-07-25T09:02:53.000Z</time>
      </trkpt>
      <trkpt lat="47.5295" lon="-2.29163">
        <ele>43</ele>
        <time>2021-07-25T09:02:59.000Z</time>
      </trkpt>
      <trkpt lat="47.52935" lon="-2.29169">
        <ele>43</ele>
        <time>2021-07-25T09:03:04.000Z</time>
      </trkpt>
      <trkpt lat="47.52929" lon="-2.29181">
        <ele>43</ele>
        <time>2021-07-25T09:03:08.000Z</time>
      </trkpt>
      <trkpt lat="47.52932" lon="-2.29189">
        <ele>43</ele>
        <time>2021-07-25T09:03:11.000Z</time>
      </trkpt>
      <trkpt lat="47.52934" lon="-2.29189">
        <ele>43</ele>
        <time>2021-07-25T09:03:12.000Z</time>
      </trkpt>
      <trkpt lat="47.52938" lon="-2.29201">
        <ele>43</ele>
        <time>2021-07-25T09:03:16.000Z</time>
      </trkpt>
      <trkpt lat="47.52947" lon="-2.29222">
        <ele>43</ele>
        <time>2021-07-25T09:03:21.000Z</time>
      </trkpt>
      <trkpt lat="47.52951" lon="-2.29227">
        <ele>43</ele>
        <time>2021-07-25T09:03:23.000Z</time>
      </trkpt>
      <trkpt lat="47.52957" lon="-2.29235">
        <ele>43</ele>
        <time>2021-07-25T09:03:26.000Z</time>
      </trkpt>
      <trkpt lat="47.52961" lon="-2.29255">
        <ele>43.400001525879</ele>
        <time>2021-07-25T09:03:31.000Z</time>
      </trkpt>
      <trkpt lat="47.52959" lon="-2.29258">
        <ele>43.799999237061</ele>
        <time>2021-07-25T09:03:32.000Z</time>
      </trkpt>
      <trkpt lat="47.52957" lon="-2.29261">
        <ele>44.200000762939</ele>
        <time>2021-07-25T09:03:33.000Z</time>
      </trkpt>
      <trkpt lat="47.52955" lon="-2.29264">
        <ele>44.799999237061</ele>
        <time>2021-07-25T09:03:34.000Z</time>
      </trkpt>
      <trkpt lat="47.52953" lon="-2.29266">
        <ele>45.200000762939</ele>
        <time>2021-07-25T09:03:35.000Z</time>
      </trkpt>
      <trkpt lat="47.5295" lon="-2.29267">
        <ele>45.200000762939</ele>
        <time>2021-07-25T09:03:36.000Z</time>
      </trkpt>
      <trkpt lat="47.52936" lon="-2.29262">
        <ele>45.200000762939</ele>
        <time>2021-07-25T09:03:41.000Z</time>
      </trkpt>
      <trkpt lat="47.52926" lon="-2.29263">
        <ele>45.200000762939</ele>
        <time>2021-07-25T09:03:45.000Z</time>
      </trkpt>
      <trkpt lat="47.52925" lon="-2.29267">
        <ele>45.200000762939</ele>
        <time>2021-07-25T09:03:46.000Z</time>
      </trkpt>
      <trkpt lat="47.52925" lon="-2.2928">
        <ele>45.200000762939</ele>
        <time>2021-07-25T09:03:50.000Z</time>
      </trkpt>
      <trkpt lat="47.52928" lon="-2.29287">
        <ele>45.200000762939</ele>
        <time>2021-07-25T09:03:53.000Z</time>
      </trkpt>
      <trkpt lat="47.5293" lon="-2.29299">
        <ele>45.200000762939</ele>
        <time>2021-07-25T09:03:56.000Z</time>
      </trkpt>
      <trkpt lat="47.52934" lon="-2.29319">
        <ele>45.200000762939</ele>
        <time>2021-07-25T09:04:01.000Z</time>
      </trkpt>
      <trkpt lat="47.5295" lon="-2.29352">
        <ele>45.200000762939</ele>
        <time>2021-07-25T09:04:09.000Z</time>
      </trkpt>
      <trkpt lat="47.52968" lon="-2.29376">
        <ele>45.200000762939</ele>
        <time>2021-07-25T09:04:16.000Z</time>
      </trkpt>
      <trkpt lat="47.52984" lon="-2.294">
        <ele>45.599998474121</ele>
        <time>2021-07-25T09:04:23.000Z</time>
      </trkpt>
      <trkpt lat="47.52988" lon="-2.29404">
        <ele>46</ele>
        <time>2021-07-25T09:04:24.000Z</time>
      </trkpt>
      <trkpt lat="47.52991" lon="-2.29408">
        <ele>46.400001525879</ele>
        <time>2021-07-25T09:04:25.000Z</time>
      </trkpt>
      <trkpt lat="47.52994" lon="-2.29413">
        <ele>46.799999237061</ele>
        <time>2021-07-25T09:04:26.000Z</time>
      </trkpt>
      <trkpt lat="47.52996" lon="-2.29417">
        <ele>47.200000762939</ele>
        <time>2021-07-25T09:04:27.000Z</time>
      </trkpt>
      <trkpt lat="47.53003" lon="-2.29427">
        <ele>47.200000762939</ele>
        <time>2021-07-25T09:04:29.000Z</time>
      </trkpt>
      <trkpt lat="47.53028" lon="-2.29466">
        <ele>47.200000762939</ele>
        <time>2021-07-25T09:04:37.000Z</time>
      </trkpt>
      <trkpt lat="47.5304" lon="-2.29483">
        <ele>47.599998474121</ele>
        <time>2021-07-25T09:04:41.000Z</time>
      </trkpt>
      <trkpt lat="47.53042" lon="-2.29489">
        <ele>48</ele>
        <time>2021-07-25T09:04:42.000Z</time>
      </trkpt>
      <trkpt lat="47.53045" lon="-2.29494">
        <ele>48.400001525879</ele>
        <time>2021-07-25T09:04:43.000Z</time>
      </trkpt>
      <trkpt lat="47.53048" lon="-2.29499">
        <ele>48.799999237061</ele>
        <time>2021-07-25T09:04:44.000Z</time>
      </trkpt>
      <trkpt lat="47.53052" lon="-2.29504">
        <ele>49.200000762939</ele>
        <time>2021-07-25T09:04:45.000Z</time>
      </trkpt>
      <trkpt lat="47.53068" lon="-2.29533">
        <ele>49.200000762939</ele>
        <time>2021-07-25T09:04:52.000Z</time>
      </trkpt>
      <trkpt lat="47.53079" lon="-2.2955">
        <ele>49.200000762939</ele>
        <time>2021-07-25T09:04:57.000Z</time>
      </trkpt>
      <trkpt lat="47.53089" lon="-2.29554">
        <ele>49.200000762939</ele>
        <time>2021-07-25T09:05:01.000Z</time>
      </trkpt>
      <trkpt lat="47.53099" lon="-2.2955">
        <ele>49.200000762939</ele>
        <time>2021-07-25T09:05:04.000Z</time>
      </trkpt>
      <trkpt lat="47.53102" lon="-2.29544">
        <ele>49.200000762939</ele>
        <time>2021-07-25T09:05:05.000Z</time>
      </trkpt>
      <trkpt lat="47.53102" lon="-2.29525">
        <ele>49.200000762939</ele>
        <time>2021-07-25T09:05:08.000Z</time>
      </trkpt>
      <trkpt lat="47.53098" lon="-2.29505">
        <ele>49.200000762939</ele>
        <time>2021-07-25T09:05:11.000Z</time>
      </trkpt>
      <trkpt lat="47.53095" lon="-2.29493">
        <ele>49.200000762939</ele>
        <time>2021-07-25T09:05:13.000Z</time>
      </trkpt>
      <trkpt lat="47.53097" lon="-2.29478">
        <ele>49.200000762939</ele>
        <time>2021-07-25T09:05:16.000Z</time>
      </trkpt>
      <trkpt lat="47.53099" lon="-2.29475">
        <ele>49.200000762939</ele>
        <time>2021-07-25T09:05:17.000Z</time>
      </trkpt>
      <trkpt lat="47.53108" lon="-2.29472">
        <ele>49.200000762939</ele>
        <time>2021-07-25T09:05:20.000Z</time>
      </trkpt>
      <trkpt lat="47.53115" lon="-2.29469">
        <ele>48.799999237061</ele>
        <time>2021-07-25T09:05:23.000Z</time>
      </trkpt>
      <trkpt lat="47.53117" lon="-2.29468">
        <ele>48.400001525879</ele>
        <time>2021-07-25T09:05:24.000Z</time>
      </trkpt>
      <trkpt lat="47.53118" lon="-2.29467">
        <ele>48</ele>
        <time>2021-07-25T09:05:25.000Z</time>
      </trkpt>
      <trkpt lat="47.53119" lon="-2.29465">
        <ele>47.599998474121</ele>
        <time>2021-07-25T09:05:26.000Z</time>
      </trkpt>
      <trkpt lat="47.53119" lon="-2.29461">
        <ele>47.200000762939</ele>
        <time>2021-07-25T09:05:27.000Z</time>
      </trkpt>
      <trkpt lat="47.53116" lon="-2.29454">
        <ele>47.200000762939</ele>
        <time>2021-07-25T09:05:30.000Z</time>
      </trkpt>
      <trkpt lat="47.53114" lon="-2.29451">
        <ele>47.200000762939</ele>
        <time>2021-07-25T09:05:31.000Z</time>
      </trkpt>
      <trkpt lat="47.53113" lon="-2.29446">
        <ele>47.200000762939</ele>
        <time>2021-07-25T09:05:32.000Z</time>
      </trkpt>
      <trkpt lat="47.53111" lon="-2.29433">
        <ele>47.200000762939</ele>
        <time>2021-07-25T09:05:35.000Z</time>
      </trkpt>
      <trkpt lat="47.53108" lon="-2.29425">
        <ele>46.799999237061</ele>
        <time>2021-07-25T09:05:37.000Z</time>
      </trkpt>
      <trkpt lat="47.53106" lon="-2.29421">
        <ele>46.400001525879</ele>
        <time>2021-07-25T09:05:38.000Z</time>
      </trkpt>
      <trkpt lat="47.53105" lon="-2.29413">
        <ele>46</ele>
        <time>2021-07-25T09:05:39.000Z</time>
      </trkpt>
      <trkpt lat="47.53104" lon="-2.2941">
        <ele>45.599998474121</ele>
        <time>2021-07-25T09:05:40.000Z</time>
      </trkpt>
      <trkpt lat="47.53102" lon="-2.29408">
        <ele>45.200000762939</ele>
        <time>2021-07-25T09:05:41.000Z</time>
      </trkpt>
      <trkpt lat="47.53097" lon="-2.29398">
        <ele>45.200000762939</ele>
        <time>2021-07-25T09:05:45.000Z</time>
      </trkpt>
      <trkpt lat="47.53098" lon="-2.29392">
        <ele>44.799999237061</ele>
        <time>2021-07-25T09:05:47.000Z</time>
      </trkpt>
      <trkpt lat="47.53099" lon="-2.29387">
        <ele>44.200000762939</ele>
        <time>2021-07-25T09:05:48.000Z</time>
      </trkpt>
      <trkpt lat="47.53099" lon="-2.29385">
        <ele>43.799999237061</ele>
        <time>2021-07-25T09:05:49.000Z</time>
      </trkpt>
      <trkpt lat="47.53099" lon="-2.29381">
        <ele>43.400001525879</ele>
        <time>2021-07-25T09:05:50.000Z</time>
      </trkpt>
      <trkpt lat="47.53099" lon="-2.29377">
        <ele>42.799999237061</ele>
        <time>2021-07-25T09:05:51.000Z</time>
      </trkpt>
      <trkpt lat="47.53099" lon="-2.29372">
        <ele>42.799999237061</ele>
        <time>2021-07-25T09:05:52.000Z</time>
      </trkpt>
      <trkpt lat="47.53098" lon="-2.29363">
        <ele>42.400001525879</ele>
        <time>2021-07-25T09:05:54.000Z</time>
      </trkpt>
      <trkpt lat="47.53098" lon="-2.29361">
        <ele>42</ele>
        <time>2021-07-25T09:05:55.000Z</time>
      </trkpt>
      <trkpt lat="47.53097" lon="-2.29358">
        <ele>41.599998474121</ele>
        <time>2021-07-25T09:05:56.000Z</time>
      </trkpt>
      <trkpt lat="47.53097" lon="-2.29357">
        <ele>41.200000762939</ele>
        <time>2021-07-25T09:05:57.000Z</time>
      </trkpt>
      <trkpt lat="47.53097" lon="-2.29354">
        <ele>40.799999237061</ele>
        <time>2021-07-25T09:05:58.000Z</time>
      </trkpt>
      <trkpt lat="47.53098" lon="-2.29349">
        <ele>40.799999237061</ele>
        <time>2021-07-25T09:06:00.000Z</time>
      </trkpt>
      <trkpt lat="47.53101" lon="-2.29344">
        <ele>40.400001525879</ele>
        <time>2021-07-25T09:06:03.000Z</time>
      </trkpt>
      <trkpt lat="47.53102" lon="-2.29342">
        <ele>39.799999237061</ele>
        <time>2021-07-25T09:06:04.000Z</time>
      </trkpt>
      <trkpt lat="47.53102" lon="-2.29342">
        <ele>39.400001525879</ele>
        <time>2021-07-25T09:06:05.000Z</time>
      </trkpt>
      <trkpt lat="47.53104" lon="-2.29339">
        <ele>38.599998474121</ele>
        <time>2021-07-25T09:06:06.000Z</time>
      </trkpt>
      <trkpt lat="47.53106" lon="-2.29337">
        <ele>38</ele>
        <time>2021-07-25T09:06:08.000Z</time>
      </trkpt>
      <trkpt lat="47.53107" lon="-2.29334">
        <ele>37.599998474121</ele>
        <time>2021-07-25T09:06:09.000Z</time>
      </trkpt>
      <trkpt lat="47.53109" lon="-2.2933">
        <ele>37.200000762939</ele>
        <time>2021-07-25T09:06:10.000Z</time>
      </trkpt>
      <trkpt lat="47.5311" lon="-2.29328">
        <ele>36.799999237061</ele>
        <time>2021-07-25T09:06:11.000Z</time>
      </trkpt>
      <trkpt lat="47.53111" lon="-2.29326">
        <ele>36.200000762939</ele>
        <time>2021-07-25T09:06:12.000Z</time>
      </trkpt>
      <trkpt lat="47.53112" lon="-2.29322">
        <ele>35.799999237061</ele>
        <time>2021-07-25T09:06:14.000Z</time>
      </trkpt>
      <trkpt lat="47.53113" lon="-2.29319">
        <ele>35.400001525879</ele>
        <time>2021-07-25T09:06:15.000Z</time>
      </trkpt>
      <trkpt lat="47.53114" lon="-2.29316">
        <ele>35</ele>
        <time>2021-07-25T09:06:16.000Z</time>
      </trkpt>
      <trkpt lat="47.53115" lon="-2.29314">
        <ele>34.599998474121</ele>
        <time>2021-07-25T09:06:17.000Z</time>
      </trkpt>
      <trkpt lat="47.53116" lon="-2.29311">
        <ele>34.200000762939</ele>
        <time>2021-07-25T09:06:18.000Z</time>
      </trkpt>
      <trkpt lat="47.53114" lon="-2.29281">
        <ele>34.200000762939</ele>
        <time>2021-07-25T09:07:00.000Z</time>
      </trkpt>
      <trkpt lat="47.53113" lon="-2.29278">
        <ele>34.200000762939</ele>
        <time>2021-07-25T09:07:01.000Z</time>
      </trkpt>
      <trkpt lat="47.53103" lon="-2.29263">
        <ele>34.200000762939</ele>
        <time>2021-07-25T09:07:09.000Z</time>
      </trkpt>
      <trkpt lat="47.53098" lon="-2.29254">
        <ele>34.200000762939</ele>
        <time>2021-07-25T09:07:13.000Z</time>
      </trkpt>
      <trkpt lat="47.53096" lon="-2.29253">
        <ele>34.200000762939</ele>
        <time>2021-07-25T09:07:14.000Z</time>
      </trkpt>
      <trkpt lat="47.53092" lon="-2.29256">
        <ele>34.200000762939</ele>
        <time>2021-07-25T09:07:17.000Z</time>
      </trkpt>
      <trkpt lat="47.53089" lon="-2.29259">
        <ele>34.200000762939</ele>
        <time>2021-07-25T09:07:19.000Z</time>
      </trkpt>
      <trkpt lat="47.53088" lon="-2.2926">
        <ele>34.599998474121</ele>
        <time>2021-07-25T09:07:20.000Z</time>
      </trkpt>
      <trkpt lat="47.53086" lon="-2.29261">
        <ele>35</ele>
        <time>2021-07-25T09:07:21.000Z</time>
      </trkpt>
      <trkpt lat="47.53085" lon="-2.29262">
        <ele>35.599998474121</ele>
        <time>2021-07-25T09:07:22.000Z</time>
      </trkpt>
      <trkpt lat="47.53083" lon="-2.29261">
        <ele>36</ele>
        <time>2021-07-25T09:07:23.000Z</time>
      </trkpt>
      <trkpt lat="47.53082" lon="-2.29261">
        <ele>36.400001525879</ele>
        <time>2021-07-25T09:07:24.000Z</time>
      </trkpt>
      <trkpt lat="47.53081" lon="-2.2926">
        <ele>36.400001525879</ele>
        <time>2021-07-25T09:07:25.000Z</time>
      </trkpt>
      <trkpt lat="47.53078" lon="-2.29256">
        <ele>36.400001525879</ele>
        <time>2021-07-25T09:07:27.000Z</time>
      </trkpt>
      <trkpt lat="47.53073" lon="-2.2925">
        <ele>36.400001525879</ele>
        <time>2021-07-25T09:07:31.000Z</time>
      </trkpt>
      <trkpt lat="47.53071" lon="-2.29248">
        <ele>36.400001525879</ele>
        <time>2021-07-25T09:07:32.000Z</time>
      </trkpt>
      <trkpt lat="47.53066" lon="-2.29242">
        <ele>36.400001525879</ele>
        <time>2021-07-25T09:07:35.000Z</time>
      </trkpt>
      <trkpt lat="47.53064" lon="-2.29238">
        <ele>36.400001525879</ele>
        <time>2021-07-25T09:07:37.000Z</time>
      </trkpt>
      <trkpt lat="47.53064" lon="-2.29235">
        <ele>36.400001525879</ele>
        <time>2021-07-25T09:07:39.000Z</time>
      </trkpt>
      <trkpt lat="47.53064" lon="-2.29228">
        <ele>36.400001525879</ele>
        <time>2021-07-25T09:07:42.000Z</time>
      </trkpt>
      <trkpt lat="47.53066" lon="-2.29224">
        <ele>36.400001525879</ele>
        <time>2021-07-25T09:07:44.000Z</time>
      </trkpt>
      <trkpt lat="47.53068" lon="-2.29221">
        <ele>36.400001525879</ele>
        <time>2021-07-25T09:07:47.000Z</time>
      </trkpt>
      <trkpt lat="47.53069" lon="-2.29221">
        <ele>36</ele>
        <time>2021-07-25T09:07:48.000Z</time>
      </trkpt>
      <trkpt lat="47.53071" lon="-2.2922">
        <ele>35.400001525879</ele>
        <time>2021-07-25T09:07:49.000Z</time>
      </trkpt>
      <trkpt lat="47.53073" lon="-2.29219">
        <ele>35</ele>
        <time>2021-07-25T09:07:50.000Z</time>
      </trkpt>
      <trkpt lat="47.53075" lon="-2.29217">
        <ele>34.599998474121</ele>
        <time>2021-07-25T09:07:51.000Z</time>
      </trkpt>
      <trkpt lat="47.53076" lon="-2.29216">
        <ele>34.200000762939</ele>
        <time>2021-07-25T09:07:52.000Z</time>
      </trkpt>
      <trkpt lat="47.53077" lon="-2.29215">
        <ele>33.599998474121</ele>
        <time>2021-07-25T09:07:53.000Z</time>
      </trkpt>
      <trkpt lat="47.53079" lon="-2.29214">
        <ele>33.200000762939</ele>
        <time>2021-07-25T09:07:54.000Z</time>
      </trkpt>
      <trkpt lat="47.53079" lon="-2.29213">
        <ele>32.799999237061</ele>
        <time>2021-07-25T09:07:55.000Z</time>
      </trkpt>
      <trkpt lat="47.53081" lon="-2.29212">
        <ele>31.799999237061</ele>
        <time>2021-07-25T09:08:12.000Z</time>
      </trkpt>
      <trkpt lat="47.53082" lon="-2.2921">
        <ele>31.799999237061</ele>
        <time>2021-07-25T09:08:13.000Z</time>
      </trkpt>
      <trkpt lat="47.53083" lon="-2.29209">
        <ele>31.39999961853</ele>
        <time>2021-07-25T09:08:14.000Z</time>
      </trkpt>
      <trkpt lat="47.53084" lon="-2.29209">
        <ele>31</ele>
        <time>2021-07-25T09:08:15.000Z</time>
      </trkpt>
      <trkpt lat="47.53085" lon="-2.29208">
        <ele>30.60000038147</ele>
        <time>2021-07-25T09:08:16.000Z</time>
      </trkpt>
      <trkpt lat="47.53086" lon="-2.29209">
        <ele>30.200000762939</ele>
        <time>2021-07-25T09:08:17.000Z</time>
      </trkpt>
      <trkpt lat="47.53088" lon="-2.2921">
        <ele>29.799999237061</ele>
        <time>2021-07-25T09:08:18.000Z</time>
      </trkpt>
      <trkpt lat="47.53099" lon="-2.29217">
        <ele>29.799999237061</ele>
        <time>2021-07-25T09:08:23.000Z</time>
      </trkpt>
      <trkpt lat="47.53109" lon="-2.29224">
        <ele>29.39999961853</ele>
        <time>2021-07-25T09:08:27.000Z</time>
      </trkpt>
      <trkpt lat="47.53112" lon="-2.29226">
        <ele>29</ele>
        <time>2021-07-25T09:08:28.000Z</time>
      </trkpt>
      <trkpt lat="47.53115" lon="-2.29226">
        <ele>28.39999961853</ele>
        <time>2021-07-25T09:08:29.000Z</time>
      </trkpt>
      <trkpt lat="47.53117" lon="-2.29225">
        <ele>28</ele>
        <time>2021-07-25T09:08:30.000Z</time>
      </trkpt>
      <trkpt lat="47.53119" lon="-2.29224">
        <ele>27.60000038147</ele>
        <time>2021-07-25T09:08:31.000Z</time>
      </trkpt>
      <trkpt lat="47.5312" lon="-2.29221">
        <ele>27.60000038147</ele>
        <time>2021-07-25T09:08:32.000Z</time>
      </trkpt>
      <trkpt lat="47.53121" lon="-2.29218">
        <ele>27.200000762939</ele>
        <time>2021-07-25T09:08:33.000Z</time>
      </trkpt>
      <trkpt lat="47.53122" lon="-2.29216">
        <ele>26.39999961853</ele>
        <time>2021-07-25T09:08:34.000Z</time>
      </trkpt>
      <trkpt lat="47.53124" lon="-2.29214">
        <ele>26</ele>
        <time>2021-07-25T09:08:35.000Z</time>
      </trkpt>
      <trkpt lat="47.53125" lon="-2.29213">
        <ele>25.39999961853</ele>
        <time>2021-07-25T09:08:36.000Z</time>
      </trkpt>
      <trkpt lat="47.53127" lon="-2.29213">
        <ele>25</ele>
        <time>2021-07-25T09:08:37.000Z</time>
      </trkpt>
      <trkpt lat="47.53129" lon="-2.29214">
        <ele>24.60000038147</ele>
        <time>2021-07-25T09:08:38.000Z</time>
      </trkpt>
      <trkpt lat="47.53132" lon="-2.29215">
        <ele>24</ele>
        <time>2021-07-25T09:08:39.000Z</time>
      </trkpt>
      <trkpt lat="47.53133" lon="-2.29216">
        <ele>23.60000038147</ele>
        <time>2021-07-25T09:08:40.000Z</time>
      </trkpt>
      <trkpt lat="47.53134" lon="-2.29217">
        <ele>23.200000762939</ele>
        <time>2021-07-25T09:08:41.000Z</time>
      </trkpt>
      <trkpt lat="47.5314" lon="-2.29233">
        <ele>23.200000762939</ele>
        <time>2021-07-25T09:08:50.000Z</time>
      </trkpt>
      <trkpt lat="47.53141" lon="-2.29237">
        <ele>23.200000762939</ele>
        <time>2021-07-25T09:08:51.000Z</time>
      </trkpt>
      <trkpt lat="47.53144" lon="-2.29249">
        <ele>23.200000762939</ele>
        <time>2021-07-25T09:08:55.000Z</time>
      </trkpt>
      <trkpt lat="47.53146" lon="-2.29251">
        <ele>23.200000762939</ele>
        <time>2021-07-25T09:08:56.000Z</time>
      </trkpt>
      <trkpt lat="47.53152" lon="-2.29269">
        <ele>23.200000762939</ele>
        <time>2021-07-25T09:09:03.000Z</time>
      </trkpt>
      <trkpt lat="47.53152" lon="-2.29273">
        <ele>23.200000762939</ele>
        <time>2021-07-25T09:09:04.000Z</time>
      </trkpt>
      <trkpt lat="47.53151" lon="-2.29285">
        <ele>23.200000762939</ele>
        <time>2021-07-25T09:09:08.000Z</time>
      </trkpt>
      <trkpt lat="47.5315" lon="-2.29288">
        <ele>23.200000762939</ele>
        <time>2021-07-25T09:09:09.000Z</time>
      </trkpt>
      <trkpt lat="47.53149" lon="-2.29304">
        <ele>23.200000762939</ele>
        <time>2021-07-25T09:09:13.000Z</time>
      </trkpt>
      <trkpt lat="47.53144" lon="-2.29318">
        <ele>23.60000038147</ele>
        <time>2021-07-25T09:09:18.000Z</time>
      </trkpt>
      <trkpt lat="47.53143" lon="-2.2932">
        <ele>24</ele>
        <time>2021-07-25T09:09:19.000Z</time>
      </trkpt>
      <trkpt lat="47.53142" lon="-2.29322">
        <ele>24.39999961853</ele>
        <time>2021-07-25T09:09:20.000Z</time>
      </trkpt>
      <trkpt lat="47.53142" lon="-2.29324">
        <ele>24.799999237061</ele>
        <time>2021-07-25T09:09:21.000Z</time>
      </trkpt>
      <trkpt lat="47.53141" lon="-2.29326">
        <ele>25.200000762939</ele>
        <time>2021-07-25T09:09:22.000Z</time>
      </trkpt>
      <trkpt lat="47.53137" lon="-2.29334">
        <ele>25.200000762939</ele>
        <time>2021-07-25T09:09:27.000Z</time>
      </trkpt>
      <trkpt lat="47.53133" lon="-2.29337">
        <ele>25.799999237061</ele>
        <time>2021-07-25T09:09:31.000Z</time>
      </trkpt>
      <trkpt lat="47.53132" lon="-2.29338">
        <ele>26.200000762939</ele>
        <time>2021-07-25T09:09:32.000Z</time>
      </trkpt>
      <trkpt lat="47.53132" lon="-2.29339">
        <ele>26.60000038147</ele>
        <time>2021-07-25T09:09:33.000Z</time>
      </trkpt>
      <trkpt lat="47.53131" lon="-2.29341">
        <ele>27</ele>
        <time>2021-07-25T09:09:34.000Z</time>
      </trkpt>
      <trkpt lat="47.53131" lon="-2.29342">
        <ele>27.39999961853</ele>
        <time>2021-07-25T09:09:35.000Z</time>
      </trkpt>
      <trkpt lat="47.5313" lon="-2.29346">
        <ele>27.799999237061</ele>
        <time>2021-07-25T09:09:38.000Z</time>
      </trkpt>
      <trkpt lat="47.5313" lon="-2.29349">
        <ele>28.200000762939</ele>
        <time>2021-07-25T09:09:39.000Z</time>
      </trkpt>
      <trkpt lat="47.53129" lon="-2.29351">
        <ele>28.799999237061</ele>
        <time>2021-07-25T09:09:40.000Z</time>
      </trkpt>
      <trkpt lat="47.53129" lon="-2.29352">
        <ele>29.200000762939</ele>
        <time>2021-07-25T09:09:41.000Z</time>
      </trkpt>
      <trkpt lat="47.53128" lon="-2.29354">
        <ele>29.60000038147</ele>
        <time>2021-07-25T09:09:42.000Z</time>
      </trkpt>
      <trkpt lat="47.53129" lon="-2.2936">
        <ele>30</ele>
        <time>2021-07-25T09:09:45.000Z</time>
      </trkpt>
      <trkpt lat="47.53129" lon="-2.29363">
        <ele>30.39999961853</ele>
        <time>2021-07-25T09:09:46.000Z</time>
      </trkpt>
      <trkpt lat="47.53129" lon="-2.29366">
        <ele>30.799999237061</ele>
        <time>2021-07-25T09:09:47.000Z</time>
      </trkpt>
      <trkpt lat="47.53129" lon="-2.29368">
        <ele>31.60000038147</ele>
        <time>2021-07-25T09:09:48.000Z</time>
      </trkpt>
      <trkpt lat="47.53128" lon="-2.29375">
        <ele>31.60000038147</ele>
        <time>2021-07-25T09:09:51.000Z</time>
      </trkpt>
      <trkpt lat="47.53145" lon="-2.29412">
        <ele>37.799999237061</ele>
        <time>2021-07-25T09:10:45.000Z</time>
      </trkpt>
      <trkpt lat="47.53146" lon="-2.29414">
        <ele>37.799999237061</ele>
        <time>2021-07-25T09:10:46.000Z</time>
      </trkpt>
      <trkpt lat="47.53152" lon="-2.29427">
        <ele>37.799999237061</ele>
        <time>2021-07-25T09:10:51.000Z</time>
      </trkpt>
      <trkpt lat="47.53159" lon="-2.29447">
        <ele>37.799999237061</ele>
        <time>2021-07-25T09:10:57.000Z</time>
      </trkpt>
      <trkpt lat="47.53159" lon="-2.29449">
        <ele>37.799999237061</ele>
        <time>2021-07-25T09:10:58.000Z</time>
      </trkpt>
      <trkpt lat="47.53158" lon="-2.29567">
        <ele>45.599998474121</ele>
        <time>2021-07-25T09:12:14.000Z</time>
      </trkpt>
      <trkpt lat="47.53158" lon="-2.29571">
        <ele>46</ele>
        <time>2021-07-25T09:12:15.000Z</time>
      </trkpt>
      <trkpt lat="47.53158" lon="-2.29575">
        <ele>46.400001525879</ele>
        <time>2021-07-25T09:12:16.000Z</time>
      </trkpt>
      <trkpt lat="47.53159" lon="-2.29592">
        <ele>46.400001525879</ele>
        <time>2021-07-25T09:12:22.000Z</time>
      </trkpt>
      <trkpt lat="47.53162" lon="-2.296">
        <ele>46.400001525879</ele>
        <time>2021-07-25T09:12:25.000Z</time>
      </trkpt>
      <trkpt lat="47.53163" lon="-2.29608">
        <ele>46.400001525879</ele>
        <time>2021-07-25T09:12:27.000Z</time>
      </trkpt>
      <trkpt lat="47.53163" lon="-2.29623">
        <ele>46.400001525879</ele>
        <time>2021-07-25T09:12:31.000Z</time>
      </trkpt>
      <trkpt lat="47.53163" lon="-2.29625">
        <ele>46.400001525879</ele>
        <time>2021-07-25T09:12:32.000Z</time>
      </trkpt>
      <trkpt lat="47.53166" lon="-2.29642">
        <ele>46.400001525879</ele>
        <time>2021-07-25T09:12:37.000Z</time>
      </trkpt>
      <trkpt lat="47.53169" lon="-2.29648">
        <ele>46.400001525879</ele>
        <time>2021-07-25T09:12:39.000Z</time>
      </trkpt>
      <trkpt lat="47.53175" lon="-2.29662">
        <ele>46.400001525879</ele>
        <time>2021-07-25T09:12:43.000Z</time>
      </trkpt>
      <trkpt lat="47.53179" lon="-2.2967">
        <ele>46.400001525879</ele>
        <time>2021-07-25T09:12:45.000Z</time>
      </trkpt>
      <trkpt lat="47.53181" lon="-2.29691">
        <ele>46.400001525879</ele>
        <time>2021-07-25T09:12:51.000Z</time>
      </trkpt>
      <trkpt lat="47.53173" lon="-2.29703">
        <ele>46.400001525879</ele>
        <time>2021-07-25T09:13:06.000Z</time>
      </trkpt>
      <trkpt lat="47.53166" lon="-2.29708">
        <ele>46.400001525879</ele>
        <time>2021-07-25T09:13:08.000Z</time>
      </trkpt>
      <trkpt lat="47.53158" lon="-2.29708">
        <ele>46.400001525879</ele>
        <time>2021-07-25T09:13:11.000Z</time>
      </trkpt>
      <trkpt lat="47.53153" lon="-2.29708">
        <ele>46.400001525879</ele>
        <time>2021-07-25T09:13:13.000Z</time>
      </trkpt>
      <trkpt lat="47.53137" lon="-2.29708">
        <ele>46.400001525879</ele>
        <time>2021-07-25T09:13:19.000Z</time>
      </trkpt>
      <trkpt lat="47.53135" lon="-2.2969">
        <ele>46.400001525879</ele>
        <time>2021-07-25T09:13:26.000Z</time>
      </trkpt>
      <trkpt lat="47.53134" lon="-2.29683">
        <ele>46.799999237061</ele>
        <time>2021-07-25T09:13:28.000Z</time>
      </trkpt>
      <trkpt lat="47.53134" lon="-2.2968">
        <ele>47.599998474121</ele>
        <time>2021-07-25T09:13:29.000Z</time>
      </trkpt>
      <trkpt lat="47.53133" lon="-2.29676">
        <ele>48</ele>
        <time>2021-07-25T09:13:30.000Z</time>
      </trkpt>
      <trkpt lat="47.53133" lon="-2.29672">
        <ele>48.400001525879</ele>
        <time>2021-07-25T09:13:31.000Z</time>
      </trkpt>
      <trkpt lat="47.53132" lon="-2.29664">
        <ele>48.400001525879</ele>
        <time>2021-07-25T09:13:33.000Z</time>
      </trkpt>
      <trkpt lat="47.53122" lon="-2.29641">
        <ele>48.400001525879</ele>
        <time>2021-07-25T09:13:39.000Z</time>
      </trkpt>
      <trkpt lat="47.53115" lon="-2.29607">
        <ele>48.400001525879</ele>
        <time>2021-07-25T09:13:46.000Z</time>
      </trkpt>
      <trkpt lat="47.5311" lon="-2.29576">
        <ele>48.400001525879</ele>
        <time>2021-07-25T09:13:53.000Z</time>
      </trkpt>
      <trkpt lat="47.53101" lon="-2.29554">
        <ele>48.400001525879</ele>
        <time>2021-07-25T09:13:59.000Z</time>
      </trkpt>
      <trkpt lat="47.53088" lon="-2.29554">
        <ele>48.400001525879</ele>
        <time>2021-07-25T09:14:04.000Z</time>
      </trkpt>
      <trkpt lat="47.53079" lon="-2.29548">
        <ele>48.799999237061</ele>
        <time>2021-07-25T09:14:07.000Z</time>
      </trkpt>
      <trkpt lat="47.53076" lon="-2.29544">
        <ele>49.200000762939</ele>
        <time>2021-07-25T09:14:08.000Z</time>
      </trkpt>
      <trkpt lat="47.53074" lon="-2.29539">
        <ele>49.599998474121</ele>
        <time>2021-07-25T09:14:09.000Z</time>
      </trkpt>
      <trkpt lat="47.53071" lon="-2.29535">
        <ele>50</ele>
        <time>2021-07-25T09:14:10.000Z</time>
      </trkpt>
      <trkpt lat="47.53069" lon="-2.29532">
        <ele>50.400001525879</ele>
        <time>2021-07-25T09:14:11.000Z</time>
      </trkpt>
      <trkpt lat="47.53067" lon="-2.2953">
        <ele>50.400001525879</ele>
        <time>2021-07-25T09:14:12.000Z</time>
      </trkpt>
      <trkpt lat="47.53065" lon="-2.2953">
        <ele>50.400001525879</ele>
        <time>2021-07-25T09:14:13.000Z</time>
      </trkpt>
      <trkpt lat="47.53057" lon="-2.29538">
        <ele>50.400001525879</ele>
        <time>2021-07-25T09:14:17.000Z</time>
      </trkpt>
      <trkpt lat="47.53052" lon="-2.29539">
        <ele>50.400001525879</ele>
        <time>2021-07-25T09:14:19.000Z</time>
      </trkpt>
      <trkpt lat="47.53043" lon="-2.29543">
        <ele>50.400001525879</ele>
        <time>2021-07-25T09:14:22.000Z</time>
      </trkpt>
      <trkpt lat="47.53032" lon="-2.29553">
        <ele>50</ele>
        <time>2021-07-25T09:14:26.000Z</time>
      </trkpt>
      <trkpt lat="47.53031" lon="-2.29558">
        <ele>49.599998474121</ele>
        <time>2021-07-25T09:14:27.000Z</time>
      </trkpt>
      <trkpt lat="47.53029" lon="-2.29563">
        <ele>49</ele>
        <time>2021-07-25T09:14:28.000Z</time>
      </trkpt>
      <trkpt lat="47.53028" lon="-2.29566">
        <ele>48.599998474121</ele>
        <time>2021-07-25T09:14:29.000Z</time>
      </trkpt>
      <trkpt lat="47.53027" lon="-2.29567">
        <ele>48.200000762939</ele>
        <time>2021-07-25T09:14:30.000Z</time>
      </trkpt>
      <trkpt lat="47.53022" lon="-2.2957">
        <ele>48.200000762939</ele>
        <time>2021-07-25T09:14:32.000Z</time>
      </trkpt>
      <trkpt lat="47.5302" lon="-2.29569">
        <ele>48.200000762939</ele>
        <time>2021-07-25T09:14:33.000Z</time>
      </trkpt>
      <trkpt lat="47.53017" lon="-2.29569">
        <ele>47.799999237061</ele>
        <time>2021-07-25T09:14:34.000Z</time>
      </trkpt>
      <trkpt lat="47.53014" lon="-2.29569">
        <ele>47.400001525879</ele>
        <time>2021-07-25T09:14:35.000Z</time>
      </trkpt>
      <trkpt lat="47.53012" lon="-2.29569">
        <ele>46.799999237061</ele>
        <time>2021-07-25T09:14:36.000Z</time>
      </trkpt>
      <trkpt lat="47.53009" lon="-2.29569">
        <ele>46.400001525879</ele>
        <time>2021-07-25T09:14:37.000Z</time>
      </trkpt>
      <trkpt lat="47.53006" lon="-2.2957">
        <ele>46</ele>
        <time>2021-07-25T09:14:38.000Z</time>
      </trkpt>
      <trkpt lat="47.53004" lon="-2.29571">
        <ele>45.599998474121</ele>
        <time>2021-07-25T09:14:39.000Z</time>
      </trkpt>
      <trkpt lat="47.53002" lon="-2.29572">
        <ele>45.200000762939</ele>
        <time>2021-07-25T09:14:40.000Z</time>
      </trkpt>
      <trkpt lat="47.53" lon="-2.29572">
        <ele>44.599998474121</ele>
        <time>2021-07-25T09:14:41.000Z</time>
      </trkpt>
      <trkpt lat="47.52999" lon="-2.29573">
        <ele>44.200000762939</ele>
        <time>2021-07-25T09:14:42.000Z</time>
      </trkpt>
      <trkpt lat="47.52997" lon="-2.29574">
        <ele>43.799999237061</ele>
        <time>2021-07-25T09:14:43.000Z</time>
      </trkpt>
      <trkpt lat="47.52995" lon="-2.29575">
        <ele>43.400001525879</ele>
        <time>2021-07-25T09:14:44.000Z</time>
      </trkpt>
      <trkpt lat="47.52994" lon="-2.29575">
        <ele>43</ele>
        <time>2021-07-25T09:14:45.000Z</time>
      </trkpt>
      <trkpt lat="47.52993" lon="-2.29576">
        <ele>42.599998474121</ele>
        <time>2021-07-25T09:14:46.000Z</time>
      </trkpt>
      <trkpt lat="47.52991" lon="-2.29576">
        <ele>42.200000762939</ele>
        <time>2021-07-25T09:14:47.000Z</time>
      </trkpt>
      <trkpt lat="47.52991" lon="-2.29576">
        <ele>41.799999237061</ele>
        <time>2021-07-25T09:14:48.000Z</time>
      </trkpt>
      <trkpt lat="47.52981" lon="-2.29579">
        <ele>39.599998474121</ele>
        <time>2021-07-25T09:14:56.000Z</time>
      </trkpt>
      <trkpt lat="47.52979" lon="-2.2958">
        <ele>39</ele>
        <time>2021-07-25T09:14:58.000Z</time>
      </trkpt>
      <trkpt lat="47.52977" lon="-2.29579">
        <ele>38.599998474121</ele>
        <time>2021-07-25T09:14:59.000Z</time>
      </trkpt>
      <trkpt lat="47.52975" lon="-2.29577">
        <ele>38.200000762939</ele>
        <time>2021-07-25T09:15:00.000Z</time>
      </trkpt>
      <trkpt lat="47.52973" lon="-2.29577">
        <ele>37.799999237061</ele>
        <time>2021-07-25T09:15:01.000Z</time>
      </trkpt>
      <trkpt lat="47.5297" lon="-2.29578">
        <ele>37.200000762939</ele>
        <time>2021-07-25T09:15:02.000Z</time>
      </trkpt>
      <trkpt lat="47.52968" lon="-2.2958">
        <ele>36.599998474121</ele>
        <time>2021-07-25T09:15:03.000Z</time>
      </trkpt>
      <trkpt lat="47.52965" lon="-2.29582">
        <ele>36</ele>
        <time>2021-07-25T09:15:04.000Z</time>
      </trkpt>
      <trkpt lat="47.52962" lon="-2.29584">
        <ele>35.400001525879</ele>
        <time>2021-07-25T09:15:05.000Z</time>
      </trkpt>
      <trkpt lat="47.52959" lon="-2.29586">
        <ele>34.799999237061</ele>
        <time>2021-07-25T09:15:06.000Z</time>
      </trkpt>
      <trkpt lat="47.52952" lon="-2.29591">
        <ele>34.799999237061</ele>
        <time>2021-07-25T09:15:09.000Z</time>
      </trkpt>
      <trkpt lat="47.52937" lon="-2.29596">
        <ele>34.799999237061</ele>
        <time>2021-07-25T09:15:16.000Z</time>
      </trkpt>
      <trkpt lat="47.52934" lon="-2.29597">
        <ele>35.200000762939</ele>
        <time>2021-07-25T09:15:17.000Z</time>
      </trkpt>
      <trkpt lat="47.52932" lon="-2.29598">
        <ele>35.599998474121</ele>
        <time>2021-07-25T09:15:18.000Z</time>
      </trkpt>
      <trkpt lat="47.52929" lon="-2.29599">
        <ele>36</ele>
        <time>2021-07-25T09:15:19.000Z</time>
      </trkpt>
      <trkpt lat="47.52927" lon="-2.29601">
        <ele>36.400001525879</ele>
        <time>2021-07-25T09:15:20.000Z</time>
      </trkpt>
      <trkpt lat="47.52925" lon="-2.29602">
        <ele>36.799999237061</ele>
        <time>2021-07-25T09:15:21.000Z</time>
      </trkpt>
      <trkpt lat="47.5292" lon="-2.29604">
        <ele>37.200000762939</ele>
        <time>2021-07-25T09:15:23.000Z</time>
      </trkpt>
      <trkpt lat="47.52917" lon="-2.29605">
        <ele>37.599998474121</ele>
        <time>2021-07-25T09:15:24.000Z</time>
      </trkpt>
      <trkpt lat="47.52915" lon="-2.29606">
        <ele>38.200000762939</ele>
        <time>2021-07-25T09:15:25.000Z</time>
      </trkpt>
      <trkpt lat="47.52913" lon="-2.29608">
        <ele>38.599998474121</ele>
        <time>2021-07-25T09:15:26.000Z</time>
      </trkpt>
      <trkpt lat="47.52911" lon="-2.2961">
        <ele>39</ele>
        <time>2021-07-25T09:15:27.000Z</time>
      </trkpt>
      <trkpt lat="47.52909" lon="-2.29611">
        <ele>39</ele>
        <time>2021-07-25T09:15:28.000Z</time>
      </trkpt>
      <trkpt lat="47.52907" lon="-2.29612">
        <ele>39</ele>
        <time>2021-07-25T09:15:29.000Z</time>
      </trkpt>
      <trkpt lat="47.52904" lon="-2.29613">
        <ele>39.400001525879</ele>
        <time>2021-07-25T09:15:31.000Z</time>
      </trkpt>
      <trkpt lat="47.52902" lon="-2.29613">
        <ele>40.400001525879</ele>
        <time>2021-07-25T09:15:32.000Z</time>
      </trkpt>
      <trkpt lat="47.52901" lon="-2.29614">
        <ele>40.799999237061</ele>
        <time>2021-07-25T09:15:33.000Z</time>
      </trkpt>
      <trkpt lat="47.52899" lon="-2.29614">
        <ele>41.200000762939</ele>
        <time>2021-07-25T09:15:34.000Z</time>
      </trkpt>
      <trkpt lat="47.52896" lon="-2.29616">
        <ele>41.200000762939</ele>
        <time>2021-07-25T09:15:36.000Z</time>
      </trkpt>
      <trkpt lat="47.52892" lon="-2.29617">
        <ele>41.599998474121</ele>
        <time>2021-07-25T09:15:38.000Z</time>
      </trkpt>
      <trkpt lat="47.52891" lon="-2.29618">
        <ele>42</ele>
        <time>2021-07-25T09:15:39.000Z</time>
      </trkpt>
      <trkpt lat="47.52889" lon="-2.29619">
        <ele>42.400001525879</ele>
        <time>2021-07-25T09:15:40.000Z</time>
      </trkpt>
      <trkpt lat="47.52888" lon="-2.2962">
        <ele>42.799999237061</ele>
        <time>2021-07-25T09:15:41.000Z</time>
      </trkpt>
      <trkpt lat="47.52887" lon="-2.2962">
        <ele>43.400001525879</ele>
        <time>2021-07-25T09:15:42.000Z</time>
      </trkpt>
      <trkpt lat="47.52885" lon="-2.29621">
        <ele>43.400001525879</ele>
        <time>2021-07-25T09:15:43.000Z</time>
      </trkpt>
      <trkpt lat="47.5288" lon="-2.29623">
        <ele>43.799999237061</ele>
        <time>2021-07-25T09:15:46.000Z</time>
      </trkpt>
      <trkpt lat="47.52878" lon="-2.29623">
        <ele>44.200000762939</ele>
        <time>2021-07-25T09:15:47.000Z</time>
      </trkpt>
      <trkpt lat="47.52877" lon="-2.29624">
        <ele>44.599998474121</ele>
        <time>2021-07-25T09:15:48.000Z</time>
      </trkpt>
      <trkpt lat="47.52875" lon="-2.29625">
        <ele>45.200000762939</ele>
        <time>2021-07-25T09:15:49.000Z</time>
      </trkpt>
      <trkpt lat="47.52873" lon="-2.29625">
        <ele>45.599998474121</ele>
        <time>2021-07-25T09:15:50.000Z</time>
      </trkpt>
      <trkpt lat="47.52868" lon="-2.29628">
        <ele>46</ele>
        <time>2021-07-25T09:15:53.000Z</time>
      </trkpt>
      <trkpt lat="47.52866" lon="-2.29628">
        <ele>46.400001525879</ele>
        <time>2021-07-25T09:15:54.000Z</time>
      </trkpt>
      <trkpt lat="47.52864" lon="-2.29629">
        <ele>46.799999237061</ele>
        <time>2021-07-25T09:15:55.000Z</time>
      </trkpt>
      <trkpt lat="47.52863" lon="-2.2963">
        <ele>47.200000762939</ele>
        <time>2021-07-25T09:15:56.000Z</time>
      </trkpt>
      <trkpt lat="47.52861" lon="-2.2963">
        <ele>47.599998474121</ele>
        <time>2021-07-25T09:15:57.000Z</time>
      </trkpt>
      <trkpt lat="47.52857" lon="-2.29632">
        <ele>48</ele>
        <time>2021-07-25T09:16:00.000Z</time>
      </trkpt>
      <trkpt lat="47.52855" lon="-2.29633">
        <ele>48.599998474121</ele>
        <time>2021-07-25T09:16:01.000Z</time>
      </trkpt>
      <trkpt lat="47.52853" lon="-2.29634">
        <ele>49</ele>
        <time>2021-07-25T09:16:02.000Z</time>
      </trkpt>
      <trkpt lat="47.52851" lon="-2.29634">
        <ele>49.400001525879</ele>
        <time>2021-07-25T09:16:03.000Z</time>
      </trkpt>
      <trkpt lat="47.5285" lon="-2.29635">
        <ele>49.799999237061</ele>
        <time>2021-07-25T09:16:04.000Z</time>
      </trkpt>
      <trkpt lat="47.52838" lon="-2.2964">
        <ele>50.200000762939</ele>
        <time>2021-07-25T09:16:11.000Z</time>
      </trkpt>
      <trkpt lat="47.52837" lon="-2.2964">
        <ele>50.599998474121</ele>
        <time>2021-07-25T09:16:12.000Z</time>
      </trkpt>
      <trkpt lat="47.52836" lon="-2.2964">
        <ele>51</ele>
        <time>2021-07-25T09:16:13.000Z</time>
      </trkpt>
      <trkpt lat="47.52835" lon="-2.29641">
        <ele>51.400001525879</ele>
        <time>2021-07-25T09:16:14.000Z</time>
      </trkpt>
      <trkpt lat="47.52833" lon="-2.29642">
        <ele>52</ele>
        <time>2021-07-25T09:16:15.000Z</time>
      </trkpt>
      <trkpt lat="47.52826" lon="-2.29646">
        <ele>52</ele>
        <time>2021-07-25T09:16:19.000Z</time>
      </trkpt>
      <trkpt lat="47.52815" lon="-2.2965">
        <ele>52.400001525879</ele>
        <time>2021-07-25T09:16:26.000Z</time>
      </trkpt>
      <trkpt lat="47.52813" lon="-2.29651">
        <ele>52.799999237061</ele>
        <time>2021-07-25T09:16:27.000Z</time>
      </trkpt>
      <trkpt lat="47.52812" lon="-2.29652">
        <ele>53.200000762939</ele>
        <time>2021-07-25T09:16:28.000Z</time>
      </trkpt>
      <trkpt lat="47.5281" lon="-2.29653">
        <ele>53.599998474121</ele>
        <time>2021-07-25T09:16:29.000Z</time>
      </trkpt>
      <trkpt lat="47.52809" lon="-2.29654">
        <ele>54</ele>
        <time>2021-07-25T09:16:30.000Z</time>
      </trkpt>
      <trkpt lat="47.52807" lon="-2.29654">
        <ele>54</ele>
        <time>2021-07-25T09:16:32.000Z</time>
      </trkpt>
      <trkpt lat="47.52804" lon="-2.29655">
        <ele>54</ele>
        <time>2021-07-25T09:16:34.000Z</time>
      </trkpt>
      <trkpt lat="47.52798" lon="-2.29656">
        <ele>54</ele>
        <time>2021-07-25T09:16:39.000Z</time>
      </trkpt>
      <trkpt lat="47.52795" lon="-2.29656">
        <ele>54</ele>
        <time>2021-07-25T09:16:41.000Z</time>
      </trkpt>
      <trkpt lat="47.52799" lon="-2.29655">
        <ele>54</ele>
        <time>2021-07-25T09:17:04.000Z</time>
      </trkpt>
      <trkpt lat="47.52802" lon="-2.29655">
        <ele>54</ele>
        <time>2021-07-25T09:17:05.000Z</time>
      </trkpt>
      <trkpt lat="47.52811" lon="-2.29661">
        <ele>54</ele>
        <time>2021-07-25T09:17:09.000Z</time>
      </trkpt>
      <trkpt lat="47.52814" lon="-2.29669">
        <ele>54</ele>
        <time>2021-07-25T09:17:12.000Z</time>
      </trkpt>
      <trkpt lat="47.52815" lon="-2.29675">
        <ele>54</ele>
        <time>2021-07-25T09:17:14.000Z</time>
      </trkpt>
      <trkpt lat="47.5282" lon="-2.29704">
        <ele>54</ele>
        <time>2021-07-25T09:17:23.000Z</time>
      </trkpt>
      <trkpt lat="47.52826" lon="-2.29727">
        <ele>54</ele>
        <time>2021-07-25T09:17:29.000Z</time>
      </trkpt>
      <trkpt lat="47.52831" lon="-2.29765">
        <ele>54</ele>
        <time>2021-07-25T09:17:36.000Z</time>
      </trkpt>
      <trkpt lat="47.52841" lon="-2.29804">
        <ele>54</ele>
        <time>2021-07-25T09:17:42.000Z</time>
      </trkpt>
      <trkpt lat="47.52855" lon="-2.29847">
        <ele>54</ele>
        <time>2021-07-25T09:17:48.000Z</time>
      </trkpt>
      <trkpt lat="47.52859" lon="-2.2986">
        <ele>54</ele>
        <time>2021-07-25T09:17:50.000Z</time>
      </trkpt>
      <trkpt lat="47.5286" lon="-2.29867">
        <ele>53.599998474121</ele>
        <time>2021-07-25T09:17:51.000Z</time>
      </trkpt>
      <trkpt lat="47.5286" lon="-2.29874">
        <ele>53</ele>
        <time>2021-07-25T09:17:52.000Z</time>
      </trkpt>
      <trkpt lat="47.52859" lon="-2.29881">
        <ele>52.599998474121</ele>
        <time>2021-07-25T09:17:53.000Z</time>
      </trkpt>
      <trkpt lat="47.52857" lon="-2.29886">
        <ele>52</ele>
        <time>2021-07-25T09:17:54.000Z</time>
      </trkpt>
      <trkpt lat="47.52853" lon="-2.2989">
        <ele>51.400001525879</ele>
        <time>2021-07-25T09:17:55.000Z</time>
      </trkpt>
      <trkpt lat="47.52848" lon="-2.29893">
        <ele>50.799999237061</ele>
        <time>2021-07-25T09:17:56.000Z</time>
      </trkpt>
      <trkpt lat="47.52843" lon="-2.29895">
        <ele>50.200000762939</ele>
        <time>2021-07-25T09:17:57.000Z</time>
      </trkpt>
      <trkpt lat="47.52838" lon="-2.29898">
        <ele>49.599998474121</ele>
        <time>2021-07-25T09:17:58.000Z</time>
      </trkpt>
      <trkpt lat="47.52834" lon="-2.29901">
        <ele>48.799999237061</ele>
        <time>2021-07-25T09:17:59.000Z</time>
      </trkpt>
      <trkpt lat="47.52828" lon="-2.29905">
        <ele>48.400001525879</ele>
        <time>2021-07-25T09:18:00.000Z</time>
      </trkpt>
      <trkpt lat="47.52823" lon="-2.29908">
        <ele>48</ele>
        <time>2021-07-25T09:18:01.000Z</time>
      </trkpt>
      <trkpt lat="47.52818" lon="-2.29911">
        <ele>47.599998474121</ele>
        <time>2021-07-25T09:18:02.000Z</time>
      </trkpt>
      <trkpt lat="47.52813" lon="-2.29914">
        <ele>47.200000762939</ele>
        <time>2021-07-25T09:18:03.000Z</time>
      </trkpt>
      <trkpt lat="47.52808" lon="-2.29917">
        <ele>46.799999237061</ele>
        <time>2021-07-25T09:18:04.000Z</time>
      </trkpt>
      <trkpt lat="47.52787" lon="-2.29923">
        <ele>46.799999237061</ele>
        <time>2021-07-25T09:18:08.000Z</time>
      </trkpt>
      <trkpt lat="47.52766" lon="-2.29928">
        <ele>46.799999237061</ele>
        <time>2021-07-25T09:18:13.000Z</time>
      </trkpt>
      <trkpt lat="47.52736" lon="-2.29938">
        <ele>46.799999237061</ele>
        <time>2021-07-25T09:18:20.000Z</time>
      </trkpt>
      <trkpt lat="47.52731" lon="-2.29939">
        <ele>47.200000762939</ele>
        <time>2021-07-25T09:18:21.000Z</time>
      </trkpt>
      <trkpt lat="47.52725" lon="-2.2994">
        <ele>47.799999237061</ele>
        <time>2021-07-25T09:18:22.000Z</time>
      </trkpt>
      <trkpt lat="47.5272" lon="-2.29942">
        <ele>48.200000762939</ele>
        <time>2021-07-25T09:18:23.000Z</time>
      </trkpt>
      <trkpt lat="47.52715" lon="-2.29943">
        <ele>48.599998474121</ele>
        <time>2021-07-25T09:18:24.000Z</time>
      </trkpt>
      <trkpt lat="47.5271" lon="-2.29944">
        <ele>49</ele>
        <time>2021-07-25T09:18:25.000Z</time>
      </trkpt>
      <trkpt lat="47.52677" lon="-2.29956">
        <ele>49</ele>
        <time>2021-07-25T09:18:31.000Z</time>
      </trkpt>
      <trkpt lat="47.52671" lon="-2.2996">
        <ele>49</ele>
        <time>2021-07-25T09:18:32.000Z</time>
      </trkpt>
      <trkpt lat="47.52651" lon="-2.29977">
        <ele>49</ele>
        <time>2021-07-25T09:18:36.000Z</time>
      </trkpt>
      <trkpt lat="47.52629" lon="-2.29993">
        <ele>49</ele>
        <time>2021-07-25T09:18:41.000Z</time>
      </trkpt>
      <trkpt lat="47.52602" lon="-2.30013">
        <ele>49</ele>
        <time>2021-07-25T09:18:48.000Z</time>
      </trkpt>
      <trkpt lat="47.52565" lon="-2.30041">
        <ele>49</ele>
        <time>2021-07-25T09:18:56.000Z</time>
      </trkpt>
      <trkpt lat="47.52534" lon="-2.30054">
        <ele>49</ele>
        <time>2021-07-25T09:19:02.000Z</time>
      </trkpt>
      <trkpt lat="47.52518" lon="-2.30059">
        <ele>49</ele>
        <time>2021-07-25T09:19:06.000Z</time>
      </trkpt>
      <trkpt lat="47.52511" lon="-2.30064">
        <ele>49</ele>
        <time>2021-07-25T09:19:09.000Z</time>
      </trkpt>
      <trkpt lat="47.5251" lon="-2.30067">
        <ele>49</ele>
        <time>2021-07-25T09:19:10.000Z</time>
      </trkpt>
      <trkpt lat="47.525" lon="-2.30095">
        <ele>49</ele>
        <time>2021-07-25T09:19:15.000Z</time>
      </trkpt>
      <trkpt lat="47.52491" lon="-2.3012">
        <ele>49</ele>
        <time>2021-07-25T09:19:19.000Z</time>
      </trkpt>
      <trkpt lat="47.52484" lon="-2.30136">
        <ele>49</ele>
        <time>2021-07-25T09:19:22.000Z</time>
      </trkpt>
      <trkpt lat="47.52474" lon="-2.3016">
        <ele>49.400001525879</ele>
        <time>2021-07-25T09:19:28.000Z</time>
      </trkpt>
      <trkpt lat="47.52472" lon="-2.30163">
        <ele>50</ele>
        <time>2021-07-25T09:19:29.000Z</time>
      </trkpt>
      <trkpt lat="47.52471" lon="-2.30165">
        <ele>50.400001525879</ele>
        <time>2021-07-25T09:19:30.000Z</time>
      </trkpt>
      <trkpt lat="47.52469" lon="-2.30167">
        <ele>50.799999237061</ele>
        <time>2021-07-25T09:19:31.000Z</time>
      </trkpt>
      <trkpt lat="47.52467" lon="-2.30169">
        <ele>51.200000762939</ele>
        <time>2021-07-25T09:19:32.000Z</time>
      </trkpt>
      <trkpt lat="47.52463" lon="-2.30175">
        <ele>51.200000762939</ele>
        <time>2021-07-25T09:19:34.000Z</time>
      </trkpt>
      <trkpt lat="47.52453" lon="-2.30183">
        <ele>51.200000762939</ele>
        <time>2021-07-25T09:19:37.000Z</time>
      </trkpt>
      <trkpt lat="47.5245" lon="-2.30182">
        <ele>51.200000762939</ele>
        <time>2021-07-25T09:19:38.000Z</time>
      </trkpt>
      <trkpt lat="47.52437" lon="-2.30192">
        <ele>51.200000762939</ele>
        <time>2021-07-25T09:19:42.000Z</time>
      </trkpt>
      <trkpt lat="47.52429" lon="-2.3021">
        <ele>51.200000762939</ele>
        <time>2021-07-25T09:19:45.000Z</time>
      </trkpt>
      <trkpt lat="47.52426" lon="-2.30217">
        <ele>51.200000762939</ele>
        <time>2021-07-25T09:19:46.000Z</time>
      </trkpt>
      <trkpt lat="47.52423" lon="-2.30222">
        <ele>51.200000762939</ele>
        <time>2021-07-25T09:19:47.000Z</time>
      </trkpt>
      <trkpt lat="47.52404" lon="-2.30246">
        <ele>51.200000762939</ele>
        <time>2021-07-25T09:19:53.000Z</time>
      </trkpt>
      <trkpt lat="47.52401" lon="-2.30248">
        <ele>51.599998474121</ele>
        <time>2021-07-25T09:19:54.000Z</time>
      </trkpt>
      <trkpt lat="47.52399" lon="-2.30251">
        <ele>52</ele>
        <time>2021-07-25T09:19:55.000Z</time>
      </trkpt>
      <trkpt lat="47.52396" lon="-2.30254">
        <ele>52.400001525879</ele>
        <time>2021-07-25T09:19:56.000Z</time>
      </trkpt>
      <trkpt lat="47.52394" lon="-2.30257">
        <ele>52.799999237061</ele>
        <time>2021-07-25T09:19:57.000Z</time>
      </trkpt>
      <trkpt lat="47.52392" lon="-2.3026">
        <ele>53.200000762939</ele>
        <time>2021-07-25T09:19:58.000Z</time>
      </trkpt>
      <trkpt lat="47.5239" lon="-2.30262">
        <ele>53.200000762939</ele>
        <time>2021-07-25T09:19:59.000Z</time>
      </trkpt>
      <trkpt lat="47.52377" lon="-2.30274">
        <ele>53.200000762939</ele>
        <time>2021-07-25T09:20:05.000Z</time>
      </trkpt>
      <trkpt lat="47.52368" lon="-2.30273">
        <ele>53.200000762939</ele>
        <time>2021-07-25T09:20:08.000Z</time>
      </trkpt>
      <trkpt lat="47.52366" lon="-2.30269">
        <ele>53.200000762939</ele>
        <time>2021-07-25T09:20:09.000Z</time>
      </trkpt>
      <trkpt lat="47.52362" lon="-2.30261">
        <ele>53.799999237061</ele>
        <time>2021-07-25T09:20:11.000Z</time>
      </trkpt>
      <trkpt lat="47.52361" lon="-2.30258">
        <ele>54.200000762939</ele>
        <time>2021-07-25T09:20:12.000Z</time>
      </trkpt>
      <trkpt lat="47.5236" lon="-2.30254">
        <ele>54.599998474121</ele>
        <time>2021-07-25T09:20:13.000Z</time>
      </trkpt>
      <trkpt lat="47.52359" lon="-2.30251">
        <ele>55</ele>
        <time>2021-07-25T09:20:14.000Z</time>
      </trkpt>
      <trkpt lat="47.52357" lon="-2.30248">
        <ele>55.400001525879</ele>
        <time>2021-07-25T09:20:15.000Z</time>
      </trkpt>
      <trkpt lat="47.52354" lon="-2.30244">
        <ele>55.799999237061</ele>
        <time>2021-07-25T09:20:17.000Z</time>
      </trkpt>
      <trkpt lat="47.52353" lon="-2.30242">
        <ele>56.200000762939</ele>
        <time>2021-07-25T09:20:18.000Z</time>
      </trkpt>
      <trkpt lat="47.52351" lon="-2.3024">
        <ele>56.599998474121</ele>
        <time>2021-07-25T09:20:19.000Z</time>
      </trkpt>
      <trkpt lat="47.52349" lon="-2.30238">
        <ele>57</ele>
        <time>2021-07-25T09:20:20.000Z</time>
      </trkpt>
      <trkpt lat="47.52348" lon="-2.30236">
        <ele>57.400001525879</ele>
        <time>2021-07-25T09:20:21.000Z</time>
      </trkpt>
      <trkpt lat="47.52346" lon="-2.30236">
        <ele>57.400001525879</ele>
        <time>2021-07-25T09:20:22.000Z</time>
      </trkpt>
      <trkpt lat="47.5234" lon="-2.30239">
        <ele>57.400001525879</ele>
        <time>2021-07-25T09:20:26.000Z</time>
      </trkpt>
      <trkpt lat="47.52334" lon="-2.30249">
        <ele>57.400001525879</ele>
        <time>2021-07-25T09:20:31.000Z</time>
      </trkpt>
      <trkpt lat="47.52337" lon="-2.30255">
        <ele>57.400001525879</ele>
        <time>2021-07-25T09:20:33.000Z</time>
      </trkpt>
      <trkpt lat="47.5234" lon="-2.30261">
        <ele>57.400001525879</ele>
        <time>2021-07-25T09:20:35.000Z</time>
      </trkpt>
      <trkpt lat="47.52351" lon="-2.30282">
        <ele>57.400001525879</ele>
        <time>2021-07-25T09:20:42.000Z</time>
      </trkpt>
      <trkpt lat="47.52353" lon="-2.30287">
        <ele>57.400001525879</ele>
        <time>2021-07-25T09:20:44.000Z</time>
      </trkpt>
      <trkpt lat="47.52352" lon="-2.30291">
        <ele>57.400001525879</ele>
        <time>2021-07-25T09:20:46.000Z</time>
      </trkpt>
      <trkpt lat="47.52352" lon="-2.30291">
        <ele>57.400001525879</ele>
        <time>2021-07-25T09:20:48.000Z</time>
      </trkpt>
      <trkpt lat="47.52352" lon="-2.30294">
        <ele>57.400001525879</ele>
        <time>2021-07-25T09:21:08.000Z</time>
      </trkpt>
      <trkpt lat="47.52354" lon="-2.30296">
        <ele>57.400001525879</ele>
        <time>2021-07-25T09:21:09.000Z</time>
      </trkpt>
      <trkpt lat="47.52361" lon="-2.30316">
        <ele>57.400001525879</ele>
        <time>2021-07-25T09:21:14.000Z</time>
      </trkpt>
      <trkpt lat="47.52372" lon="-2.30338">
        <ele>57.799999237061</ele>
        <time>2021-07-25T09:21:19.000Z</time>
      </trkpt>
      <trkpt lat="47.52374" lon="-2.30342">
        <ele>58.200000762939</ele>
        <time>2021-07-25T09:21:20.000Z</time>
      </trkpt>
      <trkpt lat="47.52376" lon="-2.30347">
        <ele>58.599998474121</ele>
        <time>2021-07-25T09:21:21.000Z</time>
      </trkpt>
      <trkpt lat="47.52378" lon="-2.30353">
        <ele>59</ele>
        <time>2021-07-25T09:21:22.000Z</time>
      </trkpt>
      <trkpt lat="47.52381" lon="-2.30359">
        <ele>59.400001525879</ele>
        <time>2021-07-25T09:21:23.000Z</time>
      </trkpt>
      <trkpt lat="47.52393" lon="-2.30386">
        <ele>59.400001525879</ele>
        <time>2021-07-25T09:21:28.000Z</time>
      </trkpt>
      <trkpt lat="47.52423" lon="-2.30452">
        <ele>59.400001525879</ele>
        <time>2021-07-25T09:21:39.000Z</time>
      </trkpt>
      <trkpt lat="47.52452" lon="-2.30521">
        <ele>59.400001525879</ele>
        <time>2021-07-25T09:21:50.000Z</time>
      </trkpt>
      <trkpt lat="47.52476" lon="-2.30576">
        <ele>59.799999237061</ele>
        <time>2021-07-25T09:21:59.000Z</time>
      </trkpt>
      <trkpt lat="47.52479" lon="-2.30582">
        <ele>60.400001525879</ele>
        <time>2021-07-25T09:22:00.000Z</time>
      </trkpt>
      <trkpt lat="47.52482" lon="-2.30588">
        <ele>60.799999237061</ele>
        <time>2021-07-25T09:22:01.000Z</time>
      </trkpt>
      <trkpt lat="47.52484" lon="-2.30594">
        <ele>61.200000762939</ele>
        <time>2021-07-25T09:22:02.000Z</time>
      </trkpt>
      <trkpt lat="47.52487" lon="-2.306">
        <ele>61.599998474121</ele>
        <time>2021-07-25T09:22:03.000Z</time>
      </trkpt>
      <trkpt lat="47.52494" lon="-2.30619">
        <ele>61.599998474121</ele>
        <time>2021-07-25T09:22:06.000Z</time>
      </trkpt>
      <trkpt lat="47.52516" lon="-2.30666">
        <ele>61.599998474121</ele>
        <time>2021-07-25T09:22:14.000Z</time>
      </trkpt>
      <trkpt lat="47.52539" lon="-2.30715">
        <ele>61.599998474121</ele>
        <time>2021-07-25T09:22:22.000Z</time>
      </trkpt>
      <trkpt lat="47.52562" lon="-2.30766">
        <ele>61.599998474121</ele>
        <time>2021-07-25T09:22:30.000Z</time>
      </trkpt>
      <trkpt lat="47.52565" lon="-2.30772">
        <ele>61.200000762939</ele>
        <time>2021-07-25T09:22:31.000Z</time>
      </trkpt>
      <trkpt lat="47.52568" lon="-2.30777">
        <ele>60.200000762939</ele>
        <time>2021-07-25T09:22:32.000Z</time>
      </trkpt>
      <trkpt lat="47.52571" lon="-2.30783">
        <ele>59.799999237061</ele>
        <time>2021-07-25T09:22:33.000Z</time>
      </trkpt>
      <trkpt lat="47.52573" lon="-2.30788">
        <ele>59.400001525879</ele>
        <time>2021-07-25T09:22:34.000Z</time>
      </trkpt>
      <trkpt lat="47.52578" lon="-2.30794">
        <ele>59.400001525879</ele>
        <time>2021-07-25T09:22:36.000Z</time>
      </trkpt>
      <trkpt lat="47.52592" lon="-2.30788">
        <ele>59.400001525879</ele>
        <time>2021-07-25T09:22:40.000Z</time>
      </trkpt>
      <trkpt lat="47.52599" lon="-2.30775">
        <ele>59.400001525879</ele>
        <time>2021-07-25T09:22:43.000Z</time>
      </trkpt>
      <trkpt lat="47.52605" lon="-2.30767">
        <ele>59.400001525879</ele>
        <time>2021-07-25T09:22:45.000Z</time>
      </trkpt>
      <trkpt lat="47.52607" lon="-2.30761">
        <ele>59.400001525879</ele>
        <time>2021-07-25T09:22:46.000Z</time>
      </trkpt>
      <trkpt lat="47.52618" lon="-2.30738">
        <ele>59</ele>
        <time>2021-07-25T09:22:50.000Z</time>
      </trkpt>
      <trkpt lat="47.52621" lon="-2.30731">
        <ele>58.599998474121</ele>
        <time>2021-07-25T09:22:51.000Z</time>
      </trkpt>
      <trkpt lat="47.52625" lon="-2.30725">
        <ele>58.200000762939</ele>
        <time>2021-07-25T09:22:52.000Z</time>
      </trkpt>
      <trkpt lat="47.52628" lon="-2.30717">
        <ele>57.599998474121</ele>
        <time>2021-07-25T09:22:53.000Z</time>
      </trkpt>
      <trkpt lat="47.52632" lon="-2.30709">
        <ele>57.200000762939</ele>
        <time>2021-07-25T09:22:54.000Z</time>
      </trkpt>
      <trkpt lat="47.52645" lon="-2.30686">
        <ele>57.200000762939</ele>
        <time>2021-07-25T09:22:57.000Z</time>
      </trkpt>
      <trkpt lat="47.52658" lon="-2.30671">
        <ele>57.200000762939</ele>
        <time>2021-07-25T09:22:59.000Z</time>
      </trkpt>
      <trkpt lat="47.52674" lon="-2.30659">
        <ele>56.799999237061</ele>
        <time>2021-07-25T09:23:01.000Z</time>
      </trkpt>
      <trkpt lat="47.52684" lon="-2.30655">
        <ele>56.400001525879</ele>
        <time>2021-07-25T09:23:02.000Z</time>
      </trkpt>
      <trkpt lat="47.52694" lon="-2.30652">
        <ele>56</ele>
        <time>2021-07-25T09:23:03.000Z</time>
      </trkpt>
      <trkpt lat="47.52704" lon="-2.3065">
        <ele>55.599998474121</ele>
        <time>2021-07-25T09:23:04.000Z</time>
      </trkpt>
      <trkpt lat="47.52713" lon="-2.30649">
        <ele>55</ele>
        <time>2021-07-25T09:23:05.000Z</time>
      </trkpt>
      <trkpt lat="47.52723" lon="-2.3065">
        <ele>54.400001525879</ele>
        <time>2021-07-25T09:23:06.000Z</time>
      </trkpt>
      <trkpt lat="47.52732" lon="-2.30652">
        <ele>54</ele>
        <time>2021-07-25T09:23:07.000Z</time>
      </trkpt>
      <trkpt lat="47.52741" lon="-2.30655">
        <ele>53.200000762939</ele>
        <time>2021-07-25T09:23:08.000Z</time>
      </trkpt>
      <trkpt lat="47.5275" lon="-2.30661">
        <ele>52.599998474121</ele>
        <time>2021-07-25T09:23:09.000Z</time>
      </trkpt>
      <trkpt lat="47.52757" lon="-2.30667">
        <ele>52</ele>
        <time>2021-07-25T09:23:10.000Z</time>
      </trkpt>
      <trkpt lat="47.52762" lon="-2.30674">
        <ele>51.200000762939</ele>
        <time>2021-07-25T09:23:11.000Z</time>
      </trkpt>
      <trkpt lat="47.52766" lon="-2.30679">
        <ele>50.599998474121</ele>
        <time>2021-07-25T09:23:12.000Z</time>
      </trkpt>
      <trkpt lat="47.52768" lon="-2.3068">
        <ele>49.799999237061</ele>
        <time>2021-07-25T09:23:13.000Z</time>
      </trkpt>
      <trkpt lat="47.52768" lon="-2.30681">
        <ele>49.200000762939</ele>
        <time>2021-07-25T09:23:14.000Z</time>
      </trkpt>
      <trkpt lat="47.52768" lon="-2.30679">
        <ele>48.400001525879</ele>
        <time>2021-07-25T09:23:15.000Z</time>
      </trkpt>
      <trkpt lat="47.52767" lon="-2.30677">
        <ele>47.599998474121</ele>
        <time>2021-07-25T09:23:16.000Z</time>
      </trkpt>
      <trkpt lat="47.52766" lon="-2.30674">
        <ele>46.799999237061</ele>
        <time>2021-07-25T09:23:17.000Z</time>
      </trkpt>
      <trkpt lat="47.52764" lon="-2.30673">
        <ele>46</ele>
        <time>2021-07-25T09:23:18.000Z</time>
      </trkpt>
      <trkpt lat="47.52761" lon="-2.30671">
        <ele>46</ele>
        <time>2021-07-25T09:23:20.000Z</time>
      </trkpt>
      <trkpt lat="47.52755" lon="-2.30667">
        <ele>46</ele>
        <time>2021-07-25T09:23:23.000Z</time>
      </trkpt>
      <trkpt lat="47.5275" lon="-2.30663">
        <ele>46</ele>
        <time>2021-07-25T09:23:28.000Z</time>
      </trkpt>
      <trkpt lat="47.52749" lon="-2.30658">
        <ele>46</ele>
        <time>2021-07-25T09:26:48.000Z</time>
      </trkpt>
      <trkpt lat="47.52753" lon="-2.30647">
        <ele>46</ele>
        <time>2021-07-25T09:26:53.000Z</time>
      </trkpt>
      <trkpt lat="47.52754" lon="-2.30646">
        <ele>46</ele>
        <time>2021-07-25T09:26:54.000Z</time>
      </trkpt>
      <trkpt lat="47.52762" lon="-2.30645">
        <ele>46</ele>
        <time>2021-07-25T09:27:00.000Z</time>
      </trkpt>
      <trkpt lat="47.52762" lon="-2.30643">
        <ele>46</ele>
        <time>2021-07-25T09:27:01.000Z</time>
      </trkpt>
      <trkpt lat="47.52766" lon="-2.30632">
        <ele>45.599998474121</ele>
        <time>2021-07-25T09:27:06.000Z</time>
      </trkpt>
      <trkpt lat="47.52766" lon="-2.3063">
        <ele>45.200000762939</ele>
        <time>2021-07-25T09:27:07.000Z</time>
      </trkpt>
      <trkpt lat="47.52766" lon="-2.30628">
        <ele>44.799999237061</ele>
        <time>2021-07-25T09:27:08.000Z</time>
      </trkpt>
      <trkpt lat="47.52765" lon="-2.30626">
        <ele>44.400001525879</ele>
        <time>2021-07-25T09:27:09.000Z</time>
      </trkpt>
      <trkpt lat="47.52765" lon="-2.30625">
        <ele>44</ele>
        <time>2021-07-25T09:27:10.000Z</time>
      </trkpt>
      <trkpt lat="47.52764" lon="-2.30623">
        <ele>44</ele>
        <time>2021-07-25T09:27:11.000Z</time>
      </trkpt>
      <trkpt lat="47.52759" lon="-2.30618">
        <ele>44</ele>
        <time>2021-07-25T09:27:16.000Z</time>
      </trkpt>
      <trkpt lat="47.52756" lon="-2.30617">
        <ele>44</ele>
        <time>2021-07-25T09:27:17.000Z</time>
      </trkpt>
      <trkpt lat="47.52751" lon="-2.30613">
        <ele>44</ele>
        <time>2021-07-25T09:27:21.000Z</time>
      </trkpt>
      <trkpt lat="47.5275" lon="-2.30611">
        <ele>44</ele>
        <time>2021-07-25T09:27:22.000Z</time>
      </trkpt>
      <trkpt lat="47.52748" lon="-2.30606">
        <ele>43.400001525879</ele>
        <time>2021-07-25T09:27:24.000Z</time>
      </trkpt>
      <trkpt lat="47.52747" lon="-2.30604">
        <ele>43</ele>
        <time>2021-07-25T09:27:25.000Z</time>
      </trkpt>
      <trkpt lat="47.52747" lon="-2.30603">
        <ele>42.599998474121</ele>
        <time>2021-07-25T09:27:26.000Z</time>
      </trkpt>
      <trkpt lat="47.52746" lon="-2.30601">
        <ele>42.200000762939</ele>
        <time>2021-07-25T09:27:27.000Z</time>
      </trkpt>
      <trkpt lat="47.52745" lon="-2.30599">
        <ele>41.599998474121</ele>
        <time>2021-07-25T09:27:28.000Z</time>
      </trkpt>
      <trkpt lat="47.52738" lon="-2.30586">
        <ele>41.200000762939</ele>
        <time>2021-07-25T09:27:32.000Z</time>
      </trkpt>
      <trkpt lat="47.52737" lon="-2.30583">
        <ele>40.799999237061</ele>
        <time>2021-07-25T09:27:33.000Z</time>
      </trkpt>
      <trkpt lat="47.52735" lon="-2.3058">
        <ele>40.400001525879</ele>
        <time>2021-07-25T09:27:34.000Z</time>
      </trkpt>
      <trkpt lat="47.52732" lon="-2.30578">
        <ele>40</ele>
        <time>2021-07-25T09:27:35.000Z</time>
      </trkpt>
      <trkpt lat="47.52729" lon="-2.30575">
        <ele>39.599998474121</ele>
        <time>2021-07-25T09:27:36.000Z</time>
      </trkpt>
      <trkpt lat="47.52724" lon="-2.30569">
        <ele>39.599998474121</ele>
        <time>2021-07-25T09:27:40.000Z</time>
      </trkpt>
      <trkpt lat="47.52722" lon="-2.30568">
        <ele>39.599998474121</ele>
        <time>2021-07-25T09:27:41.000Z</time>
      </trkpt>
      <trkpt lat="47.52721" lon="-2.30557">
        <ele>39.599998474121</ele>
        <time>2021-07-25T09:27:48.000Z</time>
      </trkpt>
      <trkpt lat="47.5272" lon="-2.30554">
        <ele>39.200000762939</ele>
        <time>2021-07-25T09:27:49.000Z</time>
      </trkpt>
      <trkpt lat="47.5272" lon="-2.30553">
        <ele>38.599998474121</ele>
        <time>2021-07-25T09:27:50.000Z</time>
      </trkpt>
      <trkpt lat="47.5272" lon="-2.30552">
        <ele>38.200000762939</ele>
        <time>2021-07-25T09:27:51.000Z</time>
      </trkpt>
      <trkpt lat="47.52719" lon="-2.30551">
        <ele>37.799999237061</ele>
        <time>2021-07-25T09:27:52.000Z</time>
      </trkpt>
      <trkpt lat="47.52718" lon="-2.3055">
        <ele>36.799999237061</ele>
        <time>2021-07-25T09:27:53.000Z</time>
      </trkpt>
      <trkpt lat="47.52715" lon="-2.30541">
        <ele>35</ele>
        <time>2021-07-25T09:28:00.000Z</time>
      </trkpt>
      <trkpt lat="47.52714" lon="-2.30539">
        <ele>34.599998474121</ele>
        <time>2021-07-25T09:28:01.000Z</time>
      </trkpt>
      <trkpt lat="47.52713" lon="-2.30537">
        <ele>34</ele>
        <time>2021-07-25T09:28:02.000Z</time>
      </trkpt>
      <trkpt lat="47.52712" lon="-2.30535">
        <ele>33.599998474121</ele>
        <time>2021-07-25T09:28:03.000Z</time>
      </trkpt>
      <trkpt lat="47.52711" lon="-2.30534">
        <ele>33.200000762939</ele>
        <time>2021-07-25T09:28:04.000Z</time>
      </trkpt>
      <trkpt lat="47.52711" lon="-2.30533">
        <ele>32.599998474121</ele>
        <time>2021-07-25T09:28:05.000Z</time>
      </trkpt>
      <trkpt lat="47.5271" lon="-2.30531">
        <ele>32.200000762939</ele>
        <time>2021-07-25T09:28:06.000Z</time>
      </trkpt>
      <trkpt lat="47.5271" lon="-2.3053">
        <ele>31.60000038147</ele>
        <time>2021-07-25T09:28:07.000Z</time>
      </trkpt>
      <trkpt lat="47.52709" lon="-2.30529">
        <ele>31</ele>
        <time>2021-07-25T09:28:08.000Z</time>
      </trkpt>
      <trkpt lat="47.52709" lon="-2.30528">
        <ele>30.60000038147</ele>
        <time>2021-07-25T09:28:09.000Z</time>
      </trkpt>
      <trkpt lat="47.52708" lon="-2.30527">
        <ele>30.200000762939</ele>
        <time>2021-07-25T09:28:10.000Z</time>
      </trkpt>
      <trkpt lat="47.52708" lon="-2.30525">
        <ele>29.60000038147</ele>
        <time>2021-07-25T09:28:11.000Z</time>
      </trkpt>
      <trkpt lat="47.52708" lon="-2.30524">
        <ele>29.200000762939</ele>
        <time>2021-07-25T09:28:12.000Z</time>
      </trkpt>
      <trkpt lat="47.52704" lon="-2.3052">
        <ele>27</ele>
        <time>2021-07-25T09:28:18.000Z</time>
      </trkpt>
      <trkpt lat="47.52703" lon="-2.30519">
        <ele>26.60000038147</ele>
        <time>2021-07-25T09:28:19.000Z</time>
      </trkpt>
      <trkpt lat="47.52701" lon="-2.30518">
        <ele>26.200000762939</ele>
        <time>2021-07-25T09:28:20.000Z</time>
      </trkpt>
      <trkpt lat="47.52701" lon="-2.30516">
        <ele>25.799999237061</ele>
        <time>2021-07-25T09:28:21.000Z</time>
      </trkpt>
      <trkpt lat="47.52702" lon="-2.30512">
        <ele>25.39999961853</ele>
        <time>2021-07-25T09:28:22.000Z</time>
      </trkpt>
      <trkpt lat="47.52702" lon="-2.30509">
        <ele>25</ele>
        <time>2021-07-25T09:28:23.000Z</time>
      </trkpt>
      <trkpt lat="47.52702" lon="-2.30505">
        <ele>24.39999961853</ele>
        <time>2021-07-25T09:28:24.000Z</time>
      </trkpt>
      <trkpt lat="47.52704" lon="-2.305">
        <ele>23.799999237061</ele>
        <time>2021-07-25T09:28:25.000Z</time>
      </trkpt>
      <trkpt lat="47.52706" lon="-2.30495">
        <ele>23.200000762939</ele>
        <time>2021-07-25T09:28:26.000Z</time>
      </trkpt>
      <trkpt lat="47.52709" lon="-2.3049">
        <ele>22.60000038147</ele>
        <time>2021-07-25T09:28:27.000Z</time>
      </trkpt>
      <trkpt lat="47.52712" lon="-2.30486">
        <ele>22</ele>
        <time>2021-07-25T09:28:28.000Z</time>
      </trkpt>
      <trkpt lat="47.52714" lon="-2.30481">
        <ele>21.39999961853</ele>
        <time>2021-07-25T09:28:29.000Z</time>
      </trkpt>
      <trkpt lat="47.52715" lon="-2.30476">
        <ele>21</ele>
        <time>2021-07-25T09:28:30.000Z</time>
      </trkpt>
      <trkpt lat="47.52715" lon="-2.30473">
        <ele>20.39999961853</ele>
        <time>2021-07-25T09:28:31.000Z</time>
      </trkpt>
      <trkpt lat="47.52715" lon="-2.30471">
        <ele>19.799999237061</ele>
        <time>2021-07-25T09:28:32.000Z</time>
      </trkpt>
      <trkpt lat="47.52715" lon="-2.30471">
        <ele>19.39999961853</ele>
        <time>2021-07-25T09:28:33.000Z</time>
      </trkpt>
      <trkpt lat="47.52723" lon="-2.30456">
        <ele>15.60000038147</ele>
        <time>2021-07-25T09:28:51.000Z</time>
      </trkpt>
      <trkpt lat="47.52724" lon="-2.30453">
        <ele>15</ele>
        <time>2021-07-25T09:28:52.000Z</time>
      </trkpt>
      <trkpt lat="47.52728" lon="-2.30451">
        <ele>14.60000038147</ele>
        <time>2021-07-25T09:28:54.000Z</time>
      </trkpt>
      <trkpt lat="47.52729" lon="-2.3045">
        <ele>14.199999809265</ele>
        <time>2021-07-25T09:28:55.000Z</time>
      </trkpt>
      <trkpt lat="47.52731" lon="-2.30451">
        <ele>13.60000038147</ele>
        <time>2021-07-25T09:28:56.000Z</time>
      </trkpt>
      <trkpt lat="47.52732" lon="-2.3045">
        <ele>13.199999809265</ele>
        <time>2021-07-25T09:28:57.000Z</time>
      </trkpt>
      <trkpt lat="47.52733" lon="-2.3045">
        <ele>12.800000190735</ele>
        <time>2021-07-25T09:28:58.000Z</time>
      </trkpt>
      <trkpt lat="47.52734" lon="-2.3045">
        <ele>12.800000190735</ele>
        <time>2021-07-25T09:28:59.000Z</time>
      </trkpt>
      <trkpt lat="47.52736" lon="-2.30447">
        <ele>12.39999961853</ele>
        <time>2021-07-25T09:29:00.000Z</time>
      </trkpt>
      <trkpt lat="47.52738" lon="-2.30444">
        <ele>11.800000190735</ele>
        <time>2021-07-25T09:29:01.000Z</time>
      </trkpt>
      <trkpt lat="47.52738" lon="-2.30442">
        <ele>11.39999961853</ele>
        <time>2021-07-25T09:29:02.000Z</time>
      </trkpt>
      <trkpt lat="47.52738" lon="-2.30439">
        <ele>11</ele>
        <time>2021-07-25T09:29:03.000Z</time>
      </trkpt>
      <trkpt lat="47.52739" lon="-2.30437">
        <ele>10.60000038147</ele>
        <time>2021-07-25T09:29:04.000Z</time>
      </trkpt>
      <trkpt lat="47.5274" lon="-2.30436">
        <ele>10.60000038147</ele>
        <time>2021-07-25T09:29:05.000Z</time>
      </trkpt>
      <trkpt lat="47.52741" lon="-2.30435">
        <ele>10.60000038147</ele>
        <time>2021-07-25T09:29:06.000Z</time>
      </trkpt>
      <trkpt lat="47.52745" lon="-2.30437">
        <ele>10.60000038147</ele>
        <time>2021-07-25T09:29:19.000Z</time>
      </trkpt>
      <trkpt lat="47.52748" lon="-2.30437">
        <ele>10.60000038147</ele>
        <time>2021-07-25T09:29:21.000Z</time>
      </trkpt>
      <trkpt lat="47.52755" lon="-2.30437">
        <ele>10.60000038147</ele>
        <time>2021-07-25T09:29:25.000Z</time>
      </trkpt>
      <trkpt lat="47.52756" lon="-2.30438">
        <ele>10.60000038147</ele>
        <time>2021-07-25T09:29:26.000Z</time>
      </trkpt>
      <trkpt lat="47.52763" lon="-2.30455">
        <ele>10.60000038147</ele>
        <time>2021-07-25T09:29:33.000Z</time>
      </trkpt>
      <trkpt lat="47.52764" lon="-2.30477">
        <ele>10.60000038147</ele>
        <time>2021-07-25T09:29:39.000Z</time>
      </trkpt>
      <trkpt lat="47.52764" lon="-2.30486">
        <ele>11</ele>
        <time>2021-07-25T09:29:42.000Z</time>
      </trkpt>
      <trkpt lat="47.52764" lon="-2.30489">
        <ele>11.39999961853</ele>
        <time>2021-07-25T09:29:43.000Z</time>
      </trkpt>
      <trkpt lat="47.52764" lon="-2.30492">
        <ele>11.800000190735</ele>
        <time>2021-07-25T09:29:44.000Z</time>
      </trkpt>
      <trkpt lat="47.52764" lon="-2.30495">
        <ele>12.199999809265</ele>
        <time>2021-07-25T09:29:45.000Z</time>
      </trkpt>
      <trkpt lat="47.52764" lon="-2.30497">
        <ele>12.800000190735</ele>
        <time>2021-07-25T09:29:46.000Z</time>
      </trkpt>
      <trkpt lat="47.52766" lon="-2.30511">
        <ele>13.199999809265</ele>
        <time>2021-07-25T09:29:51.000Z</time>
      </trkpt>
      <trkpt lat="47.52767" lon="-2.30513">
        <ele>13.60000038147</ele>
        <time>2021-07-25T09:29:52.000Z</time>
      </trkpt>
      <trkpt lat="47.52768" lon="-2.30515">
        <ele>14</ele>
        <time>2021-07-25T09:29:53.000Z</time>
      </trkpt>
      <trkpt lat="47.52769" lon="-2.30518">
        <ele>14.39999961853</ele>
        <time>2021-07-25T09:29:54.000Z</time>
      </trkpt>
      <trkpt lat="47.52771" lon="-2.30521">
        <ele>14.800000190735</ele>
        <time>2021-07-25T09:29:55.000Z</time>
      </trkpt>
      <trkpt lat="47.52772" lon="-2.30524">
        <ele>15.199999809265</ele>
        <time>2021-07-25T09:29:56.000Z</time>
      </trkpt>
      <trkpt lat="47.52773" lon="-2.30525">
        <ele>15.60000038147</ele>
        <time>2021-07-25T09:29:57.000Z</time>
      </trkpt>
      <trkpt lat="47.52774" lon="-2.30527">
        <ele>16</ele>
        <time>2021-07-25T09:29:58.000Z</time>
      </trkpt>
      <trkpt lat="47.52775" lon="-2.30528">
        <ele>16.39999961853</ele>
        <time>2021-07-25T09:29:59.000Z</time>
      </trkpt>
      <trkpt lat="47.52776" lon="-2.30529">
        <ele>16.799999237061</ele>
        <time>2021-07-25T09:30:00.000Z</time>
      </trkpt>
      <trkpt lat="47.52778" lon="-2.30532">
        <ele>17.200000762939</ele>
        <time>2021-07-25T09:30:03.000Z</time>
      </trkpt>
      <trkpt lat="47.52779" lon="-2.30533">
        <ele>17.60000038147</ele>
        <time>2021-07-25T09:30:04.000Z</time>
      </trkpt>
      <trkpt lat="47.5278" lon="-2.30533">
        <ele>18</ele>
        <time>2021-07-25T09:30:05.000Z</time>
      </trkpt>
      <trkpt lat="47.52782" lon="-2.30534">
        <ele>18.60000038147</ele>
        <time>2021-07-25T09:30:06.000Z</time>
      </trkpt>
      <trkpt lat="47.52784" lon="-2.30536">
        <ele>19</ele>
        <time>2021-07-25T09:30:07.000Z</time>
      </trkpt>
      <trkpt lat="47.52787" lon="-2.30538">
        <ele>19</ele>
        <time>2021-07-25T09:30:08.000Z</time>
      </trkpt>
      <trkpt lat="47.52793" lon="-2.30547">
        <ele>19.39999961853</ele>
        <time>2021-07-25T09:30:12.000Z</time>
      </trkpt>
      <trkpt lat="47.52794" lon="-2.30548">
        <ele>19.799999237061</ele>
        <time>2021-07-25T09:30:13.000Z</time>
      </trkpt>
      <trkpt lat="47.52796" lon="-2.3055">
        <ele>20.200000762939</ele>
        <time>2021-07-25T09:30:14.000Z</time>
      </trkpt>
      <trkpt lat="47.52798" lon="-2.30551">
        <ele>20.60000038147</ele>
        <time>2021-07-25T09:30:15.000Z</time>
      </trkpt>
      <trkpt lat="47.52801" lon="-2.30552">
        <ele>21</ele>
        <time>2021-07-25T09:30:16.000Z</time>
      </trkpt>
      <trkpt lat="47.52804" lon="-2.30554">
        <ele>21</ele>
        <time>2021-07-25T09:30:18.000Z</time>
      </trkpt>
      <trkpt lat="47.52808" lon="-2.30558">
        <ele>21.39999961853</ele>
        <time>2021-07-25T09:30:21.000Z</time>
      </trkpt>
      <trkpt lat="47.52809" lon="-2.30559">
        <ele>21.799999237061</ele>
        <time>2021-07-25T09:30:22.000Z</time>
      </trkpt>
      <trkpt lat="47.52811" lon="-2.30561">
        <ele>22.200000762939</ele>
        <time>2021-07-25T09:30:23.000Z</time>
      </trkpt>
      <trkpt lat="47.52812" lon="-2.30561">
        <ele>22.799999237061</ele>
        <time>2021-07-25T09:30:24.000Z</time>
      </trkpt>
      <trkpt lat="47.52812" lon="-2.30562">
        <ele>23.200000762939</ele>
        <time>2021-07-25T09:30:25.000Z</time>
      </trkpt>
      <trkpt lat="47.5282" lon="-2.30565">
        <ele>23.200000762939</ele>
        <time>2021-07-25T09:30:31.000Z</time>
      </trkpt>
      <trkpt lat="47.52821" lon="-2.30565">
        <ele>23.60000038147</ele>
        <time>2021-07-25T09:30:32.000Z</time>
      </trkpt>
      <trkpt lat="47.52823" lon="-2.30565">
        <ele>24</ele>
        <time>2021-07-25T09:30:33.000Z</time>
      </trkpt>
      <trkpt lat="47.52824" lon="-2.30565">
        <ele>24.39999961853</ele>
        <time>2021-07-25T09:30:34.000Z</time>
      </trkpt>
      <trkpt lat="47.52825" lon="-2.30566">
        <ele>24.799999237061</ele>
        <time>2021-07-25T09:30:35.000Z</time>
      </trkpt>
      <trkpt lat="47.52826" lon="-2.30566">
        <ele>25.200000762939</ele>
        <time>2021-07-25T09:30:36.000Z</time>
      </trkpt>
      <trkpt lat="47.52828" lon="-2.30569">
        <ele>25.200000762939</ele>
        <time>2021-07-25T09:30:39.000Z</time>
      </trkpt>
      <trkpt lat="47.52835" lon="-2.30575">
        <ele>25.200000762939</ele>
        <time>2021-07-25T09:30:45.000Z</time>
      </trkpt>
      <trkpt lat="47.52837" lon="-2.30577">
        <ele>26</ele>
        <time>2021-07-25T09:30:46.000Z</time>
      </trkpt>
      <trkpt lat="47.52838" lon="-2.3058">
        <ele>26.39999961853</ele>
        <time>2021-07-25T09:30:47.000Z</time>
      </trkpt>
      <trkpt lat="47.52839" lon="-2.30582">
        <ele>26.799999237061</ele>
        <time>2021-07-25T09:30:48.000Z</time>
      </trkpt>
      <trkpt lat="47.52839" lon="-2.30583">
        <ele>27.200000762939</ele>
        <time>2021-07-25T09:30:49.000Z</time>
      </trkpt>
      <trkpt lat="47.52842" lon="-2.30588">
        <ele>27.200000762939</ele>
        <time>2021-07-25T09:30:51.000Z</time>
      </trkpt>
      <trkpt lat="47.52844" lon="-2.3059">
        <ele>27.200000762939</ele>
        <time>2021-07-25T09:30:52.000Z</time>
      </trkpt>
      <trkpt lat="47.52851" lon="-2.30598">
        <ele>27.200000762939</ele>
        <time>2021-07-25T09:30:57.000Z</time>
      </trkpt>
      <trkpt lat="47.52854" lon="-2.30603">
        <ele>27.60000038147</ele>
        <time>2021-07-25T09:31:00.000Z</time>
      </trkpt>
      <trkpt lat="47.52855" lon="-2.30604">
        <ele>28</ele>
        <time>2021-07-25T09:31:01.000Z</time>
      </trkpt>
      <trkpt lat="47.52856" lon="-2.30605">
        <ele>28.60000038147</ele>
        <time>2021-07-25T09:31:02.000Z</time>
      </trkpt>
      <trkpt lat="47.52857" lon="-2.30607">
        <ele>29</ele>
        <time>2021-07-25T09:31:03.000Z</time>
      </trkpt>
      <trkpt lat="47.52858" lon="-2.30608">
        <ele>29.39999961853</ele>
        <time>2021-07-25T09:31:04.000Z</time>
      </trkpt>
      <trkpt lat="47.52863" lon="-2.30614">
        <ele>29.39999961853</ele>
        <time>2021-07-25T09:31:11.000Z</time>
      </trkpt>
      <trkpt lat="47.52874" lon="-2.30653">
        <ele>31.39999961853</ele>
        <time>2021-07-25T09:31:28.000Z</time>
      </trkpt>
      <trkpt lat="47.52876" lon="-2.30656">
        <ele>31.799999237061</ele>
        <time>2021-07-25T09:31:29.000Z</time>
      </trkpt>
      <trkpt lat="47.52877" lon="-2.30659">
        <ele>32.400001525879</ele>
        <time>2021-07-25T09:31:30.000Z</time>
      </trkpt>
      <trkpt lat="47.52877" lon="-2.30662">
        <ele>32.799999237061</ele>
        <time>2021-07-25T09:31:31.000Z</time>
      </trkpt>
      <trkpt lat="47.52877" lon="-2.30665">
        <ele>33.200000762939</ele>
        <time>2021-07-25T09:31:32.000Z</time>
      </trkpt>
      <trkpt lat="47.52879" lon="-2.30669">
        <ele>33.599998474121</ele>
        <time>2021-07-25T09:31:33.000Z</time>
      </trkpt>
      <trkpt lat="47.52881" lon="-2.30676">
        <ele>33.599998474121</ele>
        <time>2021-07-25T09:31:36.000Z</time>
      </trkpt>
      <trkpt lat="47.52884" lon="-2.30682">
        <ele>33.599998474121</ele>
        <time>2021-07-25T09:31:38.000Z</time>
      </trkpt>
      <trkpt lat="47.52888" lon="-2.30697">
        <ele>33.599998474121</ele>
        <time>2021-07-25T09:31:42.000Z</time>
      </trkpt>
      <trkpt lat="47.52892" lon="-2.30709">
        <ele>33.599998474121</ele>
        <time>2021-07-25T09:31:47.000Z</time>
      </trkpt>
      <trkpt lat="47.52895" lon="-2.30714">
        <ele>33.599998474121</ele>
        <time>2021-07-25T09:31:49.000Z</time>
      </trkpt>
      <trkpt lat="47.529" lon="-2.30728">
        <ele>33.599998474121</ele>
        <time>2021-07-25T09:31:55.000Z</time>
      </trkpt>
      <trkpt lat="47.529" lon="-2.30734">
        <ele>33.599998474121</ele>
        <time>2021-07-25T09:31:56.000Z</time>
      </trkpt>
      <trkpt lat="47.52899" lon="-2.30754">
        <ele>33.599998474121</ele>
        <time>2021-07-25T09:32:00.000Z</time>
      </trkpt>
      <trkpt lat="47.529" lon="-2.30758">
        <ele>33.599998474121</ele>
        <time>2021-07-25T09:32:01.000Z</time>
      </trkpt>
      <trkpt lat="47.52901" lon="-2.30767">
        <ele>34</ele>
        <time>2021-07-25T09:32:03.000Z</time>
      </trkpt>
      <trkpt lat="47.52901" lon="-2.3077">
        <ele>34.400001525879</ele>
        <time>2021-07-25T09:32:04.000Z</time>
      </trkpt>
      <trkpt lat="47.52902" lon="-2.30773">
        <ele>34.799999237061</ele>
        <time>2021-07-25T09:32:05.000Z</time>
      </trkpt>
      <trkpt lat="47.52903" lon="-2.30776">
        <ele>35.200000762939</ele>
        <time>2021-07-25T09:32:06.000Z</time>
      </trkpt>
      <trkpt lat="47.52904" lon="-2.30779">
        <ele>35.599998474121</ele>
        <time>2021-07-25T09:32:07.000Z</time>
      </trkpt>
      <trkpt lat="47.52906" lon="-2.30787">
        <ele>35.599998474121</ele>
        <time>2021-07-25T09:32:10.000Z</time>
      </trkpt>
      <trkpt lat="47.52905" lon="-2.30792">
        <ele>35.599998474121</ele>
        <time>2021-07-25T09:32:12.000Z</time>
      </trkpt>
      <trkpt lat="47.52903" lon="-2.30805">
        <ele>36</ele>
        <time>2021-07-25T09:32:17.000Z</time>
      </trkpt>
      <trkpt lat="47.52902" lon="-2.30806">
        <ele>36.400001525879</ele>
        <time>2021-07-25T09:32:18.000Z</time>
      </trkpt>
      <trkpt lat="47.52901" lon="-2.30808">
        <ele>37</ele>
        <time>2021-07-25T09:32:19.000Z</time>
      </trkpt>
      <trkpt lat="47.529" lon="-2.3081">
        <ele>37.400001525879</ele>
        <time>2021-07-25T09:32:20.000Z</time>
      </trkpt>
      <trkpt lat="47.52899" lon="-2.30811">
        <ele>37.799999237061</ele>
        <time>2021-07-25T09:32:21.000Z</time>
      </trkpt>
      <trkpt lat="47.52898" lon="-2.30818">
        <ele>38.200000762939</ele>
        <time>2021-07-25T09:32:24.000Z</time>
      </trkpt>
      <trkpt lat="47.52898" lon="-2.30819">
        <ele>39.200000762939</ele>
        <time>2021-07-25T09:32:25.000Z</time>
      </trkpt>
      <trkpt lat="47.52898" lon="-2.3082">
        <ele>39.599998474121</ele>
        <time>2021-07-25T09:32:26.000Z</time>
      </trkpt>
      <trkpt lat="47.52898" lon="-2.30822">
        <ele>40</ele>
        <time>2021-07-25T09:32:27.000Z</time>
      </trkpt>
      <trkpt lat="47.52897" lon="-2.30823">
        <ele>40</ele>
        <time>2021-07-25T09:32:28.000Z</time>
      </trkpt>
      <trkpt lat="47.52903" lon="-2.30836">
        <ele>42</ele>
        <time>2021-07-25T09:33:01.000Z</time>
      </trkpt>
      <trkpt lat="47.52907" lon="-2.30835">
        <ele>42</ele>
        <time>2021-07-25T09:33:03.000Z</time>
      </trkpt>
      <trkpt lat="47.52912" lon="-2.30833">
        <ele>41.599998474121</ele>
        <time>2021-07-25T09:33:05.000Z</time>
      </trkpt>
      <trkpt lat="47.52915" lon="-2.30831">
        <ele>41.200000762939</ele>
        <time>2021-07-25T09:33:06.000Z</time>
      </trkpt>
      <trkpt lat="47.52919" lon="-2.30831">
        <ele>40.799999237061</ele>
        <time>2021-07-25T09:33:07.000Z</time>
      </trkpt>
      <trkpt lat="47.52923" lon="-2.30833">
        <ele>40.400001525879</ele>
        <time>2021-07-25T09:33:08.000Z</time>
      </trkpt>
      <trkpt lat="47.52927" lon="-2.30836">
        <ele>40</ele>
        <time>2021-07-25T09:33:09.000Z</time>
      </trkpt>
      <trkpt lat="47.52939" lon="-2.30853">
        <ele>40</ele>
        <time>2021-07-25T09:33:13.000Z</time>
      </trkpt>
      <trkpt lat="47.52945" lon="-2.30875">
        <ele>40</ele>
        <time>2021-07-25T09:33:17.000Z</time>
      </trkpt>
      <trkpt lat="47.52946" lon="-2.30881">
        <ele>40</ele>
        <time>2021-07-25T09:33:18.000Z</time>
      </trkpt>
      <trkpt lat="47.52945" lon="-2.30926">
        <ele>40</ele>
        <time>2021-07-25T09:33:26.000Z</time>
      </trkpt>
      <trkpt lat="47.52944" lon="-2.30939">
        <ele>40.400001525879</ele>
        <time>2021-07-25T09:33:29.000Z</time>
      </trkpt>
      <trkpt lat="47.52944" lon="-2.30943">
        <ele>40.799999237061</ele>
        <time>2021-07-25T09:33:30.000Z</time>
      </trkpt>
      <trkpt lat="47.52944" lon="-2.30947">
        <ele>41.200000762939</ele>
        <time>2021-07-25T09:33:31.000Z</time>
      </trkpt>
      <trkpt lat="47.52943" lon="-2.30951">
        <ele>41.599998474121</ele>
        <time>2021-07-25T09:33:32.000Z</time>
      </trkpt>
      <trkpt lat="47.52943" lon="-2.30955">
        <ele>42.200000762939</ele>
        <time>2021-07-25T09:33:33.000Z</time>
      </trkpt>
      <trkpt lat="47.52938" lon="-2.30968">
        <ele>42.200000762939</ele>
        <time>2021-07-25T09:33:37.000Z</time>
      </trkpt>
      <trkpt lat="47.52936" lon="-2.30977">
        <ele>42.200000762939</ele>
        <time>2021-07-25T09:33:40.000Z</time>
      </trkpt>
      <trkpt lat="47.52939" lon="-2.30982">
        <ele>42.200000762939</ele>
        <time>2021-07-25T09:33:42.000Z</time>
      </trkpt>
      <trkpt lat="47.52945" lon="-2.30977">
        <ele>42.599998474121</ele>
        <time>2021-07-25T09:33:45.000Z</time>
      </trkpt>
      <trkpt lat="47.52946" lon="-2.30975">
        <ele>43</ele>
        <time>2021-07-25T09:33:46.000Z</time>
      </trkpt>
      <trkpt lat="47.52947" lon="-2.30971">
        <ele>43.400001525879</ele>
        <time>2021-07-25T09:33:47.000Z</time>
      </trkpt>
      <trkpt lat="47.52948" lon="-2.30967">
        <ele>43.799999237061</ele>
        <time>2021-07-25T09:33:48.000Z</time>
      </trkpt>
      <trkpt lat="47.52949" lon="-2.30962">
        <ele>44.200000762939</ele>
        <time>2021-07-25T09:33:49.000Z</time>
      </trkpt>
      <trkpt lat="47.5295" lon="-2.30957">
        <ele>44.200000762939</ele>
        <time>2021-07-25T09:33:50.000Z</time>
      </trkpt>
      <trkpt lat="47.52958" lon="-2.30924">
        <ele>44.200000762939</ele>
        <time>2021-07-25T09:33:56.000Z</time>
      </trkpt>
      <trkpt lat="47.52967" lon="-2.30893">
        <ele>44.200000762939</ele>
        <time>2021-07-25T09:34:02.000Z</time>
      </trkpt>
      <trkpt lat="47.5297" lon="-2.30873">
        <ele>44.200000762939</ele>
        <time>2021-07-25T09:34:05.000Z</time>
      </trkpt>
      <trkpt lat="47.52971" lon="-2.30852">
        <ele>44.200000762939</ele>
        <time>2021-07-25T09:34:09.000Z</time>
      </trkpt>
      <trkpt lat="47.52967" lon="-2.30836">
        <ele>44.599998474121</ele>
        <time>2021-07-25T09:34:13.000Z</time>
      </trkpt>
      <trkpt lat="47.52966" lon="-2.30833">
        <ele>45</ele>
        <time>2021-07-25T09:34:14.000Z</time>
      </trkpt>
      <trkpt lat="47.52965" lon="-2.3083">
        <ele>45.400001525879</ele>
        <time>2021-07-25T09:34:15.000Z</time>
      </trkpt>
      <trkpt lat="47.52963" lon="-2.30826">
        <ele>45.799999237061</ele>
        <time>2021-07-25T09:34:16.000Z</time>
      </trkpt>
      <trkpt lat="47.52961" lon="-2.30823">
        <ele>46.200000762939</ele>
        <time>2021-07-25T09:34:17.000Z</time>
      </trkpt>
      <trkpt lat="47.52957" lon="-2.30807">
        <ele>46.200000762939</ele>
        <time>2021-07-25T09:34:21.000Z</time>
      </trkpt>
      <trkpt lat="47.52946" lon="-2.30784">
        <ele>46.200000762939</ele>
        <time>2021-07-25T09:34:27.000Z</time>
      </trkpt>
      <trkpt lat="47.52931" lon="-2.30745">
        <ele>46.200000762939</ele>
        <time>2021-07-25T09:34:35.000Z</time>
      </trkpt>
      <trkpt lat="47.5292" lon="-2.30703">
        <ele>46.200000762939</ele>
        <time>2021-07-25T09:34:43.000Z</time>
      </trkpt>
      <trkpt lat="47.5292" lon="-2.30674">
        <ele>46.200000762939</ele>
        <time>2021-07-25T09:34:48.000Z</time>
      </trkpt>
      <trkpt lat="47.52922" lon="-2.30633">
        <ele>46.200000762939</ele>
        <time>2021-07-25T09:34:55.000Z</time>
      </trkpt>
      <trkpt lat="47.52922" lon="-2.30627">
        <ele>46.599998474121</ele>
        <time>2021-07-25T09:34:56.000Z</time>
      </trkpt>
      <trkpt lat="47.52923" lon="-2.30622">
        <ele>47</ele>
        <time>2021-07-25T09:34:57.000Z</time>
      </trkpt>
      <trkpt lat="47.52923" lon="-2.30617">
        <ele>47.400001525879</ele>
        <time>2021-07-25T09:34:58.000Z</time>
      </trkpt>
      <trkpt lat="47.52922" lon="-2.30613">
        <ele>47.799999237061</ele>
        <time>2021-07-25T09:34:59.000Z</time>
      </trkpt>
      <trkpt lat="47.52922" lon="-2.30609">
        <ele>48.400001525879</ele>
        <time>2021-07-25T09:35:00.000Z</time>
      </trkpt>
      <trkpt lat="47.52921" lon="-2.30605">
        <ele>48.400001525879</ele>
        <time>2021-07-25T09:35:01.000Z</time>
      </trkpt>
      <trkpt lat="47.52912" lon="-2.30581">
        <ele>48.400001525879</ele>
        <time>2021-07-25T09:35:06.000Z</time>
      </trkpt>
      <trkpt lat="47.52905" lon="-2.30556">
        <ele>48.400001525879</ele>
        <time>2021-07-25T09:35:12.000Z</time>
      </trkpt>
      <trkpt lat="47.52903" lon="-2.30539">
        <ele>48.400001525879</ele>
        <time>2021-07-25T09:35:16.000Z</time>
      </trkpt>
      <trkpt lat="47.52909" lon="-2.30517">
        <ele>48.799999237061</ele>
        <time>2021-07-25T09:35:22.000Z</time>
      </trkpt>
      <trkpt lat="47.5291" lon="-2.30513">
        <ele>49.200000762939</ele>
        <time>2021-07-25T09:35:23.000Z</time>
      </trkpt>
      <trkpt lat="47.52912" lon="-2.30509">
        <ele>49.599998474121</ele>
        <time>2021-07-25T09:35:24.000Z</time>
      </trkpt>
      <trkpt lat="47.52914" lon="-2.30505">
        <ele>50</ele>
        <time>2021-07-25T09:35:25.000Z</time>
      </trkpt>
      <trkpt lat="47.52916" lon="-2.30501">
        <ele>50.400001525879</ele>
        <time>2021-07-25T09:35:26.000Z</time>
      </trkpt>
      <trkpt lat="47.52918" lon="-2.30497">
        <ele>50.400001525879</ele>
        <time>2021-07-25T09:35:27.000Z</time>
      </trkpt>
      <trkpt lat="47.52929" lon="-2.30477">
        <ele>50.400001525879</ele>
        <time>2021-07-25T09:35:33.000Z</time>
      </trkpt>
      <trkpt lat="47.52937" lon="-2.30462">
        <ele>50.400001525879</ele>
        <time>2021-07-25T09:35:38.000Z</time>
      </trkpt>
      <trkpt lat="47.52946" lon="-2.30442">
        <ele>50.400001525879</ele>
        <time>2021-07-25T09:35:43.000Z</time>
      </trkpt>
      <trkpt lat="47.52955" lon="-2.30414">
        <ele>50.400001525879</ele>
        <time>2021-07-25T09:35:49.000Z</time>
      </trkpt>
      <trkpt lat="47.52956" lon="-2.30396">
        <ele>50.400001525879</ele>
        <time>2021-07-25T09:35:54.000Z</time>
      </trkpt>
      <trkpt lat="47.52957" lon="-2.30394">
        <ele>50.400001525879</ele>
        <time>2021-07-25T09:35:57.000Z</time>
      </trkpt>
      <trkpt lat="47.5296" lon="-2.30392">
        <ele>48.799999237061</ele>
        <time>2021-07-25T09:36:04.000Z</time>
      </trkpt>
      <trkpt lat="47.52963" lon="-2.30392">
        <ele>48.200000762939</ele>
        <time>2021-07-25T09:36:05.000Z</time>
      </trkpt>
      <trkpt lat="47.5297" lon="-2.30393">
        <ele>48.200000762939</ele>
        <time>2021-07-25T09:36:08.000Z</time>
      </trkpt>
      <trkpt lat="47.52972" lon="-2.30394">
        <ele>48.200000762939</ele>
        <time>2021-07-25T09:36:11.000Z</time>
      </trkpt>
      <trkpt lat="47.52977" lon="-2.30394">
        <ele>48.200000762939</ele>
        <time>2021-07-25T09:36:52.000Z</time>
      </trkpt>
      <trkpt lat="47.52979" lon="-2.30393">
        <ele>48.200000762939</ele>
        <time>2021-07-25T09:36:53.000Z</time>
      </trkpt>
      <trkpt lat="47.52985" lon="-2.30385">
        <ele>47.400001525879</ele>
        <time>2021-07-25T09:36:56.000Z</time>
      </trkpt>
      <trkpt lat="47.52988" lon="-2.30382">
        <ele>47</ele>
        <time>2021-07-25T09:36:57.000Z</time>
      </trkpt>
      <trkpt lat="47.5299" lon="-2.3038">
        <ele>46.599998474121</ele>
        <time>2021-07-25T09:36:58.000Z</time>
      </trkpt>
      <trkpt lat="47.52994" lon="-2.30378">
        <ele>46</ele>
        <time>2021-07-25T09:36:59.000Z</time>
      </trkpt>
      <trkpt lat="47.52997" lon="-2.30375">
        <ele>45.400001525879</ele>
        <time>2021-07-25T09:37:00.000Z</time>
      </trkpt>
      <trkpt lat="47.53" lon="-2.30375">
        <ele>44.799999237061</ele>
        <time>2021-07-25T09:37:01.000Z</time>
      </trkpt>
      <trkpt lat="47.53004" lon="-2.30376">
        <ele>44.200000762939</ele>
        <time>2021-07-25T09:37:02.000Z</time>
      </trkpt>
      <trkpt lat="47.53009" lon="-2.30378">
        <ele>43.599998474121</ele>
        <time>2021-07-25T09:37:03.000Z</time>
      </trkpt>
      <trkpt lat="47.5302" lon="-2.30387">
        <ele>43.599998474121</ele>
        <time>2021-07-25T09:37:06.000Z</time>
      </trkpt>
      <trkpt lat="47.53036" lon="-2.3039">
        <ele>43.599998474121</ele>
        <time>2021-07-25T09:37:11.000Z</time>
      </trkpt>
      <trkpt lat="47.53042" lon="-2.30373">
        <ele>43.599998474121</ele>
        <time>2021-07-25T09:37:14.000Z</time>
      </trkpt>
      <trkpt lat="47.53045" lon="-2.30366">
        <ele>43.599998474121</ele>
        <time>2021-07-25T09:37:15.000Z</time>
      </trkpt>
      <trkpt lat="47.5305" lon="-2.30351">
        <ele>43.599998474121</ele>
        <time>2021-07-25T09:37:17.000Z</time>
      </trkpt>
      <trkpt lat="47.53052" lon="-2.30344">
        <ele>43.200000762939</ele>
        <time>2021-07-25T09:37:18.000Z</time>
      </trkpt>
      <trkpt lat="47.53055" lon="-2.30337">
        <ele>42.799999237061</ele>
        <time>2021-07-25T09:37:19.000Z</time>
      </trkpt>
      <trkpt lat="47.53057" lon="-2.30332">
        <ele>42.400001525879</ele>
        <time>2021-07-25T09:37:20.000Z</time>
      </trkpt>
      <trkpt lat="47.53057" lon="-2.30326">
        <ele>42</ele>
        <time>2021-07-25T09:37:21.000Z</time>
      </trkpt>
      <trkpt lat="47.53056" lon="-2.30321">
        <ele>41</ele>
        <time>2021-07-25T09:37:22.000Z</time>
      </trkpt>
      <trkpt lat="47.53052" lon="-2.30318">
        <ele>40.400001525879</ele>
        <time>2021-07-25T09:37:23.000Z</time>
      </trkpt>
      <trkpt lat="47.53048" lon="-2.30317">
        <ele>40</ele>
        <time>2021-07-25T09:37:24.000Z</time>
      </trkpt>
      <trkpt lat="47.53043" lon="-2.30318">
        <ele>39.400001525879</ele>
        <time>2021-07-25T09:37:25.000Z</time>
      </trkpt>
      <trkpt lat="47.53034" lon="-2.30323">
        <ele>39</ele>
        <time>2021-07-25T09:37:27.000Z</time>
      </trkpt>
      <trkpt lat="47.53028" lon="-2.30325">
        <ele>38.599998474121</ele>
        <time>2021-07-25T09:37:28.000Z</time>
      </trkpt>
      <trkpt lat="47.53023" lon="-2.30328">
        <ele>38.200000762939</ele>
        <time>2021-07-25T09:37:29.000Z</time>
      </trkpt>
      <trkpt lat="47.53017" lon="-2.30331">
        <ele>37.799999237061</ele>
        <time>2021-07-25T09:37:30.000Z</time>
      </trkpt>
      <trkpt lat="47.53012" lon="-2.30334">
        <ele>37.200000762939</ele>
        <time>2021-07-25T09:37:31.000Z</time>
      </trkpt>
      <trkpt lat="47.52996" lon="-2.30341">
        <ele>37.200000762939</ele>
        <time>2021-07-25T09:37:34.000Z</time>
      </trkpt>
      <trkpt lat="47.52991" lon="-2.30339">
        <ele>37.200000762939</ele>
        <time>2021-07-25T09:37:35.000Z</time>
      </trkpt>
      <trkpt lat="47.5299" lon="-2.30324">
        <ele>37.200000762939</ele>
        <time>2021-07-25T09:37:38.000Z</time>
      </trkpt>
      <trkpt lat="47.52997" lon="-2.30314">
        <ele>36.799999237061</ele>
        <time>2021-07-25T09:37:40.000Z</time>
      </trkpt>
      <trkpt lat="47.53002" lon="-2.30309">
        <ele>36.400001525879</ele>
        <time>2021-07-25T09:37:41.000Z</time>
      </trkpt>
      <trkpt lat="47.53007" lon="-2.30304">
        <ele>36</ele>
        <time>2021-07-25T09:37:42.000Z</time>
      </trkpt>
      <trkpt lat="47.53012" lon="-2.30299">
        <ele>35.400001525879</ele>
        <time>2021-07-25T09:37:43.000Z</time>
      </trkpt>
      <trkpt lat="47.53018" lon="-2.30293">
        <ele>35</ele>
        <time>2021-07-25T09:37:44.000Z</time>
      </trkpt>
      <trkpt lat="47.53029" lon="-2.3028">
        <ele>34</ele>
        <time>2021-07-25T09:37:46.000Z</time>
      </trkpt>
      <trkpt lat="47.53033" lon="-2.30273">
        <ele>33.599998474121</ele>
        <time>2021-07-25T09:37:47.000Z</time>
      </trkpt>
      <trkpt lat="47.53038" lon="-2.30267">
        <ele>32.799999237061</ele>
        <time>2021-07-25T09:37:48.000Z</time>
      </trkpt>
      <trkpt lat="47.53043" lon="-2.30262">
        <ele>32.200000762939</ele>
        <time>2021-07-25T09:37:49.000Z</time>
      </trkpt>
      <trkpt lat="47.53049" lon="-2.30258">
        <ele>31.60000038147</ele>
        <time>2021-07-25T09:37:50.000Z</time>
      </trkpt>
      <trkpt lat="47.53054" lon="-2.30255">
        <ele>30.799999237061</ele>
        <time>2021-07-25T09:37:51.000Z</time>
      </trkpt>
      <trkpt lat="47.5306" lon="-2.30252">
        <ele>30.200000762939</ele>
        <time>2021-07-25T09:37:52.000Z</time>
      </trkpt>
      <trkpt lat="47.53067" lon="-2.3025">
        <ele>29.60000038147</ele>
        <time>2021-07-25T09:37:53.000Z</time>
      </trkpt>
      <trkpt lat="47.53074" lon="-2.30248">
        <ele>29.200000762939</ele>
        <time>2021-07-25T09:37:54.000Z</time>
      </trkpt>
      <trkpt lat="47.53081" lon="-2.30246">
        <ele>28.60000038147</ele>
        <time>2021-07-25T09:37:55.000Z</time>
      </trkpt>
      <trkpt lat="47.53089" lon="-2.30244">
        <ele>27.799999237061</ele>
        <time>2021-07-25T09:37:56.000Z</time>
      </trkpt>
      <trkpt lat="47.53096" lon="-2.30243">
        <ele>27.200000762939</ele>
        <time>2021-07-25T09:37:57.000Z</time>
      </trkpt>
      <trkpt lat="47.53103" lon="-2.30242">
        <ele>26.60000038147</ele>
        <time>2021-07-25T09:37:58.000Z</time>
      </trkpt>
      <trkpt lat="47.53111" lon="-2.30241">
        <ele>26</ele>
        <time>2021-07-25T09:37:59.000Z</time>
      </trkpt>
      <trkpt lat="47.53119" lon="-2.30241">
        <ele>25.39999961853</ele>
        <time>2021-07-25T09:38:00.000Z</time>
      </trkpt>
      <trkpt lat="47.53127" lon="-2.3024">
        <ele>24.799999237061</ele>
        <time>2021-07-25T09:38:01.000Z</time>
      </trkpt>
      <trkpt lat="47.53135" lon="-2.3024">
        <ele>24.200000762939</ele>
        <time>2021-07-25T09:38:02.000Z</time>
      </trkpt>
      <trkpt lat="47.53144" lon="-2.30242">
        <ele>23.60000038147</ele>
        <time>2021-07-25T09:38:03.000Z</time>
      </trkpt>
      <trkpt lat="47.53152" lon="-2.30244">
        <ele>23</ele>
        <time>2021-07-25T09:38:04.000Z</time>
      </trkpt>
      <trkpt lat="47.5316" lon="-2.30247">
        <ele>22.60000038147</ele>
        <time>2021-07-25T09:38:05.000Z</time>
      </trkpt>
      <trkpt lat="47.53168" lon="-2.3025">
        <ele>22</ele>
        <time>2021-07-25T09:38:06.000Z</time>
      </trkpt>
      <trkpt lat="47.53176" lon="-2.3025">
        <ele>21.39999961853</ele>
        <time>2021-07-25T09:38:07.000Z</time>
      </trkpt>
      <trkpt lat="47.53181" lon="-2.30247">
        <ele>20.799999237061</ele>
        <time>2021-07-25T09:38:08.000Z</time>
      </trkpt>
      <trkpt lat="47.53185" lon="-2.30242">
        <ele>20</ele>
        <time>2021-07-25T09:38:09.000Z</time>
      </trkpt>
      <trkpt lat="47.53185" lon="-2.30236">
        <ele>19.200000762939</ele>
        <time>2021-07-25T09:38:10.000Z</time>
      </trkpt>
      <trkpt lat="47.53184" lon="-2.30229">
        <ele>17.39999961853</ele>
        <time>2021-07-25T09:38:11.000Z</time>
      </trkpt>
      <trkpt lat="47.53181" lon="-2.30223">
        <ele>16.60000038147</ele>
        <time>2021-07-25T09:38:12.000Z</time>
      </trkpt>
      <trkpt lat="47.53178" lon="-2.30218">
        <ele>15.800000190735</ele>
        <time>2021-07-25T09:38:13.000Z</time>
      </trkpt>
      <trkpt lat="47.53174" lon="-2.30213">
        <ele>15.800000190735</ele>
        <time>2021-07-25T09:38:14.000Z</time>
      </trkpt>
      <trkpt lat="47.53169" lon="-2.30209">
        <ele>15.199999809265</ele>
        <time>2021-07-25T09:38:15.000Z</time>
      </trkpt>
      <trkpt lat="47.53162" lon="-2.30205">
        <ele>14.60000038147</ele>
        <time>2021-07-25T09:38:16.000Z</time>
      </trkpt>
      <trkpt lat="47.53155" lon="-2.30202">
        <ele>14.199999809265</ele>
        <time>2021-07-25T09:38:17.000Z</time>
      </trkpt>
      <trkpt lat="47.53149" lon="-2.30199">
        <ele>13.60000038147</ele>
        <time>2021-07-25T09:38:18.000Z</time>
      </trkpt>
      <trkpt lat="47.53142" lon="-2.30198">
        <ele>13</ele>
        <time>2021-07-25T09:38:19.000Z</time>
      </trkpt>
      <trkpt lat="47.53137" lon="-2.30197">
        <ele>12.60000038147</ele>
        <time>2021-07-25T09:38:20.000Z</time>
      </trkpt>
      <trkpt lat="47.53132" lon="-2.30196">
        <ele>12.199999809265</ele>
        <time>2021-07-25T09:38:21.000Z</time>
      </trkpt>
      <trkpt lat="47.53127" lon="-2.30193">
        <ele>11.800000190735</ele>
        <time>2021-07-25T09:38:22.000Z</time>
      </trkpt>
      <trkpt lat="47.53122" lon="-2.30191">
        <ele>11.39999961853</ele>
        <time>2021-07-25T09:38:23.000Z</time>
      </trkpt>
      <trkpt lat="47.53117" lon="-2.30188">
        <ele>11</ele>
        <time>2021-07-25T09:38:24.000Z</time>
      </trkpt>
      <trkpt lat="47.53113" lon="-2.30189">
        <ele>11</ele>
        <time>2021-07-25T09:38:25.000Z</time>
      </trkpt>
      <trkpt lat="47.53108" lon="-2.3019">
        <ele>11</ele>
        <time>2021-07-25T09:38:26.000Z</time>
      </trkpt>
      <trkpt lat="47.53103" lon="-2.30192">
        <ele>11</ele>
        <time>2021-07-25T09:38:27.000Z</time>
      </trkpt>
      <trkpt lat="47.53095" lon="-2.30198">
        <ele>11</ele>
        <time>2021-07-25T09:38:30.000Z</time>
      </trkpt>
      <trkpt lat="47.53093" lon="-2.302">
        <ele>11</ele>
        <time>2021-07-25T09:38:32.000Z</time>
      </trkpt>
      <trkpt lat="47.53092" lon="-2.30201">
        <ele>11</ele>
        <time>2021-07-25T09:38:35.000Z</time>
      </trkpt>
      <trkpt lat="47.53091" lon="-2.30202">
        <ele>11</ele>
        <time>2021-07-25T09:38:36.000Z</time>
      </trkpt>
      <trkpt lat="47.53088" lon="-2.30205">
        <ele>11</ele>
        <time>2021-07-25T09:39:36.000Z</time>
      </trkpt>
      <trkpt lat="47.53084" lon="-2.30207">
        <ele>11</ele>
        <time>2021-07-25T09:39:38.000Z</time>
      </trkpt>
      <trkpt lat="47.5308" lon="-2.30209">
        <ele>11</ele>
        <time>2021-07-25T09:39:40.000Z</time>
      </trkpt>
      <trkpt lat="47.53074" lon="-2.30211">
        <ele>11</ele>
        <time>2021-07-25T09:39:43.000Z</time>
      </trkpt>
      <trkpt lat="47.53063" lon="-2.30215">
        <ele>11</ele>
        <time>2021-07-25T09:39:49.000Z</time>
      </trkpt>
      <trkpt lat="47.53054" lon="-2.30221">
        <ele>11</ele>
        <time>2021-07-25T09:39:54.000Z</time>
      </trkpt>
      <trkpt lat="47.53051" lon="-2.30226">
        <ele>11.39999961853</ele>
        <time>2021-07-25T09:39:57.000Z</time>
      </trkpt>
      <trkpt lat="47.5305" lon="-2.30228">
        <ele>11.800000190735</ele>
        <time>2021-07-25T09:39:58.000Z</time>
      </trkpt>
      <trkpt lat="47.5305" lon="-2.30229">
        <ele>12.199999809265</ele>
        <time>2021-07-25T09:39:59.000Z</time>
      </trkpt>
      <trkpt lat="47.53049" lon="-2.3023">
        <ele>12.60000038147</ele>
        <time>2021-07-25T09:40:00.000Z</time>
      </trkpt>
      <trkpt lat="47.53047" lon="-2.30231">
        <ele>13</ele>
        <time>2021-07-25T09:40:01.000Z</time>
      </trkpt>
      <trkpt lat="47.5304" lon="-2.3023">
        <ele>13</ele>
        <time>2021-07-25T09:40:04.000Z</time>
      </trkpt>
      <trkpt lat="47.53033" lon="-2.30232">
        <ele>13</ele>
        <time>2021-07-25T09:40:06.000Z</time>
      </trkpt>
      <trkpt lat="47.53025" lon="-2.30237">
        <ele>13</ele>
        <time>2021-07-25T09:40:09.000Z</time>
      </trkpt>
      <trkpt lat="47.53009" lon="-2.30249">
        <ele>13</ele>
        <time>2021-07-25T09:40:13.000Z</time>
      </trkpt>
      <trkpt lat="47.52998" lon="-2.30263">
        <ele>13</ele>
        <time>2021-07-25T09:40:17.000Z</time>
      </trkpt>
      <trkpt lat="47.52982" lon="-2.30275">
        <ele>13.39999961853</ele>
        <time>2021-07-25T09:40:24.000Z</time>
      </trkpt>
      <trkpt lat="47.5298" lon="-2.30276">
        <ele>14</ele>
        <time>2021-07-25T09:40:25.000Z</time>
      </trkpt>
      <trkpt lat="47.52978" lon="-2.30277">
        <ele>14.39999961853</ele>
        <time>2021-07-25T09:40:26.000Z</time>
      </trkpt>
      <trkpt lat="47.52976" lon="-2.30279">
        <ele>14.800000190735</ele>
        <time>2021-07-25T09:40:27.000Z</time>
      </trkpt>
      <trkpt lat="47.52975" lon="-2.3028">
        <ele>15.199999809265</ele>
        <time>2021-07-25T09:40:28.000Z</time>
      </trkpt>
      <trkpt lat="47.52973" lon="-2.30284">
        <ele>15.199999809265</ele>
        <time>2021-07-25T09:40:30.000Z</time>
      </trkpt>
      <trkpt lat="47.52972" lon="-2.30286">
        <ele>15.60000038147</ele>
        <time>2021-07-25T09:40:31.000Z</time>
      </trkpt>
      <trkpt lat="47.52971" lon="-2.30289">
        <ele>16</ele>
        <time>2021-07-25T09:40:32.000Z</time>
      </trkpt>
      <trkpt lat="47.5297" lon="-2.30292">
        <ele>16.60000038147</ele>
        <time>2021-07-25T09:40:33.000Z</time>
      </trkpt>
      <trkpt lat="47.52969" lon="-2.30293">
        <ele>17</ele>
        <time>2021-07-25T09:40:34.000Z</time>
      </trkpt>
      <trkpt lat="47.52968" lon="-2.30294">
        <ele>17.39999961853</ele>
        <time>2021-07-25T09:40:35.000Z</time>
      </trkpt>
      <trkpt lat="47.52967" lon="-2.30294">
        <ele>17.799999237061</ele>
        <time>2021-07-25T09:40:36.000Z</time>
      </trkpt>
      <trkpt lat="47.52966" lon="-2.30295">
        <ele>18.200000762939</ele>
        <time>2021-07-25T09:40:37.000Z</time>
      </trkpt>
      <trkpt lat="47.52965" lon="-2.30296">
        <ele>18.60000038147</ele>
        <time>2021-07-25T09:40:38.000Z</time>
      </trkpt>
      <trkpt lat="47.52964" lon="-2.30296">
        <ele>19.60000038147</ele>
        <time>2021-07-25T09:40:39.000Z</time>
      </trkpt>
      <trkpt lat="47.52962" lon="-2.30299">
        <ele>20</ele>
        <time>2021-07-25T09:40:41.000Z</time>
      </trkpt>
      <trkpt lat="47.52961" lon="-2.30299">
        <ele>20.39999961853</ele>
        <time>2021-07-25T09:40:42.000Z</time>
      </trkpt>
      <trkpt lat="47.5296" lon="-2.30299">
        <ele>20.799999237061</ele>
        <time>2021-07-25T09:40:43.000Z</time>
      </trkpt>
      <trkpt lat="47.52958" lon="-2.30299">
        <ele>21.200000762939</ele>
        <time>2021-07-25T09:40:44.000Z</time>
      </trkpt>
      <trkpt lat="47.52957" lon="-2.30299">
        <ele>21.60000038147</ele>
        <time>2021-07-25T09:40:45.000Z</time>
      </trkpt>
      <trkpt lat="47.52956" lon="-2.303">
        <ele>22</ele>
        <time>2021-07-25T09:40:48.000Z</time>
      </trkpt>
      <trkpt lat="47.52955" lon="-2.30301">
        <ele>22.39999961853</ele>
        <time>2021-07-25T09:40:49.000Z</time>
      </trkpt>
      <trkpt lat="47.52953" lon="-2.30303">
        <ele>22.799999237061</ele>
        <time>2021-07-25T09:40:50.000Z</time>
      </trkpt>
      <trkpt lat="47.52952" lon="-2.30304">
        <ele>23.200000762939</ele>
        <time>2021-07-25T09:40:51.000Z</time>
      </trkpt>
      <trkpt lat="47.52951" lon="-2.30305">
        <ele>23.60000038147</ele>
        <time>2021-07-25T09:40:52.000Z</time>
      </trkpt>
      <trkpt lat="47.52947" lon="-2.30305">
        <ele>23.60000038147</ele>
        <time>2021-07-25T09:40:56.000Z</time>
      </trkpt>
      <trkpt lat="47.52946" lon="-2.30304">
        <ele>24</ele>
        <time>2021-07-25T09:40:57.000Z</time>
      </trkpt>
      <trkpt lat="47.52945" lon="-2.30304">
        <ele>24.39999961853</ele>
        <time>2021-07-25T09:40:58.000Z</time>
      </trkpt>
      <trkpt lat="47.52943" lon="-2.30305">
        <ele>24.799999237061</ele>
        <time>2021-07-25T09:40:59.000Z</time>
      </trkpt>
      <trkpt lat="47.52942" lon="-2.30305">
        <ele>25.200000762939</ele>
        <time>2021-07-25T09:41:00.000Z</time>
      </trkpt>
      <trkpt lat="47.5294" lon="-2.30306">
        <ele>25.799999237061</ele>
        <time>2021-07-25T09:41:01.000Z</time>
      </trkpt>
      <trkpt lat="47.52939" lon="-2.3031">
        <ele>25.799999237061</ele>
        <time>2021-07-25T09:41:03.000Z</time>
      </trkpt>
      <trkpt lat="47.5294" lon="-2.30311">
        <ele>26.60000038147</ele>
        <time>2021-07-25T09:41:04.000Z</time>
      </trkpt>
      <trkpt lat="47.5294" lon="-2.30314">
        <ele>27</ele>
        <time>2021-07-25T09:41:05.000Z</time>
      </trkpt>
      <trkpt lat="47.5294" lon="-2.30315">
        <ele>27.39999961853</ele>
        <time>2021-07-25T09:41:06.000Z</time>
      </trkpt>
      <trkpt lat="47.5294" lon="-2.30316">
        <ele>28</ele>
        <time>2021-07-25T09:41:07.000Z</time>
      </trkpt>
      <trkpt lat="47.5294" lon="-2.30317">
        <ele>28</ele>
        <time>2021-07-25T09:41:08.000Z</time>
      </trkpt>
      <trkpt lat="47.52942" lon="-2.30321">
        <ele>28</ele>
        <time>2021-07-25T09:41:12.000Z</time>
      </trkpt>
      <trkpt lat="47.52938" lon="-2.3035">
        <ele>40.599998474121</ele>
        <time>2021-07-25T09:42:45.000Z</time>
      </trkpt>
      <trkpt lat="47.52938" lon="-2.30351">
        <ele>40.599998474121</ele>
        <time>2021-07-25T09:42:46.000Z</time>
      </trkpt>
      <trkpt lat="47.52939" lon="-2.30352">
        <ele>41</ele>
        <time>2021-07-25T09:42:47.000Z</time>
      </trkpt>
      <trkpt lat="47.5294" lon="-2.30354">
        <ele>41.599998474121</ele>
        <time>2021-07-25T09:42:48.000Z</time>
      </trkpt>
      <trkpt lat="47.5294" lon="-2.30355">
        <ele>42</ele>
        <time>2021-07-25T09:42:49.000Z</time>
      </trkpt>
      <trkpt lat="47.5294" lon="-2.30356">
        <ele>42.400001525879</ele>
        <time>2021-07-25T09:42:50.000Z</time>
      </trkpt>
      <trkpt lat="47.5294" lon="-2.30358">
        <ele>43</ele>
        <time>2021-07-25T09:42:51.000Z</time>
      </trkpt>
      <trkpt lat="47.52942" lon="-2.3036">
        <ele>43</ele>
        <time>2021-07-25T09:42:53.000Z</time>
      </trkpt>
      <trkpt lat="47.52942" lon="-2.30361">
        <ele>43.400001525879</ele>
        <time>2021-07-25T09:42:55.000Z</time>
      </trkpt>
      <trkpt lat="47.52943" lon="-2.30363">
        <ele>43.799999237061</ele>
        <time>2021-07-25T09:42:56.000Z</time>
      </trkpt>
      <trkpt lat="47.52944" lon="-2.30365">
        <ele>44.200000762939</ele>
        <time>2021-07-25T09:42:57.000Z</time>
      </trkpt>
      <trkpt lat="47.52945" lon="-2.30367">
        <ele>44.599998474121</ele>
        <time>2021-07-25T09:42:58.000Z</time>
      </trkpt>
      <trkpt lat="47.52945" lon="-2.30368">
        <ele>45.200000762939</ele>
        <time>2021-07-25T09:42:59.000Z</time>
      </trkpt>
      <trkpt lat="47.52946" lon="-2.30369">
        <ele>45.200000762939</ele>
        <time>2021-07-25T09:43:00.000Z</time>
      </trkpt>
      <trkpt lat="47.52947" lon="-2.30373">
        <ele>45.200000762939</ele>
        <time>2021-07-25T09:43:03.000Z</time>
      </trkpt>
      <trkpt lat="47.52948" lon="-2.30375">
        <ele>45.200000762939</ele>
        <time>2021-07-25T09:43:53.000Z</time>
      </trkpt>
      <trkpt lat="47.52948" lon="-2.30378">
        <ele>45.200000762939</ele>
        <time>2021-07-25T09:43:54.000Z</time>
      </trkpt>
      <trkpt lat="47.52948" lon="-2.30385">
        <ele>45.599998474121</ele>
        <time>2021-07-25T09:43:57.000Z</time>
      </trkpt>
      <trkpt lat="47.52947" lon="-2.30386">
        <ele>46</ele>
        <time>2021-07-25T09:43:58.000Z</time>
      </trkpt>
      <trkpt lat="47.52948" lon="-2.30389">
        <ele>46.400001525879</ele>
        <time>2021-07-25T09:43:59.000Z</time>
      </trkpt>
      <trkpt lat="47.52948" lon="-2.30391">
        <ele>46.799999237061</ele>
        <time>2021-07-25T09:44:00.000Z</time>
      </trkpt>
      <trkpt lat="47.52947" lon="-2.30393">
        <ele>47.200000762939</ele>
        <time>2021-07-25T09:44:01.000Z</time>
      </trkpt>
      <trkpt lat="47.52947" lon="-2.30402">
        <ele>47.200000762939</ele>
        <time>2021-07-25T09:44:05.000Z</time>
      </trkpt>
      <trkpt lat="47.52945" lon="-2.30408">
        <ele>47.200000762939</ele>
        <time>2021-07-25T09:44:07.000Z</time>
      </trkpt>
      <trkpt lat="47.52945" lon="-2.30417">
        <ele>47.599998474121</ele>
        <time>2021-07-25T09:44:10.000Z</time>
      </trkpt>
      <trkpt lat="47.52946" lon="-2.30421">
        <ele>48</ele>
        <time>2021-07-25T09:44:11.000Z</time>
      </trkpt>
      <trkpt lat="47.52946" lon="-2.30425">
        <ele>48.400001525879</ele>
        <time>2021-07-25T09:44:12.000Z</time>
      </trkpt>
      <trkpt lat="47.52946" lon="-2.30428">
        <ele>48.799999237061</ele>
        <time>2021-07-25T09:44:13.000Z</time>
      </trkpt>
      <trkpt lat="47.52947" lon="-2.30433">
        <ele>49.200000762939</ele>
        <time>2021-07-25T09:44:14.000Z</time>
      </trkpt>
      <trkpt lat="47.52945" lon="-2.30444">
        <ele>49.200000762939</ele>
        <time>2021-07-25T09:44:17.000Z</time>
      </trkpt>
      <trkpt lat="47.52937" lon="-2.30458">
        <ele>49.200000762939</ele>
        <time>2021-07-25T09:44:22.000Z</time>
      </trkpt>
      <trkpt lat="47.52927" lon="-2.3048">
        <ele>49.200000762939</ele>
        <time>2021-07-25T09:44:29.000Z</time>
      </trkpt>
      <trkpt lat="47.52917" lon="-2.30502">
        <ele>49.200000762939</ele>
        <time>2021-07-25T09:44:36.000Z</time>
      </trkpt>
      <trkpt lat="47.52913" lon="-2.3052">
        <ele>49.200000762939</ele>
        <time>2021-07-25T09:44:41.000Z</time>
      </trkpt>
      <trkpt lat="47.52911" lon="-2.30538">
        <ele>49.200000762939</ele>
        <time>2021-07-25T09:44:45.000Z</time>
      </trkpt>
      <trkpt lat="47.52909" lon="-2.30556">
        <ele>49.200000762939</ele>
        <time>2021-07-25T09:44:48.000Z</time>
      </trkpt>
      <trkpt lat="47.5291" lon="-2.30562">
        <ele>49.200000762939</ele>
        <time>2021-07-25T09:44:49.000Z</time>
      </trkpt>
      <trkpt lat="47.52913" lon="-2.30582">
        <ele>49.200000762939</ele>
        <time>2021-07-25T09:44:53.000Z</time>
      </trkpt>
      <trkpt lat="47.52912" lon="-2.30592">
        <ele>49.200000762939</ele>
        <time>2021-07-25T09:44:55.000Z</time>
      </trkpt>
      <trkpt lat="47.52913" lon="-2.30596">
        <ele>48.799999237061</ele>
        <time>2021-07-25T09:44:56.000Z</time>
      </trkpt>
      <trkpt lat="47.52914" lon="-2.30601">
        <ele>48.400001525879</ele>
        <time>2021-07-25T09:44:57.000Z</time>
      </trkpt>
      <trkpt lat="47.52916" lon="-2.30606">
        <ele>48</ele>
        <time>2021-07-25T09:44:58.000Z</time>
      </trkpt>
      <trkpt lat="47.52917" lon="-2.30611">
        <ele>47.599998474121</ele>
        <time>2021-07-25T09:44:59.000Z</time>
      </trkpt>
      <trkpt lat="47.52918" lon="-2.30617">
        <ele>47.200000762939</ele>
        <time>2021-07-25T09:45:00.000Z</time>
      </trkpt>
      <trkpt lat="47.52921" lon="-2.30635">
        <ele>47.200000762939</ele>
        <time>2021-07-25T09:45:03.000Z</time>
      </trkpt>
      <trkpt lat="47.52922" lon="-2.30641">
        <ele>47.200000762939</ele>
        <time>2021-07-25T09:45:04.000Z</time>
      </trkpt>
      <trkpt lat="47.5292" lon="-2.30679">
        <ele>47.200000762939</ele>
        <time>2021-07-25T09:45:09.000Z</time>
      </trkpt>
      <trkpt lat="47.5292" lon="-2.30694">
        <ele>47.200000762939</ele>
        <time>2021-07-25T09:45:11.000Z</time>
      </trkpt>
      <trkpt lat="47.52924" lon="-2.30713">
        <ele>47.200000762939</ele>
        <time>2021-07-25T09:45:14.000Z</time>
      </trkpt>
      <trkpt lat="47.52928" lon="-2.30725">
        <ele>47.200000762939</ele>
        <time>2021-07-25T09:45:16.000Z</time>
      </trkpt>
      <trkpt lat="47.52934" lon="-2.30752">
        <ele>47.200000762939</ele>
        <time>2021-07-25T09:45:20.000Z</time>
      </trkpt>
      <trkpt lat="47.52938" lon="-2.30766">
        <ele>47.200000762939</ele>
        <time>2021-07-25T09:45:22.000Z</time>
      </trkpt>
      <trkpt lat="47.52946" lon="-2.30784">
        <ele>47.200000762939</ele>
        <time>2021-07-25T09:45:25.000Z</time>
      </trkpt>
      <trkpt lat="47.52956" lon="-2.308">
        <ele>47.200000762939</ele>
        <time>2021-07-25T09:45:29.000Z</time>
      </trkpt>
      <trkpt lat="47.52959" lon="-2.30809">
        <ele>47.200000762939</ele>
        <time>2021-07-25T09:45:35.000Z</time>
      </trkpt>
      <trkpt lat="47.5296" lon="-2.30814">
        <ele>47.200000762939</ele>
        <time>2021-07-25T09:45:39.000Z</time>
      </trkpt>
      <trkpt lat="47.52962" lon="-2.3082">
        <ele>45</ele>
        <time>2021-07-25T09:45:44.000Z</time>
      </trkpt>
      <trkpt lat="47.52963" lon="-2.30822">
        <ele>45</ele>
        <time>2021-07-25T09:45:45.000Z</time>
      </trkpt>
      <trkpt lat="47.52965" lon="-2.30825">
        <ele>45</ele>
        <time>2021-07-25T09:45:48.000Z</time>
      </trkpt>
      <trkpt lat="47.52966" lon="-2.3083">
        <ele>45</ele>
        <time>2021-07-25T09:46:02.000Z</time>
      </trkpt>
      <trkpt lat="47.52967" lon="-2.30832">
        <ele>45</ele>
        <time>2021-07-25T09:46:03.000Z</time>
      </trkpt>
      <trkpt lat="47.52971" lon="-2.30851">
        <ele>45</ele>
        <time>2021-07-25T09:46:08.000Z</time>
      </trkpt>
      <trkpt lat="47.5297" lon="-2.30871">
        <ele>45</ele>
        <time>2021-07-25T09:46:11.000Z</time>
      </trkpt>
      <trkpt lat="47.52965" lon="-2.30902">
        <ele>44.599998474121</ele>
        <time>2021-07-25T09:46:15.000Z</time>
      </trkpt>
      <trkpt lat="47.52963" lon="-2.30909">
        <ele>44.200000762939</ele>
        <time>2021-07-25T09:46:16.000Z</time>
      </trkpt>
      <trkpt lat="47.52961" lon="-2.30916">
        <ele>43.799999237061</ele>
        <time>2021-07-25T09:46:17.000Z</time>
      </trkpt>
      <trkpt lat="47.52959" lon="-2.30921">
        <ele>43.400001525879</ele>
        <time>2021-07-25T09:46:18.000Z</time>
      </trkpt>
      <trkpt lat="47.52958" lon="-2.30927">
        <ele>43</ele>
        <time>2021-07-25T09:46:19.000Z</time>
      </trkpt>
      <trkpt lat="47.52949" lon="-2.30961">
        <ele>43</ele>
        <time>2021-07-25T09:46:25.000Z</time>
      </trkpt>
      <trkpt lat="47.52946" lon="-2.30971">
        <ele>43</ele>
        <time>2021-07-25T09:46:27.000Z</time>
      </trkpt>
      <trkpt lat="47.52942" lon="-2.30976">
        <ele>43</ele>
        <time>2021-07-25T09:46:29.000Z</time>
      </trkpt>
      <trkpt lat="47.52937" lon="-2.30968">
        <ele>43</ele>
        <time>2021-07-25T09:46:32.000Z</time>
      </trkpt>
      <trkpt lat="47.52942" lon="-2.30956">
        <ele>43</ele>
        <time>2021-07-25T09:46:35.000Z</time>
      </trkpt>
      <trkpt lat="47.52944" lon="-2.30935">
        <ele>43</ele>
        <time>2021-07-25T09:46:38.000Z</time>
      </trkpt>
      <trkpt lat="47.52945" lon="-2.30926">
        <ele>43</ele>
        <time>2021-07-25T09:46:39.000Z</time>
      </trkpt>
      <trkpt lat="47.52946" lon="-2.30917">
        <ele>42.400001525879</ele>
        <time>2021-07-25T09:46:40.000Z</time>
      </trkpt>
      <trkpt lat="47.52947" lon="-2.30908">
        <ele>42</ele>
        <time>2021-07-25T09:46:41.000Z</time>
      </trkpt>
      <trkpt lat="47.52947" lon="-2.30899">
        <ele>41.599998474121</ele>
        <time>2021-07-25T09:46:42.000Z</time>
      </trkpt>
      <trkpt lat="47.52948" lon="-2.3089">
        <ele>41.200000762939</ele>
        <time>2021-07-25T09:46:43.000Z</time>
      </trkpt>
      <trkpt lat="47.52947" lon="-2.3088">
        <ele>40.799999237061</ele>
        <time>2021-07-25T09:46:44.000Z</time>
      </trkpt>
      <trkpt lat="47.52947" lon="-2.30871">
        <ele>40.799999237061</ele>
        <time>2021-07-25T09:46:45.000Z</time>
      </trkpt>
      <trkpt lat="47.52936" lon="-2.30838">
        <ele>40.799999237061</ele>
        <time>2021-07-25T09:46:49.000Z</time>
      </trkpt>
      <trkpt lat="47.52928" lon="-2.30828">
        <ele>40.400001525879</ele>
        <time>2021-07-25T09:46:51.000Z</time>
      </trkpt>
      <trkpt lat="47.52925" lon="-2.30825">
        <ele>40</ele>
        <time>2021-07-25T09:46:52.000Z</time>
      </trkpt>
      <trkpt lat="47.52922" lon="-2.30825">
        <ele>39.400001525879</ele>
        <time>2021-07-25T09:46:53.000Z</time>
      </trkpt>
      <trkpt lat="47.52919" lon="-2.30825">
        <ele>39</ele>
        <time>2021-07-25T09:46:54.000Z</time>
      </trkpt>
      <trkpt lat="47.52916" lon="-2.30827">
        <ele>38.599998474121</ele>
        <time>2021-07-25T09:46:55.000Z</time>
      </trkpt>
      <trkpt lat="47.52914" lon="-2.30829">
        <ele>38.599998474121</ele>
        <time>2021-07-25T09:46:56.000Z</time>
      </trkpt>
      <trkpt lat="47.52909" lon="-2.30832">
        <ele>38.599998474121</ele>
        <time>2021-07-25T09:46:58.000Z</time>
      </trkpt>
      <trkpt lat="47.52901" lon="-2.30837">
        <ele>38.599998474121</ele>
        <time>2021-07-25T09:47:02.000Z</time>
      </trkpt>
      <trkpt lat="47.5289" lon="-2.30838">
        <ele>38.599998474121</ele>
        <time>2021-07-25T09:47:07.000Z</time>
      </trkpt>
      <trkpt lat="47.52885" lon="-2.3084">
        <ele>39</ele>
        <time>2021-07-25T09:47:09.000Z</time>
      </trkpt>
      <trkpt lat="47.52883" lon="-2.3084">
        <ele>39.400001525879</ele>
        <time>2021-07-25T09:47:10.000Z</time>
      </trkpt>
      <trkpt lat="47.52881" lon="-2.30841">
        <ele>39.799999237061</ele>
        <time>2021-07-25T09:47:11.000Z</time>
      </trkpt>
      <trkpt lat="47.52879" lon="-2.30841">
        <ele>40.200000762939</ele>
        <time>2021-07-25T09:47:12.000Z</time>
      </trkpt>
      <trkpt lat="47.52877" lon="-2.3084">
        <ele>40.599998474121</ele>
        <time>2021-07-25T09:47:13.000Z</time>
      </trkpt>
      <trkpt lat="47.52871" lon="-2.30828">
        <ele>40.599998474121</ele>
        <time>2021-07-25T09:47:17.000Z</time>
      </trkpt>
      <trkpt lat="47.5287" lon="-2.30825">
        <ele>40.599998474121</ele>
        <time>2021-07-25T09:47:18.000Z</time>
      </trkpt>
      <trkpt lat="47.52868" lon="-2.30807">
        <ele>40.599998474121</ele>
        <time>2021-07-25T09:47:24.000Z</time>
      </trkpt>
      <trkpt lat="47.52864" lon="-2.30786">
        <ele>40.599998474121</ele>
        <time>2021-07-25T09:47:30.000Z</time>
      </trkpt>
      <trkpt lat="47.52856" lon="-2.3077">
        <ele>40.599998474121</ele>
        <time>2021-07-25T09:47:35.000Z</time>
      </trkpt>
      <trkpt lat="47.52841" lon="-2.30761">
        <ele>40.599998474121</ele>
        <time>2021-07-25T09:47:40.000Z</time>
      </trkpt>
      <trkpt lat="47.5283" lon="-2.30748">
        <ele>40.599998474121</ele>
        <time>2021-07-25T09:47:46.000Z</time>
      </trkpt>
      <trkpt lat="47.52822" lon="-2.3073">
        <ele>40.599998474121</ele>
        <time>2021-07-25T09:47:52.000Z</time>
      </trkpt>
      <trkpt lat="47.52818" lon="-2.30723">
        <ele>40.599998474121</ele>
        <time>2021-07-25T09:47:54.000Z</time>
      </trkpt>
      <trkpt lat="47.52814" lon="-2.3071">
        <ele>40.599998474121</ele>
        <time>2021-07-25T09:47:57.000Z</time>
      </trkpt>
      <trkpt lat="47.52812" lon="-2.30706">
        <ele>40.599998474121</ele>
        <time>2021-07-25T09:47:58.000Z</time>
      </trkpt>
      <trkpt lat="47.52805" lon="-2.30698">
        <ele>40.599998474121</ele>
        <time>2021-07-25T09:48:01.000Z</time>
      </trkpt>
      <trkpt lat="47.52793" lon="-2.30687">
        <ele>41</ele>
        <time>2021-07-25T09:48:07.000Z</time>
      </trkpt>
      <trkpt lat="47.52791" lon="-2.30684">
        <ele>41.400001525879</ele>
        <time>2021-07-25T09:48:08.000Z</time>
      </trkpt>
      <trkpt lat="47.5279" lon="-2.30681">
        <ele>41.799999237061</ele>
        <time>2021-07-25T09:48:09.000Z</time>
      </trkpt>
      <trkpt lat="47.52789" lon="-2.30678">
        <ele>42.200000762939</ele>
        <time>2021-07-25T09:48:10.000Z</time>
      </trkpt>
      <trkpt lat="47.52788" lon="-2.30676">
        <ele>42.599998474121</ele>
        <time>2021-07-25T09:48:11.000Z</time>
      </trkpt>
      <trkpt lat="47.52787" lon="-2.30674">
        <ele>42.599998474121</ele>
        <time>2021-07-25T09:48:12.000Z</time>
      </trkpt>
      <trkpt lat="47.52787" lon="-2.30668">
        <ele>42.599998474121</ele>
        <time>2021-07-25T09:48:15.000Z</time>
      </trkpt>
      <trkpt lat="47.52788" lon="-2.30658">
        <ele>42.599998474121</ele>
        <time>2021-07-25T09:48:19.000Z</time>
      </trkpt>
      <trkpt lat="47.52782" lon="-2.30651">
        <ele>42.599998474121</ele>
        <time>2021-07-25T09:48:24.000Z</time>
      </trkpt>
      <trkpt lat="47.52778" lon="-2.30649">
        <ele>42.599998474121</ele>
        <time>2021-07-25T09:48:26.000Z</time>
      </trkpt>
      <trkpt lat="47.52774" lon="-2.30646">
        <ele>42.599998474121</ele>
        <time>2021-07-25T09:48:29.000Z</time>
      </trkpt>
      <trkpt lat="47.52766" lon="-2.30648">
        <ele>42.599998474121</ele>
        <time>2021-07-25T09:48:33.000Z</time>
      </trkpt>
      <trkpt lat="47.52764" lon="-2.30647">
        <ele>42.599998474121</ele>
        <time>2021-07-25T09:48:34.000Z</time>
      </trkpt>
      <trkpt lat="47.52749" lon="-2.30647">
        <ele>42.599998474121</ele>
        <time>2021-07-25T09:48:39.000Z</time>
      </trkpt>
      <trkpt lat="47.52744" lon="-2.30643">
        <ele>42.599998474121</ele>
        <time>2021-07-25T09:48:42.000Z</time>
      </trkpt>
      <trkpt lat="47.52733" lon="-2.30642">
        <ele>42.599998474121</ele>
        <time>2021-07-25T09:48:46.000Z</time>
      </trkpt>
      <trkpt lat="47.52716" lon="-2.30641">
        <ele>42.599998474121</ele>
        <time>2021-07-25T09:48:51.000Z</time>
      </trkpt>
      <trkpt lat="47.527" lon="-2.30635">
        <ele>42.599998474121</ele>
        <time>2021-07-25T09:48:55.000Z</time>
      </trkpt>
      <trkpt lat="47.52688" lon="-2.30634">
        <ele>42.200000762939</ele>
        <time>2021-07-25T09:48:58.000Z</time>
      </trkpt>
      <trkpt lat="47.52682" lon="-2.30633">
        <ele>41.799999237061</ele>
        <time>2021-07-25T09:48:59.000Z</time>
      </trkpt>
      <trkpt lat="47.52677" lon="-2.30633">
        <ele>41.200000762939</ele>
        <time>2021-07-25T09:49:00.000Z</time>
      </trkpt>
      <trkpt lat="47.52671" lon="-2.30633">
        <ele>40.799999237061</ele>
        <time>2021-07-25T09:49:01.000Z</time>
      </trkpt>
      <trkpt lat="47.52666" lon="-2.30634">
        <ele>40.400001525879</ele>
        <time>2021-07-25T09:49:02.000Z</time>
      </trkpt>
      <trkpt lat="47.52648" lon="-2.30637">
        <ele>40.400001525879</ele>
        <time>2021-07-25T09:49:05.000Z</time>
      </trkpt>
      <trkpt lat="47.52643" lon="-2.30638">
        <ele>40.400001525879</ele>
        <time>2021-07-25T09:49:06.000Z</time>
      </trkpt>
      <trkpt lat="47.52624" lon="-2.30647">
        <ele>40.400001525879</ele>
        <time>2021-07-25T09:49:10.000Z</time>
      </trkpt>
      <trkpt lat="47.5261" lon="-2.30648">
        <ele>40.400001525879</ele>
        <time>2021-07-25T09:49:14.000Z</time>
      </trkpt>
      <trkpt lat="47.52606" lon="-2.3065">
        <ele>40.400001525879</ele>
        <time>2021-07-25T09:49:15.000Z</time>
      </trkpt>
      <trkpt lat="47.52591" lon="-2.30664">
        <ele>40.400001525879</ele>
        <time>2021-07-25T09:49:19.000Z</time>
      </trkpt>
      <trkpt lat="47.52562" lon="-2.30694">
        <ele>40.400001525879</ele>
        <time>2021-07-25T09:49:26.000Z</time>
      </trkpt>
      <trkpt lat="47.52542" lon="-2.30718">
        <ele>40.400001525879</ele>
        <time>2021-07-25T09:49:31.000Z</time>
      </trkpt>
      <trkpt lat="47.52537" lon="-2.30721">
        <ele>40.400001525879</ele>
        <time>2021-07-25T09:49:32.000Z</time>
      </trkpt>
      <trkpt lat="47.52533" lon="-2.30725">
        <ele>40.400001525879</ele>
        <time>2021-07-25T09:49:33.000Z</time>
      </trkpt>
      <trkpt lat="47.52522" lon="-2.3074">
        <ele>40.400001525879</ele>
        <time>2021-07-25T09:49:36.000Z</time>
      </trkpt>
      <trkpt lat="47.52494" lon="-2.3078">
        <ele>40.400001525879</ele>
        <time>2021-07-25T09:49:44.000Z</time>
      </trkpt>
      <trkpt lat="47.52481" lon="-2.30801">
        <ele>40.400001525879</ele>
        <time>2021-07-25T09:49:48.000Z</time>
      </trkpt>
      <trkpt lat="47.5248" lon="-2.30807">
        <ele>40.400001525879</ele>
        <time>2021-07-25T09:49:49.000Z</time>
      </trkpt>
      <trkpt lat="47.5248" lon="-2.30814">
        <ele>40</ele>
        <time>2021-07-25T09:49:50.000Z</time>
      </trkpt>
      <trkpt lat="47.52479" lon="-2.3082">
        <ele>39.599998474121</ele>
        <time>2021-07-25T09:49:51.000Z</time>
      </trkpt>
      <trkpt lat="47.52478" lon="-2.30826">
        <ele>39.200000762939</ele>
        <time>2021-07-25T09:49:52.000Z</time>
      </trkpt>
      <trkpt lat="47.52477" lon="-2.30832">
        <ele>38.799999237061</ele>
        <time>2021-07-25T09:49:53.000Z</time>
      </trkpt>
      <trkpt lat="47.52477" lon="-2.30838">
        <ele>38.400001525879</ele>
        <time>2021-07-25T09:49:54.000Z</time>
      </trkpt>
      <trkpt lat="47.52476" lon="-2.30845">
        <ele>38.400001525879</ele>
        <time>2021-07-25T09:49:55.000Z</time>
      </trkpt>
      <trkpt lat="47.52472" lon="-2.30882">
        <ele>38.400001525879</ele>
        <time>2021-07-25T09:50:02.000Z</time>
      </trkpt>
      <trkpt lat="47.52472" lon="-2.30884">
        <ele>38.400001525879</ele>
        <time>2021-07-25T09:50:03.000Z</time>
      </trkpt>
      <trkpt lat="47.52471" lon="-2.30897">
        <ele>38.400001525879</ele>
        <time>2021-07-25T09:50:08.000Z</time>
      </trkpt>
      <trkpt lat="47.52471" lon="-2.30899">
        <ele>38.400001525879</ele>
        <time>2021-07-25T09:50:09.000Z</time>
      </trkpt>
      <trkpt lat="47.52475" lon="-2.30902">
        <ele>38.400001525879</ele>
        <time>2021-07-25T09:50:12.000Z</time>
      </trkpt>
      <trkpt lat="47.52482" lon="-2.30908">
        <ele>38.400001525879</ele>
        <time>2021-07-25T09:50:18.000Z</time>
      </trkpt>
      <trkpt lat="47.52483" lon="-2.30908">
        <ele>38.400001525879</ele>
        <time>2021-07-25T09:50:19.000Z</time>
      </trkpt>
      <trkpt lat="47.52488" lon="-2.30903">
        <ele>40.400001525879</ele>
        <time>2021-07-25T09:50:31.000Z</time>
      </trkpt>
      <trkpt lat="47.52488" lon="-2.309">
        <ele>40.799999237061</ele>
        <time>2021-07-25T09:50:33.000Z</time>
      </trkpt>
      <trkpt lat="47.52487" lon="-2.30899">
        <ele>41.200000762939</ele>
        <time>2021-07-25T09:50:34.000Z</time>
      </trkpt>
      <trkpt lat="47.52487" lon="-2.30898">
        <ele>41.599998474121</ele>
        <time>2021-07-25T09:50:35.000Z</time>
      </trkpt>
      <trkpt lat="47.52486" lon="-2.30896">
        <ele>42</ele>
        <time>2021-07-25T09:50:36.000Z</time>
      </trkpt>
      <trkpt lat="47.52485" lon="-2.30894">
        <ele>42.400001525879</ele>
        <time>2021-07-25T09:50:37.000Z</time>
      </trkpt>
      <trkpt lat="47.52485" lon="-2.30888">
        <ele>42.400001525879</ele>
        <time>2021-07-25T09:50:39.000Z</time>
      </trkpt>
      <trkpt lat="47.52485" lon="-2.30871">
        <ele>42.400001525879</ele>
        <time>2021-07-25T09:50:44.000Z</time>
      </trkpt>
      <trkpt lat="47.52487" lon="-2.30843">
        <ele>42.400001525879</ele>
        <time>2021-07-25T09:50:52.000Z</time>
      </trkpt>
      <trkpt lat="47.52491" lon="-2.30829">
        <ele>43.200000762939</ele>
        <time>2021-07-25T09:50:56.000Z</time>
      </trkpt>
      <trkpt lat="47.52492" lon="-2.30826">
        <ele>43.799999237061</ele>
        <time>2021-07-25T09:50:57.000Z</time>
      </trkpt>
      <trkpt lat="47.52494" lon="-2.30824">
        <ele>44.200000762939</ele>
        <time>2021-07-25T09:50:58.000Z</time>
      </trkpt>
      <trkpt lat="47.52496" lon="-2.30822">
        <ele>44.599998474121</ele>
        <time>2021-07-25T09:50:59.000Z</time>
      </trkpt>
      <trkpt lat="47.52502" lon="-2.30813">
        <ele>44.599998474121</ele>
        <time>2021-07-25T09:51:03.000Z</time>
      </trkpt>
      <trkpt lat="47.52508" lon="-2.30809">
        <ele>45</ele>
        <time>2021-07-25T09:51:06.000Z</time>
      </trkpt>
      <trkpt lat="47.5251" lon="-2.30808">
        <ele>45.400001525879</ele>
        <time>2021-07-25T09:51:07.000Z</time>
      </trkpt>
      <trkpt lat="47.52511" lon="-2.30807">
        <ele>45.799999237061</ele>
        <time>2021-07-25T09:51:08.000Z</time>
      </trkpt>
      <trkpt lat="47.52513" lon="-2.30806">
        <ele>46.200000762939</ele>
        <time>2021-07-25T09:51:09.000Z</time>
      </trkpt>
      <trkpt lat="47.52514" lon="-2.30804">
        <ele>46.599998474121</ele>
        <time>2021-07-25T09:51:10.000Z</time>
      </trkpt>
      <trkpt lat="47.52521" lon="-2.30797">
        <ele>46.599998474121</ele>
        <time>2021-07-25T09:51:14.000Z</time>
      </trkpt>
      <trkpt lat="47.52522" lon="-2.30795">
        <ele>47</ele>
        <time>2021-07-25T09:51:15.000Z</time>
      </trkpt>
      <trkpt lat="47.52523" lon="-2.30793">
        <ele>47.400001525879</ele>
        <time>2021-07-25T09:51:16.000Z</time>
      </trkpt>
      <trkpt lat="47.52524" lon="-2.30792">
        <ele>47.799999237061</ele>
        <time>2021-07-25T09:51:17.000Z</time>
      </trkpt>
      <trkpt lat="47.52526" lon="-2.30791">
        <ele>48.400001525879</ele>
        <time>2021-07-25T09:51:18.000Z</time>
      </trkpt>
      <trkpt lat="47.52527" lon="-2.30789">
        <ele>48.799999237061</ele>
        <time>2021-07-25T09:51:19.000Z</time>
      </trkpt>
      <trkpt lat="47.5253" lon="-2.30787">
        <ele>48.799999237061</ele>
        <time>2021-07-25T09:51:21.000Z</time>
      </trkpt>
      <trkpt lat="47.52532" lon="-2.30787">
        <ele>48.799999237061</ele>
        <time>2021-07-25T09:51:22.000Z</time>
      </trkpt>
      <trkpt lat="47.52539" lon="-2.30787">
        <ele>48.799999237061</ele>
        <time>2021-07-25T09:51:27.000Z</time>
      </trkpt>
      <trkpt lat="47.52544" lon="-2.30788">
        <ele>48.799999237061</ele>
        <time>2021-07-25T09:51:31.000Z</time>
      </trkpt>
      <trkpt lat="47.52545" lon="-2.30789">
        <ele>49.200000762939</ele>
        <time>2021-07-25T09:51:32.000Z</time>
      </trkpt>
      <trkpt lat="47.52547" lon="-2.3079">
        <ele>49.599998474121</ele>
        <time>2021-07-25T09:51:33.000Z</time>
      </trkpt>
      <trkpt lat="47.52548" lon="-2.3079">
        <ele>50</ele>
        <time>2021-07-25T09:51:34.000Z</time>
      </trkpt>
      <trkpt lat="47.52549" lon="-2.30791">
        <ele>50.400001525879</ele>
        <time>2021-07-25T09:51:35.000Z</time>
      </trkpt>
      <trkpt lat="47.5255" lon="-2.30792">
        <ele>50.799999237061</ele>
        <time>2021-07-25T09:51:36.000Z</time>
      </trkpt>
      <trkpt lat="47.52552" lon="-2.30793">
        <ele>50.799999237061</ele>
        <time>2021-07-25T09:51:37.000Z</time>
      </trkpt>
      <trkpt lat="47.52554" lon="-2.30797">
        <ele>50.799999237061</ele>
        <time>2021-07-25T09:51:39.000Z</time>
      </trkpt>
      <trkpt lat="47.52561" lon="-2.30808">
        <ele>50.799999237061</ele>
        <time>2021-07-25T09:51:45.000Z</time>
      </trkpt>
      <trkpt lat="47.52563" lon="-2.30812">
        <ele>51.400001525879</ele>
        <time>2021-07-25T09:51:47.000Z</time>
      </trkpt>
      <trkpt lat="47.52564" lon="-2.30814">
        <ele>51.799999237061</ele>
        <time>2021-07-25T09:51:48.000Z</time>
      </trkpt>
      <trkpt lat="47.52565" lon="-2.30816">
        <ele>52.200000762939</ele>
        <time>2021-07-25T09:51:49.000Z</time>
      </trkpt>
      <trkpt lat="47.52566" lon="-2.30817">
        <ele>52.599998474121</ele>
        <time>2021-07-25T09:51:50.000Z</time>
      </trkpt>
      <trkpt lat="47.52567" lon="-2.30819">
        <ele>53</ele>
        <time>2021-07-25T09:51:51.000Z</time>
      </trkpt>
      <trkpt lat="47.52568" lon="-2.3082">
        <ele>53</ele>
        <time>2021-07-25T09:51:52.000Z</time>
      </trkpt>
      <trkpt lat="47.52568" lon="-2.30821">
        <ele>53</ele>
        <time>2021-07-25T09:51:54.000Z</time>
      </trkpt>
      <trkpt lat="47.52576" lon="-2.30815">
        <ele>53</ele>
        <time>2021-07-25T09:52:18.000Z</time>
      </trkpt>
      <trkpt lat="47.52575" lon="-2.30812">
        <ele>53</ele>
        <time>2021-07-25T09:52:19.000Z</time>
      </trkpt>
      <trkpt lat="47.52572" lon="-2.30804">
        <ele>53</ele>
        <time>2021-07-25T09:52:22.000Z</time>
      </trkpt>
      <trkpt lat="47.52568" lon="-2.30798">
        <ele>53</ele>
        <time>2021-07-25T09:52:24.000Z</time>
      </trkpt>
      <trkpt lat="47.52563" lon="-2.3079">
        <ele>53</ele>
        <time>2021-07-25T09:52:27.000Z</time>
      </trkpt>
      <trkpt lat="47.52561" lon="-2.30783">
        <ele>53</ele>
        <time>2021-07-25T09:52:29.000Z</time>
      </trkpt>
      <trkpt lat="47.52557" lon="-2.30769">
        <ele>53.400001525879</ele>
        <time>2021-07-25T09:52:32.000Z</time>
      </trkpt>
      <trkpt lat="47.52555" lon="-2.30764">
        <ele>53.799999237061</ele>
        <time>2021-07-25T09:52:33.000Z</time>
      </trkpt>
      <trkpt lat="47.52553" lon="-2.30759">
        <ele>54.599998474121</ele>
        <time>2021-07-25T09:52:34.000Z</time>
      </trkpt>
      <trkpt lat="47.52551" lon="-2.30755">
        <ele>55</ele>
        <time>2021-07-25T09:52:35.000Z</time>
      </trkpt>
      <trkpt lat="47.52538" lon="-2.30726">
        <ele>55</ele>
        <time>2021-07-25T09:52:41.000Z</time>
      </trkpt>
      <trkpt lat="47.52517" lon="-2.30678">
        <ele>55</ele>
        <time>2021-07-25T09:52:50.000Z</time>
      </trkpt>
      <trkpt lat="47.52497" lon="-2.30634">
        <ele>55</ele>
        <time>2021-07-25T09:52:58.000Z</time>
      </trkpt>
      <trkpt lat="47.52494" lon="-2.30628">
        <ele>55.400001525879</ele>
        <time>2021-07-25T09:52:59.000Z</time>
      </trkpt>
      <trkpt lat="47.52492" lon="-2.30622">
        <ele>55.799999237061</ele>
        <time>2021-07-25T09:53:00.000Z</time>
      </trkpt>
      <trkpt lat="47.52489" lon="-2.30616">
        <ele>56.400001525879</ele>
        <time>2021-07-25T09:53:01.000Z</time>
      </trkpt>
      <trkpt lat="47.52486" lon="-2.30609">
        <ele>56.799999237061</ele>
        <time>2021-07-25T09:53:02.000Z</time>
      </trkpt>
      <trkpt lat="47.52484" lon="-2.30603">
        <ele>57.200000762939</ele>
        <time>2021-07-25T09:53:03.000Z</time>
      </trkpt>
      <trkpt lat="47.52473" lon="-2.30579">
        <ele>57.200000762939</ele>
        <time>2021-07-25T09:53:07.000Z</time>
      </trkpt>
      <trkpt lat="47.52452" lon="-2.3053">
        <ele>57.200000762939</ele>
        <time>2021-07-25T09:53:15.000Z</time>
      </trkpt>
      <trkpt lat="47.52432" lon="-2.30483">
        <ele>57.200000762939</ele>
        <time>2021-07-25T09:53:23.000Z</time>
      </trkpt>
      <trkpt lat="47.52418" lon="-2.30447">
        <ele>57.200000762939</ele>
        <time>2021-07-25T09:53:29.000Z</time>
      </trkpt>
      <trkpt lat="47.52415" lon="-2.30442">
        <ele>57.200000762939</ele>
        <time>2021-07-25T09:53:30.000Z</time>
      </trkpt>
      <trkpt lat="47.52391" lon="-2.3039">
        <ele>57.200000762939</ele>
        <time>2021-07-25T09:53:38.000Z</time>
      </trkpt>
      <trkpt lat="47.52359" lon="-2.3032">
        <ele>57.200000762939</ele>
        <time>2021-07-25T09:53:48.000Z</time>
      </trkpt>
      <trkpt lat="47.52342" lon="-2.30286">
        <ele>57.200000762939</ele>
        <time>2021-07-25T09:53:53.000Z</time>
      </trkpt>
      <trkpt lat="47.52334" lon="-2.30274">
        <ele>57.200000762939</ele>
        <time>2021-07-25T09:53:55.000Z</time>
      </trkpt>
      <trkpt lat="47.5231" lon="-2.30227">
        <ele>57.200000762939</ele>
        <time>2021-07-25T09:54:02.000Z</time>
      </trkpt>
      <trkpt lat="47.5228" lon="-2.30181">
        <ele>56.799999237061</ele>
        <time>2021-07-25T09:54:09.000Z</time>
      </trkpt>
      <trkpt lat="47.52276" lon="-2.30175">
        <ele>56.400001525879</ele>
        <time>2021-07-25T09:54:10.000Z</time>
      </trkpt>
      <trkpt lat="47.52271" lon="-2.30168">
        <ele>56</ele>
        <time>2021-07-25T09:54:11.000Z</time>
      </trkpt>
      <trkpt lat="47.52266" lon="-2.30161">
        <ele>55.599998474121</ele>
        <time>2021-07-25T09:54:12.000Z</time>
      </trkpt>
      <trkpt lat="47.52262" lon="-2.30154">
        <ele>55.200000762939</ele>
        <time>2021-07-25T09:54:13.000Z</time>
      </trkpt>
      <trkpt lat="47.52234" lon="-2.30109">
        <ele>55.200000762939</ele>
        <time>2021-07-25T09:54:19.000Z</time>
      </trkpt>
      <trkpt lat="47.52228" lon="-2.30103">
        <ele>55.200000762939</ele>
        <time>2021-07-25T09:54:20.000Z</time>
      </trkpt>
      <trkpt lat="47.52216" lon="-2.30091">
        <ele>54.599998474121</ele>
        <time>2021-07-25T09:54:22.000Z</time>
      </trkpt>
      <trkpt lat="47.5221" lon="-2.30085">
        <ele>54.200000762939</ele>
        <time>2021-07-25T09:54:23.000Z</time>
      </trkpt>
      <trkpt lat="47.52203" lon="-2.30079">
        <ele>53.799999237061</ele>
        <time>2021-07-25T09:54:24.000Z</time>
      </trkpt>
      <trkpt lat="47.52197" lon="-2.30073">
        <ele>53.200000762939</ele>
        <time>2021-07-25T09:54:25.000Z</time>
      </trkpt>
      <trkpt lat="47.5219" lon="-2.30066">
        <ele>52.799999237061</ele>
        <time>2021-07-25T09:54:26.000Z</time>
      </trkpt>
      <trkpt lat="47.52164" lon="-2.3004">
        <ele>52.400001525879</ele>
        <time>2021-07-25T09:54:30.000Z</time>
      </trkpt>
      <trkpt lat="47.52159" lon="-2.30034">
        <ele>52</ele>
        <time>2021-07-25T09:54:31.000Z</time>
      </trkpt>
      <trkpt lat="47.52154" lon="-2.30029">
        <ele>51.599998474121</ele>
        <time>2021-07-25T09:54:32.000Z</time>
      </trkpt>
      <trkpt lat="47.5215" lon="-2.30028">
        <ele>50.799999237061</ele>
        <time>2021-07-25T09:54:33.000Z</time>
      </trkpt>
      <trkpt lat="47.52145" lon="-2.3003">
        <ele>50.200000762939</ele>
        <time>2021-07-25T09:54:34.000Z</time>
      </trkpt>
      <trkpt lat="47.52142" lon="-2.30034">
        <ele>49.599998474121</ele>
        <time>2021-07-25T09:54:35.000Z</time>
      </trkpt>
      <trkpt lat="47.52141" lon="-2.30039">
        <ele>49</ele>
        <time>2021-07-25T09:54:36.000Z</time>
      </trkpt>
      <trkpt lat="47.52141" lon="-2.30045">
        <ele>48.400001525879</ele>
        <time>2021-07-25T09:54:37.000Z</time>
      </trkpt>
      <trkpt lat="47.52143" lon="-2.30059">
        <ele>48.400001525879</ele>
        <time>2021-07-25T09:54:39.000Z</time>
      </trkpt>
      <trkpt lat="47.52146" lon="-2.30074">
        <ele>48.400001525879</ele>
        <time>2021-07-25T09:54:41.000Z</time>
      </trkpt>
      <trkpt lat="47.52155" lon="-2.30121">
        <ele>48.400001525879</ele>
        <time>2021-07-25T09:54:47.000Z</time>
      </trkpt>
      <trkpt lat="47.52162" lon="-2.30171">
        <ele>48.400001525879</ele>
        <time>2021-07-25T09:54:54.000Z</time>
      </trkpt>
      <trkpt lat="47.52161" lon="-2.30176">
        <ele>48.400001525879</ele>
        <time>2021-07-25T09:54:55.000Z</time>
      </trkpt>
      <trkpt lat="47.52154" lon="-2.30181">
        <ele>48.400001525879</ele>
        <time>2021-07-25T09:54:57.000Z</time>
      </trkpt>
      <trkpt lat="47.52142" lon="-2.30181">
        <ele>48</ele>
        <time>2021-07-25T09:54:59.000Z</time>
      </trkpt>
      <trkpt lat="47.52136" lon="-2.30181">
        <ele>47.400001525879</ele>
        <time>2021-07-25T09:55:00.000Z</time>
      </trkpt>
      <trkpt lat="47.5213" lon="-2.30181">
        <ele>47</ele>
        <time>2021-07-25T09:55:01.000Z</time>
      </trkpt>
      <trkpt lat="47.52126" lon="-2.30181">
        <ele>46</ele>
        <time>2021-07-25T09:55:02.000Z</time>
      </trkpt>
      <trkpt lat="47.52121" lon="-2.30181">
        <ele>45.200000762939</ele>
        <time>2021-07-25T09:55:03.000Z</time>
      </trkpt>
      <trkpt lat="47.52118" lon="-2.30182">
        <ele>44.400001525879</ele>
        <time>2021-07-25T09:55:04.000Z</time>
      </trkpt>
      <trkpt lat="47.52115" lon="-2.30186">
        <ele>43.599998474121</ele>
        <time>2021-07-25T09:55:05.000Z</time>
      </trkpt>
      <trkpt lat="47.52114" lon="-2.30191">
        <ele>42.799999237061</ele>
        <time>2021-07-25T09:55:06.000Z</time>
      </trkpt>
      <trkpt lat="47.52115" lon="-2.30196">
        <ele>42</ele>
        <time>2021-07-25T09:55:07.000Z</time>
      </trkpt>
      <trkpt lat="47.52116" lon="-2.30201">
        <ele>41.400001525879</ele>
        <time>2021-07-25T09:55:08.000Z</time>
      </trkpt>
      <trkpt lat="47.52117" lon="-2.30208">
        <ele>40.799999237061</ele>
        <time>2021-07-25T09:55:09.000Z</time>
      </trkpt>
      <trkpt lat="47.52118" lon="-2.30214">
        <ele>40.200000762939</ele>
        <time>2021-07-25T09:55:10.000Z</time>
      </trkpt>
      <trkpt lat="47.5212" lon="-2.30221">
        <ele>39.599998474121</ele>
        <time>2021-07-25T09:55:11.000Z</time>
      </trkpt>
      <trkpt lat="47.52121" lon="-2.30228">
        <ele>39</ele>
        <time>2021-07-25T09:55:12.000Z</time>
      </trkpt>
      <trkpt lat="47.52126" lon="-2.3025">
        <ele>39</ele>
        <time>2021-07-25T09:55:15.000Z</time>
      </trkpt>
      <trkpt lat="47.52136" lon="-2.30306">
        <ele>39</ele>
        <time>2021-07-25T09:55:22.000Z</time>
      </trkpt>
      <trkpt lat="47.52142" lon="-2.30331">
        <ele>39</ele>
        <time>2021-07-25T09:55:25.000Z</time>
      </trkpt>
      <trkpt lat="47.52149" lon="-2.30346">
        <ele>39</ele>
        <time>2021-07-25T09:55:27.000Z</time>
      </trkpt>
      <trkpt lat="47.52176" lon="-2.30384">
        <ele>38.599998474121</ele>
        <time>2021-07-25T09:55:33.000Z</time>
      </trkpt>
      <trkpt lat="47.5218" lon="-2.3039">
        <ele>38.200000762939</ele>
        <time>2021-07-25T09:55:34.000Z</time>
      </trkpt>
      <trkpt lat="47.52182" lon="-2.30396">
        <ele>37.799999237061</ele>
        <time>2021-07-25T09:55:35.000Z</time>
      </trkpt>
      <trkpt lat="47.52183" lon="-2.30402">
        <ele>37.200000762939</ele>
        <time>2021-07-25T09:55:36.000Z</time>
      </trkpt>
      <trkpt lat="47.52182" lon="-2.30407">
        <ele>36.599998474121</ele>
        <time>2021-07-25T09:55:37.000Z</time>
      </trkpt>
      <trkpt lat="47.52178" lon="-2.30409">
        <ele>36</ele>
        <time>2021-07-25T09:55:38.000Z</time>
      </trkpt>
      <trkpt lat="47.52175" lon="-2.3041">
        <ele>35.400001525879</ele>
        <time>2021-07-25T09:55:39.000Z</time>
      </trkpt>
      <trkpt lat="47.52173" lon="-2.30409">
        <ele>34.799999237061</ele>
        <time>2021-07-25T09:55:40.000Z</time>
      </trkpt>
      <trkpt lat="47.52171" lon="-2.30408">
        <ele>34.799999237061</ele>
        <time>2021-07-25T09:55:41.000Z</time>
      </trkpt>
      <trkpt lat="47.52169" lon="-2.30408">
        <ele>34.400001525879</ele>
        <time>2021-07-25T09:55:42.000Z</time>
      </trkpt>
      <trkpt lat="47.52167" lon="-2.30408">
        <ele>34</ele>
        <time>2021-07-25T09:55:43.000Z</time>
      </trkpt>
      <trkpt lat="47.52166" lon="-2.30408">
        <ele>33.599998474121</ele>
        <time>2021-07-25T09:55:44.000Z</time>
      </trkpt>
      <trkpt lat="47.52164" lon="-2.30407">
        <ele>33.200000762939</ele>
        <time>2021-07-25T09:55:45.000Z</time>
      </trkpt>
      <trkpt lat="47.52161" lon="-2.30406">
        <ele>32.799999237061</ele>
        <time>2021-07-25T09:55:46.000Z</time>
      </trkpt>
      <trkpt lat="47.52155" lon="-2.30403">
        <ele>32.799999237061</ele>
        <time>2021-07-25T09:55:48.000Z</time>
      </trkpt>
      <trkpt lat="47.52144" lon="-2.30398">
        <ele>32.799999237061</ele>
        <time>2021-07-25T09:55:51.000Z</time>
      </trkpt>
      <trkpt lat="47.52135" lon="-2.30391">
        <ele>32.799999237061</ele>
        <time>2021-07-25T09:55:53.000Z</time>
      </trkpt>
      <trkpt lat="47.52116" lon="-2.30362">
        <ele>32.799999237061</ele>
        <time>2021-07-25T09:55:58.000Z</time>
      </trkpt>
      <trkpt lat="47.52089" lon="-2.30319">
        <ele>32.799999237061</ele>
        <time>2021-07-25T09:56:05.000Z</time>
      </trkpt>
      <trkpt lat="47.52068" lon="-2.30287">
        <ele>32.400001525879</ele>
        <time>2021-07-25T09:56:10.000Z</time>
      </trkpt>
      <trkpt lat="47.52064" lon="-2.30279">
        <ele>32</ele>
        <time>2021-07-25T09:56:11.000Z</time>
      </trkpt>
      <trkpt lat="47.52061" lon="-2.30271">
        <ele>31.60000038147</ele>
        <time>2021-07-25T09:56:12.000Z</time>
      </trkpt>
      <trkpt lat="47.52058" lon="-2.30262">
        <ele>31.200000762939</ele>
        <time>2021-07-25T09:56:13.000Z</time>
      </trkpt>
      <trkpt lat="47.52055" lon="-2.30254">
        <ele>30.60000038147</ele>
        <time>2021-07-25T09:56:14.000Z</time>
      </trkpt>
      <trkpt lat="47.52046" lon="-2.30227">
        <ele>30.200000762939</ele>
        <time>2021-07-25T09:56:17.000Z</time>
      </trkpt>
      <trkpt lat="47.52043" lon="-2.3022">
        <ele>29.799999237061</ele>
        <time>2021-07-25T09:56:18.000Z</time>
      </trkpt>
      <trkpt lat="47.52041" lon="-2.30213">
        <ele>29.39999961853</ele>
        <time>2021-07-25T09:56:19.000Z</time>
      </trkpt>
      <trkpt lat="47.52038" lon="-2.30206">
        <ele>29</ele>
        <time>2021-07-25T09:56:20.000Z</time>
      </trkpt>
      <trkpt lat="47.52036" lon="-2.30199">
        <ele>28.60000038147</ele>
        <time>2021-07-25T09:56:21.000Z</time>
      </trkpt>
      <trkpt lat="47.52033" lon="-2.30188">
        <ele>28.60000038147</ele>
        <time>2021-07-25T09:56:23.000Z</time>
      </trkpt>
      <trkpt lat="47.52028" lon="-2.30185">
        <ele>28.60000038147</ele>
        <time>2021-07-25T09:56:26.000Z</time>
      </trkpt>
      <trkpt lat="47.52028" lon="-2.30189">
        <ele>28.200000762939</ele>
        <time>2021-07-25T09:56:27.000Z</time>
      </trkpt>
      <trkpt lat="47.52028" lon="-2.30192">
        <ele>27.60000038147</ele>
        <time>2021-07-25T09:56:28.000Z</time>
      </trkpt>
      <trkpt lat="47.52029" lon="-2.30195">
        <ele>27.200000762939</ele>
        <time>2021-07-25T09:56:29.000Z</time>
      </trkpt>
      <trkpt lat="47.5203" lon="-2.30198">
        <ele>26.799999237061</ele>
        <time>2021-07-25T09:56:30.000Z</time>
      </trkpt>
      <trkpt lat="47.52031" lon="-2.302">
        <ele>26.39999961853</ele>
        <time>2021-07-25T09:56:31.000Z</time>
      </trkpt>
      <trkpt lat="47.52029" lon="-2.30206">
        <ele>26.39999961853</ele>
        <time>2021-07-25T09:56:34.000Z</time>
      </trkpt>
      <trkpt lat="47.52028" lon="-2.30207">
        <ele>26.39999961853</ele>
        <time>2021-07-25T09:56:35.000Z</time>
      </trkpt>
      <trkpt lat="47.52026" lon="-2.30211">
        <ele>26.39999961853</ele>
        <time>2021-07-25T09:56:37.000Z</time>
      </trkpt>
      <trkpt lat="47.52027" lon="-2.30216">
        <ele>26.39999961853</ele>
        <time>2021-07-25T09:56:39.000Z</time>
      </trkpt>
      <trkpt lat="47.52027" lon="-2.30218">
        <ele>25.39999961853</ele>
        <time>2021-07-25T09:56:40.000Z</time>
      </trkpt>
      <trkpt lat="47.52027" lon="-2.30221">
        <ele>25</ele>
        <time>2021-07-25T09:56:41.000Z</time>
      </trkpt>
      <trkpt lat="47.52028" lon="-2.30224">
        <ele>24.39999961853</ele>
        <time>2021-07-25T09:56:42.000Z</time>
      </trkpt>
      <trkpt lat="47.52028" lon="-2.30227">
        <ele>24</ele>
        <time>2021-07-25T09:56:43.000Z</time>
      </trkpt>
      <trkpt lat="47.52029" lon="-2.30232">
        <ele>23.60000038147</ele>
        <time>2021-07-25T09:56:44.000Z</time>
      </trkpt>
      <trkpt lat="47.52032" lon="-2.30238">
        <ele>23.200000762939</ele>
        <time>2021-07-25T09:56:45.000Z</time>
      </trkpt>
      <trkpt lat="47.52035" lon="-2.30245">
        <ele>22.799999237061</ele>
        <time>2021-07-25T09:56:46.000Z</time>
      </trkpt>
      <trkpt lat="47.52037" lon="-2.30253">
        <ele>22.39999961853</ele>
        <time>2021-07-25T09:56:47.000Z</time>
      </trkpt>
      <trkpt lat="47.5204" lon="-2.3026">
        <ele>21.799999237061</ele>
        <time>2021-07-25T09:56:48.000Z</time>
      </trkpt>
      <trkpt lat="47.52042" lon="-2.30268">
        <ele>21.39999961853</ele>
        <time>2021-07-25T09:56:49.000Z</time>
      </trkpt>
      <trkpt lat="47.52044" lon="-2.30275">
        <ele>20.799999237061</ele>
        <time>2021-07-25T09:56:50.000Z</time>
      </trkpt>
      <trkpt lat="47.52047" lon="-2.30281">
        <ele>20.200000762939</ele>
        <time>2021-07-25T09:56:51.000Z</time>
      </trkpt>
      <trkpt lat="47.52049" lon="-2.30289">
        <ele>19.60000038147</ele>
        <time>2021-07-25T09:56:52.000Z</time>
      </trkpt>
      <trkpt lat="47.52057" lon="-2.30317">
        <ele>19.60000038147</ele>
        <time>2021-07-25T09:56:56.000Z</time>
      </trkpt>
      <trkpt lat="47.52071" lon="-2.30353">
        <ele>19.60000038147</ele>
        <time>2021-07-25T09:57:02.000Z</time>
      </trkpt>
      <trkpt lat="47.52083" lon="-2.3038">
        <ele>19.60000038147</ele>
        <time>2021-07-25T09:57:06.000Z</time>
      </trkpt>
      <trkpt lat="47.52085" lon="-2.30389">
        <ele>19.200000762939</ele>
        <time>2021-07-25T09:57:07.000Z</time>
      </trkpt>
      <trkpt lat="47.52088" lon="-2.30399">
        <ele>18.799999237061</ele>
        <time>2021-07-25T09:57:08.000Z</time>
      </trkpt>
      <trkpt lat="47.52091" lon="-2.30409">
        <ele>18.39999961853</ele>
        <time>2021-07-25T09:57:09.000Z</time>
      </trkpt>
      <trkpt lat="47.52094" lon="-2.3042">
        <ele>18</ele>
        <time>2021-07-25T09:57:10.000Z</time>
      </trkpt>
      <trkpt lat="47.52099" lon="-2.3043">
        <ele>17.39999961853</ele>
        <time>2021-07-25T09:57:11.000Z</time>
      </trkpt>
      <trkpt lat="47.52104" lon="-2.30439">
        <ele>17</ele>
        <time>2021-07-25T09:57:12.000Z</time>
      </trkpt>
      <trkpt lat="47.5211" lon="-2.30446">
        <ele>16.39999961853</ele>
        <time>2021-07-25T09:57:13.000Z</time>
      </trkpt>
      <trkpt lat="47.52117" lon="-2.30453">
        <ele>15.800000190735</ele>
        <time>2021-07-25T09:57:14.000Z</time>
      </trkpt>
      <trkpt lat="47.52124" lon="-2.30457">
        <ele>15.199999809265</ele>
        <time>2021-07-25T09:57:15.000Z</time>
      </trkpt>
      <trkpt lat="47.52132" lon="-2.30461">
        <ele>14.800000190735</ele>
        <time>2021-07-25T09:57:16.000Z</time>
      </trkpt>
      <trkpt lat="47.52139" lon="-2.30463">
        <ele>14.199999809265</ele>
        <time>2021-07-25T09:57:17.000Z</time>
      </trkpt>
      <trkpt lat="47.52145" lon="-2.30465">
        <ele>13.800000190735</ele>
        <time>2021-07-25T09:57:18.000Z</time>
      </trkpt>
      <trkpt lat="47.5215" lon="-2.30468">
        <ele>13.199999809265</ele>
        <time>2021-07-25T09:57:19.000Z</time>
      </trkpt>
      <trkpt lat="47.52154" lon="-2.30473">
        <ele>12.60000038147</ele>
        <time>2021-07-25T09:57:20.000Z</time>
      </trkpt>
      <trkpt lat="47.52157" lon="-2.30479">
        <ele>12</ele>
        <time>2021-07-25T09:57:21.000Z</time>
      </trkpt>
      <trkpt lat="47.52158" lon="-2.30485">
        <ele>11.39999961853</ele>
        <time>2021-07-25T09:57:22.000Z</time>
      </trkpt>
      <trkpt lat="47.52156" lon="-2.30492">
        <ele>10.800000190735</ele>
        <time>2021-07-25T09:57:23.000Z</time>
      </trkpt>
      <trkpt lat="47.52156" lon="-2.30496">
        <ele>10.39999961853</ele>
        <time>2021-07-25T09:57:24.000Z</time>
      </trkpt>
      <trkpt lat="47.52156" lon="-2.30499">
        <ele>10</ele>
        <time>2021-07-25T09:57:25.000Z</time>
      </trkpt>
      <trkpt lat="47.52158" lon="-2.305">
        <ele>9.3999996185303</ele>
        <time>2021-07-25T09:57:26.000Z</time>
      </trkpt>
      <trkpt lat="47.52161" lon="-2.30501">
        <ele>9</ele>
        <time>2021-07-25T09:57:27.000Z</time>
      </trkpt>
      <trkpt lat="47.52163" lon="-2.30502">
        <ele>8.6000003814697</ele>
        <time>2021-07-25T09:57:28.000Z</time>
      </trkpt>
      <trkpt lat="47.5217" lon="-2.30505">
        <ele>8.6000003814697</ele>
        <time>2021-07-25T09:57:30.000Z</time>
      </trkpt>
      <trkpt lat="47.52185" lon="-2.30513">
        <ele>8.6000003814697</ele>
        <time>2021-07-25T09:57:34.000Z</time>
      </trkpt>
      <trkpt lat="47.52188" lon="-2.30516">
        <ele>8.6000003814697</ele>
        <time>2021-07-25T09:57:35.000Z</time>
      </trkpt>
      <trkpt lat="47.5219" lon="-2.30528">
        <ele>8.6000003814697</ele>
        <time>2021-07-25T09:57:38.000Z</time>
      </trkpt>
      <trkpt lat="47.52189" lon="-2.30532">
        <ele>8.6000003814697</ele>
        <time>2021-07-25T09:57:41.000Z</time>
      </trkpt>
      <trkpt lat="47.52188" lon="-2.30526">
        <ele>6.5999999046326</ele>
        <time>2021-07-25T10:02:38.000Z</time>
      </trkpt>
      <trkpt lat="47.52179" lon="-2.30515">
        <ele>6.5999999046326</ele>
        <time>2021-07-25T10:02:43.000Z</time>
      </trkpt>
      <trkpt lat="47.52164" lon="-2.30505">
        <ele>6.5999999046326</ele>
        <time>2021-07-25T10:02:49.000Z</time>
      </trkpt>
      <trkpt lat="47.52151" lon="-2.30504">
        <ele>6.5999999046326</ele>
        <time>2021-07-25T10:02:54.000Z</time>
      </trkpt>
      <trkpt lat="47.52149" lon="-2.30505">
        <ele>6.5999999046326</ele>
        <time>2021-07-25T10:02:55.000Z</time>
      </trkpt>
      <trkpt lat="47.52137" lon="-2.30518">
        <ele>6.5999999046326</ele>
        <time>2021-07-25T10:03:00.000Z</time>
      </trkpt>
      <trkpt lat="47.52123" lon="-2.30525">
        <ele>6.5999999046326</ele>
        <time>2021-07-25T10:03:05.000Z</time>
      </trkpt>
      <trkpt lat="47.52118" lon="-2.30524">
        <ele>6.5999999046326</ele>
        <time>2021-07-25T10:03:06.000Z</time>
      </trkpt>
      <trkpt lat="47.52107" lon="-2.30518">
        <ele>6.5999999046326</ele>
        <time>2021-07-25T10:03:09.000Z</time>
      </trkpt>
      <trkpt lat="47.52092" lon="-2.30514">
        <ele>6.5999999046326</ele>
        <time>2021-07-25T10:03:13.000Z</time>
      </trkpt>
      <trkpt lat="47.52089" lon="-2.30516">
        <ele>6.5999999046326</ele>
        <time>2021-07-25T10:03:14.000Z</time>
      </trkpt>
      <trkpt lat="47.5209" lon="-2.3053">
        <ele>6.5999999046326</ele>
        <time>2021-07-25T10:03:17.000Z</time>
      </trkpt>
      <trkpt lat="47.52091" lon="-2.30534">
        <ele>6.5999999046326</ele>
        <time>2021-07-25T10:03:18.000Z</time>
      </trkpt>
      <trkpt lat="47.52095" lon="-2.30549">
        <ele>6.5999999046326</ele>
        <time>2021-07-25T10:03:21.000Z</time>
      </trkpt>
      <trkpt lat="47.52094" lon="-2.30553">
        <ele>6.5999999046326</ele>
        <time>2021-07-25T10:03:22.000Z</time>
      </trkpt>
      <trkpt lat="47.52087" lon="-2.3056">
        <ele>6.5999999046326</ele>
        <time>2021-07-25T10:03:25.000Z</time>
      </trkpt>
      <trkpt lat="47.52086" lon="-2.30562">
        <ele>6.5999999046326</ele>
        <time>2021-07-25T10:03:26.000Z</time>
      </trkpt>
      <trkpt lat="47.52072" lon="-2.30572">
        <ele>6.5999999046326</ele>
        <time>2021-07-25T10:03:31.000Z</time>
      </trkpt>
      <trkpt lat="47.52052" lon="-2.30576">
        <ele>6.5999999046326</ele>
        <time>2021-07-25T10:03:37.000Z</time>
      </trkpt>
      <trkpt lat="47.52045" lon="-2.30569">
        <ele>6.5999999046326</ele>
        <time>2021-07-25T10:03:42.000Z</time>
      </trkpt>
      <trkpt lat="47.52039" lon="-2.30552">
        <ele>6.5999999046326</ele>
        <time>2021-07-25T10:03:47.000Z</time>
      </trkpt>
      <trkpt lat="47.52037" lon="-2.30519">
        <ele>6.5999999046326</ele>
        <time>2021-07-25T10:03:53.000Z</time>
      </trkpt>
      <trkpt lat="47.52035" lon="-2.30499">
        <ele>6.5999999046326</ele>
        <time>2021-07-25T10:03:58.000Z</time>
      </trkpt>
      <trkpt lat="47.52018" lon="-2.30499">
        <ele>6.5999999046326</ele>
        <time>2021-07-25T10:04:02.000Z</time>
      </trkpt>
      <trkpt lat="47.5201" lon="-2.30504">
        <ele>6.5999999046326</ele>
        <time>2021-07-25T10:04:04.000Z</time>
      </trkpt>
      <trkpt lat="47.51996" lon="-2.30513">
        <ele>6.5999999046326</ele>
        <time>2021-07-25T10:04:08.000Z</time>
      </trkpt>
      <trkpt lat="47.51976" lon="-2.30525">
        <ele>6.5999999046326</ele>
        <time>2021-07-25T10:04:14.000Z</time>
      </trkpt>
      <trkpt lat="47.51971" lon="-2.30525">
        <ele>6.5999999046326</ele>
        <time>2021-07-25T10:04:17.000Z</time>
      </trkpt>
      <trkpt lat="47.51968" lon="-2.30525">
        <ele>6.5999999046326</ele>
        <time>2021-07-25T10:04:19.000Z</time>
      </trkpt>
      <trkpt lat="47.51957" lon="-2.30519">
        <ele>6.5999999046326</ele>
        <time>2021-07-25T10:04:24.000Z</time>
      </trkpt>
      <trkpt lat="47.5194" lon="-2.30525">
        <ele>6.5999999046326</ele>
        <time>2021-07-25T10:04:30.000Z</time>
      </trkpt>
      <trkpt lat="47.51919" lon="-2.30538">
        <ele>6.5999999046326</ele>
        <time>2021-07-25T10:04:37.000Z</time>
      </trkpt>
      <trkpt lat="47.51911" lon="-2.30544">
        <ele>6.5999999046326</ele>
        <time>2021-07-25T10:04:41.000Z</time>
      </trkpt>
      <trkpt lat="47.5191" lon="-2.30544">
        <ele>6.5999999046326</ele>
        <time>2021-07-25T10:04:42.000Z</time>
      </trkpt>
      <trkpt lat="47.51896" lon="-2.30555">
        <ele>6.5999999046326</ele>
        <time>2021-07-25T10:04:46.000Z</time>
      </trkpt>
      <trkpt lat="47.51879" lon="-2.30566">
        <ele>7</ele>
        <time>2021-07-25T10:04:52.000Z</time>
      </trkpt>
      <trkpt lat="47.51878" lon="-2.30567">
        <ele>7.4000000953674</ele>
        <time>2021-07-25T10:04:53.000Z</time>
      </trkpt>
      <trkpt lat="47.51877" lon="-2.30568">
        <ele>8</ele>
        <time>2021-07-25T10:04:54.000Z</time>
      </trkpt>
      <trkpt lat="47.51876" lon="-2.3057">
        <ele>8.3999996185303</ele>
        <time>2021-07-25T10:04:55.000Z</time>
      </trkpt>
      <trkpt lat="47.51876" lon="-2.30571">
        <ele>8.8000001907349</ele>
        <time>2021-07-25T10:04:56.000Z</time>
      </trkpt>
      <trkpt lat="47.51875" lon="-2.30571">
        <ele>8.8000001907349</ele>
        <time>2021-07-25T10:04:57.000Z</time>
      </trkpt>
      <trkpt lat="47.51871" lon="-2.30563">
        <ele>8.8000001907349</ele>
        <time>2021-07-25T10:05:11.000Z</time>
      </trkpt>
      <trkpt lat="47.5187" lon="-2.30556">
        <ele>8.8000001907349</ele>
        <time>2021-07-25T10:05:13.000Z</time>
      </trkpt>
      <trkpt lat="47.5187" lon="-2.30552">
        <ele>9.1999998092651</ele>
        <time>2021-07-25T10:05:14.000Z</time>
      </trkpt>
      <trkpt lat="47.51868" lon="-2.30548">
        <ele>9.6000003814697</ele>
        <time>2021-07-25T10:05:15.000Z</time>
      </trkpt>
      <trkpt lat="47.51866" lon="-2.30545">
        <ele>10</ele>
        <time>2021-07-25T10:05:16.000Z</time>
      </trkpt>
      <trkpt lat="47.51865" lon="-2.30541">
        <ele>10.39999961853</ele>
        <time>2021-07-25T10:05:17.000Z</time>
      </trkpt>
      <trkpt lat="47.51863" lon="-2.30538">
        <ele>10.800000190735</ele>
        <time>2021-07-25T10:05:18.000Z</time>
      </trkpt>
      <trkpt lat="47.5186" lon="-2.30527">
        <ele>11.800000190735</ele>
        <time>2021-07-25T10:05:21.000Z</time>
      </trkpt>
      <trkpt lat="47.51859" lon="-2.30523">
        <ele>12.199999809265</ele>
        <time>2021-07-25T10:05:22.000Z</time>
      </trkpt>
      <trkpt lat="47.51859" lon="-2.30519">
        <ele>12.60000038147</ele>
        <time>2021-07-25T10:05:23.000Z</time>
      </trkpt>
      <trkpt lat="47.51859" lon="-2.30515">
        <ele>13.199999809265</ele>
        <time>2021-07-25T10:05:24.000Z</time>
      </trkpt>
      <trkpt lat="47.51857" lon="-2.30508">
        <ele>13.60000038147</ele>
        <time>2021-07-25T10:05:26.000Z</time>
      </trkpt>
      <trkpt lat="47.51857" lon="-2.30504">
        <ele>14</ele>
        <time>2021-07-25T10:05:27.000Z</time>
      </trkpt>
      <trkpt lat="47.51856" lon="-2.30501">
        <ele>14.39999961853</ele>
        <time>2021-07-25T10:05:28.000Z</time>
      </trkpt>
      <trkpt lat="47.51856" lon="-2.30497">
        <ele>14.800000190735</ele>
        <time>2021-07-25T10:05:29.000Z</time>
      </trkpt>
      <trkpt lat="47.51856" lon="-2.30493">
        <ele>15.39999961853</ele>
        <time>2021-07-25T10:05:30.000Z</time>
      </trkpt>
      <trkpt lat="47.51856" lon="-2.30486">
        <ele>15.800000190735</ele>
        <time>2021-07-25T10:05:32.000Z</time>
      </trkpt>
      <trkpt lat="47.51855" lon="-2.30483">
        <ele>16.200000762939</ele>
        <time>2021-07-25T10:05:33.000Z</time>
      </trkpt>
      <trkpt lat="47.51856" lon="-2.30479">
        <ele>16.60000038147</ele>
        <time>2021-07-25T10:05:34.000Z</time>
      </trkpt>
      <trkpt lat="47.51856" lon="-2.30476">
        <ele>17</ele>
        <time>2021-07-25T10:05:35.000Z</time>
      </trkpt>
      <trkpt lat="47.51857" lon="-2.30472">
        <ele>17.39999961853</ele>
        <time>2021-07-25T10:05:36.000Z</time>
      </trkpt>
      <trkpt lat="47.51858" lon="-2.30465">
        <ele>17.799999237061</ele>
        <time>2021-07-25T10:05:38.000Z</time>
      </trkpt>
      <trkpt lat="47.51858" lon="-2.30462">
        <ele>18.200000762939</ele>
        <time>2021-07-25T10:05:39.000Z</time>
      </trkpt>
      <trkpt lat="47.51858" lon="-2.3046">
        <ele>18.60000038147</ele>
        <time>2021-07-25T10:05:40.000Z</time>
      </trkpt>
      <trkpt lat="47.51858" lon="-2.30457">
        <ele>19</ele>
        <time>2021-07-25T10:05:41.000Z</time>
      </trkpt>
      <trkpt lat="47.51858" lon="-2.30453">
        <ele>19.60000038147</ele>
        <time>2021-07-25T10:05:42.000Z</time>
      </trkpt>
      <trkpt lat="47.51858" lon="-2.30451">
        <ele>19.60000038147</ele>
        <time>2021-07-25T10:05:43.000Z</time>
      </trkpt>
      <trkpt lat="47.51858" lon="-2.30445">
        <ele>20.39999961853</ele>
        <time>2021-07-25T10:05:45.000Z</time>
      </trkpt>
      <trkpt lat="47.51858" lon="-2.30441">
        <ele>20.799999237061</ele>
        <time>2021-07-25T10:05:46.000Z</time>
      </trkpt>
      <trkpt lat="47.51858" lon="-2.30439">
        <ele>21.200000762939</ele>
        <time>2021-07-25T10:05:47.000Z</time>
      </trkpt>
      <trkpt lat="47.51857" lon="-2.30436">
        <ele>21.799999237061</ele>
        <time>2021-07-25T10:05:48.000Z</time>
      </trkpt>
      <trkpt lat="47.51856" lon="-2.30431">
        <ele>21.799999237061</ele>
        <time>2021-07-25T10:05:50.000Z</time>
      </trkpt>
      <trkpt lat="47.51852" lon="-2.30432">
        <ele>22.200000762939</ele>
        <time>2021-07-25T10:05:52.000Z</time>
      </trkpt>
      <trkpt lat="47.51851" lon="-2.30436">
        <ele>22.60000038147</ele>
        <time>2021-07-25T10:05:53.000Z</time>
      </trkpt>
      <trkpt lat="47.5185" lon="-2.3044">
        <ele>23</ele>
        <time>2021-07-25T10:05:54.000Z</time>
      </trkpt>
      <trkpt lat="47.5185" lon="-2.30445">
        <ele>23.60000038147</ele>
        <time>2021-07-25T10:05:55.000Z</time>
      </trkpt>
      <trkpt lat="47.5185" lon="-2.30451">
        <ele>24</ele>
        <time>2021-07-25T10:05:56.000Z</time>
      </trkpt>
      <trkpt lat="47.51849" lon="-2.3047">
        <ele>24</ele>
        <time>2021-07-25T10:05:59.000Z</time>
      </trkpt>
      <trkpt lat="47.51849" lon="-2.30478">
        <ele>24</ele>
        <time>2021-07-25T10:06:00.000Z</time>
      </trkpt>
      <trkpt lat="47.51847" lon="-2.30518">
        <ele>24</ele>
        <time>2021-07-25T10:06:05.000Z</time>
      </trkpt>
      <trkpt lat="47.51846" lon="-2.30525">
        <ele>24</ele>
        <time>2021-07-25T10:06:06.000Z</time>
      </trkpt>
      <trkpt lat="47.5184" lon="-2.30535">
        <ele>24</ele>
        <time>2021-07-25T10:06:08.000Z</time>
      </trkpt>
      <trkpt lat="47.51837" lon="-2.30538">
        <ele>23.60000038147</ele>
        <time>2021-07-25T10:06:09.000Z</time>
      </trkpt>
      <trkpt lat="47.51834" lon="-2.3054">
        <ele>22.799999237061</ele>
        <time>2021-07-25T10:06:10.000Z</time>
      </trkpt>
      <trkpt lat="47.51832" lon="-2.30543">
        <ele>22.200000762939</ele>
        <time>2021-07-25T10:06:11.000Z</time>
      </trkpt>
      <trkpt lat="47.5183" lon="-2.30545">
        <ele>21.799999237061</ele>
        <time>2021-07-25T10:06:12.000Z</time>
      </trkpt>
      <trkpt lat="47.51828" lon="-2.30545">
        <ele>21.799999237061</ele>
        <time>2021-07-25T10:06:15.000Z</time>
      </trkpt>
      <trkpt lat="47.51827" lon="-2.30543">
        <ele>21.799999237061</ele>
        <time>2021-07-25T10:06:25.000Z</time>
      </trkpt>
      <trkpt lat="47.51821" lon="-2.30525">
        <ele>21.799999237061</ele>
        <time>2021-07-25T10:06:31.000Z</time>
      </trkpt>
      <trkpt lat="47.51815" lon="-2.30495">
        <ele>21.39999961853</ele>
        <time>2021-07-25T10:06:37.000Z</time>
      </trkpt>
      <trkpt lat="47.51813" lon="-2.30488">
        <ele>21</ele>
        <time>2021-07-25T10:06:38.000Z</time>
      </trkpt>
      <trkpt lat="47.51812" lon="-2.30482">
        <ele>20.60000038147</ele>
        <time>2021-07-25T10:06:39.000Z</time>
      </trkpt>
      <trkpt lat="47.51811" lon="-2.30476">
        <ele>20.200000762939</ele>
        <time>2021-07-25T10:06:40.000Z</time>
      </trkpt>
      <trkpt lat="47.51809" lon="-2.30469">
        <ele>19.799999237061</ele>
        <time>2021-07-25T10:06:41.000Z</time>
      </trkpt>
      <trkpt lat="47.51803" lon="-2.30441">
        <ele>19.799999237061</ele>
        <time>2021-07-25T10:06:45.000Z</time>
      </trkpt>
      <trkpt lat="47.51793" lon="-2.30391">
        <ele>19.39999961853</ele>
        <time>2021-07-25T10:06:51.000Z</time>
      </trkpt>
      <trkpt lat="47.51792" lon="-2.30382">
        <ele>19</ele>
        <time>2021-07-25T10:06:52.000Z</time>
      </trkpt>
      <trkpt lat="47.51792" lon="-2.30373">
        <ele>18.60000038147</ele>
        <time>2021-07-25T10:06:53.000Z</time>
      </trkpt>
      <trkpt lat="47.51791" lon="-2.30363">
        <ele>18.200000762939</ele>
        <time>2021-07-25T10:06:54.000Z</time>
      </trkpt>
      <trkpt lat="47.51791" lon="-2.30353">
        <ele>17.799999237061</ele>
        <time>2021-07-25T10:06:55.000Z</time>
      </trkpt>
      <trkpt lat="47.51787" lon="-2.30327">
        <ele>17.799999237061</ele>
        <time>2021-07-25T10:06:58.000Z</time>
      </trkpt>
      <trkpt lat="47.5178" lon="-2.30302">
        <ele>17.39999961853</ele>
        <time>2021-07-25T10:07:01.000Z</time>
      </trkpt>
      <trkpt lat="47.51777" lon="-2.30294">
        <ele>17</ele>
        <time>2021-07-25T10:07:02.000Z</time>
      </trkpt>
      <trkpt lat="47.51775" lon="-2.30285">
        <ele>16.39999961853</ele>
        <time>2021-07-25T10:07:03.000Z</time>
      </trkpt>
      <trkpt lat="47.51774" lon="-2.30277">
        <ele>16</ele>
        <time>2021-07-25T10:07:04.000Z</time>
      </trkpt>
      <trkpt lat="47.51774" lon="-2.30267">
        <ele>15.60000038147</ele>
        <time>2021-07-25T10:07:05.000Z</time>
      </trkpt>
      <trkpt lat="47.51772" lon="-2.30249">
        <ele>15.60000038147</ele>
        <time>2021-07-25T10:07:07.000Z</time>
      </trkpt>
      <trkpt lat="47.51769" lon="-2.30229">
        <ele>15.60000038147</ele>
        <time>2021-07-25T10:07:09.000Z</time>
      </trkpt>
      <trkpt lat="47.51762" lon="-2.30213">
        <ele>15.199999809265</ele>
        <time>2021-07-25T10:07:11.000Z</time>
      </trkpt>
      <trkpt lat="47.51758" lon="-2.30207">
        <ele>14.800000190735</ele>
        <time>2021-07-25T10:07:12.000Z</time>
      </trkpt>
      <trkpt lat="47.51756" lon="-2.30205">
        <ele>14.39999961853</ele>
        <time>2021-07-25T10:07:13.000Z</time>
      </trkpt>
      <trkpt lat="47.51754" lon="-2.30205">
        <ele>14</ele>
        <time>2021-07-25T10:07:14.000Z</time>
      </trkpt>
      <trkpt lat="47.51753" lon="-2.30207">
        <ele>13.60000038147</ele>
        <time>2021-07-25T10:07:15.000Z</time>
      </trkpt>
      <trkpt lat="47.51753" lon="-2.30209">
        <ele>13.199999809265</ele>
        <time>2021-07-25T10:07:16.000Z</time>
      </trkpt>
      <trkpt lat="47.51753" lon="-2.30212">
        <ele>12.60000038147</ele>
        <time>2021-07-25T10:07:17.000Z</time>
      </trkpt>
      <trkpt lat="47.51755" lon="-2.30216">
        <ele>12.199999809265</ele>
        <time>2021-07-25T10:07:18.000Z</time>
      </trkpt>
      <trkpt lat="47.51755" lon="-2.30219">
        <ele>11.800000190735</ele>
        <time>2021-07-25T10:07:19.000Z</time>
      </trkpt>
      <trkpt lat="47.51755" lon="-2.30222">
        <ele>11.199999809265</ele>
        <time>2021-07-25T10:07:20.000Z</time>
      </trkpt>
      <trkpt lat="47.51752" lon="-2.30222">
        <ele>11.199999809265</ele>
        <time>2021-07-25T10:07:22.000Z</time>
      </trkpt>
      <trkpt lat="47.51742" lon="-2.30219">
        <ele>10.800000190735</ele>
        <time>2021-07-25T10:07:26.000Z</time>
      </trkpt>
      <trkpt lat="47.5174" lon="-2.30223">
        <ele>10.39999961853</ele>
        <time>2021-07-25T10:07:27.000Z</time>
      </trkpt>
      <trkpt lat="47.51739" lon="-2.30227">
        <ele>10</ele>
        <time>2021-07-25T10:07:28.000Z</time>
      </trkpt>
      <trkpt lat="47.51738" lon="-2.30233">
        <ele>9.6000003814697</ele>
        <time>2021-07-25T10:07:29.000Z</time>
      </trkpt>
      <trkpt lat="47.51737" lon="-2.30239">
        <ele>9.1999998092651</ele>
        <time>2021-07-25T10:07:30.000Z</time>
      </trkpt>
      <trkpt lat="47.51736" lon="-2.30245">
        <ele>9.1999998092651</ele>
        <time>2021-07-25T10:07:31.000Z</time>
      </trkpt>
      <trkpt lat="47.51734" lon="-2.30263">
        <ele>9.1999998092651</ele>
        <time>2021-07-25T10:07:34.000Z</time>
      </trkpt>
      <trkpt lat="47.51733" lon="-2.30265">
        <ele>9.1999998092651</ele>
        <time>2021-07-25T10:07:36.000Z</time>
      </trkpt>
      <trkpt lat="47.51733" lon="-2.30269">
        <ele>8.6000003814697</ele>
        <time>2021-07-25T10:07:56.000Z</time>
      </trkpt>
      <trkpt lat="47.51732" lon="-2.30271">
        <ele>8.6000003814697</ele>
        <time>2021-07-25T10:07:57.000Z</time>
      </trkpt>
      <trkpt lat="47.51732" lon="-2.30271">
        <ele>8.6000003814697</ele>
        <time>2021-07-25T10:07:58.000Z</time>
      </trkpt>
    </trkseg>
  </trk>
</gpx>